<?xml version="1.0" encoding="UTF-8" standalone="no" ?>
<gpx xmlns="http://www.topografix.com/GPX/1/1" xmlns:xsi="http://www.w3.org/2001/XMLSchema-instance" xsi:schemaLocation="http://www.topografix.com/GPX/1/1 http://www.topografix.com/GPX/1/1/gpx.xsd" version="1.1" creator="VisuGPX - https://www.visugpx.com">
  <metadata>
    <name>2016-05-15 07:03:06 [Suunto App]</name>
  </metadata>
  <trk>
    <name><![CDATA[2016-05-15 07:03:06 [Suunto App]_1]]></name>
    <trkseg>
      <trkpt lat="45.04227" lon="6.04396">
        <ele>719</ele>
        <time>2016-05-15T05:03:06Z</time>
      </trkpt>
      <trkpt lat="45.04237" lon="6.044">
        <ele>750</ele>
        <time>2016-05-15T05:03:14Z</time>
      </trkpt>
      <trkpt lat="45.04239" lon="6.04386">
        <ele>750</ele>
        <time>2016-05-15T05:03:19Z</time>
      </trkpt>
      <trkpt lat="45.04239" lon="6.04382">
        <ele>750</ele>
        <time>2016-05-15T05:03:20Z</time>
      </trkpt>
      <trkpt lat="45.04237" lon="6.04377">
        <ele>750</ele>
        <time>2016-05-15T05:03:21Z</time>
      </trkpt>
      <trkpt lat="45.04236" lon="6.04372">
        <ele>750</ele>
        <time>2016-05-15T05:03:22Z</time>
      </trkpt>
      <trkpt lat="45.04235" lon="6.04367">
        <ele>750</ele>
        <time>2016-05-15T05:03:23Z</time>
      </trkpt>
      <trkpt lat="45.04233" lon="6.04362">
        <ele>750</ele>
        <time>2016-05-15T05:03:24Z</time>
      </trkpt>
      <trkpt lat="45.04232" lon="6.04357">
        <ele>750</ele>
        <time>2016-05-15T05:03:25Z</time>
      </trkpt>
      <trkpt lat="45.0423" lon="6.04352">
        <ele>750</ele>
        <time>2016-05-15T05:03:26Z</time>
      </trkpt>
      <trkpt lat="45.04229" lon="6.04346">
        <ele>750</ele>
        <time>2016-05-15T05:03:27Z</time>
      </trkpt>
      <trkpt lat="45.04227" lon="6.0434">
        <ele>750</ele>
        <time>2016-05-15T05:03:28Z</time>
      </trkpt>
      <trkpt lat="45.04226" lon="6.04334">
        <ele>750</ele>
        <time>2016-05-15T05:03:29Z</time>
      </trkpt>
      <trkpt lat="45.04224" lon="6.04328">
        <ele>750</ele>
        <time>2016-05-15T05:03:30Z</time>
      </trkpt>
      <trkpt lat="45.04222" lon="6.04323">
        <ele>750</ele>
        <time>2016-05-15T05:03:31Z</time>
      </trkpt>
      <trkpt lat="45.0422" lon="6.04316">
        <ele>750</ele>
        <time>2016-05-15T05:03:32Z</time>
      </trkpt>
      <trkpt lat="45.04218" lon="6.0431">
        <ele>750</ele>
        <time>2016-05-15T05:03:33Z</time>
      </trkpt>
      <trkpt lat="45.04216" lon="6.04304">
        <ele>750</ele>
        <time>2016-05-15T05:03:34Z</time>
      </trkpt>
      <trkpt lat="45.04215" lon="6.04297">
        <ele>750</ele>
        <time>2016-05-15T05:03:35Z</time>
      </trkpt>
      <trkpt lat="45.04214" lon="6.0429">
        <ele>750</ele>
        <time>2016-05-15T05:03:36Z</time>
      </trkpt>
      <trkpt lat="45.04213" lon="6.04284">
        <ele>750</ele>
        <time>2016-05-15T05:03:37Z</time>
      </trkpt>
      <trkpt lat="45.04212" lon="6.04278">
        <ele>750</ele>
        <time>2016-05-15T05:03:38Z</time>
      </trkpt>
      <trkpt lat="45.04209" lon="6.04273">
        <ele>750</ele>
        <time>2016-05-15T05:03:39Z</time>
      </trkpt>
      <trkpt lat="45.04206" lon="6.04269">
        <ele>750</ele>
        <time>2016-05-15T05:03:40Z</time>
      </trkpt>
      <trkpt lat="45.04202" lon="6.04266">
        <ele>750</ele>
        <time>2016-05-15T05:03:41Z</time>
      </trkpt>
      <trkpt lat="45.04197" lon="6.04264">
        <ele>750</ele>
        <time>2016-05-15T05:03:42Z</time>
      </trkpt>
      <trkpt lat="45.04192" lon="6.04263">
        <ele>750</ele>
        <time>2016-05-15T05:03:43Z</time>
      </trkpt>
      <trkpt lat="45.04187" lon="6.04261">
        <ele>750</ele>
        <time>2016-05-15T05:03:44Z</time>
      </trkpt>
      <trkpt lat="45.04182" lon="6.0426">
        <ele>750</ele>
        <time>2016-05-15T05:03:45Z</time>
      </trkpt>
      <trkpt lat="45.04176" lon="6.04259">
        <ele>750</ele>
        <time>2016-05-15T05:03:46Z</time>
      </trkpt>
      <trkpt lat="45.04171" lon="6.04258">
        <ele>750</ele>
        <time>2016-05-15T05:03:47Z</time>
      </trkpt>
      <trkpt lat="45.04165" lon="6.04257">
        <ele>750</ele>
        <time>2016-05-15T05:03:48Z</time>
      </trkpt>
      <trkpt lat="45.0416" lon="6.04255">
        <ele>750</ele>
        <time>2016-05-15T05:03:49Z</time>
      </trkpt>
      <trkpt lat="45.04154" lon="6.04254">
        <ele>750</ele>
        <time>2016-05-15T05:03:50Z</time>
      </trkpt>
      <trkpt lat="45.04148" lon="6.04252">
        <ele>750</ele>
        <time>2016-05-15T05:03:51Z</time>
      </trkpt>
      <trkpt lat="45.04142" lon="6.0425">
        <ele>750</ele>
        <time>2016-05-15T05:03:52Z</time>
      </trkpt>
      <trkpt lat="45.04137" lon="6.04248">
        <ele>750</ele>
        <time>2016-05-15T05:03:53Z</time>
      </trkpt>
      <trkpt lat="45.04131" lon="6.04246">
        <ele>750</ele>
        <time>2016-05-15T05:03:54Z</time>
      </trkpt>
      <trkpt lat="45.04125" lon="6.04244">
        <ele>750</ele>
        <time>2016-05-15T05:03:55Z</time>
      </trkpt>
      <trkpt lat="45.04119" lon="6.04242">
        <ele>750</ele>
        <time>2016-05-15T05:03:56Z</time>
      </trkpt>
      <trkpt lat="45.04113" lon="6.0424">
        <ele>750</ele>
        <time>2016-05-15T05:03:57Z</time>
      </trkpt>
      <trkpt lat="45.04107" lon="6.04238">
        <ele>750</ele>
        <time>2016-05-15T05:03:58Z</time>
      </trkpt>
      <trkpt lat="45.04101" lon="6.04235">
        <ele>750</ele>
        <time>2016-05-15T05:03:59Z</time>
      </trkpt>
      <trkpt lat="45.04095" lon="6.04233">
        <ele>750</ele>
        <time>2016-05-15T05:04:00Z</time>
      </trkpt>
      <trkpt lat="45.04083" lon="6.04229">
        <ele>750</ele>
        <time>2016-05-15T05:04:02Z</time>
      </trkpt>
      <trkpt lat="45.04077" lon="6.04226">
        <ele>750</ele>
        <time>2016-05-15T05:04:03Z</time>
      </trkpt>
      <trkpt lat="45.04071" lon="6.04223">
        <ele>750</ele>
        <time>2016-05-15T05:04:04Z</time>
      </trkpt>
      <trkpt lat="45.04059" lon="6.04216">
        <ele>750</ele>
        <time>2016-05-15T05:04:06Z</time>
      </trkpt>
      <trkpt lat="45.04049" lon="6.04205">
        <ele>750</ele>
        <time>2016-05-15T05:04:08Z</time>
      </trkpt>
      <trkpt lat="45.04039" lon="6.04193">
        <ele>750</ele>
        <time>2016-05-15T05:04:10Z</time>
      </trkpt>
      <trkpt lat="45.04031" lon="6.0418">
        <ele>750</ele>
        <time>2016-05-15T05:04:12Z</time>
      </trkpt>
      <trkpt lat="45.04022" lon="6.04168">
        <ele>750</ele>
        <time>2016-05-15T05:04:14Z</time>
      </trkpt>
      <trkpt lat="45.04011" lon="6.0416">
        <ele>750</ele>
        <time>2016-05-15T05:04:16Z</time>
      </trkpt>
      <trkpt lat="45.03999" lon="6.04155">
        <ele>750</ele>
        <time>2016-05-15T05:04:18Z</time>
      </trkpt>
      <trkpt lat="45.03988" lon="6.0415">
        <ele>750</ele>
        <time>2016-05-15T05:04:20Z</time>
      </trkpt>
      <trkpt lat="45.03979" lon="6.04141">
        <ele>750</ele>
        <time>2016-05-15T05:04:22Z</time>
      </trkpt>
      <trkpt lat="45.03973" lon="6.04128">
        <ele>750</ele>
        <time>2016-05-15T05:04:24Z</time>
      </trkpt>
      <trkpt lat="45.03972" lon="6.04111">
        <ele>750</ele>
        <time>2016-05-15T05:04:26Z</time>
      </trkpt>
      <trkpt lat="45.03973" lon="6.04095">
        <ele>750</ele>
        <time>2016-05-15T05:04:28Z</time>
      </trkpt>
      <trkpt lat="45.03974" lon="6.0408">
        <ele>750</ele>
        <time>2016-05-15T05:04:30Z</time>
      </trkpt>
      <trkpt lat="45.03974" lon="6.04065">
        <ele>750</ele>
        <time>2016-05-15T05:04:32Z</time>
      </trkpt>
      <trkpt lat="45.03969" lon="6.04052">
        <ele>750</ele>
        <time>2016-05-15T05:04:34Z</time>
      </trkpt>
      <trkpt lat="45.03961" lon="6.0404">
        <ele>750</ele>
        <time>2016-05-15T05:04:36Z</time>
      </trkpt>
      <trkpt lat="45.03955" lon="6.04028">
        <ele>750</ele>
        <time>2016-05-15T05:04:38Z</time>
      </trkpt>
      <trkpt lat="45.03947" lon="6.04019">
        <ele>750</ele>
        <time>2016-05-15T05:04:40Z</time>
      </trkpt>
      <trkpt lat="45.03935" lon="6.04017">
        <ele>750</ele>
        <time>2016-05-15T05:04:42Z</time>
      </trkpt>
      <trkpt lat="45.03924" lon="6.0402">
        <ele>750</ele>
        <time>2016-05-15T05:04:44Z</time>
      </trkpt>
      <trkpt lat="45.03913" lon="6.04023">
        <ele>750</ele>
        <time>2016-05-15T05:04:46Z</time>
      </trkpt>
      <trkpt lat="45.03902" lon="6.04027">
        <ele>750</ele>
        <time>2016-05-15T05:04:48Z</time>
      </trkpt>
      <trkpt lat="45.0389" lon="6.04032">
        <ele>750</ele>
        <time>2016-05-15T05:04:50Z</time>
      </trkpt>
      <trkpt lat="45.03878" lon="6.04035">
        <ele>750</ele>
        <time>2016-05-15T05:04:52Z</time>
      </trkpt>
      <trkpt lat="45.03866" lon="6.04038">
        <ele>750</ele>
        <time>2016-05-15T05:04:54Z</time>
      </trkpt>
      <trkpt lat="45.03855" lon="6.04041">
        <ele>750</ele>
        <time>2016-05-15T05:04:56Z</time>
      </trkpt>
      <trkpt lat="45.03843" lon="6.04044">
        <ele>750</ele>
        <time>2016-05-15T05:04:58Z</time>
      </trkpt>
      <trkpt lat="45.03831" lon="6.04048">
        <ele>750</ele>
        <time>2016-05-15T05:05:00Z</time>
      </trkpt>
      <trkpt lat="45.03819" lon="6.04049">
        <ele>750</ele>
        <time>2016-05-15T05:05:02Z</time>
      </trkpt>
      <trkpt lat="45.03808" lon="6.04051">
        <ele>750</ele>
        <time>2016-05-15T05:05:04Z</time>
      </trkpt>
      <trkpt lat="45.03797" lon="6.04055">
        <ele>750</ele>
        <time>2016-05-15T05:05:06Z</time>
      </trkpt>
      <trkpt lat="45.03787" lon="6.04061">
        <ele>750</ele>
        <time>2016-05-15T05:05:08Z</time>
      </trkpt>
      <trkpt lat="45.03776" lon="6.04069">
        <ele>750</ele>
        <time>2016-05-15T05:05:10Z</time>
      </trkpt>
      <trkpt lat="45.03765" lon="6.04078">
        <ele>750</ele>
        <time>2016-05-15T05:05:12Z</time>
      </trkpt>
      <trkpt lat="45.0376" lon="6.04083">
        <ele>750</ele>
        <time>2016-05-15T05:05:13Z</time>
      </trkpt>
      <trkpt lat="45.03755" lon="6.04087">
        <ele>750</ele>
        <time>2016-05-15T05:05:14Z</time>
      </trkpt>
      <trkpt lat="45.0375" lon="6.04093">
        <ele>750</ele>
        <time>2016-05-15T05:05:15Z</time>
      </trkpt>
      <trkpt lat="45.03746" lon="6.04099">
        <ele>750</ele>
        <time>2016-05-15T05:05:16Z</time>
      </trkpt>
      <trkpt lat="45.03741" lon="6.04104">
        <ele>750</ele>
        <time>2016-05-15T05:05:17Z</time>
      </trkpt>
      <trkpt lat="45.03733" lon="6.04117">
        <ele>750</ele>
        <time>2016-05-15T05:05:19Z</time>
      </trkpt>
      <trkpt lat="45.03726" lon="6.0413">
        <ele>750</ele>
        <time>2016-05-15T05:05:21Z</time>
      </trkpt>
      <trkpt lat="45.03722" lon="6.04137">
        <ele>750</ele>
        <time>2016-05-15T05:05:22Z</time>
      </trkpt>
      <trkpt lat="45.03718" lon="6.04143">
        <ele>750</ele>
        <time>2016-05-15T05:05:23Z</time>
      </trkpt>
      <trkpt lat="45.03714" lon="6.04149">
        <ele>750</ele>
        <time>2016-05-15T05:05:24Z</time>
      </trkpt>
      <trkpt lat="45.03709" lon="6.04154">
        <ele>750</ele>
        <time>2016-05-15T05:05:25Z</time>
      </trkpt>
      <trkpt lat="45.03699" lon="6.04164">
        <ele>750</ele>
        <time>2016-05-15T05:05:27Z</time>
      </trkpt>
      <trkpt lat="45.03688" lon="6.04172">
        <ele>750</ele>
        <time>2016-05-15T05:05:29Z</time>
      </trkpt>
      <trkpt lat="45.03675" lon="6.04182">
        <ele>750</ele>
        <time>2016-05-15T05:05:31Z</time>
      </trkpt>
      <trkpt lat="45.03669" lon="6.04187">
        <ele>750</ele>
        <time>2016-05-15T05:05:32Z</time>
      </trkpt>
      <trkpt lat="45.03664" lon="6.04191">
        <ele>750</ele>
        <time>2016-05-15T05:05:33Z</time>
      </trkpt>
      <trkpt lat="45.03658" lon="6.04196">
        <ele>750</ele>
        <time>2016-05-15T05:05:34Z</time>
      </trkpt>
      <trkpt lat="45.03652" lon="6.042">
        <ele>750</ele>
        <time>2016-05-15T05:05:35Z</time>
      </trkpt>
      <trkpt lat="45.03647" lon="6.04205">
        <ele>750</ele>
        <time>2016-05-15T05:05:36Z</time>
      </trkpt>
      <trkpt lat="45.03641" lon="6.0421">
        <ele>750</ele>
        <time>2016-05-15T05:05:37Z</time>
      </trkpt>
      <trkpt lat="45.03636" lon="6.04215">
        <ele>750</ele>
        <time>2016-05-15T05:05:38Z</time>
      </trkpt>
      <trkpt lat="45.0363" lon="6.0422">
        <ele>750</ele>
        <time>2016-05-15T05:05:39Z</time>
      </trkpt>
      <trkpt lat="45.03625" lon="6.04224">
        <ele>750</ele>
        <time>2016-05-15T05:05:40Z</time>
      </trkpt>
      <trkpt lat="45.03618" lon="6.04228">
        <ele>750</ele>
        <time>2016-05-15T05:05:41Z</time>
      </trkpt>
      <trkpt lat="45.03612" lon="6.04231">
        <ele>750</ele>
        <time>2016-05-15T05:05:42Z</time>
      </trkpt>
      <trkpt lat="45.03607" lon="6.04234">
        <ele>750</ele>
        <time>2016-05-15T05:05:43Z</time>
      </trkpt>
      <trkpt lat="45.03601" lon="6.04237">
        <ele>750</ele>
        <time>2016-05-15T05:05:44Z</time>
      </trkpt>
      <trkpt lat="45.03596" lon="6.04241">
        <ele>750</ele>
        <time>2016-05-15T05:05:45Z</time>
      </trkpt>
      <trkpt lat="45.03585" lon="6.04249">
        <ele>750</ele>
        <time>2016-05-15T05:05:47Z</time>
      </trkpt>
      <trkpt lat="45.03574" lon="6.0426">
        <ele>750</ele>
        <time>2016-05-15T05:05:49Z</time>
      </trkpt>
      <trkpt lat="45.03565" lon="6.04273">
        <ele>750</ele>
        <time>2016-05-15T05:05:51Z</time>
      </trkpt>
      <trkpt lat="45.03558" lon="6.04287">
        <ele>750</ele>
        <time>2016-05-15T05:05:53Z</time>
      </trkpt>
      <trkpt lat="45.03553" lon="6.04302">
        <ele>750</ele>
        <time>2016-05-15T05:05:55Z</time>
      </trkpt>
      <trkpt lat="45.03549" lon="6.04317">
        <ele>750</ele>
        <time>2016-05-15T05:05:57Z</time>
      </trkpt>
      <trkpt lat="45.03546" lon="6.0433">
        <ele>750</ele>
        <time>2016-05-15T05:05:59Z</time>
      </trkpt>
      <trkpt lat="45.03543" lon="6.04349">
        <ele>750</ele>
        <time>2016-05-15T05:06:02Z</time>
      </trkpt>
      <trkpt lat="45.03541" lon="6.04364">
        <ele>750</ele>
        <time>2016-05-15T05:06:04Z</time>
      </trkpt>
      <trkpt lat="45.03536" lon="6.04383">
        <ele>750</ele>
        <time>2016-05-15T05:06:06Z</time>
      </trkpt>
      <trkpt lat="45.03533" lon="6.04399">
        <ele>750</ele>
        <time>2016-05-15T05:06:08Z</time>
      </trkpt>
      <trkpt lat="45.03527" lon="6.04414">
        <ele>750</ele>
        <time>2016-05-15T05:06:10Z</time>
      </trkpt>
      <trkpt lat="45.03519" lon="6.04429">
        <ele>750</ele>
        <time>2016-05-15T05:06:12Z</time>
      </trkpt>
      <trkpt lat="45.03512" lon="6.04441">
        <ele>750</ele>
        <time>2016-05-15T05:06:14Z</time>
      </trkpt>
      <trkpt lat="45.03504" lon="6.0445">
        <ele>750</ele>
        <time>2016-05-15T05:06:16Z</time>
      </trkpt>
      <trkpt lat="45.03497" lon="6.04458">
        <ele>750</ele>
        <time>2016-05-15T05:06:18Z</time>
      </trkpt>
      <trkpt lat="45.03488" lon="6.04465">
        <ele>750</ele>
        <time>2016-05-15T05:06:20Z</time>
      </trkpt>
      <trkpt lat="45.0348" lon="6.04474">
        <ele>754</ele>
        <time>2016-05-15T05:06:22Z</time>
      </trkpt>
      <trkpt lat="45.03471" lon="6.04482">
        <ele>754</ele>
        <time>2016-05-15T05:06:24Z</time>
      </trkpt>
      <trkpt lat="45.03463" lon="6.0449">
        <ele>755</ele>
        <time>2016-05-15T05:06:26Z</time>
      </trkpt>
      <trkpt lat="45.03454" lon="6.04497">
        <ele>755</ele>
        <time>2016-05-15T05:06:28Z</time>
      </trkpt>
      <trkpt lat="45.03445" lon="6.04504">
        <ele>755</ele>
        <time>2016-05-15T05:06:30Z</time>
      </trkpt>
      <trkpt lat="45.03436" lon="6.04509">
        <ele>756</ele>
        <time>2016-05-15T05:06:32Z</time>
      </trkpt>
      <trkpt lat="45.03428" lon="6.04515">
        <ele>756</ele>
        <time>2016-05-15T05:06:34Z</time>
      </trkpt>
      <trkpt lat="45.03415" lon="6.04523">
        <ele>756</ele>
        <time>2016-05-15T05:06:37Z</time>
      </trkpt>
      <trkpt lat="45.03405" lon="6.04528">
        <ele>756</ele>
        <time>2016-05-15T05:06:39Z</time>
      </trkpt>
      <trkpt lat="45.03393" lon="6.0453">
        <ele>756</ele>
        <time>2016-05-15T05:06:41Z</time>
      </trkpt>
      <trkpt lat="45.03382" lon="6.04526">
        <ele>757</ele>
        <time>2016-05-15T05:06:43Z</time>
      </trkpt>
      <trkpt lat="45.03369" lon="6.04526">
        <ele>757</ele>
        <time>2016-05-15T05:06:45Z</time>
      </trkpt>
      <trkpt lat="45.03357" lon="6.04524">
        <ele>757</ele>
        <time>2016-05-15T05:06:47Z</time>
      </trkpt>
      <trkpt lat="45.03343" lon="6.04521">
        <ele>757</ele>
        <time>2016-05-15T05:06:49Z</time>
      </trkpt>
      <trkpt lat="45.0333" lon="6.04521">
        <ele>756</ele>
        <time>2016-05-15T05:06:51Z</time>
      </trkpt>
      <trkpt lat="45.03319" lon="6.04524">
        <ele>756</ele>
        <time>2016-05-15T05:06:53Z</time>
      </trkpt>
      <trkpt lat="45.03307" lon="6.0453">
        <ele>756</ele>
        <time>2016-05-15T05:06:55Z</time>
      </trkpt>
      <trkpt lat="45.03294" lon="6.0454">
        <ele>756</ele>
        <time>2016-05-15T05:06:57Z</time>
      </trkpt>
      <trkpt lat="45.03279" lon="6.04548">
        <ele>756</ele>
        <time>2016-05-15T05:06:59Z</time>
      </trkpt>
      <trkpt lat="45.03264" lon="6.04556">
        <ele>753</ele>
        <time>2016-05-15T05:07:01Z</time>
      </trkpt>
      <trkpt lat="45.0325" lon="6.04562">
        <ele>753</ele>
        <time>2016-05-15T05:07:03Z</time>
      </trkpt>
      <trkpt lat="45.03238" lon="6.04569">
        <ele>753</ele>
        <time>2016-05-15T05:07:05Z</time>
      </trkpt>
      <trkpt lat="45.03227" lon="6.04579">
        <ele>753</ele>
        <time>2016-05-15T05:07:07Z</time>
      </trkpt>
      <trkpt lat="45.03221" lon="6.04594">
        <ele>753</ele>
        <time>2016-05-15T05:07:09Z</time>
      </trkpt>
      <trkpt lat="45.03218" lon="6.04613">
        <ele>755</ele>
        <time>2016-05-15T05:07:11Z</time>
      </trkpt>
      <trkpt lat="45.03216" lon="6.0463">
        <ele>755</ele>
        <time>2016-05-15T05:07:13Z</time>
      </trkpt>
      <trkpt lat="45.03216" lon="6.04646">
        <ele>755</ele>
        <time>2016-05-15T05:07:15Z</time>
      </trkpt>
      <trkpt lat="45.03215" lon="6.04659">
        <ele>755</ele>
        <time>2016-05-15T05:07:17Z</time>
      </trkpt>
      <trkpt lat="45.03208" lon="6.04673">
        <ele>755</ele>
        <time>2016-05-15T05:07:19Z</time>
      </trkpt>
      <trkpt lat="45.032" lon="6.04684">
        <ele>755</ele>
        <time>2016-05-15T05:07:21Z</time>
      </trkpt>
      <trkpt lat="45.03193" lon="6.04692">
        <ele>755</ele>
        <time>2016-05-15T05:07:23Z</time>
      </trkpt>
      <trkpt lat="45.03185" lon="6.04707">
        <ele>755</ele>
        <time>2016-05-15T05:07:25Z</time>
      </trkpt>
      <trkpt lat="45.03179" lon="6.04719">
        <ele>755</ele>
        <time>2016-05-15T05:07:26Z</time>
      </trkpt>
      <trkpt lat="45.03169" lon="6.04736">
        <ele>755</ele>
        <time>2016-05-15T05:07:28Z</time>
      </trkpt>
      <trkpt lat="45.03158" lon="6.0475">
        <ele>754</ele>
        <time>2016-05-15T05:07:30Z</time>
      </trkpt>
      <trkpt lat="45.03149" lon="6.04763">
        <ele>754</ele>
        <time>2016-05-15T05:07:32Z</time>
      </trkpt>
      <trkpt lat="45.03141" lon="6.04779">
        <ele>754</ele>
        <time>2016-05-15T05:07:34Z</time>
      </trkpt>
      <trkpt lat="45.03136" lon="6.04795">
        <ele>754</ele>
        <time>2016-05-15T05:07:36Z</time>
      </trkpt>
      <trkpt lat="45.03128" lon="6.04809">
        <ele>754</ele>
        <time>2016-05-15T05:07:38Z</time>
      </trkpt>
      <trkpt lat="45.03117" lon="6.04819">
        <ele>754</ele>
        <time>2016-05-15T05:07:40Z</time>
      </trkpt>
      <trkpt lat="45.03105" lon="6.04831">
        <ele>754</ele>
        <time>2016-05-15T05:07:42Z</time>
      </trkpt>
      <trkpt lat="45.03093" lon="6.04841">
        <ele>754</ele>
        <time>2016-05-15T05:07:44Z</time>
      </trkpt>
      <trkpt lat="45.03082" lon="6.0485">
        <ele>754</ele>
        <time>2016-05-15T05:07:46Z</time>
      </trkpt>
      <trkpt lat="45.03071" lon="6.04858">
        <ele>754</ele>
        <time>2016-05-15T05:07:48Z</time>
      </trkpt>
      <trkpt lat="45.03059" lon="6.04868">
        <ele>754</ele>
        <time>2016-05-15T05:07:50Z</time>
      </trkpt>
      <trkpt lat="45.03048" lon="6.04878">
        <ele>754</ele>
        <time>2016-05-15T05:07:52Z</time>
      </trkpt>
      <trkpt lat="45.03037" lon="6.04887">
        <ele>754</ele>
        <time>2016-05-15T05:07:54Z</time>
      </trkpt>
      <trkpt lat="45.03025" lon="6.04896">
        <ele>754</ele>
        <time>2016-05-15T05:07:56Z</time>
      </trkpt>
      <trkpt lat="45.03015" lon="6.04904">
        <ele>754</ele>
        <time>2016-05-15T05:07:58Z</time>
      </trkpt>
      <trkpt lat="45.03004" lon="6.04915">
        <ele>754</ele>
        <time>2016-05-15T05:08:00Z</time>
      </trkpt>
      <trkpt lat="45.02995" lon="6.04922">
        <ele>754</ele>
        <time>2016-05-15T05:08:02Z</time>
      </trkpt>
      <trkpt lat="45.02986" lon="6.04929">
        <ele>754</ele>
        <time>2016-05-15T05:08:04Z</time>
      </trkpt>
      <trkpt lat="45.02977" lon="6.0494">
        <ele>754</ele>
        <time>2016-05-15T05:08:06Z</time>
      </trkpt>
      <trkpt lat="45.02968" lon="6.0495">
        <ele>754</ele>
        <time>2016-05-15T05:08:08Z</time>
      </trkpt>
      <trkpt lat="45.02956" lon="6.04961">
        <ele>754</ele>
        <time>2016-05-15T05:08:10Z</time>
      </trkpt>
      <trkpt lat="45.02945" lon="6.04969">
        <ele>755</ele>
        <time>2016-05-15T05:08:12Z</time>
      </trkpt>
      <trkpt lat="45.02934" lon="6.04978">
        <ele>755</ele>
        <time>2016-05-15T05:08:14Z</time>
      </trkpt>
      <trkpt lat="45.02924" lon="6.0499">
        <ele>755</ele>
        <time>2016-05-15T05:08:16Z</time>
      </trkpt>
      <trkpt lat="45.02913" lon="6.04999">
        <ele>755</ele>
        <time>2016-05-15T05:08:18Z</time>
      </trkpt>
      <trkpt lat="45.02904" lon="6.05002">
        <ele>755</ele>
        <time>2016-05-15T05:08:20Z</time>
      </trkpt>
      <trkpt lat="45.02894" lon="6.0501">
        <ele>757</ele>
        <time>2016-05-15T05:08:22Z</time>
      </trkpt>
      <trkpt lat="45.02882" lon="6.05019">
        <ele>757</ele>
        <time>2016-05-15T05:08:24Z</time>
      </trkpt>
      <trkpt lat="45.02872" lon="6.05025">
        <ele>757</ele>
        <time>2016-05-15T05:08:26Z</time>
      </trkpt>
      <trkpt lat="45.02862" lon="6.05029">
        <ele>757</ele>
        <time>2016-05-15T05:08:28Z</time>
      </trkpt>
      <trkpt lat="45.02852" lon="6.05033">
        <ele>760</ele>
        <time>2016-05-15T05:08:30Z</time>
      </trkpt>
      <trkpt lat="45.02841" lon="6.05036">
        <ele>760</ele>
        <time>2016-05-15T05:08:33Z</time>
      </trkpt>
      <trkpt lat="45.02831" lon="6.05039">
        <ele>760</ele>
        <time>2016-05-15T05:08:36Z</time>
      </trkpt>
      <trkpt lat="45.02818" lon="6.05042">
        <ele>760</ele>
        <time>2016-05-15T05:08:39Z</time>
      </trkpt>
      <trkpt lat="45.02807" lon="6.05044">
        <ele>761</ele>
        <time>2016-05-15T05:08:41Z</time>
      </trkpt>
      <trkpt lat="45.02797" lon="6.05046">
        <ele>761</ele>
        <time>2016-05-15T05:08:43Z</time>
      </trkpt>
      <trkpt lat="45.02788" lon="6.05052">
        <ele>761</ele>
        <time>2016-05-15T05:08:45Z</time>
      </trkpt>
      <trkpt lat="45.0278" lon="6.05061">
        <ele>761</ele>
        <time>2016-05-15T05:08:47Z</time>
      </trkpt>
      <trkpt lat="45.02773" lon="6.05073">
        <ele>761</ele>
        <time>2016-05-15T05:08:50Z</time>
      </trkpt>
      <trkpt lat="45.02766" lon="6.05085">
        <ele>762</ele>
        <time>2016-05-15T05:08:53Z</time>
      </trkpt>
      <trkpt lat="45.02758" lon="6.05096">
        <ele>762</ele>
        <time>2016-05-15T05:08:56Z</time>
      </trkpt>
      <trkpt lat="45.02751" lon="6.05105">
        <ele>762</ele>
        <time>2016-05-15T05:08:58Z</time>
      </trkpt>
      <trkpt lat="45.0274" lon="6.05111">
        <ele>762</ele>
        <time>2016-05-15T05:09:00Z</time>
      </trkpt>
      <trkpt lat="45.02729" lon="6.05118">
        <ele>762</ele>
        <time>2016-05-15T05:09:02Z</time>
      </trkpt>
      <trkpt lat="45.02718" lon="6.05127">
        <ele>762</ele>
        <time>2016-05-15T05:09:04Z</time>
      </trkpt>
      <trkpt lat="45.02708" lon="6.05137">
        <ele>762</ele>
        <time>2016-05-15T05:09:06Z</time>
      </trkpt>
      <trkpt lat="45.02699" lon="6.05149">
        <ele>762</ele>
        <time>2016-05-15T05:09:08Z</time>
      </trkpt>
      <trkpt lat="45.02689" lon="6.0516">
        <ele>762</ele>
        <time>2016-05-15T05:09:10Z</time>
      </trkpt>
      <trkpt lat="45.02679" lon="6.05169">
        <ele>762</ele>
        <time>2016-05-15T05:09:12Z</time>
      </trkpt>
      <trkpt lat="45.02668" lon="6.05176">
        <ele>762</ele>
        <time>2016-05-15T05:09:14Z</time>
      </trkpt>
      <trkpt lat="45.02657" lon="6.05182">
        <ele>762</ele>
        <time>2016-05-15T05:09:16Z</time>
      </trkpt>
      <trkpt lat="45.02646" lon="6.05185">
        <ele>762</ele>
        <time>2016-05-15T05:09:18Z</time>
      </trkpt>
      <trkpt lat="45.02635" lon="6.05187">
        <ele>763</ele>
        <time>2016-05-15T05:09:20Z</time>
      </trkpt>
      <trkpt lat="45.02623" lon="6.05186">
        <ele>763</ele>
        <time>2016-05-15T05:09:22Z</time>
      </trkpt>
      <trkpt lat="45.02611" lon="6.05185">
        <ele>763</ele>
        <time>2016-05-15T05:09:24Z</time>
      </trkpt>
      <trkpt lat="45.02598" lon="6.05185">
        <ele>763</ele>
        <time>2016-05-15T05:09:26Z</time>
      </trkpt>
      <trkpt lat="45.02585" lon="6.05185">
        <ele>763</ele>
        <time>2016-05-15T05:09:28Z</time>
      </trkpt>
      <trkpt lat="45.02573" lon="6.05187">
        <ele>763</ele>
        <time>2016-05-15T05:09:30Z</time>
      </trkpt>
      <trkpt lat="45.02562" lon="6.05191">
        <ele>763</ele>
        <time>2016-05-15T05:09:32Z</time>
      </trkpt>
      <trkpt lat="45.02553" lon="6.05196">
        <ele>763</ele>
        <time>2016-05-15T05:09:34Z</time>
      </trkpt>
      <trkpt lat="45.02545" lon="6.05201">
        <ele>763</ele>
        <time>2016-05-15T05:09:36Z</time>
      </trkpt>
      <trkpt lat="45.02535" lon="6.05213">
        <ele>763</ele>
        <time>2016-05-15T05:09:39Z</time>
      </trkpt>
      <trkpt lat="45.02528" lon="6.05223">
        <ele>764</ele>
        <time>2016-05-15T05:09:42Z</time>
      </trkpt>
      <trkpt lat="45.02523" lon="6.05236">
        <ele>764</ele>
        <time>2016-05-15T05:09:44Z</time>
      </trkpt>
      <trkpt lat="45.02514" lon="6.05255">
        <ele>764</ele>
        <time>2016-05-15T05:09:46Z</time>
      </trkpt>
      <trkpt lat="45.02508" lon="6.0527">
        <ele>764</ele>
        <time>2016-05-15T05:09:48Z</time>
      </trkpt>
      <trkpt lat="45.02499" lon="6.05285">
        <ele>765</ele>
        <time>2016-05-15T05:09:50Z</time>
      </trkpt>
      <trkpt lat="45.02491" lon="6.05297">
        <ele>765</ele>
        <time>2016-05-15T05:09:52Z</time>
      </trkpt>
      <trkpt lat="45.02481" lon="6.05306">
        <ele>765</ele>
        <time>2016-05-15T05:09:54Z</time>
      </trkpt>
      <trkpt lat="45.02469" lon="6.05313">
        <ele>765</ele>
        <time>2016-05-15T05:09:56Z</time>
      </trkpt>
      <trkpt lat="45.0246" lon="6.05319">
        <ele>765</ele>
        <time>2016-05-15T05:09:58Z</time>
      </trkpt>
      <trkpt lat="45.02449" lon="6.05327">
        <ele>766</ele>
        <time>2016-05-15T05:10:00Z</time>
      </trkpt>
      <trkpt lat="45.02439" lon="6.05333">
        <ele>766</ele>
        <time>2016-05-15T05:10:02Z</time>
      </trkpt>
      <trkpt lat="45.02431" lon="6.05343">
        <ele>766</ele>
        <time>2016-05-15T05:10:04Z</time>
      </trkpt>
      <trkpt lat="45.02425" lon="6.05359">
        <ele>766</ele>
        <time>2016-05-15T05:10:06Z</time>
      </trkpt>
      <trkpt lat="45.02418" lon="6.05374">
        <ele>766</ele>
        <time>2016-05-15T05:10:08Z</time>
      </trkpt>
      <trkpt lat="45.02409" lon="6.05387">
        <ele>766</ele>
        <time>2016-05-15T05:10:10Z</time>
      </trkpt>
      <trkpt lat="45.024" lon="6.05399">
        <ele>766</ele>
        <time>2016-05-15T05:10:12Z</time>
      </trkpt>
      <trkpt lat="45.0239" lon="6.0541">
        <ele>766</ele>
        <time>2016-05-15T05:10:14Z</time>
      </trkpt>
      <trkpt lat="45.02382" lon="6.05423">
        <ele>766</ele>
        <time>2016-05-15T05:10:16Z</time>
      </trkpt>
      <trkpt lat="45.02375" lon="6.05432">
        <ele>766</ele>
        <time>2016-05-15T05:10:18Z</time>
      </trkpt>
      <trkpt lat="45.02367" lon="6.05445">
        <ele>766</ele>
        <time>2016-05-15T05:10:20Z</time>
      </trkpt>
      <trkpt lat="45.02359" lon="6.05458">
        <ele>766</ele>
        <time>2016-05-15T05:10:22Z</time>
      </trkpt>
      <trkpt lat="45.02351" lon="6.05467">
        <ele>766</ele>
        <time>2016-05-15T05:10:24Z</time>
      </trkpt>
      <trkpt lat="45.02341" lon="6.0548">
        <ele>766</ele>
        <time>2016-05-15T05:10:26Z</time>
      </trkpt>
      <trkpt lat="45.02331" lon="6.0549">
        <ele>766</ele>
        <time>2016-05-15T05:10:28Z</time>
      </trkpt>
      <trkpt lat="45.02321" lon="6.05496">
        <ele>767</ele>
        <time>2016-05-15T05:10:30Z</time>
      </trkpt>
      <trkpt lat="45.0231" lon="6.05503">
        <ele>767</ele>
        <time>2016-05-15T05:10:32Z</time>
      </trkpt>
      <trkpt lat="45.023" lon="6.05511">
        <ele>767</ele>
        <time>2016-05-15T05:10:34Z</time>
      </trkpt>
      <trkpt lat="45.02292" lon="6.05524">
        <ele>767</ele>
        <time>2016-05-15T05:10:36Z</time>
      </trkpt>
      <trkpt lat="45.02288" lon="6.05541">
        <ele>767</ele>
        <time>2016-05-15T05:10:38Z</time>
      </trkpt>
      <trkpt lat="45.02288" lon="6.05558">
        <ele>768</ele>
        <time>2016-05-15T05:10:40Z</time>
      </trkpt>
      <trkpt lat="45.0229" lon="6.05574">
        <ele>768</ele>
        <time>2016-05-15T05:10:42Z</time>
      </trkpt>
      <trkpt lat="45.02291" lon="6.05587">
        <ele>768</ele>
        <time>2016-05-15T05:10:44Z</time>
      </trkpt>
      <trkpt lat="45.0229" lon="6.05607">
        <ele>768</ele>
        <time>2016-05-15T05:10:47Z</time>
      </trkpt>
      <trkpt lat="45.02287" lon="6.05623">
        <ele>768</ele>
        <time>2016-05-15T05:10:49Z</time>
      </trkpt>
      <trkpt lat="45.02281" lon="6.05636">
        <ele>768</ele>
        <time>2016-05-15T05:10:51Z</time>
      </trkpt>
      <trkpt lat="45.02274" lon="6.05647">
        <ele>768</ele>
        <time>2016-05-15T05:10:53Z</time>
      </trkpt>
      <trkpt lat="45.02266" lon="6.05656">
        <ele>768</ele>
        <time>2016-05-15T05:10:55Z</time>
      </trkpt>
      <trkpt lat="45.02256" lon="6.05666">
        <ele>768</ele>
        <time>2016-05-15T05:10:57Z</time>
      </trkpt>
      <trkpt lat="45.02246" lon="6.05673">
        <ele>768</ele>
        <time>2016-05-15T05:10:59Z</time>
      </trkpt>
      <trkpt lat="45.02234" lon="6.0568">
        <ele>768</ele>
        <time>2016-05-15T05:11:01Z</time>
      </trkpt>
      <trkpt lat="45.02199" lon="6.05699">
        <ele>768</ele>
        <time>2016-05-15T05:11:07Z</time>
      </trkpt>
      <trkpt lat="45.02187" lon="6.05709">
        <ele>768</ele>
        <time>2016-05-15T05:11:09Z</time>
      </trkpt>
      <trkpt lat="45.02174" lon="6.0572">
        <ele>769</ele>
        <time>2016-05-15T05:11:11Z</time>
      </trkpt>
      <trkpt lat="45.02162" lon="6.05727">
        <ele>769</ele>
        <time>2016-05-15T05:11:13Z</time>
      </trkpt>
      <trkpt lat="45.02151" lon="6.05737">
        <ele>769</ele>
        <time>2016-05-15T05:11:15Z</time>
      </trkpt>
      <trkpt lat="45.02141" lon="6.05745">
        <ele>769</ele>
        <time>2016-05-15T05:11:17Z</time>
      </trkpt>
      <trkpt lat="45.02131" lon="6.05754">
        <ele>769</ele>
        <time>2016-05-15T05:11:19Z</time>
      </trkpt>
      <trkpt lat="45.02121" lon="6.05758">
        <ele>769</ele>
        <time>2016-05-15T05:11:21Z</time>
      </trkpt>
      <trkpt lat="45.02109" lon="6.05763">
        <ele>769</ele>
        <time>2016-05-15T05:11:23Z</time>
      </trkpt>
      <trkpt lat="45.02095" lon="6.0576">
        <ele>769</ele>
        <time>2016-05-15T05:11:25Z</time>
      </trkpt>
      <trkpt lat="45.02083" lon="6.0576">
        <ele>769</ele>
        <time>2016-05-15T05:11:27Z</time>
      </trkpt>
      <trkpt lat="45.02073" lon="6.05762">
        <ele>769</ele>
        <time>2016-05-15T05:11:29Z</time>
      </trkpt>
      <trkpt lat="45.02064" lon="6.05762">
        <ele>769</ele>
        <time>2016-05-15T05:11:31Z</time>
      </trkpt>
      <trkpt lat="45.02053" lon="6.05767">
        <ele>769</ele>
        <time>2016-05-15T05:11:33Z</time>
      </trkpt>
      <trkpt lat="45.02044" lon="6.0577">
        <ele>769</ele>
        <time>2016-05-15T05:11:35Z</time>
      </trkpt>
      <trkpt lat="45.02034" lon="6.05773">
        <ele>769</ele>
        <time>2016-05-15T05:11:37Z</time>
      </trkpt>
      <trkpt lat="45.02025" lon="6.05777">
        <ele>769</ele>
        <time>2016-05-15T05:11:39Z</time>
      </trkpt>
      <trkpt lat="45.02013" lon="6.05778">
        <ele>770</ele>
        <time>2016-05-15T05:11:41Z</time>
      </trkpt>
      <trkpt lat="45.02001" lon="6.05779">
        <ele>770</ele>
        <time>2016-05-15T05:11:43Z</time>
      </trkpt>
      <trkpt lat="45.01991" lon="6.05776">
        <ele>770</ele>
        <time>2016-05-15T05:11:45Z</time>
      </trkpt>
      <trkpt lat="45.01981" lon="6.05771">
        <ele>770</ele>
        <time>2016-05-15T05:11:47Z</time>
      </trkpt>
      <trkpt lat="45.0197" lon="6.05767">
        <ele>770</ele>
        <time>2016-05-15T05:11:49Z</time>
      </trkpt>
      <trkpt lat="45.0196" lon="6.05761">
        <ele>772</ele>
        <time>2016-05-15T05:11:51Z</time>
      </trkpt>
      <trkpt lat="45.0195" lon="6.05756">
        <ele>772</ele>
        <time>2016-05-15T05:11:53Z</time>
      </trkpt>
      <trkpt lat="45.01934" lon="6.05765">
        <ele>772</ele>
        <time>2016-05-15T05:11:55Z</time>
      </trkpt>
      <trkpt lat="45.01924" lon="6.05764">
        <ele>772</ele>
        <time>2016-05-15T05:11:57Z</time>
      </trkpt>
      <trkpt lat="45.01923" lon="6.05751">
        <ele>770</ele>
        <time>2016-05-15T05:12:02Z</time>
      </trkpt>
      <trkpt lat="45.01931" lon="6.05741">
        <ele>770</ele>
        <time>2016-05-15T05:12:06Z</time>
      </trkpt>
      <trkpt lat="45.01936" lon="6.05725">
        <ele>770</ele>
        <time>2016-05-15T05:12:08Z</time>
      </trkpt>
      <trkpt lat="45.01721" lon="6.05484">
        <ele>799</ele>
        <time>2016-05-15T05:14:02Z</time>
      </trkpt>
      <trkpt lat="45.01711" lon="6.0548">
        <ele>801</ele>
        <time>2016-05-15T05:14:08Z</time>
      </trkpt>
      <trkpt lat="45.01699" lon="6.05481">
        <ele>799</ele>
        <time>2016-05-15T05:14:16Z</time>
      </trkpt>
      <trkpt lat="45.01686" lon="6.05484">
        <ele>799</ele>
        <time>2016-05-15T05:14:20Z</time>
      </trkpt>
      <trkpt lat="45.01675" lon="6.05496">
        <ele>799</ele>
        <time>2016-05-15T05:14:25Z</time>
      </trkpt>
      <trkpt lat="45.01668" lon="6.05507">
        <ele>799</ele>
        <time>2016-05-15T05:14:26Z</time>
      </trkpt>
      <trkpt lat="45.01661" lon="6.05517">
        <ele>799</ele>
        <time>2016-05-15T05:14:29Z</time>
      </trkpt>
      <trkpt lat="45.01655" lon="6.05526">
        <ele>799</ele>
        <time>2016-05-15T05:14:34Z</time>
      </trkpt>
      <trkpt lat="45.01651" lon="6.05539">
        <ele>804</ele>
        <time>2016-05-15T05:15:03Z</time>
      </trkpt>
      <trkpt lat="45.01642" lon="6.05544">
        <ele>803</ele>
        <time>2016-05-15T05:15:55Z</time>
      </trkpt>
      <trkpt lat="45.01636" lon="6.05556">
        <ele>799</ele>
        <time>2016-05-15T05:16:02Z</time>
      </trkpt>
      <trkpt lat="45.0163" lon="6.05566">
        <ele>799</ele>
        <time>2016-05-15T05:16:06Z</time>
      </trkpt>
      <trkpt lat="45.0162" lon="6.05567">
        <ele>800</ele>
        <time>2016-05-15T05:16:24Z</time>
      </trkpt>
      <trkpt lat="45.01611" lon="6.0557">
        <ele>800</ele>
        <time>2016-05-15T05:16:30Z</time>
      </trkpt>
      <trkpt lat="45.01601" lon="6.0557">
        <ele>800</ele>
        <time>2016-05-15T05:16:37Z</time>
      </trkpt>
      <trkpt lat="45.01592" lon="6.05574">
        <ele>800</ele>
        <time>2016-05-15T05:16:39Z</time>
      </trkpt>
      <trkpt lat="45.01582" lon="6.05575">
        <ele>796</ele>
        <time>2016-05-15T05:16:41Z</time>
      </trkpt>
      <trkpt lat="45.0157" lon="6.05581">
        <ele>796</ele>
        <time>2016-05-15T05:16:44Z</time>
      </trkpt>
      <trkpt lat="45.01406" lon="6.0597">
        <ele>778</ele>
        <time>2016-05-15T05:17:58Z</time>
      </trkpt>
      <trkpt lat="45.01398" lon="6.0598">
        <ele>778</ele>
        <time>2016-05-15T05:17:59Z</time>
      </trkpt>
      <trkpt lat="45.01389" lon="6.05989">
        <ele>778</ele>
        <time>2016-05-15T05:18:00Z</time>
      </trkpt>
      <trkpt lat="45.01377" lon="6.05994">
        <ele>778</ele>
        <time>2016-05-15T05:18:02Z</time>
      </trkpt>
      <trkpt lat="45.01363" lon="6.05997">
        <ele>778</ele>
        <time>2016-05-15T05:18:04Z</time>
      </trkpt>
      <trkpt lat="45.0135" lon="6.05998">
        <ele>778</ele>
        <time>2016-05-15T05:18:06Z</time>
      </trkpt>
      <trkpt lat="45.01337" lon="6.05998">
        <ele>778</ele>
        <time>2016-05-15T05:18:08Z</time>
      </trkpt>
      <trkpt lat="45.01326" lon="6.05999">
        <ele>778</ele>
        <time>2016-05-15T05:18:10Z</time>
      </trkpt>
      <trkpt lat="45.01314" lon="6.06006">
        <ele>778</ele>
        <time>2016-05-15T05:18:12Z</time>
      </trkpt>
      <trkpt lat="45.01302" lon="6.06013">
        <ele>778</ele>
        <time>2016-05-15T05:18:14Z</time>
      </trkpt>
      <trkpt lat="45.01291" lon="6.06016">
        <ele>778</ele>
        <time>2016-05-15T05:18:16Z</time>
      </trkpt>
      <trkpt lat="45.01279" lon="6.06018">
        <ele>778</ele>
        <time>2016-05-15T05:18:18Z</time>
      </trkpt>
      <trkpt lat="45.01267" lon="6.06017">
        <ele>778</ele>
        <time>2016-05-15T05:18:20Z</time>
      </trkpt>
      <trkpt lat="45.01256" lon="6.06017">
        <ele>778</ele>
        <time>2016-05-15T05:18:22Z</time>
      </trkpt>
      <trkpt lat="45.01243" lon="6.06017">
        <ele>778</ele>
        <time>2016-05-15T05:18:24Z</time>
      </trkpt>
      <trkpt lat="45.01232" lon="6.0602">
        <ele>778</ele>
        <time>2016-05-15T05:18:26Z</time>
      </trkpt>
      <trkpt lat="45.01221" lon="6.06025">
        <ele>778</ele>
        <time>2016-05-15T05:18:28Z</time>
      </trkpt>
      <trkpt lat="45.01211" lon="6.06032">
        <ele>778</ele>
        <time>2016-05-15T05:18:30Z</time>
      </trkpt>
      <trkpt lat="45.01201" lon="6.06039">
        <ele>778</ele>
        <time>2016-05-15T05:18:32Z</time>
      </trkpt>
      <trkpt lat="45.0119" lon="6.06045">
        <ele>778</ele>
        <time>2016-05-15T05:18:34Z</time>
      </trkpt>
      <trkpt lat="45.01179" lon="6.0605">
        <ele>778</ele>
        <time>2016-05-15T05:18:36Z</time>
      </trkpt>
      <trkpt lat="45.0117" lon="6.06053">
        <ele>778</ele>
        <time>2016-05-15T05:18:38Z</time>
      </trkpt>
      <trkpt lat="45.0116" lon="6.06059">
        <ele>779</ele>
        <time>2016-05-15T05:18:40Z</time>
      </trkpt>
      <trkpt lat="45.0115" lon="6.06065">
        <ele>779</ele>
        <time>2016-05-15T05:18:42Z</time>
      </trkpt>
      <trkpt lat="45.0114" lon="6.06072">
        <ele>779</ele>
        <time>2016-05-15T05:18:44Z</time>
      </trkpt>
      <trkpt lat="45.0113" lon="6.06077">
        <ele>779</ele>
        <time>2016-05-15T05:18:46Z</time>
      </trkpt>
      <trkpt lat="45.0112" lon="6.06082">
        <ele>779</ele>
        <time>2016-05-15T05:18:48Z</time>
      </trkpt>
      <trkpt lat="45.01111" lon="6.0609">
        <ele>779</ele>
        <time>2016-05-15T05:18:50Z</time>
      </trkpt>
      <trkpt lat="45.011" lon="6.06097">
        <ele>781</ele>
        <time>2016-05-15T05:18:52Z</time>
      </trkpt>
      <trkpt lat="45.0109" lon="6.06106">
        <ele>781</ele>
        <time>2016-05-15T05:18:54Z</time>
      </trkpt>
      <trkpt lat="45.0108" lon="6.06111">
        <ele>781</ele>
        <time>2016-05-15T05:18:56Z</time>
      </trkpt>
      <trkpt lat="45.0107" lon="6.06117">
        <ele>781</ele>
        <time>2016-05-15T05:18:58Z</time>
      </trkpt>
      <trkpt lat="45.0106" lon="6.06125">
        <ele>781</ele>
        <time>2016-05-15T05:19:00Z</time>
      </trkpt>
      <trkpt lat="45.0105" lon="6.06132">
        <ele>781</ele>
        <time>2016-05-15T05:19:02Z</time>
      </trkpt>
      <trkpt lat="45.0104" lon="6.06139">
        <ele>781</ele>
        <time>2016-05-15T05:19:04Z</time>
      </trkpt>
      <trkpt lat="45.01029" lon="6.06146">
        <ele>781</ele>
        <time>2016-05-15T05:19:06Z</time>
      </trkpt>
      <trkpt lat="45.01019" lon="6.06151">
        <ele>781</ele>
        <time>2016-05-15T05:19:08Z</time>
      </trkpt>
      <trkpt lat="45.01009" lon="6.06155">
        <ele>783</ele>
        <time>2016-05-15T05:19:10Z</time>
      </trkpt>
      <trkpt lat="45.00999" lon="6.0616">
        <ele>783</ele>
        <time>2016-05-15T05:19:12Z</time>
      </trkpt>
      <trkpt lat="45.00989" lon="6.06165">
        <ele>783</ele>
        <time>2016-05-15T05:19:14Z</time>
      </trkpt>
      <trkpt lat="45.0098" lon="6.06171">
        <ele>783</ele>
        <time>2016-05-15T05:19:16Z</time>
      </trkpt>
      <trkpt lat="45.00971" lon="6.06178">
        <ele>783</ele>
        <time>2016-05-15T05:19:18Z</time>
      </trkpt>
      <trkpt lat="45.00963" lon="6.06188">
        <ele>783</ele>
        <time>2016-05-15T05:19:20Z</time>
      </trkpt>
      <trkpt lat="45.00955" lon="6.06203">
        <ele>783</ele>
        <time>2016-05-15T05:19:22Z</time>
      </trkpt>
      <trkpt lat="45.00949" lon="6.06217">
        <ele>783</ele>
        <time>2016-05-15T05:19:24Z</time>
      </trkpt>
      <trkpt lat="45.00944" lon="6.06229">
        <ele>783</ele>
        <time>2016-05-15T05:19:26Z</time>
      </trkpt>
      <trkpt lat="45.00939" lon="6.06241">
        <ele>783</ele>
        <time>2016-05-15T05:19:28Z</time>
      </trkpt>
      <trkpt lat="45.00933" lon="6.06253">
        <ele>783</ele>
        <time>2016-05-15T05:19:30Z</time>
      </trkpt>
      <trkpt lat="45.00927" lon="6.06265">
        <ele>785</ele>
        <time>2016-05-15T05:19:32Z</time>
      </trkpt>
      <trkpt lat="45.0092" lon="6.06276">
        <ele>785</ele>
        <time>2016-05-15T05:19:34Z</time>
      </trkpt>
      <trkpt lat="45.00913" lon="6.06286">
        <ele>785</ele>
        <time>2016-05-15T05:19:36Z</time>
      </trkpt>
      <trkpt lat="45.00905" lon="6.06297">
        <ele>785</ele>
        <time>2016-05-15T05:19:38Z</time>
      </trkpt>
      <trkpt lat="45.00897" lon="6.06306">
        <ele>785</ele>
        <time>2016-05-15T05:19:40Z</time>
      </trkpt>
      <trkpt lat="45.00889" lon="6.06314">
        <ele>786</ele>
        <time>2016-05-15T05:19:42Z</time>
      </trkpt>
      <trkpt lat="45.00881" lon="6.06322">
        <ele>786</ele>
        <time>2016-05-15T05:19:44Z</time>
      </trkpt>
      <trkpt lat="45.00872" lon="6.06329">
        <ele>786</ele>
        <time>2016-05-15T05:19:46Z</time>
      </trkpt>
      <trkpt lat="45.00862" lon="6.06334">
        <ele>786</ele>
        <time>2016-05-15T05:19:48Z</time>
      </trkpt>
      <trkpt lat="45.00851" lon="6.0634">
        <ele>786</ele>
        <time>2016-05-15T05:19:50Z</time>
      </trkpt>
      <trkpt lat="45.00841" lon="6.06345">
        <ele>786</ele>
        <time>2016-05-15T05:19:52Z</time>
      </trkpt>
      <trkpt lat="45.00832" lon="6.0635">
        <ele>786</ele>
        <time>2016-05-15T05:19:54Z</time>
      </trkpt>
      <trkpt lat="45.00822" lon="6.06355">
        <ele>786</ele>
        <time>2016-05-15T05:19:56Z</time>
      </trkpt>
      <trkpt lat="45.00811" lon="6.06358">
        <ele>786</ele>
        <time>2016-05-15T05:19:58Z</time>
      </trkpt>
      <trkpt lat="45.008" lon="6.0636">
        <ele>786</ele>
        <time>2016-05-15T05:20:00Z</time>
      </trkpt>
      <trkpt lat="45.0079" lon="6.06363">
        <ele>787</ele>
        <time>2016-05-15T05:20:02Z</time>
      </trkpt>
      <trkpt lat="45.00781" lon="6.06364">
        <ele>787</ele>
        <time>2016-05-15T05:20:04Z</time>
      </trkpt>
      <trkpt lat="45.00771" lon="6.06369">
        <ele>787</ele>
        <time>2016-05-15T05:20:06Z</time>
      </trkpt>
      <trkpt lat="45.00763" lon="6.06378">
        <ele>787</ele>
        <time>2016-05-15T05:20:08Z</time>
      </trkpt>
      <trkpt lat="45.00756" lon="6.0639">
        <ele>787</ele>
        <time>2016-05-15T05:20:10Z</time>
      </trkpt>
      <trkpt lat="45.00749" lon="6.06401">
        <ele>787</ele>
        <time>2016-05-15T05:20:12Z</time>
      </trkpt>
      <trkpt lat="45.00741" lon="6.06411">
        <ele>787</ele>
        <time>2016-05-15T05:20:14Z</time>
      </trkpt>
      <trkpt lat="45.00733" lon="6.0642">
        <ele>787</ele>
        <time>2016-05-15T05:20:16Z</time>
      </trkpt>
      <trkpt lat="45.00726" lon="6.0643">
        <ele>787</ele>
        <time>2016-05-15T05:20:18Z</time>
      </trkpt>
      <trkpt lat="45.00719" lon="6.06442">
        <ele>787</ele>
        <time>2016-05-15T05:20:20Z</time>
      </trkpt>
      <trkpt lat="45.00712" lon="6.06454">
        <ele>788</ele>
        <time>2016-05-15T05:20:22Z</time>
      </trkpt>
      <trkpt lat="45.00706" lon="6.06465">
        <ele>788</ele>
        <time>2016-05-15T05:20:24Z</time>
      </trkpt>
      <trkpt lat="45.00698" lon="6.06476">
        <ele>788</ele>
        <time>2016-05-15T05:20:26Z</time>
      </trkpt>
      <trkpt lat="45.00691" lon="6.06486">
        <ele>788</ele>
        <time>2016-05-15T05:20:28Z</time>
      </trkpt>
      <trkpt lat="45.00683" lon="6.06495">
        <ele>788</ele>
        <time>2016-05-15T05:20:30Z</time>
      </trkpt>
      <trkpt lat="45.00677" lon="6.06505">
        <ele>789</ele>
        <time>2016-05-15T05:20:32Z</time>
      </trkpt>
      <trkpt lat="45.00671" lon="6.06515">
        <ele>789</ele>
        <time>2016-05-15T05:20:34Z</time>
      </trkpt>
      <trkpt lat="45.00661" lon="6.06528">
        <ele>789</ele>
        <time>2016-05-15T05:20:37Z</time>
      </trkpt>
      <trkpt lat="45.00648" lon="6.06536">
        <ele>789</ele>
        <time>2016-05-15T05:20:40Z</time>
      </trkpt>
      <trkpt lat="45.00639" lon="6.06541">
        <ele>790</ele>
        <time>2016-05-15T05:20:42Z</time>
      </trkpt>
      <trkpt lat="45.0063" lon="6.06548">
        <ele>790</ele>
        <time>2016-05-15T05:20:44Z</time>
      </trkpt>
      <trkpt lat="45.00623" lon="6.06557">
        <ele>790</ele>
        <time>2016-05-15T05:20:46Z</time>
      </trkpt>
      <trkpt lat="45.00619" lon="6.0657">
        <ele>790</ele>
        <time>2016-05-15T05:20:48Z</time>
      </trkpt>
      <trkpt lat="45.00616" lon="6.06585">
        <ele>790</ele>
        <time>2016-05-15T05:20:50Z</time>
      </trkpt>
      <trkpt lat="45.0061" lon="6.06595">
        <ele>791</ele>
        <time>2016-05-15T05:20:52Z</time>
      </trkpt>
      <trkpt lat="45.00602" lon="6.06602">
        <ele>791</ele>
        <time>2016-05-15T05:20:54Z</time>
      </trkpt>
      <trkpt lat="45.00591" lon="6.06609">
        <ele>791</ele>
        <time>2016-05-15T05:20:57Z</time>
      </trkpt>
      <trkpt lat="45.00582" lon="6.06618">
        <ele>791</ele>
        <time>2016-05-15T05:20:59Z</time>
      </trkpt>
      <trkpt lat="45.00574" lon="6.0663">
        <ele>791</ele>
        <time>2016-05-15T05:21:01Z</time>
      </trkpt>
      <trkpt lat="45.00566" lon="6.0664">
        <ele>791</ele>
        <time>2016-05-15T05:21:03Z</time>
      </trkpt>
      <trkpt lat="45.00558" lon="6.0665">
        <ele>791</ele>
        <time>2016-05-15T05:21:05Z</time>
      </trkpt>
      <trkpt lat="45.00551" lon="6.0666">
        <ele>791</ele>
        <time>2016-05-15T05:21:07Z</time>
      </trkpt>
      <trkpt lat="45.00544" lon="6.06668">
        <ele>791</ele>
        <time>2016-05-15T05:21:09Z</time>
      </trkpt>
      <trkpt lat="45.00537" lon="6.06677">
        <ele>791</ele>
        <time>2016-05-15T05:21:11Z</time>
      </trkpt>
      <trkpt lat="45.00529" lon="6.06685">
        <ele>791</ele>
        <time>2016-05-15T05:21:13Z</time>
      </trkpt>
      <trkpt lat="45.0052" lon="6.06692">
        <ele>791</ele>
        <time>2016-05-15T05:21:15Z</time>
      </trkpt>
      <trkpt lat="45.00512" lon="6.06698">
        <ele>791</ele>
        <time>2016-05-15T05:21:17Z</time>
      </trkpt>
      <trkpt lat="45.005" lon="6.06705">
        <ele>791</ele>
        <time>2016-05-15T05:21:20Z</time>
      </trkpt>
      <trkpt lat="45.00489" lon="6.0671">
        <ele>793</ele>
        <time>2016-05-15T05:21:23Z</time>
      </trkpt>
      <trkpt lat="45.00477" lon="6.06717">
        <ele>793</ele>
        <time>2016-05-15T05:21:26Z</time>
      </trkpt>
      <trkpt lat="45.00466" lon="6.06722">
        <ele>793</ele>
        <time>2016-05-15T05:21:28Z</time>
      </trkpt>
      <trkpt lat="45.00457" lon="6.06727">
        <ele>793</ele>
        <time>2016-05-15T05:21:30Z</time>
      </trkpt>
      <trkpt lat="45.00446" lon="6.06732">
        <ele>793</ele>
        <time>2016-05-15T05:21:32Z</time>
      </trkpt>
      <trkpt lat="45.00435" lon="6.06736">
        <ele>793</ele>
        <time>2016-05-15T05:21:34Z</time>
      </trkpt>
      <trkpt lat="45.00425" lon="6.06738">
        <ele>793</ele>
        <time>2016-05-15T05:21:36Z</time>
      </trkpt>
      <trkpt lat="45.00416" lon="6.06741">
        <ele>793</ele>
        <time>2016-05-15T05:21:38Z</time>
      </trkpt>
      <trkpt lat="45.00403" lon="6.06746">
        <ele>794</ele>
        <time>2016-05-15T05:21:41Z</time>
      </trkpt>
      <trkpt lat="45.00394" lon="6.06751">
        <ele>794</ele>
        <time>2016-05-15T05:21:43Z</time>
      </trkpt>
      <trkpt lat="45.00386" lon="6.06757">
        <ele>794</ele>
        <time>2016-05-15T05:21:45Z</time>
      </trkpt>
      <trkpt lat="45.00379" lon="6.06767">
        <ele>794</ele>
        <time>2016-05-15T05:21:47Z</time>
      </trkpt>
      <trkpt lat="45.00372" lon="6.06776">
        <ele>794</ele>
        <time>2016-05-15T05:21:49Z</time>
      </trkpt>
      <trkpt lat="45.00363" lon="6.06782">
        <ele>795</ele>
        <time>2016-05-15T05:21:51Z</time>
      </trkpt>
      <trkpt lat="45.00353" lon="6.06787">
        <ele>795</ele>
        <time>2016-05-15T05:21:53Z</time>
      </trkpt>
      <trkpt lat="45.00344" lon="6.0679">
        <ele>795</ele>
        <time>2016-05-15T05:21:55Z</time>
      </trkpt>
      <trkpt lat="45.00332" lon="6.06796">
        <ele>795</ele>
        <time>2016-05-15T05:21:58Z</time>
      </trkpt>
      <trkpt lat="45.00323" lon="6.068">
        <ele>795</ele>
        <time>2016-05-15T05:22:00Z</time>
      </trkpt>
      <trkpt lat="45.00314" lon="6.06802">
        <ele>796</ele>
        <time>2016-05-15T05:22:02Z</time>
      </trkpt>
      <trkpt lat="45.00304" lon="6.06805">
        <ele>796</ele>
        <time>2016-05-15T05:22:04Z</time>
      </trkpt>
      <trkpt lat="45.00295" lon="6.06805">
        <ele>796</ele>
        <time>2016-05-15T05:22:06Z</time>
      </trkpt>
      <trkpt lat="45.00285" lon="6.06805">
        <ele>796</ele>
        <time>2016-05-15T05:22:08Z</time>
      </trkpt>
      <trkpt lat="45.00275" lon="6.06803">
        <ele>796</ele>
        <time>2016-05-15T05:22:10Z</time>
      </trkpt>
      <trkpt lat="45.00266" lon="6.068">
        <ele>796</ele>
        <time>2016-05-15T05:22:12Z</time>
      </trkpt>
      <trkpt lat="45.00255" lon="6.06799">
        <ele>796</ele>
        <time>2016-05-15T05:22:15Z</time>
      </trkpt>
      <trkpt lat="45.00244" lon="6.06801">
        <ele>796</ele>
        <time>2016-05-15T05:22:18Z</time>
      </trkpt>
      <trkpt lat="45.00235" lon="6.06802">
        <ele>796</ele>
        <time>2016-05-15T05:22:20Z</time>
      </trkpt>
      <trkpt lat="45.00225" lon="6.06801">
        <ele>796</ele>
        <time>2016-05-15T05:22:22Z</time>
      </trkpt>
      <trkpt lat="45.00211" lon="6.06801">
        <ele>797</ele>
        <time>2016-05-15T05:22:25Z</time>
      </trkpt>
      <trkpt lat="45.00202" lon="6.06802">
        <ele>797</ele>
        <time>2016-05-15T05:22:27Z</time>
      </trkpt>
      <trkpt lat="45.0019" lon="6.06802">
        <ele>797</ele>
        <time>2016-05-15T05:22:30Z</time>
      </trkpt>
      <trkpt lat="45.00177" lon="6.06804">
        <ele>799</ele>
        <time>2016-05-15T05:22:33Z</time>
      </trkpt>
      <trkpt lat="45.00167" lon="6.06809">
        <ele>799</ele>
        <time>2016-05-15T05:22:36Z</time>
      </trkpt>
      <trkpt lat="45.00157" lon="6.06811">
        <ele>799</ele>
        <time>2016-05-15T05:22:40Z</time>
      </trkpt>
      <trkpt lat="45.00149" lon="6.06801">
        <ele>803</ele>
        <time>2016-05-15T05:22:45Z</time>
      </trkpt>
      <trkpt lat="45.00141" lon="6.06795">
        <ele>805</ele>
        <time>2016-05-15T05:22:50Z</time>
      </trkpt>
      <trkpt lat="45.00132" lon="6.0679">
        <ele>805</ele>
        <time>2016-05-15T05:22:54Z</time>
      </trkpt>
      <trkpt lat="45.00123" lon="6.06784">
        <ele>806</ele>
        <time>2016-05-15T05:22:58Z</time>
      </trkpt>
      <trkpt lat="45.00112" lon="6.06781">
        <ele>807</ele>
        <time>2016-05-15T05:23:02Z</time>
      </trkpt>
      <trkpt lat="45.001" lon="6.06779">
        <ele>807</ele>
        <time>2016-05-15T05:23:06Z</time>
      </trkpt>
      <trkpt lat="45.00087" lon="6.0678">
        <ele>807</ele>
        <time>2016-05-15T05:23:09Z</time>
      </trkpt>
      <trkpt lat="45.00075" lon="6.0678">
        <ele>807</ele>
        <time>2016-05-15T05:23:12Z</time>
      </trkpt>
      <trkpt lat="45.00066" lon="6.06778">
        <ele>807</ele>
        <time>2016-05-15T05:23:15Z</time>
      </trkpt>
      <trkpt lat="45.00056" lon="6.06778">
        <ele>807</ele>
        <time>2016-05-15T05:23:19Z</time>
      </trkpt>
      <trkpt lat="45.00047" lon="6.06774">
        <ele>807</ele>
        <time>2016-05-15T05:23:22Z</time>
      </trkpt>
      <trkpt lat="45.00038" lon="6.06773">
        <ele>807</ele>
        <time>2016-05-15T05:23:25Z</time>
      </trkpt>
      <trkpt lat="45.00029" lon="6.06779">
        <ele>809</ele>
        <time>2016-05-15T05:23:27Z</time>
      </trkpt>
      <trkpt lat="45.0002" lon="6.06786">
        <ele>809</ele>
        <time>2016-05-15T05:23:29Z</time>
      </trkpt>
      <trkpt lat="45.00009" lon="6.06802">
        <ele>809</ele>
        <time>2016-05-15T05:23:31Z</time>
      </trkpt>
      <trkpt lat="45.00003" lon="6.06814">
        <ele>809</ele>
        <time>2016-05-15T05:23:32Z</time>
      </trkpt>
      <trkpt lat="44.99995" lon="6.06828">
        <ele>809</ele>
        <time>2016-05-15T05:23:34Z</time>
      </trkpt>
      <trkpt lat="44.99985" lon="6.0684">
        <ele>814</ele>
        <time>2016-05-15T05:23:37Z</time>
      </trkpt>
      <trkpt lat="44.99979" lon="6.06849">
        <ele>814</ele>
        <time>2016-05-15T05:23:40Z</time>
      </trkpt>
      <trkpt lat="44.99972" lon="6.06859">
        <ele>814</ele>
        <time>2016-05-15T05:23:43Z</time>
      </trkpt>
      <trkpt lat="44.99963" lon="6.06868">
        <ele>815</ele>
        <time>2016-05-15T05:23:47Z</time>
      </trkpt>
      <trkpt lat="44.99955" lon="6.06876">
        <ele>817</ele>
        <time>2016-05-15T05:23:51Z</time>
      </trkpt>
      <trkpt lat="44.99947" lon="6.06884">
        <ele>817</ele>
        <time>2016-05-15T05:23:55Z</time>
      </trkpt>
      <trkpt lat="44.9994" lon="6.06894">
        <ele>820</ele>
        <time>2016-05-15T05:24:00Z</time>
      </trkpt>
      <trkpt lat="44.9993" lon="6.06897">
        <ele>820</ele>
        <time>2016-05-15T05:24:04Z</time>
      </trkpt>
      <trkpt lat="44.9992" lon="6.06897">
        <ele>821</ele>
        <time>2016-05-15T05:24:09Z</time>
      </trkpt>
      <trkpt lat="44.9991" lon="6.069">
        <ele>823</ele>
        <time>2016-05-15T05:24:14Z</time>
      </trkpt>
      <trkpt lat="44.999" lon="6.06903">
        <ele>824</ele>
        <time>2016-05-15T05:24:18Z</time>
      </trkpt>
      <trkpt lat="44.9989" lon="6.06902">
        <ele>826</ele>
        <time>2016-05-15T05:24:23Z</time>
      </trkpt>
      <trkpt lat="44.9988" lon="6.06904">
        <ele>827</ele>
        <time>2016-05-15T05:24:29Z</time>
      </trkpt>
      <trkpt lat="44.9987" lon="6.06904">
        <ele>829</ele>
        <time>2016-05-15T05:24:34Z</time>
      </trkpt>
      <trkpt lat="44.9986" lon="6.06898">
        <ele>833</ele>
        <time>2016-05-15T05:24:40Z</time>
      </trkpt>
      <trkpt lat="44.9985" lon="6.06892">
        <ele>835</ele>
        <time>2016-05-15T05:24:46Z</time>
      </trkpt>
      <trkpt lat="44.9984" lon="6.06894">
        <ele>836</ele>
        <time>2016-05-15T05:24:53Z</time>
      </trkpt>
      <trkpt lat="44.99831" lon="6.06897">
        <ele>836</ele>
        <time>2016-05-15T05:24:57Z</time>
      </trkpt>
      <trkpt lat="44.9982" lon="6.06898">
        <ele>837</ele>
        <time>2016-05-15T05:25:00Z</time>
      </trkpt>
      <trkpt lat="44.99811" lon="6.06907">
        <ele>837</ele>
        <time>2016-05-15T05:25:04Z</time>
      </trkpt>
      <trkpt lat="44.99804" lon="6.06919">
        <ele>837</ele>
        <time>2016-05-15T05:25:08Z</time>
      </trkpt>
      <trkpt lat="44.99796" lon="6.06929">
        <ele>838</ele>
        <time>2016-05-15T05:25:12Z</time>
      </trkpt>
      <trkpt lat="44.99784" lon="6.06937">
        <ele>838</ele>
        <time>2016-05-15T05:25:16Z</time>
      </trkpt>
      <trkpt lat="44.99772" lon="6.0694">
        <ele>838</ele>
        <time>2016-05-15T05:25:19Z</time>
      </trkpt>
      <trkpt lat="44.99761" lon="6.06947">
        <ele>838</ele>
        <time>2016-05-15T05:25:22Z</time>
      </trkpt>
      <trkpt lat="44.9973" lon="6.06953">
        <ele>838</ele>
        <time>2016-05-15T05:25:28Z</time>
      </trkpt>
      <trkpt lat="44.99719" lon="6.0696">
        <ele>838</ele>
        <time>2016-05-15T05:25:30Z</time>
      </trkpt>
      <trkpt lat="44.99708" lon="6.06972">
        <ele>836</ele>
        <time>2016-05-15T05:25:32Z</time>
      </trkpt>
      <trkpt lat="44.99698" lon="6.06981">
        <ele>836</ele>
        <time>2016-05-15T05:25:34Z</time>
      </trkpt>
      <trkpt lat="44.9969" lon="6.06993">
        <ele>836</ele>
        <time>2016-05-15T05:25:37Z</time>
      </trkpt>
      <trkpt lat="44.99687" lon="6.07006">
        <ele>836</ele>
        <time>2016-05-15T05:25:39Z</time>
      </trkpt>
      <trkpt lat="44.99681" lon="6.07017">
        <ele>836</ele>
        <time>2016-05-15T05:25:41Z</time>
      </trkpt>
      <trkpt lat="44.99674" lon="6.07032">
        <ele>836</ele>
        <time>2016-05-15T05:25:44Z</time>
      </trkpt>
      <trkpt lat="44.99668" lon="6.07046">
        <ele>836</ele>
        <time>2016-05-15T05:25:47Z</time>
      </trkpt>
      <trkpt lat="44.99664" lon="6.07059">
        <ele>836</ele>
        <time>2016-05-15T05:25:50Z</time>
      </trkpt>
      <trkpt lat="44.99659" lon="6.07071">
        <ele>838</ele>
        <time>2016-05-15T05:25:53Z</time>
      </trkpt>
      <trkpt lat="44.99653" lon="6.07084">
        <ele>838</ele>
        <time>2016-05-15T05:25:57Z</time>
      </trkpt>
      <trkpt lat="44.99644" lon="6.07093">
        <ele>841</ele>
        <time>2016-05-15T05:26:01Z</time>
      </trkpt>
      <trkpt lat="44.99635" lon="6.07098">
        <ele>843</ele>
        <time>2016-05-15T05:26:05Z</time>
      </trkpt>
      <trkpt lat="44.99627" lon="6.07106">
        <ele>843</ele>
        <time>2016-05-15T05:26:09Z</time>
      </trkpt>
      <trkpt lat="44.99618" lon="6.07108">
        <ele>845</ele>
        <time>2016-05-15T05:26:13Z</time>
      </trkpt>
      <trkpt lat="44.99608" lon="6.07111">
        <ele>847</ele>
        <time>2016-05-15T05:26:17Z</time>
      </trkpt>
      <trkpt lat="44.99599" lon="6.07117">
        <ele>848</ele>
        <time>2016-05-15T05:26:21Z</time>
      </trkpt>
      <trkpt lat="44.9959" lon="6.07127">
        <ele>848</ele>
        <time>2016-05-15T05:26:25Z</time>
      </trkpt>
      <trkpt lat="44.99582" lon="6.07137">
        <ele>849</ele>
        <time>2016-05-15T05:26:29Z</time>
      </trkpt>
      <trkpt lat="44.99575" lon="6.07146">
        <ele>850</ele>
        <time>2016-05-15T05:26:33Z</time>
      </trkpt>
      <trkpt lat="44.99568" lon="6.07156">
        <ele>852</ele>
        <time>2016-05-15T05:26:37Z</time>
      </trkpt>
      <trkpt lat="44.99559" lon="6.0716">
        <ele>854</ele>
        <time>2016-05-15T05:26:41Z</time>
      </trkpt>
      <trkpt lat="44.99548" lon="6.07164">
        <ele>856</ele>
        <time>2016-05-15T05:26:46Z</time>
      </trkpt>
      <trkpt lat="44.99539" lon="6.07169">
        <ele>857</ele>
        <time>2016-05-15T05:26:50Z</time>
      </trkpt>
      <trkpt lat="44.9953" lon="6.07176">
        <ele>858</ele>
        <time>2016-05-15T05:26:55Z</time>
      </trkpt>
      <trkpt lat="44.9952" lon="6.07183">
        <ele>858</ele>
        <time>2016-05-15T05:26:59Z</time>
      </trkpt>
      <trkpt lat="44.99513" lon="6.0719">
        <ele>859</ele>
        <time>2016-05-15T05:27:02Z</time>
      </trkpt>
      <trkpt lat="44.99504" lon="6.07194">
        <ele>860</ele>
        <time>2016-05-15T05:27:06Z</time>
      </trkpt>
      <trkpt lat="44.99492" lon="6.07199">
        <ele>861</ele>
        <time>2016-05-15T05:27:10Z</time>
      </trkpt>
      <trkpt lat="44.99482" lon="6.07204">
        <ele>861</ele>
        <time>2016-05-15T05:27:14Z</time>
      </trkpt>
      <trkpt lat="44.99471" lon="6.07208">
        <ele>861</ele>
        <time>2016-05-15T05:27:18Z</time>
      </trkpt>
      <trkpt lat="44.99462" lon="6.07209">
        <ele>864</ele>
        <time>2016-05-15T05:27:21Z</time>
      </trkpt>
      <trkpt lat="44.99454" lon="6.07217">
        <ele>866</ele>
        <time>2016-05-15T05:27:25Z</time>
      </trkpt>
      <trkpt lat="44.99443" lon="6.07226">
        <ele>868</ele>
        <time>2016-05-15T05:27:30Z</time>
      </trkpt>
      <trkpt lat="44.99435" lon="6.07233">
        <ele>868</ele>
        <time>2016-05-15T05:27:37Z</time>
      </trkpt>
      <trkpt lat="44.99433" lon="6.07246">
        <ele>868</ele>
        <time>2016-05-15T05:27:42Z</time>
      </trkpt>
      <trkpt lat="44.99433" lon="6.07262">
        <ele>868</ele>
        <time>2016-05-15T05:27:45Z</time>
      </trkpt>
      <trkpt lat="44.99427" lon="6.07276">
        <ele>868</ele>
        <time>2016-05-15T05:27:48Z</time>
      </trkpt>
      <trkpt lat="44.99421" lon="6.07288">
        <ele>866</ele>
        <time>2016-05-15T05:27:50Z</time>
      </trkpt>
      <trkpt lat="44.99418" lon="6.07306">
        <ele>866</ele>
        <time>2016-05-15T05:27:52Z</time>
      </trkpt>
      <trkpt lat="44.99418" lon="6.07321">
        <ele>866</ele>
        <time>2016-05-15T05:27:54Z</time>
      </trkpt>
      <trkpt lat="44.99416" lon="6.07336">
        <ele>861</ele>
        <time>2016-05-15T05:27:56Z</time>
      </trkpt>
      <trkpt lat="44.99417" lon="6.07353">
        <ele>861</ele>
        <time>2016-05-15T05:27:58Z</time>
      </trkpt>
      <trkpt lat="44.99421" lon="6.0737">
        <ele>861</ele>
        <time>2016-05-15T05:28:00Z</time>
      </trkpt>
      <trkpt lat="44.99425" lon="6.07386">
        <ele>857</ele>
        <time>2016-05-15T05:28:02Z</time>
      </trkpt>
      <trkpt lat="44.99424" lon="6.07402">
        <ele>859</ele>
        <time>2016-05-15T05:28:04Z</time>
      </trkpt>
      <trkpt lat="44.9942" lon="6.07414">
        <ele>859</ele>
        <time>2016-05-15T05:28:06Z</time>
      </trkpt>
      <trkpt lat="44.99416" lon="6.07426">
        <ele>859</ele>
        <time>2016-05-15T05:28:08Z</time>
      </trkpt>
      <trkpt lat="44.99413" lon="6.07439">
        <ele>859</ele>
        <time>2016-05-15T05:28:10Z</time>
      </trkpt>
      <trkpt lat="44.9941" lon="6.07455">
        <ele>859</ele>
        <time>2016-05-15T05:28:13Z</time>
      </trkpt>
      <trkpt lat="44.99407" lon="6.07471">
        <ele>860</ele>
        <time>2016-05-15T05:28:16Z</time>
      </trkpt>
      <trkpt lat="44.99406" lon="6.07487">
        <ele>860</ele>
        <time>2016-05-15T05:28:19Z</time>
      </trkpt>
      <trkpt lat="44.99404" lon="6.07503">
        <ele>861</ele>
        <time>2016-05-15T05:28:22Z</time>
      </trkpt>
      <trkpt lat="44.99399" lon="6.07521">
        <ele>861</ele>
        <time>2016-05-15T05:28:25Z</time>
      </trkpt>
      <trkpt lat="44.99397" lon="6.07534">
        <ele>861</ele>
        <time>2016-05-15T05:28:27Z</time>
      </trkpt>
      <trkpt lat="44.99394" lon="6.07551">
        <ele>861</ele>
        <time>2016-05-15T05:28:30Z</time>
      </trkpt>
      <trkpt lat="44.9939" lon="6.07565">
        <ele>863</ele>
        <time>2016-05-15T05:28:33Z</time>
      </trkpt>
      <trkpt lat="44.99385" lon="6.07581">
        <ele>863</ele>
        <time>2016-05-15T05:28:36Z</time>
      </trkpt>
      <trkpt lat="44.99384" lon="6.07595">
        <ele>863</ele>
        <time>2016-05-15T05:28:38Z</time>
      </trkpt>
      <trkpt lat="44.99379" lon="6.07612">
        <ele>862</ele>
        <time>2016-05-15T05:28:41Z</time>
      </trkpt>
      <trkpt lat="44.9939" lon="6.07621">
        <ele>861</ele>
        <time>2016-05-15T05:31:37Z</time>
      </trkpt>
      <trkpt lat="44.99383" lon="6.07633">
        <ele>861</ele>
        <time>2016-05-15T05:31:45Z</time>
      </trkpt>
      <trkpt lat="44.99375" lon="6.07644">
        <ele>861</ele>
        <time>2016-05-15T05:31:49Z</time>
      </trkpt>
      <trkpt lat="44.99369" lon="6.07655">
        <ele>864</ele>
        <time>2016-05-15T05:31:52Z</time>
      </trkpt>
      <trkpt lat="44.99365" lon="6.0767">
        <ele>864</ele>
        <time>2016-05-15T05:31:55Z</time>
      </trkpt>
      <trkpt lat="44.99363" lon="6.07688">
        <ele>864</ele>
        <time>2016-05-15T05:31:58Z</time>
      </trkpt>
      <trkpt lat="44.99364" lon="6.07704">
        <ele>867</ele>
        <time>2016-05-15T05:32:01Z</time>
      </trkpt>
      <trkpt lat="44.99358" lon="6.07718">
        <ele>867</ele>
        <time>2016-05-15T05:32:04Z</time>
      </trkpt>
      <trkpt lat="44.99357" lon="6.07735">
        <ele>867</ele>
        <time>2016-05-15T05:32:08Z</time>
      </trkpt>
      <trkpt lat="44.99355" lon="6.07752">
        <ele>867</ele>
        <time>2016-05-15T05:32:11Z</time>
      </trkpt>
      <trkpt lat="44.99356" lon="6.07766">
        <ele>867</ele>
        <time>2016-05-15T05:32:13Z</time>
      </trkpt>
      <trkpt lat="44.99359" lon="6.07784">
        <ele>867</ele>
        <time>2016-05-15T05:32:16Z</time>
      </trkpt>
      <trkpt lat="44.9936" lon="6.078">
        <ele>867</ele>
        <time>2016-05-15T05:32:19Z</time>
      </trkpt>
      <trkpt lat="44.9936" lon="6.07816">
        <ele>867</ele>
        <time>2016-05-15T05:32:23Z</time>
      </trkpt>
      <trkpt lat="44.99356" lon="6.07831">
        <ele>868</ele>
        <time>2016-05-15T05:32:26Z</time>
      </trkpt>
      <trkpt lat="44.99351" lon="6.07842">
        <ele>868</ele>
        <time>2016-05-15T05:32:29Z</time>
      </trkpt>
      <trkpt lat="44.99347" lon="6.07855">
        <ele>870</ele>
        <time>2016-05-15T05:32:33Z</time>
      </trkpt>
      <trkpt lat="44.99344" lon="6.0787">
        <ele>870</ele>
        <time>2016-05-15T05:32:37Z</time>
      </trkpt>
      <trkpt lat="44.99344" lon="6.07885">
        <ele>870</ele>
        <time>2016-05-15T05:32:41Z</time>
      </trkpt>
      <trkpt lat="44.99345" lon="6.07899">
        <ele>872</ele>
        <time>2016-05-15T05:32:44Z</time>
      </trkpt>
      <trkpt lat="44.99347" lon="6.07914">
        <ele>872</ele>
        <time>2016-05-15T05:32:47Z</time>
      </trkpt>
      <trkpt lat="44.99349" lon="6.07926">
        <ele>873</ele>
        <time>2016-05-15T05:32:50Z</time>
      </trkpt>
      <trkpt lat="44.9935" lon="6.0794">
        <ele>873</ele>
        <time>2016-05-15T05:32:52Z</time>
      </trkpt>
      <trkpt lat="44.99353" lon="6.07952">
        <ele>873</ele>
        <time>2016-05-15T05:32:54Z</time>
      </trkpt>
      <trkpt lat="44.99354" lon="6.07971">
        <ele>873</ele>
        <time>2016-05-15T05:32:57Z</time>
      </trkpt>
      <trkpt lat="44.99353" lon="6.07987">
        <ele>872</ele>
        <time>2016-05-15T05:33:00Z</time>
      </trkpt>
      <trkpt lat="44.9935" lon="6.08005">
        <ele>872</ele>
        <time>2016-05-15T05:33:03Z</time>
      </trkpt>
      <trkpt lat="44.99341" lon="6.08019">
        <ele>872</ele>
        <time>2016-05-15T05:33:05Z</time>
      </trkpt>
      <trkpt lat="44.99332" lon="6.08034">
        <ele>872</ele>
        <time>2016-05-15T05:33:07Z</time>
      </trkpt>
      <trkpt lat="44.99326" lon="6.08044">
        <ele>872</ele>
        <time>2016-05-15T05:33:09Z</time>
      </trkpt>
      <trkpt lat="44.99321" lon="6.08054">
        <ele>875</ele>
        <time>2016-05-15T05:33:12Z</time>
      </trkpt>
      <trkpt lat="44.99313" lon="6.08065">
        <ele>876</ele>
        <time>2016-05-15T05:33:16Z</time>
      </trkpt>
      <trkpt lat="44.99307" lon="6.08079">
        <ele>876</ele>
        <time>2016-05-15T05:33:20Z</time>
      </trkpt>
      <trkpt lat="44.99303" lon="6.08094">
        <ele>876</ele>
        <time>2016-05-15T05:33:23Z</time>
      </trkpt>
      <trkpt lat="44.99297" lon="6.08104">
        <ele>876</ele>
        <time>2016-05-15T05:33:25Z</time>
      </trkpt>
      <trkpt lat="44.99289" lon="6.08116">
        <ele>876</ele>
        <time>2016-05-15T05:33:27Z</time>
      </trkpt>
      <trkpt lat="44.99283" lon="6.08129">
        <ele>876</ele>
        <time>2016-05-15T05:33:29Z</time>
      </trkpt>
      <trkpt lat="44.99277" lon="6.08146">
        <ele>874</ele>
        <time>2016-05-15T05:33:31Z</time>
      </trkpt>
      <trkpt lat="44.9927" lon="6.08159">
        <ele>874</ele>
        <time>2016-05-15T05:33:33Z</time>
      </trkpt>
      <trkpt lat="44.99264" lon="6.08172">
        <ele>874</ele>
        <time>2016-05-15T05:33:35Z</time>
      </trkpt>
      <trkpt lat="44.99258" lon="6.08185">
        <ele>874</ele>
        <time>2016-05-15T05:33:37Z</time>
      </trkpt>
      <trkpt lat="44.99253" lon="6.08199">
        <ele>874</ele>
        <time>2016-05-15T05:33:39Z</time>
      </trkpt>
      <trkpt lat="44.99248" lon="6.08211">
        <ele>873</ele>
        <time>2016-05-15T05:33:41Z</time>
      </trkpt>
      <trkpt lat="44.9924" lon="6.08222">
        <ele>873</ele>
        <time>2016-05-15T05:33:43Z</time>
      </trkpt>
      <trkpt lat="44.99234" lon="6.08233">
        <ele>873</ele>
        <time>2016-05-15T05:33:45Z</time>
      </trkpt>
      <trkpt lat="44.9924" lon="6.08246">
        <ele>873</ele>
        <time>2016-05-15T05:33:48Z</time>
      </trkpt>
      <trkpt lat="44.99241" lon="6.08262">
        <ele>874</ele>
        <time>2016-05-15T05:33:52Z</time>
      </trkpt>
      <trkpt lat="44.99235" lon="6.08274">
        <ele>874</ele>
        <time>2016-05-15T05:33:55Z</time>
      </trkpt>
      <trkpt lat="44.9923" lon="6.08289">
        <ele>874</ele>
        <time>2016-05-15T05:33:58Z</time>
      </trkpt>
      <trkpt lat="44.99223" lon="6.08303">
        <ele>875</ele>
        <time>2016-05-15T05:34:01Z</time>
      </trkpt>
      <trkpt lat="44.99214" lon="6.08313">
        <ele>875</ele>
        <time>2016-05-15T05:34:04Z</time>
      </trkpt>
      <trkpt lat="44.99211" lon="6.08326">
        <ele>875</ele>
        <time>2016-05-15T05:34:07Z</time>
      </trkpt>
      <trkpt lat="44.99202" lon="6.08343">
        <ele>875</ele>
        <time>2016-05-15T05:34:10Z</time>
      </trkpt>
      <trkpt lat="44.99194" lon="6.08357">
        <ele>875</ele>
        <time>2016-05-15T05:34:12Z</time>
      </trkpt>
      <trkpt lat="44.99187" lon="6.08369">
        <ele>875</ele>
        <time>2016-05-15T05:34:14Z</time>
      </trkpt>
      <trkpt lat="44.9918" lon="6.08381">
        <ele>875</ele>
        <time>2016-05-15T05:34:16Z</time>
      </trkpt>
      <trkpt lat="44.99175" lon="6.08392">
        <ele>875</ele>
        <time>2016-05-15T05:34:18Z</time>
      </trkpt>
      <trkpt lat="44.9917" lon="6.08403">
        <ele>877</ele>
        <time>2016-05-15T05:34:20Z</time>
      </trkpt>
      <trkpt lat="44.99165" lon="6.08416">
        <ele>877</ele>
        <time>2016-05-15T05:34:23Z</time>
      </trkpt>
      <trkpt lat="44.99169" lon="6.0843">
        <ele>877</ele>
        <time>2016-05-15T05:34:27Z</time>
      </trkpt>
      <trkpt lat="44.99175" lon="6.08442">
        <ele>879</ele>
        <time>2016-05-15T05:34:30Z</time>
      </trkpt>
      <trkpt lat="44.99181" lon="6.08457">
        <ele>879</ele>
        <time>2016-05-15T05:34:33Z</time>
      </trkpt>
      <trkpt lat="44.99183" lon="6.08474">
        <ele>879</ele>
        <time>2016-05-15T05:34:36Z</time>
      </trkpt>
      <trkpt lat="44.99183" lon="6.08492">
        <ele>879</ele>
        <time>2016-05-15T05:34:39Z</time>
      </trkpt>
      <trkpt lat="44.99185" lon="6.08508">
        <ele>881</ele>
        <time>2016-05-15T05:34:42Z</time>
      </trkpt>
      <trkpt lat="44.99187" lon="6.08523">
        <ele>881</ele>
        <time>2016-05-15T05:34:45Z</time>
      </trkpt>
      <trkpt lat="44.9919" lon="6.08538">
        <ele>881</ele>
        <time>2016-05-15T05:34:48Z</time>
      </trkpt>
      <trkpt lat="44.99195" lon="6.08551">
        <ele>883</ele>
        <time>2016-05-15T05:34:51Z</time>
      </trkpt>
      <trkpt lat="44.99198" lon="6.08567">
        <ele>883</ele>
        <time>2016-05-15T05:34:54Z</time>
      </trkpt>
      <trkpt lat="44.99198" lon="6.08584">
        <ele>883</ele>
        <time>2016-05-15T05:34:57Z</time>
      </trkpt>
      <trkpt lat="44.99198" lon="6.08601">
        <ele>885</ele>
        <time>2016-05-15T05:35:00Z</time>
      </trkpt>
      <trkpt lat="44.99201" lon="6.08615">
        <ele>885</ele>
        <time>2016-05-15T05:35:03Z</time>
      </trkpt>
      <trkpt lat="44.99207" lon="6.0863">
        <ele>886</ele>
        <time>2016-05-15T05:35:06Z</time>
      </trkpt>
      <trkpt lat="44.99211" lon="6.08642">
        <ele>888</ele>
        <time>2016-05-15T05:35:10Z</time>
      </trkpt>
      <trkpt lat="44.99213" lon="6.08655">
        <ele>888</ele>
        <time>2016-05-15T05:35:14Z</time>
      </trkpt>
      <trkpt lat="44.99213" lon="6.08673">
        <ele>888</ele>
        <time>2016-05-15T05:35:17Z</time>
      </trkpt>
      <trkpt lat="44.9921" lon="6.08687">
        <ele>888</ele>
        <time>2016-05-15T05:35:19Z</time>
      </trkpt>
      <trkpt lat="44.99206" lon="6.08698">
        <ele>888</ele>
        <time>2016-05-15T05:35:21Z</time>
      </trkpt>
      <trkpt lat="44.99198" lon="6.08712">
        <ele>887</ele>
        <time>2016-05-15T05:35:24Z</time>
      </trkpt>
      <trkpt lat="44.99188" lon="6.08725">
        <ele>887</ele>
        <time>2016-05-15T05:35:27Z</time>
      </trkpt>
      <trkpt lat="44.9918" lon="6.08739">
        <ele>889</ele>
        <time>2016-05-15T05:35:30Z</time>
      </trkpt>
      <trkpt lat="44.99174" lon="6.0875">
        <ele>889</ele>
        <time>2016-05-15T05:35:33Z</time>
      </trkpt>
      <trkpt lat="44.99166" lon="6.08761">
        <ele>889</ele>
        <time>2016-05-15T05:35:36Z</time>
      </trkpt>
      <trkpt lat="44.99159" lon="6.08776">
        <ele>889</ele>
        <time>2016-05-15T05:35:39Z</time>
      </trkpt>
      <trkpt lat="44.99153" lon="6.08789">
        <ele>889</ele>
        <time>2016-05-15T05:35:42Z</time>
      </trkpt>
      <trkpt lat="44.99149" lon="6.08801">
        <ele>894</ele>
        <time>2016-05-15T05:35:46Z</time>
      </trkpt>
      <trkpt lat="44.99145" lon="6.08815">
        <ele>895</ele>
        <time>2016-05-15T05:35:51Z</time>
      </trkpt>
      <trkpt lat="44.9914" lon="6.0883">
        <ele>896</ele>
        <time>2016-05-15T05:35:55Z</time>
      </trkpt>
      <trkpt lat="44.99135" lon="6.08843">
        <ele>896</ele>
        <time>2016-05-15T05:35:58Z</time>
      </trkpt>
      <trkpt lat="44.99129" lon="6.08856">
        <ele>896</ele>
        <time>2016-05-15T05:36:01Z</time>
      </trkpt>
      <trkpt lat="44.99122" lon="6.08869">
        <ele>896</ele>
        <time>2016-05-15T05:36:04Z</time>
      </trkpt>
      <trkpt lat="44.99116" lon="6.08881">
        <ele>898</ele>
        <time>2016-05-15T05:36:07Z</time>
      </trkpt>
      <trkpt lat="44.99109" lon="6.08893">
        <ele>898</ele>
        <time>2016-05-15T05:36:10Z</time>
      </trkpt>
      <trkpt lat="44.99103" lon="6.08906">
        <ele>898</ele>
        <time>2016-05-15T05:36:13Z</time>
      </trkpt>
      <trkpt lat="44.99096" lon="6.08919">
        <ele>898</ele>
        <time>2016-05-15T05:36:16Z</time>
      </trkpt>
      <trkpt lat="44.99089" lon="6.08934">
        <ele>898</ele>
        <time>2016-05-15T05:36:19Z</time>
      </trkpt>
      <trkpt lat="44.99082" lon="6.08949">
        <ele>898</ele>
        <time>2016-05-15T05:36:22Z</time>
      </trkpt>
      <trkpt lat="44.99076" lon="6.0896">
        <ele>898</ele>
        <time>2016-05-15T05:36:24Z</time>
      </trkpt>
      <trkpt lat="44.9907" lon="6.08972">
        <ele>898</ele>
        <time>2016-05-15T05:36:26Z</time>
      </trkpt>
      <trkpt lat="44.99065" lon="6.08983">
        <ele>898</ele>
        <time>2016-05-15T05:36:28Z</time>
      </trkpt>
      <trkpt lat="44.99061" lon="6.08998">
        <ele>900</ele>
        <time>2016-05-15T05:36:31Z</time>
      </trkpt>
      <trkpt lat="44.99057" lon="6.09011">
        <ele>900</ele>
        <time>2016-05-15T05:36:34Z</time>
      </trkpt>
      <trkpt lat="44.99055" lon="6.09028">
        <ele>900</ele>
        <time>2016-05-15T05:36:37Z</time>
      </trkpt>
      <trkpt lat="44.99054" lon="6.09046">
        <ele>900</ele>
        <time>2016-05-15T05:36:40Z</time>
      </trkpt>
      <trkpt lat="44.99054" lon="6.0906">
        <ele>901</ele>
        <time>2016-05-15T05:36:42Z</time>
      </trkpt>
      <trkpt lat="44.99055" lon="6.09073">
        <ele>901</ele>
        <time>2016-05-15T05:36:44Z</time>
      </trkpt>
      <trkpt lat="44.99055" lon="6.09087">
        <ele>901</ele>
        <time>2016-05-15T05:36:46Z</time>
      </trkpt>
      <trkpt lat="44.99058" lon="6.09105">
        <ele>901</ele>
        <time>2016-05-15T05:36:49Z</time>
      </trkpt>
      <trkpt lat="44.9906" lon="6.09117">
        <ele>901</ele>
        <time>2016-05-15T05:36:51Z</time>
      </trkpt>
      <trkpt lat="44.99064" lon="6.09135">
        <ele>902</ele>
        <time>2016-05-15T05:36:54Z</time>
      </trkpt>
      <trkpt lat="44.99068" lon="6.09153">
        <ele>903</ele>
        <time>2016-05-15T05:36:57Z</time>
      </trkpt>
      <trkpt lat="44.9907" lon="6.09166">
        <ele>903</ele>
        <time>2016-05-15T05:36:59Z</time>
      </trkpt>
      <trkpt lat="44.99073" lon="6.0918">
        <ele>902</ele>
        <time>2016-05-15T05:37:01Z</time>
      </trkpt>
      <trkpt lat="44.99075" lon="6.09193">
        <ele>902</ele>
        <time>2016-05-15T05:37:03Z</time>
      </trkpt>
      <trkpt lat="44.99078" lon="6.09207">
        <ele>902</ele>
        <time>2016-05-15T05:37:05Z</time>
      </trkpt>
      <trkpt lat="44.9908" lon="6.09219">
        <ele>902</ele>
        <time>2016-05-15T05:37:07Z</time>
      </trkpt>
      <trkpt lat="44.99083" lon="6.09232">
        <ele>902</ele>
        <time>2016-05-15T05:37:09Z</time>
      </trkpt>
      <trkpt lat="44.99084" lon="6.09245">
        <ele>903</ele>
        <time>2016-05-15T05:37:11Z</time>
      </trkpt>
      <trkpt lat="44.99086" lon="6.09259">
        <ele>903</ele>
        <time>2016-05-15T05:37:13Z</time>
      </trkpt>
      <trkpt lat="44.99086" lon="6.09274">
        <ele>903</ele>
        <time>2016-05-15T05:37:15Z</time>
      </trkpt>
      <trkpt lat="44.99084" lon="6.09287">
        <ele>903</ele>
        <time>2016-05-15T05:37:17Z</time>
      </trkpt>
      <trkpt lat="44.99082" lon="6.093">
        <ele>903</ele>
        <time>2016-05-15T05:37:19Z</time>
      </trkpt>
      <trkpt lat="44.9908" lon="6.09314">
        <ele>903</ele>
        <time>2016-05-15T05:37:21Z</time>
      </trkpt>
      <trkpt lat="44.99077" lon="6.09327">
        <ele>903</ele>
        <time>2016-05-15T05:37:23Z</time>
      </trkpt>
      <trkpt lat="44.99073" lon="6.09345">
        <ele>903</ele>
        <time>2016-05-15T05:37:26Z</time>
      </trkpt>
      <trkpt lat="44.9907" lon="6.09359">
        <ele>903</ele>
        <time>2016-05-15T05:37:28Z</time>
      </trkpt>
      <trkpt lat="44.99066" lon="6.09373">
        <ele>903</ele>
        <time>2016-05-15T05:37:30Z</time>
      </trkpt>
      <trkpt lat="44.99063" lon="6.09385">
        <ele>903</ele>
        <time>2016-05-15T05:37:32Z</time>
      </trkpt>
      <trkpt lat="44.99058" lon="6.09397">
        <ele>904</ele>
        <time>2016-05-15T05:37:34Z</time>
      </trkpt>
      <trkpt lat="44.99051" lon="6.09411">
        <ele>904</ele>
        <time>2016-05-15T05:37:36Z</time>
      </trkpt>
      <trkpt lat="44.99044" lon="6.09423">
        <ele>904</ele>
        <time>2016-05-15T05:37:38Z</time>
      </trkpt>
      <trkpt lat="44.99038" lon="6.09438">
        <ele>904</ele>
        <time>2016-05-15T05:37:40Z</time>
      </trkpt>
      <trkpt lat="44.99034" lon="6.09451">
        <ele>904</ele>
        <time>2016-05-15T05:37:42Z</time>
      </trkpt>
      <trkpt lat="44.99031" lon="6.09465">
        <ele>904</ele>
        <time>2016-05-15T05:37:44Z</time>
      </trkpt>
      <trkpt lat="44.99027" lon="6.09481">
        <ele>904</ele>
        <time>2016-05-15T05:37:46Z</time>
      </trkpt>
      <trkpt lat="44.99024" lon="6.09499">
        <ele>904</ele>
        <time>2016-05-15T05:37:48Z</time>
      </trkpt>
      <trkpt lat="44.99022" lon="6.09514">
        <ele>904</ele>
        <time>2016-05-15T05:37:50Z</time>
      </trkpt>
      <trkpt lat="44.9902" lon="6.0953">
        <ele>904</ele>
        <time>2016-05-15T05:37:52Z</time>
      </trkpt>
      <trkpt lat="44.99019" lon="6.09545">
        <ele>904</ele>
        <time>2016-05-15T05:37:54Z</time>
      </trkpt>
      <trkpt lat="44.9902" lon="6.09558">
        <ele>904</ele>
        <time>2016-05-15T05:37:56Z</time>
      </trkpt>
      <trkpt lat="44.99017" lon="6.09575">
        <ele>904</ele>
        <time>2016-05-15T05:37:59Z</time>
      </trkpt>
      <trkpt lat="44.99014" lon="6.09587">
        <ele>903</ele>
        <time>2016-05-15T05:38:01Z</time>
      </trkpt>
      <trkpt lat="44.99007" lon="6.09601">
        <ele>903</ele>
        <time>2016-05-15T05:38:03Z</time>
      </trkpt>
      <trkpt lat="44.99003" lon="6.09615">
        <ele>903</ele>
        <time>2016-05-15T05:38:05Z</time>
      </trkpt>
      <trkpt lat="44.98999" lon="6.09627">
        <ele>903</ele>
        <time>2016-05-15T05:38:07Z</time>
      </trkpt>
      <trkpt lat="44.98993" lon="6.09643">
        <ele>903</ele>
        <time>2016-05-15T05:38:09Z</time>
      </trkpt>
      <trkpt lat="44.98986" lon="6.09657">
        <ele>904</ele>
        <time>2016-05-15T05:38:11Z</time>
      </trkpt>
      <trkpt lat="44.9898" lon="6.0967">
        <ele>904</ele>
        <time>2016-05-15T05:38:13Z</time>
      </trkpt>
      <trkpt lat="44.98972" lon="6.09682">
        <ele>904</ele>
        <time>2016-05-15T05:38:15Z</time>
      </trkpt>
      <trkpt lat="44.98965" lon="6.09692">
        <ele>904</ele>
        <time>2016-05-15T05:38:17Z</time>
      </trkpt>
      <trkpt lat="44.98955" lon="6.09705">
        <ele>904</ele>
        <time>2016-05-15T05:38:19Z</time>
      </trkpt>
      <trkpt lat="44.98949" lon="6.09719">
        <ele>905</ele>
        <time>2016-05-15T05:38:21Z</time>
      </trkpt>
      <trkpt lat="44.98944" lon="6.0973">
        <ele>905</ele>
        <time>2016-05-15T05:38:23Z</time>
      </trkpt>
      <trkpt lat="44.98937" lon="6.09741">
        <ele>905</ele>
        <time>2016-05-15T05:38:25Z</time>
      </trkpt>
      <trkpt lat="44.98929" lon="6.0975">
        <ele>905</ele>
        <time>2016-05-15T05:38:27Z</time>
      </trkpt>
      <trkpt lat="44.9892" lon="6.09765">
        <ele>905</ele>
        <time>2016-05-15T05:38:30Z</time>
      </trkpt>
      <trkpt lat="44.98915" lon="6.09779">
        <ele>905</ele>
        <time>2016-05-15T05:38:33Z</time>
      </trkpt>
      <trkpt lat="44.9891" lon="6.09792">
        <ele>907</ele>
        <time>2016-05-15T05:38:36Z</time>
      </trkpt>
      <trkpt lat="44.98907" lon="6.09806">
        <ele>907</ele>
        <time>2016-05-15T05:38:39Z</time>
      </trkpt>
      <trkpt lat="44.98907" lon="6.0982">
        <ele>911</ele>
        <time>2016-05-15T05:38:42Z</time>
      </trkpt>
      <trkpt lat="44.98904" lon="6.09835">
        <ele>913</ele>
        <time>2016-05-15T05:38:46Z</time>
      </trkpt>
      <trkpt lat="44.98901" lon="6.09848">
        <ele>913</ele>
        <time>2016-05-15T05:38:49Z</time>
      </trkpt>
      <trkpt lat="44.98897" lon="6.0986">
        <ele>913</ele>
        <time>2016-05-15T05:38:52Z</time>
      </trkpt>
      <trkpt lat="44.98894" lon="6.09874">
        <ele>913</ele>
        <time>2016-05-15T05:38:55Z</time>
      </trkpt>
      <trkpt lat="44.98896" lon="6.09893">
        <ele>914</ele>
        <time>2016-05-15T05:38:58Z</time>
      </trkpt>
      <trkpt lat="44.98898" lon="6.09908">
        <ele>912</ele>
        <time>2016-05-15T05:39:00Z</time>
      </trkpt>
      <trkpt lat="44.98903" lon="6.09925">
        <ele>912</ele>
        <time>2016-05-15T05:39:02Z</time>
      </trkpt>
      <trkpt lat="44.98909" lon="6.09942">
        <ele>912</ele>
        <time>2016-05-15T05:39:04Z</time>
      </trkpt>
      <trkpt lat="44.98916" lon="6.09957">
        <ele>912</ele>
        <time>2016-05-15T05:39:06Z</time>
      </trkpt>
      <trkpt lat="44.98922" lon="6.09968">
        <ele>912</ele>
        <time>2016-05-15T05:39:08Z</time>
      </trkpt>
      <trkpt lat="44.98928" lon="6.09982">
        <ele>912</ele>
        <time>2016-05-15T05:39:11Z</time>
      </trkpt>
      <trkpt lat="44.98934" lon="6.09997">
        <ele>913</ele>
        <time>2016-05-15T05:39:14Z</time>
      </trkpt>
      <trkpt lat="44.9894" lon="6.10011">
        <ele>913</ele>
        <time>2016-05-15T05:39:17Z</time>
      </trkpt>
      <trkpt lat="44.98942" lon="6.1003">
        <ele>915</ele>
        <time>2016-05-15T05:39:20Z</time>
      </trkpt>
      <trkpt lat="44.98947" lon="6.10048">
        <ele>915</ele>
        <time>2016-05-15T05:39:23Z</time>
      </trkpt>
      <trkpt lat="44.9895" lon="6.10061">
        <ele>915</ele>
        <time>2016-05-15T05:39:25Z</time>
      </trkpt>
      <trkpt lat="44.98954" lon="6.10075">
        <ele>915</ele>
        <time>2016-05-15T05:39:27Z</time>
      </trkpt>
      <trkpt lat="44.98956" lon="6.10092">
        <ele>915</ele>
        <time>2016-05-15T05:39:29Z</time>
      </trkpt>
      <trkpt lat="44.98958" lon="6.10111">
        <ele>914</ele>
        <time>2016-05-15T05:39:31Z</time>
      </trkpt>
      <trkpt lat="44.98958" lon="6.10127">
        <ele>914</ele>
        <time>2016-05-15T05:39:33Z</time>
      </trkpt>
      <trkpt lat="44.98958" lon="6.10142">
        <ele>914</ele>
        <time>2016-05-15T05:39:35Z</time>
      </trkpt>
      <trkpt lat="44.98957" lon="6.1016">
        <ele>914</ele>
        <time>2016-05-15T05:39:37Z</time>
      </trkpt>
      <trkpt lat="44.98955" lon="6.10172">
        <ele>914</ele>
        <time>2016-05-15T05:39:39Z</time>
      </trkpt>
      <trkpt lat="44.98948" lon="6.1019">
        <ele>914</ele>
        <time>2016-05-15T05:39:42Z</time>
      </trkpt>
      <trkpt lat="44.98947" lon="6.10204">
        <ele>914</ele>
        <time>2016-05-15T05:39:44Z</time>
      </trkpt>
      <trkpt lat="44.98942" lon="6.1022">
        <ele>914</ele>
        <time>2016-05-15T05:39:47Z</time>
      </trkpt>
      <trkpt lat="44.98932" lon="6.10234">
        <ele>914</ele>
        <time>2016-05-15T05:39:50Z</time>
      </trkpt>
      <trkpt lat="44.98923" lon="6.10247">
        <ele>915</ele>
        <time>2016-05-15T05:39:53Z</time>
      </trkpt>
      <trkpt lat="44.98915" lon="6.10255">
        <ele>915</ele>
        <time>2016-05-15T05:39:55Z</time>
      </trkpt>
      <trkpt lat="44.98906" lon="6.10266">
        <ele>915</ele>
        <time>2016-05-15T05:39:57Z</time>
      </trkpt>
      <trkpt lat="44.98896" lon="6.10275">
        <ele>915</ele>
        <time>2016-05-15T05:39:59Z</time>
      </trkpt>
      <trkpt lat="44.98885" lon="6.10284">
        <ele>917</ele>
        <time>2016-05-15T05:40:01Z</time>
      </trkpt>
      <trkpt lat="44.98876" lon="6.10293">
        <ele>917</ele>
        <time>2016-05-15T05:40:03Z</time>
      </trkpt>
      <trkpt lat="44.98867" lon="6.10304">
        <ele>917</ele>
        <time>2016-05-15T05:40:05Z</time>
      </trkpt>
      <trkpt lat="44.98858" lon="6.10313">
        <ele>917</ele>
        <time>2016-05-15T05:40:07Z</time>
      </trkpt>
      <trkpt lat="44.9885" lon="6.10325">
        <ele>917</ele>
        <time>2016-05-15T05:40:09Z</time>
      </trkpt>
      <trkpt lat="44.98843" lon="6.10337">
        <ele>917</ele>
        <time>2016-05-15T05:40:11Z</time>
      </trkpt>
      <trkpt lat="44.98837" lon="6.10346">
        <ele>917</ele>
        <time>2016-05-15T05:40:13Z</time>
      </trkpt>
      <trkpt lat="44.98831" lon="6.10356">
        <ele>917</ele>
        <time>2016-05-15T05:40:15Z</time>
      </trkpt>
      <trkpt lat="44.98824" lon="6.10364">
        <ele>917</ele>
        <time>2016-05-15T05:40:17Z</time>
      </trkpt>
      <trkpt lat="44.98817" lon="6.10373">
        <ele>917</ele>
        <time>2016-05-15T05:40:19Z</time>
      </trkpt>
      <trkpt lat="44.98811" lon="6.10383">
        <ele>919</ele>
        <time>2016-05-15T05:40:21Z</time>
      </trkpt>
      <trkpt lat="44.98804" lon="6.10393">
        <ele>919</ele>
        <time>2016-05-15T05:40:23Z</time>
      </trkpt>
      <trkpt lat="44.98798" lon="6.10403">
        <ele>919</ele>
        <time>2016-05-15T05:40:25Z</time>
      </trkpt>
      <trkpt lat="44.98791" lon="6.10413">
        <ele>919</ele>
        <time>2016-05-15T05:40:27Z</time>
      </trkpt>
      <trkpt lat="44.98782" lon="6.10426">
        <ele>919</ele>
        <time>2016-05-15T05:40:30Z</time>
      </trkpt>
      <trkpt lat="44.98774" lon="6.10436">
        <ele>919</ele>
        <time>2016-05-15T05:40:32Z</time>
      </trkpt>
      <trkpt lat="44.98767" lon="6.10447">
        <ele>919</ele>
        <time>2016-05-15T05:40:34Z</time>
      </trkpt>
      <trkpt lat="44.98758" lon="6.10458">
        <ele>919</ele>
        <time>2016-05-15T05:40:36Z</time>
      </trkpt>
      <trkpt lat="44.98749" lon="6.10469">
        <ele>919</ele>
        <time>2016-05-15T05:40:38Z</time>
      </trkpt>
      <trkpt lat="44.98743" lon="6.10482">
        <ele>921</ele>
        <time>2016-05-15T05:40:40Z</time>
      </trkpt>
      <trkpt lat="44.98737" lon="6.10492">
        <ele>921</ele>
        <time>2016-05-15T05:40:42Z</time>
      </trkpt>
      <trkpt lat="44.98731" lon="6.10503">
        <ele>921</ele>
        <time>2016-05-15T05:40:44Z</time>
      </trkpt>
      <trkpt lat="44.98725" lon="6.10519">
        <ele>921</ele>
        <time>2016-05-15T05:40:47Z</time>
      </trkpt>
      <trkpt lat="44.98723" lon="6.10532">
        <ele>922</ele>
        <time>2016-05-15T05:40:50Z</time>
      </trkpt>
      <trkpt lat="44.98717" lon="6.10547">
        <ele>922</ele>
        <time>2016-05-15T05:40:53Z</time>
      </trkpt>
      <trkpt lat="44.9871" lon="6.1056">
        <ele>922</ele>
        <time>2016-05-15T05:40:56Z</time>
      </trkpt>
      <trkpt lat="44.98704" lon="6.10571">
        <ele>922</ele>
        <time>2016-05-15T05:40:58Z</time>
      </trkpt>
      <trkpt lat="44.98699" lon="6.10584">
        <ele>924</ele>
        <time>2016-05-15T05:41:00Z</time>
      </trkpt>
      <trkpt lat="44.98695" lon="6.10598">
        <ele>924</ele>
        <time>2016-05-15T05:41:03Z</time>
      </trkpt>
      <trkpt lat="44.98694" lon="6.10613">
        <ele>924</ele>
        <time>2016-05-15T05:41:06Z</time>
      </trkpt>
      <trkpt lat="44.98693" lon="6.10628">
        <ele>926</ele>
        <time>2016-05-15T05:41:10Z</time>
      </trkpt>
      <trkpt lat="44.98689" lon="6.10642">
        <ele>926</ele>
        <time>2016-05-15T05:41:14Z</time>
      </trkpt>
      <trkpt lat="44.98688" lon="6.10656">
        <ele>926</ele>
        <time>2016-05-15T05:41:17Z</time>
      </trkpt>
      <trkpt lat="44.98691" lon="6.10672">
        <ele>926</ele>
        <time>2016-05-15T05:41:19Z</time>
      </trkpt>
      <trkpt lat="44.98693" lon="6.10684">
        <ele>928</ele>
        <time>2016-05-15T05:41:21Z</time>
      </trkpt>
      <trkpt lat="44.98696" lon="6.10696">
        <ele>928</ele>
        <time>2016-05-15T05:41:23Z</time>
      </trkpt>
      <trkpt lat="44.987" lon="6.10709">
        <ele>928</ele>
        <time>2016-05-15T05:41:25Z</time>
      </trkpt>
      <trkpt lat="44.98704" lon="6.10723">
        <ele>928</ele>
        <time>2016-05-15T05:41:27Z</time>
      </trkpt>
      <trkpt lat="44.98708" lon="6.10736">
        <ele>928</ele>
        <time>2016-05-15T05:41:29Z</time>
      </trkpt>
      <trkpt lat="44.98714" lon="6.10753">
        <ele>928</ele>
        <time>2016-05-15T05:41:32Z</time>
      </trkpt>
      <trkpt lat="44.9872" lon="6.10765">
        <ele>928</ele>
        <time>2016-05-15T05:41:34Z</time>
      </trkpt>
      <trkpt lat="44.98725" lon="6.10783">
        <ele>928</ele>
        <time>2016-05-15T05:41:37Z</time>
      </trkpt>
      <trkpt lat="44.98725" lon="6.10796">
        <ele>928</ele>
        <time>2016-05-15T05:41:39Z</time>
      </trkpt>
      <trkpt lat="44.98727" lon="6.10811">
        <ele>928</ele>
        <time>2016-05-15T05:41:42Z</time>
      </trkpt>
      <trkpt lat="44.9873" lon="6.10825">
        <ele>930</ele>
        <time>2016-05-15T05:41:45Z</time>
      </trkpt>
      <trkpt lat="44.98735" lon="6.10838">
        <ele>930</ele>
        <time>2016-05-15T05:41:48Z</time>
      </trkpt>
      <trkpt lat="44.9874" lon="6.1085">
        <ele>931</ele>
        <time>2016-05-15T05:41:50Z</time>
      </trkpt>
      <trkpt lat="44.98746" lon="6.10863">
        <ele>931</ele>
        <time>2016-05-15T05:41:52Z</time>
      </trkpt>
      <trkpt lat="44.98752" lon="6.10875">
        <ele>931</ele>
        <time>2016-05-15T05:41:54Z</time>
      </trkpt>
      <trkpt lat="44.98754" lon="6.10891">
        <ele>931</ele>
        <time>2016-05-15T05:41:57Z</time>
      </trkpt>
      <trkpt lat="44.98756" lon="6.10907">
        <ele>934</ele>
        <time>2016-05-15T05:42:01Z</time>
      </trkpt>
      <trkpt lat="44.98754" lon="6.10922">
        <ele>935</ele>
        <time>2016-05-15T05:42:05Z</time>
      </trkpt>
      <trkpt lat="44.9875" lon="6.10936">
        <ele>935</ele>
        <time>2016-05-15T05:42:09Z</time>
      </trkpt>
      <trkpt lat="44.98744" lon="6.10949">
        <ele>937</ele>
        <time>2016-05-15T05:42:13Z</time>
      </trkpt>
      <trkpt lat="44.98742" lon="6.10964">
        <ele>937</ele>
        <time>2016-05-15T05:42:17Z</time>
      </trkpt>
      <trkpt lat="44.98741" lon="6.10979">
        <ele>937</ele>
        <time>2016-05-15T05:42:21Z</time>
      </trkpt>
      <trkpt lat="44.98739" lon="6.10993">
        <ele>938</ele>
        <time>2016-05-15T05:42:24Z</time>
      </trkpt>
      <trkpt lat="44.98734" lon="6.11007">
        <ele>938</ele>
        <time>2016-05-15T05:42:27Z</time>
      </trkpt>
      <trkpt lat="44.98729" lon="6.11023">
        <ele>936</ele>
        <time>2016-05-15T05:42:30Z</time>
      </trkpt>
      <trkpt lat="44.98728" lon="6.11041">
        <ele>936</ele>
        <time>2016-05-15T05:42:32Z</time>
      </trkpt>
      <trkpt lat="44.98727" lon="6.11058">
        <ele>936</ele>
        <time>2016-05-15T05:42:34Z</time>
      </trkpt>
      <trkpt lat="44.98725" lon="6.11075">
        <ele>936</ele>
        <time>2016-05-15T05:42:36Z</time>
      </trkpt>
      <trkpt lat="44.98724" lon="6.11089">
        <ele>936</ele>
        <time>2016-05-15T05:42:38Z</time>
      </trkpt>
      <trkpt lat="44.98724" lon="6.11103">
        <ele>936</ele>
        <time>2016-05-15T05:42:40Z</time>
      </trkpt>
      <trkpt lat="44.98723" lon="6.11118">
        <ele>935</ele>
        <time>2016-05-15T05:42:42Z</time>
      </trkpt>
      <trkpt lat="44.98723" lon="6.11131">
        <ele>935</ele>
        <time>2016-05-15T05:42:44Z</time>
      </trkpt>
      <trkpt lat="44.98723" lon="6.11145">
        <ele>935</ele>
        <time>2016-05-15T05:42:46Z</time>
      </trkpt>
      <trkpt lat="44.98721" lon="6.11159">
        <ele>935</ele>
        <time>2016-05-15T05:42:48Z</time>
      </trkpt>
      <trkpt lat="44.98722" lon="6.11173">
        <ele>935</ele>
        <time>2016-05-15T05:42:50Z</time>
      </trkpt>
      <trkpt lat="44.98722" lon="6.11191">
        <ele>935</ele>
        <time>2016-05-15T05:42:53Z</time>
      </trkpt>
      <trkpt lat="44.98719" lon="6.11204">
        <ele>935</ele>
        <time>2016-05-15T05:42:55Z</time>
      </trkpt>
      <trkpt lat="44.9872" lon="6.11218">
        <ele>935</ele>
        <time>2016-05-15T05:42:57Z</time>
      </trkpt>
      <trkpt lat="44.98723" lon="6.11232">
        <ele>935</ele>
        <time>2016-05-15T05:42:59Z</time>
      </trkpt>
      <trkpt lat="44.98724" lon="6.11245">
        <ele>935</ele>
        <time>2016-05-15T05:43:01Z</time>
      </trkpt>
      <trkpt lat="44.98726" lon="6.11263">
        <ele>937</ele>
        <time>2016-05-15T05:43:04Z</time>
      </trkpt>
      <trkpt lat="44.98727" lon="6.11281">
        <ele>937</ele>
        <time>2016-05-15T05:43:07Z</time>
      </trkpt>
      <trkpt lat="44.9873" lon="6.11299">
        <ele>937</ele>
        <time>2016-05-15T05:43:10Z</time>
      </trkpt>
      <trkpt lat="44.98729" lon="6.11316">
        <ele>937</ele>
        <time>2016-05-15T05:43:13Z</time>
      </trkpt>
      <trkpt lat="44.98723" lon="6.11331">
        <ele>937</ele>
        <time>2016-05-15T05:43:16Z</time>
      </trkpt>
      <trkpt lat="44.98716" lon="6.11342">
        <ele>937</ele>
        <time>2016-05-15T05:43:18Z</time>
      </trkpt>
      <trkpt lat="44.9871" lon="6.11354">
        <ele>937</ele>
        <time>2016-05-15T05:43:20Z</time>
      </trkpt>
      <trkpt lat="44.98702" lon="6.11367">
        <ele>939</ele>
        <time>2016-05-15T05:43:23Z</time>
      </trkpt>
      <trkpt lat="44.98696" lon="6.11377">
        <ele>939</ele>
        <time>2016-05-15T05:43:25Z</time>
      </trkpt>
      <trkpt lat="44.98687" lon="6.11391">
        <ele>939</ele>
        <time>2016-05-15T05:43:28Z</time>
      </trkpt>
      <trkpt lat="44.98681" lon="6.11402">
        <ele>939</ele>
        <time>2016-05-15T05:43:30Z</time>
      </trkpt>
      <trkpt lat="44.98674" lon="6.11416">
        <ele>940</ele>
        <time>2016-05-15T05:43:33Z</time>
      </trkpt>
      <trkpt lat="44.98666" lon="6.11427">
        <ele>940</ele>
        <time>2016-05-15T05:43:36Z</time>
      </trkpt>
      <trkpt lat="44.98659" lon="6.11439">
        <ele>940</ele>
        <time>2016-05-15T05:43:39Z</time>
      </trkpt>
      <trkpt lat="44.98653" lon="6.11451">
        <ele>942</ele>
        <time>2016-05-15T05:43:42Z</time>
      </trkpt>
      <trkpt lat="44.98646" lon="6.11462">
        <ele>942</ele>
        <time>2016-05-15T05:43:45Z</time>
      </trkpt>
      <trkpt lat="44.98641" lon="6.11473">
        <ele>942</ele>
        <time>2016-05-15T05:43:49Z</time>
      </trkpt>
      <trkpt lat="44.9863" lon="6.11479">
        <ele>944</ele>
        <time>2016-05-15T05:43:53Z</time>
      </trkpt>
      <trkpt lat="44.98622" lon="6.11483">
        <ele>944</ele>
        <time>2016-05-15T05:43:57Z</time>
      </trkpt>
      <trkpt lat="44.98617" lon="6.11494">
        <ele>947</ele>
        <time>2016-05-15T05:44:01Z</time>
      </trkpt>
      <trkpt lat="44.98617" lon="6.11508">
        <ele>947</ele>
        <time>2016-05-15T05:44:05Z</time>
      </trkpt>
      <trkpt lat="44.98623" lon="6.11519">
        <ele>947</ele>
        <time>2016-05-15T05:44:09Z</time>
      </trkpt>
      <trkpt lat="44.98631" lon="6.11529">
        <ele>949</ele>
        <time>2016-05-15T05:44:14Z</time>
      </trkpt>
      <trkpt lat="44.98636" lon="6.11541">
        <ele>951</ele>
        <time>2016-05-15T05:44:19Z</time>
      </trkpt>
      <trkpt lat="44.98639" lon="6.11556">
        <ele>953</ele>
        <time>2016-05-15T05:44:24Z</time>
      </trkpt>
      <trkpt lat="44.98638" lon="6.1157">
        <ele>956</ele>
        <time>2016-05-15T05:44:30Z</time>
      </trkpt>
      <trkpt lat="44.98639" lon="6.11584">
        <ele>958</ele>
        <time>2016-05-15T05:44:36Z</time>
      </trkpt>
      <trkpt lat="44.98644" lon="6.11597">
        <ele>958</ele>
        <time>2016-05-15T05:44:41Z</time>
      </trkpt>
      <trkpt lat="44.98647" lon="6.11608">
        <ele>960</ele>
        <time>2016-05-15T05:44:45Z</time>
      </trkpt>
      <trkpt lat="44.98649" lon="6.11613">
        <ele>960</ele>
        <time>2016-05-15T05:44:47Z</time>
      </trkpt>
      <trkpt lat="44.98649" lon="6.11616">
        <ele>960</ele>
        <time>2016-05-15T05:44:48Z</time>
      </trkpt>
      <trkpt lat="44.9865" lon="6.11619">
        <ele>960</ele>
        <time>2016-05-15T05:44:49Z</time>
      </trkpt>
      <trkpt lat="44.9865" lon="6.11622">
        <ele>961</ele>
        <time>2016-05-15T05:44:50Z</time>
      </trkpt>
      <trkpt lat="44.98652" lon="6.11629">
        <ele>961</ele>
        <time>2016-05-15T05:44:53Z</time>
      </trkpt>
      <trkpt lat="44.98653" lon="6.11631">
        <ele>961</ele>
        <time>2016-05-15T05:44:54Z</time>
      </trkpt>
      <trkpt lat="44.98654" lon="6.11634">
        <ele>963</ele>
        <time>2016-05-15T05:44:55Z</time>
      </trkpt>
      <trkpt lat="44.98655" lon="6.11636">
        <ele>963</ele>
        <time>2016-05-15T05:44:56Z</time>
      </trkpt>
      <trkpt lat="44.98656" lon="6.11638">
        <ele>963</ele>
        <time>2016-05-15T05:44:57Z</time>
      </trkpt>
      <trkpt lat="44.98658" lon="6.1164">
        <ele>963</ele>
        <time>2016-05-15T05:44:58Z</time>
      </trkpt>
      <trkpt lat="44.98659" lon="6.11642">
        <ele>963</ele>
        <time>2016-05-15T05:44:59Z</time>
      </trkpt>
      <trkpt lat="44.9866" lon="6.11644">
        <ele>963</ele>
        <time>2016-05-15T05:45:00Z</time>
      </trkpt>
      <trkpt lat="44.98662" lon="6.11649">
        <ele>965</ele>
        <time>2016-05-15T05:45:02Z</time>
      </trkpt>
      <trkpt lat="44.98666" lon="6.11656">
        <ele>967</ele>
        <time>2016-05-15T05:45:05Z</time>
      </trkpt>
      <trkpt lat="44.98667" lon="6.11658">
        <ele>967</ele>
        <time>2016-05-15T05:45:06Z</time>
      </trkpt>
      <trkpt lat="44.9867" lon="6.11661">
        <ele>967</ele>
        <time>2016-05-15T05:45:08Z</time>
      </trkpt>
      <trkpt lat="44.98673" lon="6.11663">
        <ele>967</ele>
        <time>2016-05-15T05:45:10Z</time>
      </trkpt>
      <trkpt lat="44.98673" lon="6.11665">
        <ele>967</ele>
        <time>2016-05-15T05:45:11Z</time>
      </trkpt>
      <trkpt lat="44.98674" lon="6.11668">
        <ele>967</ele>
        <time>2016-05-15T05:45:12Z</time>
      </trkpt>
      <trkpt lat="44.98675" lon="6.11671">
        <ele>967</ele>
        <time>2016-05-15T05:45:13Z</time>
      </trkpt>
      <trkpt lat="44.98676" lon="6.11674">
        <ele>967</ele>
        <time>2016-05-15T05:45:14Z</time>
      </trkpt>
      <trkpt lat="44.98676" lon="6.11676">
        <ele>968</ele>
        <time>2016-05-15T05:45:15Z</time>
      </trkpt>
      <trkpt lat="44.98678" lon="6.11678">
        <ele>968</ele>
        <time>2016-05-15T05:45:16Z</time>
      </trkpt>
      <trkpt lat="44.98679" lon="6.1168">
        <ele>968</ele>
        <time>2016-05-15T05:45:17Z</time>
      </trkpt>
      <trkpt lat="44.9868" lon="6.11683">
        <ele>968</ele>
        <time>2016-05-15T05:45:18Z</time>
      </trkpt>
      <trkpt lat="44.98681" lon="6.11685">
        <ele>968</ele>
        <time>2016-05-15T05:45:19Z</time>
      </trkpt>
      <trkpt lat="44.98682" lon="6.11687">
        <ele>969</ele>
        <time>2016-05-15T05:45:20Z</time>
      </trkpt>
      <trkpt lat="44.98683" lon="6.1169">
        <ele>969</ele>
        <time>2016-05-15T05:45:21Z</time>
      </trkpt>
      <trkpt lat="44.98684" lon="6.11692">
        <ele>969</ele>
        <time>2016-05-15T05:45:22Z</time>
      </trkpt>
      <trkpt lat="44.98687" lon="6.11695">
        <ele>969</ele>
        <time>2016-05-15T05:45:24Z</time>
      </trkpt>
      <trkpt lat="44.9869" lon="6.11695">
        <ele>969</ele>
        <time>2016-05-15T05:45:26Z</time>
      </trkpt>
      <trkpt lat="44.98691" lon="6.11693">
        <ele>969</ele>
        <time>2016-05-15T05:45:27Z</time>
      </trkpt>
      <trkpt lat="44.98693" lon="6.1169">
        <ele>969</ele>
        <time>2016-05-15T05:45:28Z</time>
      </trkpt>
      <trkpt lat="44.98695" lon="6.11687">
        <ele>969</ele>
        <time>2016-05-15T05:45:29Z</time>
      </trkpt>
      <trkpt lat="44.98696" lon="6.11684">
        <ele>969</ele>
        <time>2016-05-15T05:45:30Z</time>
      </trkpt>
      <trkpt lat="44.98698" lon="6.1168">
        <ele>971</ele>
        <time>2016-05-15T05:45:31Z</time>
      </trkpt>
      <trkpt lat="44.98699" lon="6.11676">
        <ele>971</ele>
        <time>2016-05-15T05:45:32Z</time>
      </trkpt>
      <trkpt lat="44.98701" lon="6.11672">
        <ele>971</ele>
        <time>2016-05-15T05:45:33Z</time>
      </trkpt>
      <trkpt lat="44.98703" lon="6.11668">
        <ele>971</ele>
        <time>2016-05-15T05:45:34Z</time>
      </trkpt>
      <trkpt lat="44.98705" lon="6.11663">
        <ele>971</ele>
        <time>2016-05-15T05:45:35Z</time>
      </trkpt>
      <trkpt lat="44.98706" lon="6.11658">
        <ele>971</ele>
        <time>2016-05-15T05:45:36Z</time>
      </trkpt>
      <trkpt lat="44.98708" lon="6.11654">
        <ele>971</ele>
        <time>2016-05-15T05:45:37Z</time>
      </trkpt>
      <trkpt lat="44.9871" lon="6.11649">
        <ele>971</ele>
        <time>2016-05-15T05:45:38Z</time>
      </trkpt>
      <trkpt lat="44.98712" lon="6.11645">
        <ele>971</ele>
        <time>2016-05-15T05:45:39Z</time>
      </trkpt>
      <trkpt lat="44.98714" lon="6.1164">
        <ele>971</ele>
        <time>2016-05-15T05:45:40Z</time>
      </trkpt>
      <trkpt lat="44.98716" lon="6.11636">
        <ele>971</ele>
        <time>2016-05-15T05:45:41Z</time>
      </trkpt>
      <trkpt lat="44.98719" lon="6.11631">
        <ele>971</ele>
        <time>2016-05-15T05:45:42Z</time>
      </trkpt>
      <trkpt lat="44.98721" lon="6.11627">
        <ele>971</ele>
        <time>2016-05-15T05:45:43Z</time>
      </trkpt>
      <trkpt lat="44.98728" lon="6.11613">
        <ele>971</ele>
        <time>2016-05-15T05:45:46Z</time>
      </trkpt>
      <trkpt lat="44.98735" lon="6.116">
        <ele>971</ele>
        <time>2016-05-15T05:45:49Z</time>
      </trkpt>
      <trkpt lat="44.98738" lon="6.11595">
        <ele>971</ele>
        <time>2016-05-15T05:45:50Z</time>
      </trkpt>
      <trkpt lat="44.9874" lon="6.1159">
        <ele>972</ele>
        <time>2016-05-15T05:45:51Z</time>
      </trkpt>
      <trkpt lat="44.98742" lon="6.11585">
        <ele>972</ele>
        <time>2016-05-15T05:45:52Z</time>
      </trkpt>
      <trkpt lat="44.98744" lon="6.1158">
        <ele>972</ele>
        <time>2016-05-15T05:45:53Z</time>
      </trkpt>
      <trkpt lat="44.98746" lon="6.11563">
        <ele>972</ele>
        <time>2016-05-15T05:45:56Z</time>
      </trkpt>
      <trkpt lat="44.98747" lon="6.11558">
        <ele>972</ele>
        <time>2016-05-15T05:45:57Z</time>
      </trkpt>
      <trkpt lat="44.98747" lon="6.11554">
        <ele>972</ele>
        <time>2016-05-15T05:45:58Z</time>
      </trkpt>
      <trkpt lat="44.98746" lon="6.1155">
        <ele>972</ele>
        <time>2016-05-15T05:45:59Z</time>
      </trkpt>
      <trkpt lat="44.98746" lon="6.11546">
        <ele>971</ele>
        <time>2016-05-15T05:46:00Z</time>
      </trkpt>
      <trkpt lat="44.98745" lon="6.11543">
        <ele>971</ele>
        <time>2016-05-15T05:46:01Z</time>
      </trkpt>
      <trkpt lat="44.98744" lon="6.11541">
        <ele>971</ele>
        <time>2016-05-15T05:46:02Z</time>
      </trkpt>
      <trkpt lat="44.98743" lon="6.11538">
        <ele>971</ele>
        <time>2016-05-15T05:46:03Z</time>
      </trkpt>
      <trkpt lat="44.98741" lon="6.11535">
        <ele>971</ele>
        <time>2016-05-15T05:46:04Z</time>
      </trkpt>
      <trkpt lat="44.98728" lon="6.11532">
        <ele>967</ele>
        <time>2016-05-15T05:46:11Z</time>
      </trkpt>
      <trkpt lat="44.98718" lon="6.11526">
        <ele>967</ele>
        <time>2016-05-15T05:46:13Z</time>
      </trkpt>
      <trkpt lat="44.98707" lon="6.11518">
        <ele>962</ele>
        <time>2016-05-15T05:46:15Z</time>
      </trkpt>
      <trkpt lat="44.98695" lon="6.11515">
        <ele>962</ele>
        <time>2016-05-15T05:46:17Z</time>
      </trkpt>
      <trkpt lat="44.9868" lon="6.11515">
        <ele>962</ele>
        <time>2016-05-15T05:46:19Z</time>
      </trkpt>
      <trkpt lat="44.98667" lon="6.11518">
        <ele>957</ele>
        <time>2016-05-15T05:46:21Z</time>
      </trkpt>
      <trkpt lat="44.98656" lon="6.11517">
        <ele>957</ele>
        <time>2016-05-15T05:46:23Z</time>
      </trkpt>
      <trkpt lat="44.98645" lon="6.11515">
        <ele>957</ele>
        <time>2016-05-15T05:46:25Z</time>
      </trkpt>
      <trkpt lat="44.98633" lon="6.11507">
        <ele>957</ele>
        <time>2016-05-15T05:46:28Z</time>
      </trkpt>
      <trkpt lat="44.98637" lon="6.11493">
        <ele>942</ele>
        <time>2016-05-15T05:46:30Z</time>
      </trkpt>
      <trkpt lat="44.98644" lon="6.11476">
        <ele>940</ele>
        <time>2016-05-15T05:46:32Z</time>
      </trkpt>
      <trkpt lat="44.98649" lon="6.11466">
        <ele>940</ele>
        <time>2016-05-15T05:46:33Z</time>
      </trkpt>
      <trkpt lat="44.98659" lon="6.11444">
        <ele>940</ele>
        <time>2016-05-15T05:46:35Z</time>
      </trkpt>
      <trkpt lat="44.98664" lon="6.11433">
        <ele>939</ele>
        <time>2016-05-15T05:46:36Z</time>
      </trkpt>
      <trkpt lat="44.98669" lon="6.11421">
        <ele>938</ele>
        <time>2016-05-15T05:46:37Z</time>
      </trkpt>
      <trkpt lat="44.98674" lon="6.11411">
        <ele>938</ele>
        <time>2016-05-15T05:46:38Z</time>
      </trkpt>
      <trkpt lat="44.98685" lon="6.11391">
        <ele>937</ele>
        <time>2016-05-15T05:46:40Z</time>
      </trkpt>
      <trkpt lat="44.98691" lon="6.11382">
        <ele>937</ele>
        <time>2016-05-15T05:46:41Z</time>
      </trkpt>
      <trkpt lat="44.98696" lon="6.11373">
        <ele>938</ele>
        <time>2016-05-15T05:46:42Z</time>
      </trkpt>
      <trkpt lat="44.98702" lon="6.11364">
        <ele>938</ele>
        <time>2016-05-15T05:46:43Z</time>
      </trkpt>
      <trkpt lat="44.98707" lon="6.11355">
        <ele>937</ele>
        <time>2016-05-15T05:46:44Z</time>
      </trkpt>
      <trkpt lat="44.98712" lon="6.11347">
        <ele>937</ele>
        <time>2016-05-15T05:46:45Z</time>
      </trkpt>
      <trkpt lat="44.98716" lon="6.11339">
        <ele>936</ele>
        <time>2016-05-15T05:46:46Z</time>
      </trkpt>
      <trkpt lat="44.9872" lon="6.11332">
        <ele>936</ele>
        <time>2016-05-15T05:46:47Z</time>
      </trkpt>
      <trkpt lat="44.98723" lon="6.11325">
        <ele>936</ele>
        <time>2016-05-15T05:46:48Z</time>
      </trkpt>
      <trkpt lat="44.98725" lon="6.11317">
        <ele>936</ele>
        <time>2016-05-15T05:46:49Z</time>
      </trkpt>
      <trkpt lat="44.98727" lon="6.11309">
        <ele>936</ele>
        <time>2016-05-15T05:46:50Z</time>
      </trkpt>
      <trkpt lat="44.9873" lon="6.113">
        <ele>936</ele>
        <time>2016-05-15T05:46:51Z</time>
      </trkpt>
      <trkpt lat="44.98731" lon="6.11292">
        <ele>936</ele>
        <time>2016-05-15T05:46:52Z</time>
      </trkpt>
      <trkpt lat="44.98731" lon="6.11278">
        <ele>936</ele>
        <time>2016-05-15T05:46:54Z</time>
      </trkpt>
      <trkpt lat="44.98729" lon="6.11264">
        <ele>936</ele>
        <time>2016-05-15T05:46:56Z</time>
      </trkpt>
      <trkpt lat="44.98728" lon="6.11247">
        <ele>936</ele>
        <time>2016-05-15T05:46:58Z</time>
      </trkpt>
      <trkpt lat="44.98726" lon="6.11228">
        <ele>933</ele>
        <time>2016-05-15T05:47:00Z</time>
      </trkpt>
      <trkpt lat="44.98724" lon="6.11207">
        <ele>933</ele>
        <time>2016-05-15T05:47:02Z</time>
      </trkpt>
      <trkpt lat="44.98724" lon="6.11186">
        <ele>933</ele>
        <time>2016-05-15T05:47:04Z</time>
      </trkpt>
      <trkpt lat="44.98724" lon="6.11165">
        <ele>933</ele>
        <time>2016-05-15T05:47:06Z</time>
      </trkpt>
      <trkpt lat="44.98725" lon="6.11144">
        <ele>933</ele>
        <time>2016-05-15T05:47:08Z</time>
      </trkpt>
      <trkpt lat="44.98725" lon="6.11121">
        <ele>933</ele>
        <time>2016-05-15T05:47:10Z</time>
      </trkpt>
      <trkpt lat="44.98724" lon="6.11098">
        <ele>932</ele>
        <time>2016-05-15T05:47:12Z</time>
      </trkpt>
      <trkpt lat="44.98724" lon="6.11076">
        <ele>932</ele>
        <time>2016-05-15T05:47:14Z</time>
      </trkpt>
      <trkpt lat="44.98724" lon="6.11054">
        <ele>931</ele>
        <time>2016-05-15T05:47:16Z</time>
      </trkpt>
      <trkpt lat="44.98726" lon="6.11044">
        <ele>931</ele>
        <time>2016-05-15T05:47:17Z</time>
      </trkpt>
      <trkpt lat="44.98728" lon="6.11024">
        <ele>931</ele>
        <time>2016-05-15T05:47:19Z</time>
      </trkpt>
      <trkpt lat="44.98732" lon="6.11006">
        <ele>935</ele>
        <time>2016-05-15T05:47:21Z</time>
      </trkpt>
      <trkpt lat="44.98737" lon="6.10993">
        <ele>935</ele>
        <time>2016-05-15T05:47:23Z</time>
      </trkpt>
      <trkpt lat="44.98742" lon="6.1098">
        <ele>935</ele>
        <time>2016-05-15T05:47:25Z</time>
      </trkpt>
      <trkpt lat="44.98745" lon="6.10967">
        <ele>935</ele>
        <time>2016-05-15T05:47:27Z</time>
      </trkpt>
      <trkpt lat="44.98747" lon="6.10951">
        <ele>936</ele>
        <time>2016-05-15T05:47:29Z</time>
      </trkpt>
      <trkpt lat="44.98751" lon="6.10933">
        <ele>936</ele>
        <time>2016-05-15T05:47:31Z</time>
      </trkpt>
      <trkpt lat="44.98753" lon="6.10911">
        <ele>936</ele>
        <time>2016-05-15T05:47:33Z</time>
      </trkpt>
      <trkpt lat="44.98753" lon="6.10885">
        <ele>929</ele>
        <time>2016-05-15T05:47:35Z</time>
      </trkpt>
      <trkpt lat="44.98752" lon="6.10862">
        <ele>928</ele>
        <time>2016-05-15T05:47:37Z</time>
      </trkpt>
      <trkpt lat="44.98746" lon="6.10847">
        <ele>927</ele>
        <time>2016-05-15T05:47:39Z</time>
      </trkpt>
      <trkpt lat="44.98739" lon="6.10835">
        <ele>927</ele>
        <time>2016-05-15T05:47:41Z</time>
      </trkpt>
      <trkpt lat="44.98734" lon="6.10821">
        <ele>926</ele>
        <time>2016-05-15T05:47:43Z</time>
      </trkpt>
      <trkpt lat="44.98731" lon="6.10804">
        <ele>926</ele>
        <time>2016-05-15T05:47:45Z</time>
      </trkpt>
      <trkpt lat="44.98728" lon="6.10784">
        <ele>925</ele>
        <time>2016-05-15T05:47:47Z</time>
      </trkpt>
      <trkpt lat="44.98722" lon="6.10764">
        <ele>925</ele>
        <time>2016-05-15T05:47:49Z</time>
      </trkpt>
      <trkpt lat="44.98714" lon="6.10744">
        <ele>924</ele>
        <time>2016-05-15T05:47:51Z</time>
      </trkpt>
      <trkpt lat="44.9871" lon="6.10733">
        <ele>924</ele>
        <time>2016-05-15T05:47:52Z</time>
      </trkpt>
      <trkpt lat="44.98706" lon="6.10721">
        <ele>924</ele>
        <time>2016-05-15T05:47:53Z</time>
      </trkpt>
      <trkpt lat="44.98702" lon="6.10708">
        <ele>924</ele>
        <time>2016-05-15T05:47:54Z</time>
      </trkpt>
      <trkpt lat="44.98695" lon="6.10686">
        <ele>924</ele>
        <time>2016-05-15T05:47:56Z</time>
      </trkpt>
      <trkpt lat="44.98692" lon="6.10662">
        <ele>924</ele>
        <time>2016-05-15T05:47:58Z</time>
      </trkpt>
      <trkpt lat="44.98691" lon="6.10642">
        <ele>924</ele>
        <time>2016-05-15T05:48:00Z</time>
      </trkpt>
      <trkpt lat="44.98694" lon="6.10622">
        <ele>921</ele>
        <time>2016-05-15T05:48:02Z</time>
      </trkpt>
      <trkpt lat="44.98697" lon="6.106">
        <ele>921</ele>
        <time>2016-05-15T05:48:04Z</time>
      </trkpt>
      <trkpt lat="44.98707" lon="6.10578">
        <ele>921</ele>
        <time>2016-05-15T05:48:06Z</time>
      </trkpt>
      <trkpt lat="44.98713" lon="6.10566">
        <ele>921</ele>
        <time>2016-05-15T05:48:07Z</time>
      </trkpt>
      <trkpt lat="44.98718" lon="6.10554">
        <ele>921</ele>
        <time>2016-05-15T05:48:08Z</time>
      </trkpt>
      <trkpt lat="44.98722" lon="6.10542">
        <ele>921</ele>
        <time>2016-05-15T05:48:09Z</time>
      </trkpt>
      <trkpt lat="44.98726" lon="6.10531">
        <ele>921</ele>
        <time>2016-05-15T05:48:10Z</time>
      </trkpt>
      <trkpt lat="44.98734" lon="6.1051">
        <ele>918</ele>
        <time>2016-05-15T05:48:12Z</time>
      </trkpt>
      <trkpt lat="44.98741" lon="6.10486">
        <ele>915</ele>
        <time>2016-05-15T05:48:14Z</time>
      </trkpt>
      <trkpt lat="44.98745" lon="6.10474">
        <ele>915</ele>
        <time>2016-05-15T05:48:15Z</time>
      </trkpt>
      <trkpt lat="44.98752" lon="6.10464">
        <ele>914</ele>
        <time>2016-05-15T05:48:16Z</time>
      </trkpt>
      <trkpt lat="44.98758" lon="6.10453">
        <ele>914</ele>
        <time>2016-05-15T05:48:17Z</time>
      </trkpt>
      <trkpt lat="44.98765" lon="6.10445">
        <ele>914</ele>
        <time>2016-05-15T05:48:18Z</time>
      </trkpt>
      <trkpt lat="44.98778" lon="6.10428">
        <ele>915</ele>
        <time>2016-05-15T05:48:20Z</time>
      </trkpt>
      <trkpt lat="44.98791" lon="6.10412">
        <ele>915</ele>
        <time>2016-05-15T05:48:22Z</time>
      </trkpt>
      <trkpt lat="44.98804" lon="6.10397">
        <ele>915</ele>
        <time>2016-05-15T05:48:24Z</time>
      </trkpt>
      <trkpt lat="44.98815" lon="6.10381">
        <ele>914</ele>
        <time>2016-05-15T05:48:26Z</time>
      </trkpt>
      <trkpt lat="44.98827" lon="6.10363">
        <ele>914</ele>
        <time>2016-05-15T05:48:28Z</time>
      </trkpt>
      <trkpt lat="44.98836" lon="6.10348">
        <ele>914</ele>
        <time>2016-05-15T05:48:30Z</time>
      </trkpt>
      <trkpt lat="44.98847" lon="6.10332">
        <ele>913</ele>
        <time>2016-05-15T05:48:32Z</time>
      </trkpt>
      <trkpt lat="44.98858" lon="6.10314">
        <ele>913</ele>
        <time>2016-05-15T05:48:34Z</time>
      </trkpt>
      <trkpt lat="44.98869" lon="6.10298">
        <ele>913</ele>
        <time>2016-05-15T05:48:36Z</time>
      </trkpt>
      <trkpt lat="44.98882" lon="6.10286">
        <ele>913</ele>
        <time>2016-05-15T05:48:38Z</time>
      </trkpt>
      <trkpt lat="44.98896" lon="6.10275">
        <ele>913</ele>
        <time>2016-05-15T05:48:40Z</time>
      </trkpt>
      <trkpt lat="44.98909" lon="6.10263">
        <ele>913</ele>
        <time>2016-05-15T05:48:42Z</time>
      </trkpt>
      <trkpt lat="44.98921" lon="6.1025">
        <ele>913</ele>
        <time>2016-05-15T05:48:44Z</time>
      </trkpt>
      <trkpt lat="44.98931" lon="6.10238">
        <ele>913</ele>
        <time>2016-05-15T05:48:46Z</time>
      </trkpt>
      <trkpt lat="44.9894" lon="6.10224">
        <ele>913</ele>
        <time>2016-05-15T05:48:48Z</time>
      </trkpt>
      <trkpt lat="44.98948" lon="6.10207">
        <ele>913</ele>
        <time>2016-05-15T05:48:50Z</time>
      </trkpt>
      <trkpt lat="44.9895" lon="6.10187">
        <ele>910</ele>
        <time>2016-05-15T05:48:52Z</time>
      </trkpt>
      <trkpt lat="44.98953" lon="6.10169">
        <ele>910</ele>
        <time>2016-05-15T05:48:54Z</time>
      </trkpt>
      <trkpt lat="44.9896" lon="6.10155">
        <ele>910</ele>
        <time>2016-05-15T05:48:56Z</time>
      </trkpt>
      <trkpt lat="44.98962" lon="6.10138">
        <ele>909</ele>
        <time>2016-05-15T05:48:58Z</time>
      </trkpt>
      <trkpt lat="44.9896" lon="6.10121">
        <ele>909</ele>
        <time>2016-05-15T05:49:00Z</time>
      </trkpt>
      <trkpt lat="44.98958" lon="6.101">
        <ele>907</ele>
        <time>2016-05-15T05:49:02Z</time>
      </trkpt>
      <trkpt lat="44.98955" lon="6.10077">
        <ele>907</ele>
        <time>2016-05-15T05:49:04Z</time>
      </trkpt>
      <trkpt lat="44.98954" lon="6.10062">
        <ele>910</ele>
        <time>2016-05-15T05:49:06Z</time>
      </trkpt>
      <trkpt lat="44.98952" lon="6.10048">
        <ele>910</ele>
        <time>2016-05-15T05:49:08Z</time>
      </trkpt>
      <trkpt lat="44.98947" lon="6.10034">
        <ele>910</ele>
        <time>2016-05-15T05:49:10Z</time>
      </trkpt>
      <trkpt lat="44.98941" lon="6.10018">
        <ele>910</ele>
        <time>2016-05-15T05:49:12Z</time>
      </trkpt>
      <trkpt lat="44.98938" lon="6.10009">
        <ele>910</ele>
        <time>2016-05-15T05:49:13Z</time>
      </trkpt>
      <trkpt lat="44.98935" lon="6.10001">
        <ele>910</ele>
        <time>2016-05-15T05:49:14Z</time>
      </trkpt>
      <trkpt lat="44.98931" lon="6.09992">
        <ele>910</ele>
        <time>2016-05-15T05:49:15Z</time>
      </trkpt>
      <trkpt lat="44.98928" lon="6.09983">
        <ele>910</ele>
        <time>2016-05-15T05:49:16Z</time>
      </trkpt>
      <trkpt lat="44.98924" lon="6.09974">
        <ele>910</ele>
        <time>2016-05-15T05:49:17Z</time>
      </trkpt>
      <trkpt lat="44.98921" lon="6.09964">
        <ele>910</ele>
        <time>2016-05-15T05:49:18Z</time>
      </trkpt>
      <trkpt lat="44.98913" lon="6.09942">
        <ele>910</ele>
        <time>2016-05-15T05:49:20Z</time>
      </trkpt>
      <trkpt lat="44.98909" lon="6.0993">
        <ele>910</ele>
        <time>2016-05-15T05:49:21Z</time>
      </trkpt>
      <trkpt lat="44.98905" lon="6.0992">
        <ele>910</ele>
        <time>2016-05-15T05:49:22Z</time>
      </trkpt>
      <trkpt lat="44.98899" lon="6.09901">
        <ele>910</ele>
        <time>2016-05-15T05:49:24Z</time>
      </trkpt>
      <trkpt lat="44.98895" lon="6.09884">
        <ele>909</ele>
        <time>2016-05-15T05:49:26Z</time>
      </trkpt>
      <trkpt lat="44.98894" lon="6.09876">
        <ele>909</ele>
        <time>2016-05-15T05:49:27Z</time>
      </trkpt>
      <trkpt lat="44.98893" lon="6.09867">
        <ele>909</ele>
        <time>2016-05-15T05:49:28Z</time>
      </trkpt>
      <trkpt lat="44.98896" lon="6.09851">
        <ele>909</ele>
        <time>2016-05-15T05:49:30Z</time>
      </trkpt>
      <trkpt lat="44.98901" lon="6.09831">
        <ele>909</ele>
        <time>2016-05-15T05:49:32Z</time>
      </trkpt>
      <trkpt lat="44.98907" lon="6.09808">
        <ele>909</ele>
        <time>2016-05-15T05:49:34Z</time>
      </trkpt>
      <trkpt lat="44.9891" lon="6.09796">
        <ele>904</ele>
        <time>2016-05-15T05:49:35Z</time>
      </trkpt>
      <trkpt lat="44.98913" lon="6.09783">
        <ele>904</ele>
        <time>2016-05-15T05:49:36Z</time>
      </trkpt>
      <trkpt lat="44.98918" lon="6.09772">
        <ele>904</ele>
        <time>2016-05-15T05:49:37Z</time>
      </trkpt>
      <trkpt lat="44.98923" lon="6.09761">
        <ele>904</ele>
        <time>2016-05-15T05:49:38Z</time>
      </trkpt>
      <trkpt lat="44.9893" lon="6.0975">
        <ele>904</ele>
        <time>2016-05-15T05:49:39Z</time>
      </trkpt>
      <trkpt lat="44.98938" lon="6.09739">
        <ele>904</ele>
        <time>2016-05-15T05:49:40Z</time>
      </trkpt>
      <trkpt lat="44.98945" lon="6.0973">
        <ele>904</ele>
        <time>2016-05-15T05:49:41Z</time>
      </trkpt>
      <trkpt lat="44.98953" lon="6.09721">
        <ele>904</ele>
        <time>2016-05-15T05:49:42Z</time>
      </trkpt>
      <trkpt lat="44.98958" lon="6.09711">
        <ele>904</ele>
        <time>2016-05-15T05:49:43Z</time>
      </trkpt>
      <trkpt lat="44.98965" lon="6.09701">
        <ele>904</ele>
        <time>2016-05-15T05:49:44Z</time>
      </trkpt>
      <trkpt lat="44.98971" lon="6.09691">
        <ele>904</ele>
        <time>2016-05-15T05:49:45Z</time>
      </trkpt>
      <trkpt lat="44.98981" lon="6.09671">
        <ele>897</ele>
        <time>2016-05-15T05:49:47Z</time>
      </trkpt>
      <trkpt lat="44.98992" lon="6.09652">
        <ele>897</ele>
        <time>2016-05-15T05:49:49Z</time>
      </trkpt>
      <trkpt lat="44.99001" lon="6.09632">
        <ele>897</ele>
        <time>2016-05-15T05:49:51Z</time>
      </trkpt>
      <trkpt lat="44.9901" lon="6.09612">
        <ele>896</ele>
        <time>2016-05-15T05:49:53Z</time>
      </trkpt>
      <trkpt lat="44.99016" lon="6.09589">
        <ele>896</ele>
        <time>2016-05-15T05:49:55Z</time>
      </trkpt>
      <trkpt lat="44.99022" lon="6.09567">
        <ele>896</ele>
        <time>2016-05-15T05:49:57Z</time>
      </trkpt>
      <trkpt lat="44.99026" lon="6.09543">
        <ele>896</ele>
        <time>2016-05-15T05:49:59Z</time>
      </trkpt>
      <trkpt lat="44.99027" lon="6.0952">
        <ele>895</ele>
        <time>2016-05-15T05:50:01Z</time>
      </trkpt>
      <trkpt lat="44.9903" lon="6.09496">
        <ele>895</ele>
        <time>2016-05-15T05:50:03Z</time>
      </trkpt>
      <trkpt lat="44.99034" lon="6.09475">
        <ele>895</ele>
        <time>2016-05-15T05:50:05Z</time>
      </trkpt>
      <trkpt lat="44.99038" lon="6.09454">
        <ele>895</ele>
        <time>2016-05-15T05:50:07Z</time>
      </trkpt>
      <trkpt lat="44.99045" lon="6.09436">
        <ele>895</ele>
        <time>2016-05-15T05:50:09Z</time>
      </trkpt>
      <trkpt lat="44.99052" lon="6.09418">
        <ele>895</ele>
        <time>2016-05-15T05:50:11Z</time>
      </trkpt>
      <trkpt lat="44.99059" lon="6.09403">
        <ele>895</ele>
        <time>2016-05-15T05:50:13Z</time>
      </trkpt>
      <trkpt lat="44.99065" lon="6.09387">
        <ele>895</ele>
        <time>2016-05-15T05:50:15Z</time>
      </trkpt>
      <trkpt lat="44.9907" lon="6.09369">
        <ele>895</ele>
        <time>2016-05-15T05:50:17Z</time>
      </trkpt>
      <trkpt lat="44.99075" lon="6.0935">
        <ele>895</ele>
        <time>2016-05-15T05:50:19Z</time>
      </trkpt>
      <trkpt lat="44.9908" lon="6.09333">
        <ele>895</ele>
        <time>2016-05-15T05:50:21Z</time>
      </trkpt>
      <trkpt lat="44.99084" lon="6.09315">
        <ele>895</ele>
        <time>2016-05-15T05:50:23Z</time>
      </trkpt>
      <trkpt lat="44.99088" lon="6.09295">
        <ele>895</ele>
        <time>2016-05-15T05:50:25Z</time>
      </trkpt>
      <trkpt lat="44.99091" lon="6.09276">
        <ele>895</ele>
        <time>2016-05-15T05:50:27Z</time>
      </trkpt>
      <trkpt lat="44.99092" lon="6.09255">
        <ele>895</ele>
        <time>2016-05-15T05:50:29Z</time>
      </trkpt>
      <trkpt lat="44.99089" lon="6.09232">
        <ele>895</ele>
        <time>2016-05-15T05:50:31Z</time>
      </trkpt>
      <trkpt lat="44.99084" lon="6.09209">
        <ele>895</ele>
        <time>2016-05-15T05:50:33Z</time>
      </trkpt>
      <trkpt lat="44.99079" lon="6.09188">
        <ele>895</ele>
        <time>2016-05-15T05:50:35Z</time>
      </trkpt>
      <trkpt lat="44.99075" lon="6.09169">
        <ele>894</ele>
        <time>2016-05-15T05:50:37Z</time>
      </trkpt>
      <trkpt lat="44.9907" lon="6.09151">
        <ele>894</ele>
        <time>2016-05-15T05:50:39Z</time>
      </trkpt>
      <trkpt lat="44.99065" lon="6.09132">
        <ele>894</ele>
        <time>2016-05-15T05:50:41Z</time>
      </trkpt>
      <trkpt lat="44.99062" lon="6.09112">
        <ele>894</ele>
        <time>2016-05-15T05:50:43Z</time>
      </trkpt>
      <trkpt lat="44.99059" lon="6.09092">
        <ele>893</ele>
        <time>2016-05-15T05:50:45Z</time>
      </trkpt>
      <trkpt lat="44.99058" lon="6.09072">
        <ele>893</ele>
        <time>2016-05-15T05:50:47Z</time>
      </trkpt>
      <trkpt lat="44.99057" lon="6.09051">
        <ele>893</ele>
        <time>2016-05-15T05:50:49Z</time>
      </trkpt>
      <trkpt lat="44.99058" lon="6.09032">
        <ele>893</ele>
        <time>2016-05-15T05:50:51Z</time>
      </trkpt>
      <trkpt lat="44.99059" lon="6.09013">
        <ele>893</ele>
        <time>2016-05-15T05:50:53Z</time>
      </trkpt>
      <trkpt lat="44.99064" lon="6.08993">
        <ele>893</ele>
        <time>2016-05-15T05:50:55Z</time>
      </trkpt>
      <trkpt lat="44.99073" lon="6.08973">
        <ele>890</ele>
        <time>2016-05-15T05:50:57Z</time>
      </trkpt>
      <trkpt lat="44.99082" lon="6.08954">
        <ele>890</ele>
        <time>2016-05-15T05:50:59Z</time>
      </trkpt>
      <trkpt lat="44.99092" lon="6.08936">
        <ele>890</ele>
        <time>2016-05-15T05:51:01Z</time>
      </trkpt>
      <trkpt lat="44.99101" lon="6.0892">
        <ele>889</ele>
        <time>2016-05-15T05:51:03Z</time>
      </trkpt>
      <trkpt lat="44.99109" lon="6.08903">
        <ele>888</ele>
        <time>2016-05-15T05:51:05Z</time>
      </trkpt>
      <trkpt lat="44.99116" lon="6.08884">
        <ele>888</ele>
        <time>2016-05-15T05:51:07Z</time>
      </trkpt>
      <trkpt lat="44.99125" lon="6.08866">
        <ele>888</ele>
        <time>2016-05-15T05:51:09Z</time>
      </trkpt>
      <trkpt lat="44.99135" lon="6.08848">
        <ele>886</ele>
        <time>2016-05-15T05:51:11Z</time>
      </trkpt>
      <trkpt lat="44.99144" lon="6.08827">
        <ele>886</ele>
        <time>2016-05-15T05:51:13Z</time>
      </trkpt>
      <trkpt lat="44.99151" lon="6.08804">
        <ele>882</ele>
        <time>2016-05-15T05:51:15Z</time>
      </trkpt>
      <trkpt lat="44.99158" lon="6.08779">
        <ele>882</ele>
        <time>2016-05-15T05:51:17Z</time>
      </trkpt>
      <trkpt lat="44.99162" lon="6.08766">
        <ele>882</ele>
        <time>2016-05-15T05:51:18Z</time>
      </trkpt>
      <trkpt lat="44.99168" lon="6.08753">
        <ele>882</ele>
        <time>2016-05-15T05:51:19Z</time>
      </trkpt>
      <trkpt lat="44.99175" lon="6.08741">
        <ele>882</ele>
        <time>2016-05-15T05:51:20Z</time>
      </trkpt>
      <trkpt lat="44.99181" lon="6.0873">
        <ele>879</ele>
        <time>2016-05-15T05:51:21Z</time>
      </trkpt>
      <trkpt lat="44.99188" lon="6.08719">
        <ele>879</ele>
        <time>2016-05-15T05:51:22Z</time>
      </trkpt>
      <trkpt lat="44.99194" lon="6.08708">
        <ele>879</ele>
        <time>2016-05-15T05:51:23Z</time>
      </trkpt>
      <trkpt lat="44.99201" lon="6.08697">
        <ele>879</ele>
        <time>2016-05-15T05:51:24Z</time>
      </trkpt>
      <trkpt lat="44.99206" lon="6.08687">
        <ele>878</ele>
        <time>2016-05-15T05:51:25Z</time>
      </trkpt>
      <trkpt lat="44.99211" lon="6.08676">
        <ele>878</ele>
        <time>2016-05-15T05:51:26Z</time>
      </trkpt>
      <trkpt lat="44.99214" lon="6.08664">
        <ele>878</ele>
        <time>2016-05-15T05:51:27Z</time>
      </trkpt>
      <trkpt lat="44.99215" lon="6.08643">
        <ele>874</ele>
        <time>2016-05-15T05:51:29Z</time>
      </trkpt>
      <trkpt lat="44.99211" lon="6.08624">
        <ele>874</ele>
        <time>2016-05-15T05:51:31Z</time>
      </trkpt>
      <trkpt lat="44.99204" lon="6.08602">
        <ele>873</ele>
        <time>2016-05-15T05:51:33Z</time>
      </trkpt>
      <trkpt lat="44.99201" lon="6.0859">
        <ele>873</ele>
        <time>2016-05-15T05:51:34Z</time>
      </trkpt>
      <trkpt lat="44.992" lon="6.08578">
        <ele>873</ele>
        <time>2016-05-15T05:51:35Z</time>
      </trkpt>
      <trkpt lat="44.99199" lon="6.08564">
        <ele>872</ele>
        <time>2016-05-15T05:51:36Z</time>
      </trkpt>
      <trkpt lat="44.99198" lon="6.08551">
        <ele>871</ele>
        <time>2016-05-15T05:51:37Z</time>
      </trkpt>
      <trkpt lat="44.99195" lon="6.08539">
        <ele>870</ele>
        <time>2016-05-15T05:51:38Z</time>
      </trkpt>
      <trkpt lat="44.99189" lon="6.08515">
        <ele>868</ele>
        <time>2016-05-15T05:51:40Z</time>
      </trkpt>
      <trkpt lat="44.99186" lon="6.08503">
        <ele>868</ele>
        <time>2016-05-15T05:51:41Z</time>
      </trkpt>
      <trkpt lat="44.99183" lon="6.0849">
        <ele>868</ele>
        <time>2016-05-15T05:51:42Z</time>
      </trkpt>
      <trkpt lat="44.99181" lon="6.08476">
        <ele>868</ele>
        <time>2016-05-15T05:51:43Z</time>
      </trkpt>
      <trkpt lat="44.9918" lon="6.08463">
        <ele>868</ele>
        <time>2016-05-15T05:51:44Z</time>
      </trkpt>
      <trkpt lat="44.99178" lon="6.0845">
        <ele>868</ele>
        <time>2016-05-15T05:51:45Z</time>
      </trkpt>
      <trkpt lat="44.99171" lon="6.0843">
        <ele>869</ele>
        <time>2016-05-15T05:51:47Z</time>
      </trkpt>
      <trkpt lat="44.99166" lon="6.08416">
        <ele>869</ele>
        <time>2016-05-15T05:51:49Z</time>
      </trkpt>
      <trkpt lat="44.99171" lon="6.08399">
        <ele>869</ele>
        <time>2016-05-15T05:51:51Z</time>
      </trkpt>
      <trkpt lat="44.99182" lon="6.0838">
        <ele>869</ele>
        <time>2016-05-15T05:51:53Z</time>
      </trkpt>
      <trkpt lat="44.99194" lon="6.08362">
        <ele>868</ele>
        <time>2016-05-15T05:51:55Z</time>
      </trkpt>
      <trkpt lat="44.99205" lon="6.08343">
        <ele>868</ele>
        <time>2016-05-15T05:51:57Z</time>
      </trkpt>
      <trkpt lat="44.99213" lon="6.08323">
        <ele>868</ele>
        <time>2016-05-15T05:51:59Z</time>
      </trkpt>
      <trkpt lat="44.99221" lon="6.08308">
        <ele>868</ele>
        <time>2016-05-15T05:52:01Z</time>
      </trkpt>
      <trkpt lat="44.9923" lon="6.083">
        <ele>864</ele>
        <time>2016-05-15T05:52:03Z</time>
      </trkpt>
      <trkpt lat="44.99238" lon="6.08292">
        <ele>864</ele>
        <time>2016-05-15T05:52:05Z</time>
      </trkpt>
      <trkpt lat="44.99247" lon="6.0828">
        <ele>864</ele>
        <time>2016-05-15T05:52:07Z</time>
      </trkpt>
      <trkpt lat="44.99254" lon="6.08267">
        <ele>864</ele>
        <time>2016-05-15T05:52:09Z</time>
      </trkpt>
      <trkpt lat="44.99255" lon="6.08252">
        <ele>864</ele>
        <time>2016-05-15T05:52:12Z</time>
      </trkpt>
      <trkpt lat="44.99248" lon="6.08239">
        <ele>864</ele>
        <time>2016-05-15T05:52:14Z</time>
      </trkpt>
      <trkpt lat="44.99248" lon="6.08224">
        <ele>864</ele>
        <time>2016-05-15T05:52:16Z</time>
      </trkpt>
      <trkpt lat="44.99253" lon="6.08211">
        <ele>862</ele>
        <time>2016-05-15T05:52:18Z</time>
      </trkpt>
      <trkpt lat="44.99259" lon="6.082">
        <ele>862</ele>
        <time>2016-05-15T05:52:20Z</time>
      </trkpt>
      <trkpt lat="44.99265" lon="6.0819">
        <ele>862</ele>
        <time>2016-05-15T05:52:22Z</time>
      </trkpt>
      <trkpt lat="44.99273" lon="6.08176">
        <ele>862</ele>
        <time>2016-05-15T05:52:24Z</time>
      </trkpt>
      <trkpt lat="44.99279" lon="6.0816">
        <ele>862</ele>
        <time>2016-05-15T05:52:26Z</time>
      </trkpt>
      <trkpt lat="44.99285" lon="6.08144">
        <ele>862</ele>
        <time>2016-05-15T05:52:28Z</time>
      </trkpt>
      <trkpt lat="44.99289" lon="6.08127">
        <ele>862</ele>
        <time>2016-05-15T05:52:30Z</time>
      </trkpt>
      <trkpt lat="44.99294" lon="6.08113">
        <ele>863</ele>
        <time>2016-05-15T05:52:32Z</time>
      </trkpt>
      <trkpt lat="44.99297" lon="6.08099">
        <ele>863</ele>
        <time>2016-05-15T05:52:34Z</time>
      </trkpt>
      <trkpt lat="44.99304" lon="6.0809">
        <ele>863</ele>
        <time>2016-05-15T05:52:36Z</time>
      </trkpt>
      <trkpt lat="44.9931" lon="6.08074">
        <ele>863</ele>
        <time>2016-05-15T05:52:39Z</time>
      </trkpt>
      <trkpt lat="44.99316" lon="6.08063">
        <ele>863</ele>
        <time>2016-05-15T05:52:41Z</time>
      </trkpt>
      <trkpt lat="44.99324" lon="6.08052">
        <ele>863</ele>
        <time>2016-05-15T05:52:43Z</time>
      </trkpt>
      <trkpt lat="44.99334" lon="6.08038">
        <ele>863</ele>
        <time>2016-05-15T05:52:45Z</time>
      </trkpt>
      <trkpt lat="44.99344" lon="6.08019">
        <ele>863</ele>
        <time>2016-05-15T05:52:47Z</time>
      </trkpt>
      <trkpt lat="44.99354" lon="6.08001">
        <ele>863</ele>
        <time>2016-05-15T05:52:49Z</time>
      </trkpt>
      <trkpt lat="44.9936" lon="6.07984">
        <ele>862</ele>
        <time>2016-05-15T05:52:51Z</time>
      </trkpt>
      <trkpt lat="44.99363" lon="6.07968">
        <ele>862</ele>
        <time>2016-05-15T05:52:53Z</time>
      </trkpt>
      <trkpt lat="44.99364" lon="6.0795">
        <ele>862</ele>
        <time>2016-05-15T05:52:55Z</time>
      </trkpt>
      <trkpt lat="44.99362" lon="6.07933">
        <ele>862</ele>
        <time>2016-05-15T05:52:57Z</time>
      </trkpt>
      <trkpt lat="44.99357" lon="6.07912">
        <ele>862</ele>
        <time>2016-05-15T05:52:59Z</time>
      </trkpt>
      <trkpt lat="44.99356" lon="6.07894">
        <ele>859</ele>
        <time>2016-05-15T05:53:01Z</time>
      </trkpt>
      <trkpt lat="44.99359" lon="6.07876">
        <ele>859</ele>
        <time>2016-05-15T05:53:03Z</time>
      </trkpt>
      <trkpt lat="44.99358" lon="6.07855">
        <ele>859</ele>
        <time>2016-05-15T05:53:05Z</time>
      </trkpt>
      <trkpt lat="44.99358" lon="6.07832">
        <ele>859</ele>
        <time>2016-05-15T05:53:07Z</time>
      </trkpt>
      <trkpt lat="44.9936" lon="6.07814">
        <ele>859</ele>
        <time>2016-05-15T05:53:09Z</time>
      </trkpt>
      <trkpt lat="44.99367" lon="6.07796">
        <ele>855</ele>
        <time>2016-05-15T05:53:11Z</time>
      </trkpt>
      <trkpt lat="44.99367" lon="6.07777">
        <ele>855</ele>
        <time>2016-05-15T05:53:13Z</time>
      </trkpt>
      <trkpt lat="44.99367" lon="6.0776">
        <ele>855</ele>
        <time>2016-05-15T05:53:15Z</time>
      </trkpt>
      <trkpt lat="44.99366" lon="6.07743">
        <ele>856</ele>
        <time>2016-05-15T05:53:17Z</time>
      </trkpt>
      <trkpt lat="44.99364" lon="6.07727">
        <ele>855</ele>
        <time>2016-05-15T05:53:19Z</time>
      </trkpt>
      <trkpt lat="44.99366" lon="6.07711">
        <ele>855</ele>
        <time>2016-05-15T05:53:21Z</time>
      </trkpt>
      <trkpt lat="44.99368" lon="6.07694">
        <ele>855</ele>
        <time>2016-05-15T05:53:23Z</time>
      </trkpt>
      <trkpt lat="44.9937" lon="6.07679">
        <ele>855</ele>
        <time>2016-05-15T05:53:25Z</time>
      </trkpt>
      <trkpt lat="44.99371" lon="6.07663">
        <ele>855</ele>
        <time>2016-05-15T05:53:27Z</time>
      </trkpt>
      <trkpt lat="44.99379" lon="6.07649">
        <ele>855</ele>
        <time>2016-05-15T05:53:29Z</time>
      </trkpt>
      <trkpt lat="44.99386" lon="6.07631">
        <ele>855</ele>
        <time>2016-05-15T05:53:31Z</time>
      </trkpt>
      <trkpt lat="44.99392" lon="6.07611">
        <ele>850</ele>
        <time>2016-05-15T05:53:33Z</time>
      </trkpt>
      <trkpt lat="44.99396" lon="6.07592">
        <ele>850</ele>
        <time>2016-05-15T05:53:35Z</time>
      </trkpt>
      <trkpt lat="44.99398" lon="6.07572">
        <ele>850</ele>
        <time>2016-05-15T05:53:37Z</time>
      </trkpt>
      <trkpt lat="44.99401" lon="6.07555">
        <ele>850</ele>
        <time>2016-05-15T05:53:40Z</time>
      </trkpt>
      <trkpt lat="44.99404" lon="6.07541">
        <ele>849</ele>
        <time>2016-05-15T05:53:42Z</time>
      </trkpt>
      <trkpt lat="44.99409" lon="6.07524">
        <ele>849</ele>
        <time>2016-05-15T05:53:44Z</time>
      </trkpt>
      <trkpt lat="44.99414" lon="6.07504">
        <ele>849</ele>
        <time>2016-05-15T05:53:46Z</time>
      </trkpt>
      <trkpt lat="44.99418" lon="6.07487">
        <ele>849</ele>
        <time>2016-05-15T05:53:48Z</time>
      </trkpt>
      <trkpt lat="44.99424" lon="6.0747">
        <ele>848</ele>
        <time>2016-05-15T05:53:50Z</time>
      </trkpt>
      <trkpt lat="44.99428" lon="6.07453">
        <ele>848</ele>
        <time>2016-05-15T05:53:52Z</time>
      </trkpt>
      <trkpt lat="44.99432" lon="6.07433">
        <ele>848</ele>
        <time>2016-05-15T05:53:54Z</time>
      </trkpt>
      <trkpt lat="44.99434" lon="6.07413">
        <ele>848</ele>
        <time>2016-05-15T05:53:56Z</time>
      </trkpt>
      <trkpt lat="44.99437" lon="6.07393">
        <ele>848</ele>
        <time>2016-05-15T05:53:58Z</time>
      </trkpt>
      <trkpt lat="44.99438" lon="6.07375">
        <ele>847</ele>
        <time>2016-05-15T05:54:00Z</time>
      </trkpt>
      <trkpt lat="44.99433" lon="6.07357">
        <ele>847</ele>
        <time>2016-05-15T05:54:02Z</time>
      </trkpt>
      <trkpt lat="44.99431" lon="6.07342">
        <ele>847</ele>
        <time>2016-05-15T05:54:05Z</time>
      </trkpt>
      <trkpt lat="44.99429" lon="6.07327">
        <ele>847</ele>
        <time>2016-05-15T05:54:09Z</time>
      </trkpt>
      <trkpt lat="44.99426" lon="6.07312">
        <ele>850</ele>
        <time>2016-05-15T05:54:13Z</time>
      </trkpt>
      <trkpt lat="44.99422" lon="6.07299">
        <ele>850</ele>
        <time>2016-05-15T05:54:17Z</time>
      </trkpt>
      <trkpt lat="44.99427" lon="6.07282">
        <ele>850</ele>
        <time>2016-05-15T05:54:20Z</time>
      </trkpt>
      <trkpt lat="44.99434" lon="6.07273">
        <ele>850</ele>
        <time>2016-05-15T05:54:23Z</time>
      </trkpt>
      <trkpt lat="44.99439" lon="6.07257">
        <ele>855</ele>
        <time>2016-05-15T05:54:27Z</time>
      </trkpt>
      <trkpt lat="44.9944" lon="6.07242">
        <ele>856</ele>
        <time>2016-05-15T05:54:30Z</time>
      </trkpt>
      <trkpt lat="44.99445" lon="6.07229">
        <ele>856</ele>
        <time>2016-05-15T05:54:33Z</time>
      </trkpt>
      <trkpt lat="44.99457" lon="6.07218">
        <ele>854</ele>
        <time>2016-05-15T05:54:36Z</time>
      </trkpt>
      <trkpt lat="44.9947" lon="6.07209">
        <ele>854</ele>
        <time>2016-05-15T05:54:38Z</time>
      </trkpt>
      <trkpt lat="44.99486" lon="6.07201">
        <ele>849</ele>
        <time>2016-05-15T05:54:40Z</time>
      </trkpt>
      <trkpt lat="44.99498" lon="6.07199">
        <ele>847</ele>
        <time>2016-05-15T05:54:41Z</time>
      </trkpt>
      <trkpt lat="44.99507" lon="6.07197">
        <ele>847</ele>
        <time>2016-05-15T05:54:42Z</time>
      </trkpt>
      <trkpt lat="44.99516" lon="6.07191">
        <ele>845</ele>
        <time>2016-05-15T05:54:43Z</time>
      </trkpt>
      <trkpt lat="44.99527" lon="6.07185">
        <ele>842</ele>
        <time>2016-05-15T05:54:44Z</time>
      </trkpt>
      <trkpt lat="44.99537" lon="6.07178">
        <ele>842</ele>
        <time>2016-05-15T05:54:45Z</time>
      </trkpt>
      <trkpt lat="44.99548" lon="6.07173">
        <ele>841</ele>
        <time>2016-05-15T05:54:46Z</time>
      </trkpt>
      <trkpt lat="44.99559" lon="6.07168">
        <ele>839</ele>
        <time>2016-05-15T05:54:47Z</time>
      </trkpt>
      <trkpt lat="44.9957" lon="6.07163">
        <ele>839</ele>
        <time>2016-05-15T05:54:48Z</time>
      </trkpt>
      <trkpt lat="44.99578" lon="6.07157">
        <ele>838</ele>
        <time>2016-05-15T05:54:49Z</time>
      </trkpt>
      <trkpt lat="44.99587" lon="6.07151">
        <ele>836</ele>
        <time>2016-05-15T05:54:50Z</time>
      </trkpt>
      <trkpt lat="44.99594" lon="6.07143">
        <ele>835</ele>
        <time>2016-05-15T05:54:51Z</time>
      </trkpt>
      <trkpt lat="44.996" lon="6.07132">
        <ele>834</ele>
        <time>2016-05-15T05:54:52Z</time>
      </trkpt>
      <trkpt lat="44.99607" lon="6.07123">
        <ele>832</ele>
        <time>2016-05-15T05:54:53Z</time>
      </trkpt>
      <trkpt lat="44.99622" lon="6.07111">
        <ele>832</ele>
        <time>2016-05-15T05:54:55Z</time>
      </trkpt>
      <trkpt lat="44.9964" lon="6.07103">
        <ele>829</ele>
        <time>2016-05-15T05:54:57Z</time>
      </trkpt>
      <trkpt lat="44.99649" lon="6.07098">
        <ele>827</ele>
        <time>2016-05-15T05:54:58Z</time>
      </trkpt>
      <trkpt lat="44.99657" lon="6.07093">
        <ele>827</ele>
        <time>2016-05-15T05:54:59Z</time>
      </trkpt>
      <trkpt lat="44.99666" lon="6.07086">
        <ele>827</ele>
        <time>2016-05-15T05:55:00Z</time>
      </trkpt>
      <trkpt lat="44.99675" lon="6.07078">
        <ele>825</ele>
        <time>2016-05-15T05:55:01Z</time>
      </trkpt>
      <trkpt lat="44.99682" lon="6.07068">
        <ele>825</ele>
        <time>2016-05-15T05:55:02Z</time>
      </trkpt>
      <trkpt lat="44.99691" lon="6.07059">
        <ele>825</ele>
        <time>2016-05-15T05:55:03Z</time>
      </trkpt>
      <trkpt lat="44.99706" lon="6.07039">
        <ele>823</ele>
        <time>2016-05-15T05:55:05Z</time>
      </trkpt>
      <trkpt lat="44.99711" lon="6.07027">
        <ele>823</ele>
        <time>2016-05-15T05:55:06Z</time>
      </trkpt>
      <trkpt lat="44.99716" lon="6.07015">
        <ele>823</ele>
        <time>2016-05-15T05:55:07Z</time>
      </trkpt>
      <trkpt lat="44.99719" lon="6.07002">
        <ele>823</ele>
        <time>2016-05-15T05:55:08Z</time>
      </trkpt>
      <trkpt lat="44.99726" lon="6.06983">
        <ele>823</ele>
        <time>2016-05-15T05:55:10Z</time>
      </trkpt>
      <trkpt lat="44.99734" lon="6.06974">
        <ele>823</ele>
        <time>2016-05-15T05:55:14Z</time>
      </trkpt>
      <trkpt lat="44.99747" lon="6.06968">
        <ele>823</ele>
        <time>2016-05-15T05:55:17Z</time>
      </trkpt>
      <trkpt lat="44.99757" lon="6.06963">
        <ele>823</ele>
        <time>2016-05-15T05:55:19Z</time>
      </trkpt>
      <trkpt lat="44.9977" lon="6.06957">
        <ele>824</ele>
        <time>2016-05-15T05:55:22Z</time>
      </trkpt>
      <trkpt lat="44.99779" lon="6.06953">
        <ele>824</ele>
        <time>2016-05-15T05:55:24Z</time>
      </trkpt>
      <trkpt lat="44.99787" lon="6.06946">
        <ele>824</ele>
        <time>2016-05-15T05:55:26Z</time>
      </trkpt>
      <trkpt lat="44.99797" lon="6.06941">
        <ele>824</ele>
        <time>2016-05-15T05:55:28Z</time>
      </trkpt>
      <trkpt lat="44.99808" lon="6.06933">
        <ele>825</ele>
        <time>2016-05-15T05:55:30Z</time>
      </trkpt>
      <trkpt lat="44.99815" lon="6.06921">
        <ele>825</ele>
        <time>2016-05-15T05:55:32Z</time>
      </trkpt>
      <trkpt lat="44.99826" lon="6.06909">
        <ele>825</ele>
        <time>2016-05-15T05:55:34Z</time>
      </trkpt>
      <trkpt lat="44.99841" lon="6.06903">
        <ele>825</ele>
        <time>2016-05-15T05:55:36Z</time>
      </trkpt>
      <trkpt lat="44.99855" lon="6.06895">
        <ele>825</ele>
        <time>2016-05-15T05:55:38Z</time>
      </trkpt>
      <trkpt lat="44.99867" lon="6.06888">
        <ele>825</ele>
        <time>2016-05-15T05:55:40Z</time>
      </trkpt>
      <trkpt lat="44.99878" lon="6.06891">
        <ele>815</ele>
        <time>2016-05-15T05:55:42Z</time>
      </trkpt>
      <trkpt lat="45.01859" lon="6.05982">
        <ele>760</ele>
        <time>2016-05-15T06:00:46Z</time>
      </trkpt>
      <trkpt lat="45.01852" lon="6.05993">
        <ele>760</ele>
        <time>2016-05-15T06:00:51Z</time>
      </trkpt>
      <trkpt lat="45.01862" lon="6.05988">
        <ele>760</ele>
        <time>2016-05-15T06:00:52Z</time>
      </trkpt>
      <trkpt lat="45.01876" lon="6.05984">
        <ele>760</ele>
        <time>2016-05-15T06:00:54Z</time>
      </trkpt>
      <trkpt lat="45.0189" lon="6.05987">
        <ele>760</ele>
        <time>2016-05-15T06:00:56Z</time>
      </trkpt>
      <trkpt lat="45.01901" lon="6.05992">
        <ele>760</ele>
        <time>2016-05-15T06:00:58Z</time>
      </trkpt>
      <trkpt lat="45.0191" lon="6.05993">
        <ele>758</ele>
        <time>2016-05-15T06:01:00Z</time>
      </trkpt>
      <trkpt lat="45.0192" lon="6.05984">
        <ele>758</ele>
        <time>2016-05-15T06:01:02Z</time>
      </trkpt>
      <trkpt lat="45.01938" lon="6.05977">
        <ele>758</ele>
        <time>2016-05-15T06:01:06Z</time>
      </trkpt>
      <trkpt lat="45.01957" lon="6.05981">
        <ele>758</ele>
        <time>2016-05-15T06:01:08Z</time>
      </trkpt>
      <trkpt lat="45.01972" lon="6.05978">
        <ele>759</ele>
        <time>2016-05-15T06:01:10Z</time>
      </trkpt>
      <trkpt lat="45.01982" lon="6.05969">
        <ele>759</ele>
        <time>2016-05-15T06:01:12Z</time>
      </trkpt>
      <trkpt lat="45.01991" lon="6.05958">
        <ele>759</ele>
        <time>2016-05-15T06:01:14Z</time>
      </trkpt>
      <trkpt lat="45.02003" lon="6.05945">
        <ele>759</ele>
        <time>2016-05-15T06:01:16Z</time>
      </trkpt>
      <trkpt lat="45.0201" lon="6.05936">
        <ele>759</ele>
        <time>2016-05-15T06:01:17Z</time>
      </trkpt>
      <trkpt lat="45.02021" lon="6.0592">
        <ele>759</ele>
        <time>2016-05-15T06:01:19Z</time>
      </trkpt>
      <trkpt lat="45.02031" lon="6.05907">
        <ele>759</ele>
        <time>2016-05-15T06:01:21Z</time>
      </trkpt>
      <trkpt lat="45.02044" lon="6.05895">
        <ele>757</ele>
        <time>2016-05-15T06:01:23Z</time>
      </trkpt>
      <trkpt lat="45.02055" lon="6.05885">
        <ele>757</ele>
        <time>2016-05-15T06:01:25Z</time>
      </trkpt>
      <trkpt lat="45.02066" lon="6.0587">
        <ele>757</ele>
        <time>2016-05-15T06:01:27Z</time>
      </trkpt>
      <trkpt lat="45.02075" lon="6.05854">
        <ele>757</ele>
        <time>2016-05-15T06:01:29Z</time>
      </trkpt>
      <trkpt lat="45.02084" lon="6.05835">
        <ele>756</ele>
        <time>2016-05-15T06:01:31Z</time>
      </trkpt>
      <trkpt lat="45.02093" lon="6.05818">
        <ele>756</ele>
        <time>2016-05-15T06:01:33Z</time>
      </trkpt>
      <trkpt lat="45.02105" lon="6.05807">
        <ele>756</ele>
        <time>2016-05-15T06:01:35Z</time>
      </trkpt>
      <trkpt lat="45.02118" lon="6.05799">
        <ele>756</ele>
        <time>2016-05-15T06:01:37Z</time>
      </trkpt>
      <trkpt lat="45.0213" lon="6.05791">
        <ele>756</ele>
        <time>2016-05-15T06:01:39Z</time>
      </trkpt>
      <trkpt lat="45.0214" lon="6.05781">
        <ele>756</ele>
        <time>2016-05-15T06:01:41Z</time>
      </trkpt>
      <trkpt lat="45.02154" lon="6.05772">
        <ele>756</ele>
        <time>2016-05-15T06:01:43Z</time>
      </trkpt>
      <trkpt lat="45.02168" lon="6.05762">
        <ele>756</ele>
        <time>2016-05-15T06:01:45Z</time>
      </trkpt>
      <trkpt lat="45.02176" lon="6.05756">
        <ele>756</ele>
        <time>2016-05-15T06:01:46Z</time>
      </trkpt>
      <trkpt lat="45.02192" lon="6.05747">
        <ele>756</ele>
        <time>2016-05-15T06:01:48Z</time>
      </trkpt>
      <trkpt lat="45.02201" lon="6.05744">
        <ele>756</ele>
        <time>2016-05-15T06:01:49Z</time>
      </trkpt>
      <trkpt lat="45.02218" lon="6.05735">
        <ele>756</ele>
        <time>2016-05-15T06:01:51Z</time>
      </trkpt>
      <trkpt lat="45.02231" lon="6.05724">
        <ele>753</ele>
        <time>2016-05-15T06:01:53Z</time>
      </trkpt>
      <trkpt lat="45.0224" lon="6.05709">
        <ele>752</ele>
        <time>2016-05-15T06:01:55Z</time>
      </trkpt>
      <trkpt lat="45.02249" lon="6.05692">
        <ele>752</ele>
        <time>2016-05-15T06:01:57Z</time>
      </trkpt>
      <trkpt lat="45.02257" lon="6.05673">
        <ele>752</ele>
        <time>2016-05-15T06:01:59Z</time>
      </trkpt>
      <trkpt lat="45.02261" lon="6.05651">
        <ele>753</ele>
        <time>2016-05-15T06:02:01Z</time>
      </trkpt>
      <trkpt lat="45.02267" lon="6.0563">
        <ele>753</ele>
        <time>2016-05-15T06:02:03Z</time>
      </trkpt>
      <trkpt lat="45.0227" lon="6.0561">
        <ele>753</ele>
        <time>2016-05-15T06:02:05Z</time>
      </trkpt>
      <trkpt lat="45.02272" lon="6.0559">
        <ele>753</ele>
        <time>2016-05-15T06:02:07Z</time>
      </trkpt>
      <trkpt lat="45.02275" lon="6.05571">
        <ele>753</ele>
        <time>2016-05-15T06:02:09Z</time>
      </trkpt>
      <trkpt lat="45.0228" lon="6.05552">
        <ele>753</ele>
        <time>2016-05-15T06:02:11Z</time>
      </trkpt>
      <trkpt lat="45.0229" lon="6.05542">
        <ele>753</ele>
        <time>2016-05-15T06:02:13Z</time>
      </trkpt>
      <trkpt lat="45.02305" lon="6.05534">
        <ele>753</ele>
        <time>2016-05-15T06:02:15Z</time>
      </trkpt>
      <trkpt lat="45.02318" lon="6.05523">
        <ele>753</ele>
        <time>2016-05-15T06:02:17Z</time>
      </trkpt>
      <trkpt lat="45.02329" lon="6.05509">
        <ele>753</ele>
        <time>2016-05-15T06:02:19Z</time>
      </trkpt>
      <trkpt lat="45.0234" lon="6.05495">
        <ele>753</ele>
        <time>2016-05-15T06:02:21Z</time>
      </trkpt>
      <trkpt lat="45.02352" lon="6.05479">
        <ele>753</ele>
        <time>2016-05-15T06:02:23Z</time>
      </trkpt>
      <trkpt lat="45.02362" lon="6.05464">
        <ele>753</ele>
        <time>2016-05-15T06:02:25Z</time>
      </trkpt>
      <trkpt lat="45.02373" lon="6.05449">
        <ele>753</ele>
        <time>2016-05-15T06:02:27Z</time>
      </trkpt>
      <trkpt lat="45.02383" lon="6.05431">
        <ele>753</ele>
        <time>2016-05-15T06:02:29Z</time>
      </trkpt>
      <trkpt lat="45.02393" lon="6.05415">
        <ele>753</ele>
        <time>2016-05-15T06:02:31Z</time>
      </trkpt>
      <trkpt lat="45.02402" lon="6.05397">
        <ele>752</ele>
        <time>2016-05-15T06:02:33Z</time>
      </trkpt>
      <trkpt lat="45.02412" lon="6.05379">
        <ele>752</ele>
        <time>2016-05-15T06:02:35Z</time>
      </trkpt>
      <trkpt lat="45.02424" lon="6.05366">
        <ele>752</ele>
        <time>2016-05-15T06:02:37Z</time>
      </trkpt>
      <trkpt lat="45.02438" lon="6.05356">
        <ele>752</ele>
        <time>2016-05-15T06:02:39Z</time>
      </trkpt>
      <trkpt lat="45.02451" lon="6.05347">
        <ele>751</ele>
        <time>2016-05-15T06:02:41Z</time>
      </trkpt>
      <trkpt lat="45.02465" lon="6.05338">
        <ele>751</ele>
        <time>2016-05-15T06:02:43Z</time>
      </trkpt>
      <trkpt lat="45.02477" lon="6.05325">
        <ele>751</ele>
        <time>2016-05-15T06:02:45Z</time>
      </trkpt>
      <trkpt lat="45.02488" lon="6.05308">
        <ele>751</ele>
        <time>2016-05-15T06:02:47Z</time>
      </trkpt>
      <trkpt lat="45.02499" lon="6.05291">
        <ele>751</ele>
        <time>2016-05-15T06:02:49Z</time>
      </trkpt>
      <trkpt lat="45.02508" lon="6.05273">
        <ele>751</ele>
        <time>2016-05-15T06:02:51Z</time>
      </trkpt>
      <trkpt lat="45.02517" lon="6.05255">
        <ele>751</ele>
        <time>2016-05-15T06:02:53Z</time>
      </trkpt>
      <trkpt lat="45.02526" lon="6.05237">
        <ele>751</ele>
        <time>2016-05-15T06:02:55Z</time>
      </trkpt>
      <trkpt lat="45.02537" lon="6.05221">
        <ele>751</ele>
        <time>2016-05-15T06:02:57Z</time>
      </trkpt>
      <trkpt lat="45.0255" lon="6.05211">
        <ele>751</ele>
        <time>2016-05-15T06:02:59Z</time>
      </trkpt>
      <trkpt lat="45.02566" lon="6.05207">
        <ele>750</ele>
        <time>2016-05-15T06:03:01Z</time>
      </trkpt>
      <trkpt lat="45.02582" lon="6.05209">
        <ele>750</ele>
        <time>2016-05-15T06:03:03Z</time>
      </trkpt>
      <trkpt lat="45.02598" lon="6.05212">
        <ele>750</ele>
        <time>2016-05-15T06:03:05Z</time>
      </trkpt>
      <trkpt lat="45.02614" lon="6.05214">
        <ele>750</ele>
        <time>2016-05-15T06:03:07Z</time>
      </trkpt>
      <trkpt lat="45.02629" lon="6.05214">
        <ele>750</ele>
        <time>2016-05-15T06:03:09Z</time>
      </trkpt>
      <trkpt lat="45.02645" lon="6.0521">
        <ele>750</ele>
        <time>2016-05-15T06:03:11Z</time>
      </trkpt>
      <trkpt lat="45.02659" lon="6.05205">
        <ele>750</ele>
        <time>2016-05-15T06:03:13Z</time>
      </trkpt>
      <trkpt lat="45.02673" lon="6.05196">
        <ele>750</ele>
        <time>2016-05-15T06:03:15Z</time>
      </trkpt>
      <trkpt lat="45.02686" lon="6.05183">
        <ele>750</ele>
        <time>2016-05-15T06:03:17Z</time>
      </trkpt>
      <trkpt lat="45.02697" lon="6.05169">
        <ele>750</ele>
        <time>2016-05-15T06:03:19Z</time>
      </trkpt>
      <trkpt lat="45.02709" lon="6.05157">
        <ele>749</ele>
        <time>2016-05-15T06:03:21Z</time>
      </trkpt>
      <trkpt lat="45.02722" lon="6.05147">
        <ele>749</ele>
        <time>2016-05-15T06:03:23Z</time>
      </trkpt>
      <trkpt lat="45.02736" lon="6.05139">
        <ele>749</ele>
        <time>2016-05-15T06:03:25Z</time>
      </trkpt>
      <trkpt lat="45.02748" lon="6.05128">
        <ele>749</ele>
        <time>2016-05-15T06:03:27Z</time>
      </trkpt>
      <trkpt lat="45.02759" lon="6.05113">
        <ele>749</ele>
        <time>2016-05-15T06:03:29Z</time>
      </trkpt>
      <trkpt lat="45.02768" lon="6.05097">
        <ele>749</ele>
        <time>2016-05-15T06:03:31Z</time>
      </trkpt>
      <trkpt lat="45.02778" lon="6.05081">
        <ele>749</ele>
        <time>2016-05-15T06:03:33Z</time>
      </trkpt>
      <trkpt lat="45.02788" lon="6.05065">
        <ele>749</ele>
        <time>2016-05-15T06:03:35Z</time>
      </trkpt>
      <trkpt lat="45.02801" lon="6.05057">
        <ele>749</ele>
        <time>2016-05-15T06:03:37Z</time>
      </trkpt>
      <trkpt lat="45.02815" lon="6.05052">
        <ele>749</ele>
        <time>2016-05-15T06:03:39Z</time>
      </trkpt>
      <trkpt lat="45.02828" lon="6.05047">
        <ele>750</ele>
        <time>2016-05-15T06:03:41Z</time>
      </trkpt>
      <trkpt lat="45.02839" lon="6.05043">
        <ele>750</ele>
        <time>2016-05-15T06:03:43Z</time>
      </trkpt>
      <trkpt lat="45.02852" lon="6.0504">
        <ele>750</ele>
        <time>2016-05-15T06:03:45Z</time>
      </trkpt>
      <trkpt lat="45.02867" lon="6.05037">
        <ele>750</ele>
        <time>2016-05-15T06:03:47Z</time>
      </trkpt>
      <trkpt lat="45.02884" lon="6.0503">
        <ele>750</ele>
        <time>2016-05-15T06:03:49Z</time>
      </trkpt>
      <trkpt lat="45.02893" lon="6.05025">
        <ele>750</ele>
        <time>2016-05-15T06:03:50Z</time>
      </trkpt>
      <trkpt lat="45.02901" lon="6.05019">
        <ele>746</ele>
        <time>2016-05-15T06:03:51Z</time>
      </trkpt>
      <trkpt lat="45.02909" lon="6.05013">
        <ele>746</ele>
        <time>2016-05-15T06:03:52Z</time>
      </trkpt>
      <trkpt lat="45.02917" lon="6.05006">
        <ele>746</ele>
        <time>2016-05-15T06:03:53Z</time>
      </trkpt>
      <trkpt lat="45.02925" lon="6.05">
        <ele>746</ele>
        <time>2016-05-15T06:03:54Z</time>
      </trkpt>
      <trkpt lat="45.02932" lon="6.04993">
        <ele>742</ele>
        <time>2016-05-15T06:03:55Z</time>
      </trkpt>
      <trkpt lat="45.02947" lon="6.0498">
        <ele>742</ele>
        <time>2016-05-15T06:03:57Z</time>
      </trkpt>
      <trkpt lat="45.02959" lon="6.04968">
        <ele>742</ele>
        <time>2016-05-15T06:03:59Z</time>
      </trkpt>
      <trkpt lat="45.02972" lon="6.04956">
        <ele>742</ele>
        <time>2016-05-15T06:04:01Z</time>
      </trkpt>
      <trkpt lat="45.02982" lon="6.04943">
        <ele>742</ele>
        <time>2016-05-15T06:04:03Z</time>
      </trkpt>
      <trkpt lat="45.02994" lon="6.04931">
        <ele>742</ele>
        <time>2016-05-15T06:04:05Z</time>
      </trkpt>
      <trkpt lat="45.03007" lon="6.04921">
        <ele>742</ele>
        <time>2016-05-15T06:04:07Z</time>
      </trkpt>
      <trkpt lat="45.03019" lon="6.04911">
        <ele>742</ele>
        <time>2016-05-15T06:04:09Z</time>
      </trkpt>
      <trkpt lat="45.03032" lon="6.04899">
        <ele>742</ele>
        <time>2016-05-15T06:04:11Z</time>
      </trkpt>
      <trkpt lat="45.03045" lon="6.04887">
        <ele>742</ele>
        <time>2016-05-15T06:04:13Z</time>
      </trkpt>
      <trkpt lat="45.03058" lon="6.04875">
        <ele>741</ele>
        <time>2016-05-15T06:04:15Z</time>
      </trkpt>
      <trkpt lat="45.03068" lon="6.04863">
        <ele>741</ele>
        <time>2016-05-15T06:04:17Z</time>
      </trkpt>
      <trkpt lat="45.03081" lon="6.04851">
        <ele>741</ele>
        <time>2016-05-15T06:04:19Z</time>
      </trkpt>
      <trkpt lat="45.03094" lon="6.0484">
        <ele>741</ele>
        <time>2016-05-15T06:04:21Z</time>
      </trkpt>
      <trkpt lat="45.03107" lon="6.04829">
        <ele>741</ele>
        <time>2016-05-15T06:04:23Z</time>
      </trkpt>
      <trkpt lat="45.0312" lon="6.04818">
        <ele>741</ele>
        <time>2016-05-15T06:04:25Z</time>
      </trkpt>
      <trkpt lat="45.03132" lon="6.04804">
        <ele>741</ele>
        <time>2016-05-15T06:04:27Z</time>
      </trkpt>
      <trkpt lat="45.03141" lon="6.04786">
        <ele>741</ele>
        <time>2016-05-15T06:04:29Z</time>
      </trkpt>
      <trkpt lat="45.03149" lon="6.04767">
        <ele>741</ele>
        <time>2016-05-15T06:04:31Z</time>
      </trkpt>
      <trkpt lat="45.03158" lon="6.04752">
        <ele>741</ele>
        <time>2016-05-15T06:04:33Z</time>
      </trkpt>
      <trkpt lat="45.0317" lon="6.04738">
        <ele>740</ele>
        <time>2016-05-15T06:04:35Z</time>
      </trkpt>
      <trkpt lat="45.0318" lon="6.04722">
        <ele>740</ele>
        <time>2016-05-15T06:04:37Z</time>
      </trkpt>
      <trkpt lat="45.03189" lon="6.04708">
        <ele>740</ele>
        <time>2016-05-15T06:04:39Z</time>
      </trkpt>
      <trkpt lat="45.03198" lon="6.04696">
        <ele>740</ele>
        <time>2016-05-15T06:04:41Z</time>
      </trkpt>
      <trkpt lat="45.0321" lon="6.04687">
        <ele>740</ele>
        <time>2016-05-15T06:04:43Z</time>
      </trkpt>
      <trkpt lat="45.03219" lon="6.04674">
        <ele>742</ele>
        <time>2016-05-15T06:04:45Z</time>
      </trkpt>
      <trkpt lat="45.03221" lon="6.04653">
        <ele>742</ele>
        <time>2016-05-15T06:04:47Z</time>
      </trkpt>
      <trkpt lat="45.03221" lon="6.04632">
        <ele>742</ele>
        <time>2016-05-15T06:04:49Z</time>
      </trkpt>
      <trkpt lat="45.0322" lon="6.04609">
        <ele>742</ele>
        <time>2016-05-15T06:04:51Z</time>
      </trkpt>
      <trkpt lat="45.03222" lon="6.04587">
        <ele>742</ele>
        <time>2016-05-15T06:04:53Z</time>
      </trkpt>
      <trkpt lat="45.03233" lon="6.04574">
        <ele>742</ele>
        <time>2016-05-15T06:04:55Z</time>
      </trkpt>
      <trkpt lat="45.03241" lon="6.04568">
        <ele>742</ele>
        <time>2016-05-15T06:04:57Z</time>
      </trkpt>
      <trkpt lat="45.0325" lon="6.04561">
        <ele>742</ele>
        <time>2016-05-15T06:05:00Z</time>
      </trkpt>
      <trkpt lat="45.03263" lon="6.04554">
        <ele>743</ele>
        <time>2016-05-15T06:05:02Z</time>
      </trkpt>
      <trkpt lat="45.03281" lon="6.04549">
        <ele>743</ele>
        <time>2016-05-15T06:05:04Z</time>
      </trkpt>
      <trkpt lat="45.03291" lon="6.04545">
        <ele>743</ele>
        <time>2016-05-15T06:05:05Z</time>
      </trkpt>
      <trkpt lat="45.03307" lon="6.04539">
        <ele>743</ele>
        <time>2016-05-15T06:05:07Z</time>
      </trkpt>
      <trkpt lat="45.0332" lon="6.04533">
        <ele>743</ele>
        <time>2016-05-15T06:05:09Z</time>
      </trkpt>
      <trkpt lat="45.03331" lon="6.04526">
        <ele>743</ele>
        <time>2016-05-15T06:05:11Z</time>
      </trkpt>
      <trkpt lat="45.03342" lon="6.04525">
        <ele>743</ele>
        <time>2016-05-15T06:05:13Z</time>
      </trkpt>
      <trkpt lat="45.03353" lon="6.04526">
        <ele>743</ele>
        <time>2016-05-15T06:05:15Z</time>
      </trkpt>
      <trkpt lat="45.03364" lon="6.04526">
        <ele>743</ele>
        <time>2016-05-15T06:05:17Z</time>
      </trkpt>
      <trkpt lat="45.03376" lon="6.04527">
        <ele>743</ele>
        <time>2016-05-15T06:05:19Z</time>
      </trkpt>
      <trkpt lat="45.03389" lon="6.04531">
        <ele>743</ele>
        <time>2016-05-15T06:05:21Z</time>
      </trkpt>
      <trkpt lat="45.03402" lon="6.04532">
        <ele>743</ele>
        <time>2016-05-15T06:05:23Z</time>
      </trkpt>
      <trkpt lat="45.03415" lon="6.04532">
        <ele>743</ele>
        <time>2016-05-15T06:05:25Z</time>
      </trkpt>
      <trkpt lat="45.03426" lon="6.04524">
        <ele>743</ele>
        <time>2016-05-15T06:05:27Z</time>
      </trkpt>
      <trkpt lat="45.03435" lon="6.0451">
        <ele>743</ele>
        <time>2016-05-15T06:05:29Z</time>
      </trkpt>
      <trkpt lat="45.03446" lon="6.04504">
        <ele>742</ele>
        <time>2016-05-15T06:05:31Z</time>
      </trkpt>
      <trkpt lat="45.03459" lon="6.04495">
        <ele>742</ele>
        <time>2016-05-15T06:05:33Z</time>
      </trkpt>
      <trkpt lat="45.03472" lon="6.04482">
        <ele>742</ele>
        <time>2016-05-15T06:05:35Z</time>
      </trkpt>
      <trkpt lat="45.03485" lon="6.0447">
        <ele>742</ele>
        <time>2016-05-15T06:05:37Z</time>
      </trkpt>
      <trkpt lat="45.03498" lon="6.04457">
        <ele>742</ele>
        <time>2016-05-15T06:05:39Z</time>
      </trkpt>
      <trkpt lat="45.03509" lon="6.04442">
        <ele>741</ele>
        <time>2016-05-15T06:05:41Z</time>
      </trkpt>
      <trkpt lat="45.0352" lon="6.04427">
        <ele>741</ele>
        <time>2016-05-15T06:05:43Z</time>
      </trkpt>
      <trkpt lat="45.0353" lon="6.04409">
        <ele>741</ele>
        <time>2016-05-15T06:05:45Z</time>
      </trkpt>
      <trkpt lat="45.03538" lon="6.04388">
        <ele>741</ele>
        <time>2016-05-15T06:05:47Z</time>
      </trkpt>
      <trkpt lat="45.03543" lon="6.04368">
        <ele>741</ele>
        <time>2016-05-15T06:05:49Z</time>
      </trkpt>
      <trkpt lat="45.03547" lon="6.04347">
        <ele>739</ele>
        <time>2016-05-15T06:05:51Z</time>
      </trkpt>
      <trkpt lat="45.0355" lon="6.04325">
        <ele>739</ele>
        <time>2016-05-15T06:05:53Z</time>
      </trkpt>
      <trkpt lat="45.03553" lon="6.04303">
        <ele>739</ele>
        <time>2016-05-15T06:05:55Z</time>
      </trkpt>
      <trkpt lat="45.03559" lon="6.04282">
        <ele>739</ele>
        <time>2016-05-15T06:05:57Z</time>
      </trkpt>
      <trkpt lat="45.0357" lon="6.04265">
        <ele>739</ele>
        <time>2016-05-15T06:05:59Z</time>
      </trkpt>
      <trkpt lat="45.03582" lon="6.0425">
        <ele>739</ele>
        <time>2016-05-15T06:06:01Z</time>
      </trkpt>
      <trkpt lat="45.03595" lon="6.04239">
        <ele>736</ele>
        <time>2016-05-15T06:06:03Z</time>
      </trkpt>
      <trkpt lat="45.03609" lon="6.0423">
        <ele>736</ele>
        <time>2016-05-15T06:06:05Z</time>
      </trkpt>
      <trkpt lat="45.03622" lon="6.04222">
        <ele>736</ele>
        <time>2016-05-15T06:06:07Z</time>
      </trkpt>
      <trkpt lat="45.03636" lon="6.04213">
        <ele>736</ele>
        <time>2016-05-15T06:06:09Z</time>
      </trkpt>
      <trkpt lat="45.03648" lon="6.04203">
        <ele>736</ele>
        <time>2016-05-15T06:06:11Z</time>
      </trkpt>
      <trkpt lat="45.03661" lon="6.04193">
        <ele>736</ele>
        <time>2016-05-15T06:06:13Z</time>
      </trkpt>
      <trkpt lat="45.03674" lon="6.04183">
        <ele>736</ele>
        <time>2016-05-15T06:06:15Z</time>
      </trkpt>
      <trkpt lat="45.03687" lon="6.04175">
        <ele>736</ele>
        <time>2016-05-15T06:06:17Z</time>
      </trkpt>
      <trkpt lat="45.03693" lon="6.0417">
        <ele>736</ele>
        <time>2016-05-15T06:06:18Z</time>
      </trkpt>
      <trkpt lat="45.03699" lon="6.04165">
        <ele>736</ele>
        <time>2016-05-15T06:06:19Z</time>
      </trkpt>
      <trkpt lat="45.03705" lon="6.0416">
        <ele>736</ele>
        <time>2016-05-15T06:06:20Z</time>
      </trkpt>
      <trkpt lat="45.0371" lon="6.04155">
        <ele>736</ele>
        <time>2016-05-15T06:06:21Z</time>
      </trkpt>
      <trkpt lat="45.03715" lon="6.04149">
        <ele>736</ele>
        <time>2016-05-15T06:06:22Z</time>
      </trkpt>
      <trkpt lat="45.0372" lon="6.04143">
        <ele>736</ele>
        <time>2016-05-15T06:06:23Z</time>
      </trkpt>
      <trkpt lat="45.03725" lon="6.04136">
        <ele>736</ele>
        <time>2016-05-15T06:06:24Z</time>
      </trkpt>
      <trkpt lat="45.03729" lon="6.0413">
        <ele>736</ele>
        <time>2016-05-15T06:06:25Z</time>
      </trkpt>
      <trkpt lat="45.03738" lon="6.04116">
        <ele>736</ele>
        <time>2016-05-15T06:06:27Z</time>
      </trkpt>
      <trkpt lat="45.03743" lon="6.04109">
        <ele>736</ele>
        <time>2016-05-15T06:06:28Z</time>
      </trkpt>
      <trkpt lat="45.03748" lon="6.04102">
        <ele>736</ele>
        <time>2016-05-15T06:06:29Z</time>
      </trkpt>
      <trkpt lat="45.03759" lon="6.04089">
        <ele>736</ele>
        <time>2016-05-15T06:06:31Z</time>
      </trkpt>
      <trkpt lat="45.0377" lon="6.04079">
        <ele>736</ele>
        <time>2016-05-15T06:06:33Z</time>
      </trkpt>
      <trkpt lat="45.03776" lon="6.04074">
        <ele>736</ele>
        <time>2016-05-15T06:06:34Z</time>
      </trkpt>
      <trkpt lat="45.03782" lon="6.04069">
        <ele>736</ele>
        <time>2016-05-15T06:06:35Z</time>
      </trkpt>
      <trkpt lat="45.03794" lon="6.0406">
        <ele>736</ele>
        <time>2016-05-15T06:06:37Z</time>
      </trkpt>
      <trkpt lat="45.03805" lon="6.04049">
        <ele>736</ele>
        <time>2016-05-15T06:06:39Z</time>
      </trkpt>
      <trkpt lat="45.03809" lon="6.04042">
        <ele>737</ele>
        <time>2016-05-15T06:06:40Z</time>
      </trkpt>
      <trkpt lat="45.03814" lon="6.04036">
        <ele>737</ele>
        <time>2016-05-15T06:06:41Z</time>
      </trkpt>
      <trkpt lat="45.03819" lon="6.0403">
        <ele>737</ele>
        <time>2016-05-15T06:06:42Z</time>
      </trkpt>
      <trkpt lat="45.03827" lon="6.04015">
        <ele>737</ele>
        <time>2016-05-15T06:06:44Z</time>
      </trkpt>
      <trkpt lat="45.03834" lon="6.03998">
        <ele>737</ele>
        <time>2016-05-15T06:06:46Z</time>
      </trkpt>
      <trkpt lat="45.0384" lon="6.03982">
        <ele>737</ele>
        <time>2016-05-15T06:06:48Z</time>
      </trkpt>
      <trkpt lat="45.03846" lon="6.03967">
        <ele>737</ele>
        <time>2016-05-15T06:06:50Z</time>
      </trkpt>
      <trkpt lat="45.03851" lon="6.0395">
        <ele>737</ele>
        <time>2016-05-15T06:06:52Z</time>
      </trkpt>
      <trkpt lat="45.03855" lon="6.03937">
        <ele>737</ele>
        <time>2016-05-15T06:06:54Z</time>
      </trkpt>
      <trkpt lat="45.0386" lon="6.03924">
        <ele>737</ele>
        <time>2016-05-15T06:06:56Z</time>
      </trkpt>
      <trkpt lat="45.03866" lon="6.03904">
        <ele>737</ele>
        <time>2016-05-15T06:06:58Z</time>
      </trkpt>
      <trkpt lat="45.03874" lon="6.03885">
        <ele>737</ele>
        <time>2016-05-15T06:07:00Z</time>
      </trkpt>
      <trkpt lat="45.03882" lon="6.03868">
        <ele>739</ele>
        <time>2016-05-15T06:07:02Z</time>
      </trkpt>
      <trkpt lat="45.0389" lon="6.03851">
        <ele>739</ele>
        <time>2016-05-15T06:07:04Z</time>
      </trkpt>
      <trkpt lat="45.03897" lon="6.03835">
        <ele>739</ele>
        <time>2016-05-15T06:07:06Z</time>
      </trkpt>
      <trkpt lat="45.03904" lon="6.0382">
        <ele>739</ele>
        <time>2016-05-15T06:07:08Z</time>
      </trkpt>
      <trkpt lat="45.0391" lon="6.03805">
        <ele>740</ele>
        <time>2016-05-15T06:07:10Z</time>
      </trkpt>
      <trkpt lat="45.03917" lon="6.0379">
        <ele>740</ele>
        <time>2016-05-15T06:07:12Z</time>
      </trkpt>
      <trkpt lat="45.03923" lon="6.03776">
        <ele>740</ele>
        <time>2016-05-15T06:07:14Z</time>
      </trkpt>
      <trkpt lat="45.03929" lon="6.0376">
        <ele>740</ele>
        <time>2016-05-15T06:07:16Z</time>
      </trkpt>
      <trkpt lat="45.03936" lon="6.03747">
        <ele>740</ele>
        <time>2016-05-15T06:07:18Z</time>
      </trkpt>
      <trkpt lat="45.03944" lon="6.03733">
        <ele>742</ele>
        <time>2016-05-15T06:07:20Z</time>
      </trkpt>
      <trkpt lat="45.0395" lon="6.03718">
        <ele>742</ele>
        <time>2016-05-15T06:07:22Z</time>
      </trkpt>
      <trkpt lat="45.03954" lon="6.03703">
        <ele>742</ele>
        <time>2016-05-15T06:07:24Z</time>
      </trkpt>
      <trkpt lat="45.03958" lon="6.03688">
        <ele>742</ele>
        <time>2016-05-15T06:07:26Z</time>
      </trkpt>
      <trkpt lat="45.03964" lon="6.03674">
        <ele>742</ele>
        <time>2016-05-15T06:07:28Z</time>
      </trkpt>
      <trkpt lat="45.03971" lon="6.03658">
        <ele>742</ele>
        <time>2016-05-15T06:07:30Z</time>
      </trkpt>
      <trkpt lat="45.03978" lon="6.03644">
        <ele>742</ele>
        <time>2016-05-15T06:07:32Z</time>
      </trkpt>
      <trkpt lat="45.03988" lon="6.03628">
        <ele>742</ele>
        <time>2016-05-15T06:07:34Z</time>
      </trkpt>
      <trkpt lat="45.03994" lon="6.03611">
        <ele>742</ele>
        <time>2016-05-15T06:07:36Z</time>
      </trkpt>
      <trkpt lat="45.04" lon="6.03594">
        <ele>742</ele>
        <time>2016-05-15T06:07:38Z</time>
      </trkpt>
      <trkpt lat="45.04005" lon="6.03575">
        <ele>741</ele>
        <time>2016-05-15T06:07:40Z</time>
      </trkpt>
      <trkpt lat="45.04004" lon="6.03553">
        <ele>741</ele>
        <time>2016-05-15T06:07:42Z</time>
      </trkpt>
      <trkpt lat="45.04006" lon="6.03532">
        <ele>741</ele>
        <time>2016-05-15T06:07:44Z</time>
      </trkpt>
      <trkpt lat="45.0401" lon="6.03514">
        <ele>741</ele>
        <time>2016-05-15T06:07:46Z</time>
      </trkpt>
      <trkpt lat="45.04017" lon="6.03501">
        <ele>741</ele>
        <time>2016-05-15T06:07:48Z</time>
      </trkpt>
      <trkpt lat="45.04026" lon="6.03491">
        <ele>742</ele>
        <time>2016-05-15T06:07:50Z</time>
      </trkpt>
      <trkpt lat="45.04035" lon="6.03484">
        <ele>742</ele>
        <time>2016-05-15T06:07:52Z</time>
      </trkpt>
      <trkpt lat="45.04045" lon="6.03476">
        <ele>742</ele>
        <time>2016-05-15T06:07:54Z</time>
      </trkpt>
      <trkpt lat="45.04055" lon="6.0347">
        <ele>742</ele>
        <time>2016-05-15T06:07:56Z</time>
      </trkpt>
      <trkpt lat="45.04064" lon="6.0346">
        <ele>742</ele>
        <time>2016-05-15T06:07:58Z</time>
      </trkpt>
      <trkpt lat="45.04074" lon="6.03451">
        <ele>742</ele>
        <time>2016-05-15T06:08:00Z</time>
      </trkpt>
      <trkpt lat="45.04085" lon="6.03443">
        <ele>742</ele>
        <time>2016-05-15T06:08:02Z</time>
      </trkpt>
      <trkpt lat="45.04096" lon="6.03434">
        <ele>742</ele>
        <time>2016-05-15T06:08:04Z</time>
      </trkpt>
      <trkpt lat="45.04108" lon="6.03427">
        <ele>742</ele>
        <time>2016-05-15T06:08:06Z</time>
      </trkpt>
      <trkpt lat="45.04121" lon="6.03423">
        <ele>742</ele>
        <time>2016-05-15T06:08:08Z</time>
      </trkpt>
      <trkpt lat="45.04134" lon="6.03421">
        <ele>742</ele>
        <time>2016-05-15T06:08:10Z</time>
      </trkpt>
      <trkpt lat="45.04146" lon="6.0342">
        <ele>743</ele>
        <time>2016-05-15T06:08:12Z</time>
      </trkpt>
      <trkpt lat="45.04158" lon="6.03418">
        <ele>743</ele>
        <time>2016-05-15T06:08:14Z</time>
      </trkpt>
      <trkpt lat="45.0417" lon="6.03415">
        <ele>743</ele>
        <time>2016-05-15T06:08:16Z</time>
      </trkpt>
      <trkpt lat="45.04181" lon="6.03412">
        <ele>743</ele>
        <time>2016-05-15T06:08:18Z</time>
      </trkpt>
      <trkpt lat="45.04192" lon="6.0341">
        <ele>743</ele>
        <time>2016-05-15T06:08:20Z</time>
      </trkpt>
      <trkpt lat="45.04203" lon="6.03407">
        <ele>745</ele>
        <time>2016-05-15T06:08:22Z</time>
      </trkpt>
      <trkpt lat="45.04215" lon="6.03404">
        <ele>745</ele>
        <time>2016-05-15T06:08:24Z</time>
      </trkpt>
      <trkpt lat="45.04226" lon="6.03403">
        <ele>745</ele>
        <time>2016-05-15T06:08:26Z</time>
      </trkpt>
      <trkpt lat="45.04235" lon="6.03402">
        <ele>745</ele>
        <time>2016-05-15T06:08:28Z</time>
      </trkpt>
      <trkpt lat="45.04245" lon="6.03399">
        <ele>745</ele>
        <time>2016-05-15T06:08:30Z</time>
      </trkpt>
      <trkpt lat="45.04262" lon="6.03394">
        <ele>749</ele>
        <time>2016-05-15T06:08:34Z</time>
      </trkpt>
      <trkpt lat="45.04273" lon="6.03387">
        <ele>752</ele>
        <time>2016-05-15T06:08:37Z</time>
      </trkpt>
      <trkpt lat="45.04283" lon="6.03379">
        <ele>752</ele>
        <time>2016-05-15T06:08:40Z</time>
      </trkpt>
      <trkpt lat="45.04293" lon="6.03375">
        <ele>752</ele>
        <time>2016-05-15T06:08:42Z</time>
      </trkpt>
      <trkpt lat="45.04301" lon="6.0337">
        <ele>752</ele>
        <time>2016-05-15T06:08:44Z</time>
      </trkpt>
      <trkpt lat="45.04311" lon="6.03366">
        <ele>752</ele>
        <time>2016-05-15T06:08:46Z</time>
      </trkpt>
      <trkpt lat="45.04322" lon="6.03365">
        <ele>752</ele>
        <time>2016-05-15T06:08:48Z</time>
      </trkpt>
      <trkpt lat="45.04332" lon="6.03366">
        <ele>752</ele>
        <time>2016-05-15T06:08:50Z</time>
      </trkpt>
      <trkpt lat="45.04342" lon="6.03365">
        <ele>751</ele>
        <time>2016-05-15T06:08:52Z</time>
      </trkpt>
      <trkpt lat="45.04354" lon="6.03363">
        <ele>751</ele>
        <time>2016-05-15T06:08:54Z</time>
      </trkpt>
      <trkpt lat="45.04364" lon="6.03359">
        <ele>751</ele>
        <time>2016-05-15T06:08:56Z</time>
      </trkpt>
      <trkpt lat="45.04376" lon="6.03353">
        <ele>751</ele>
        <time>2016-05-15T06:08:58Z</time>
      </trkpt>
      <trkpt lat="45.04387" lon="6.03343">
        <ele>751</ele>
        <time>2016-05-15T06:09:00Z</time>
      </trkpt>
      <trkpt lat="45.04396" lon="6.03333">
        <ele>751</ele>
        <time>2016-05-15T06:09:02Z</time>
      </trkpt>
      <trkpt lat="45.04406" lon="6.03322">
        <ele>751</ele>
        <time>2016-05-15T06:09:04Z</time>
      </trkpt>
      <trkpt lat="45.04418" lon="6.03311">
        <ele>751</ele>
        <time>2016-05-15T06:09:06Z</time>
      </trkpt>
      <trkpt lat="45.04431" lon="6.03301">
        <ele>751</ele>
        <time>2016-05-15T06:09:08Z</time>
      </trkpt>
      <trkpt lat="45.04443" lon="6.03291">
        <ele>751</ele>
        <time>2016-05-15T06:09:10Z</time>
      </trkpt>
      <trkpt lat="45.04455" lon="6.03282">
        <ele>750</ele>
        <time>2016-05-15T06:09:12Z</time>
      </trkpt>
      <trkpt lat="45.04467" lon="6.03274">
        <ele>750</ele>
        <time>2016-05-15T06:09:14Z</time>
      </trkpt>
      <trkpt lat="45.0448" lon="6.03268">
        <ele>750</ele>
        <time>2016-05-15T06:09:16Z</time>
      </trkpt>
      <trkpt lat="45.04494" lon="6.0326">
        <ele>750</ele>
        <time>2016-05-15T06:09:18Z</time>
      </trkpt>
      <trkpt lat="45.04506" lon="6.03248">
        <ele>750</ele>
        <time>2016-05-15T06:09:20Z</time>
      </trkpt>
      <trkpt lat="45.04515" lon="6.0323">
        <ele>746</ele>
        <time>2016-05-15T06:09:22Z</time>
      </trkpt>
      <trkpt lat="45.04521" lon="6.03208">
        <ele>746</ele>
        <time>2016-05-15T06:09:24Z</time>
      </trkpt>
      <trkpt lat="45.04527" lon="6.03188">
        <ele>745</ele>
        <time>2016-05-15T06:09:26Z</time>
      </trkpt>
      <trkpt lat="45.04532" lon="6.0317">
        <ele>745</ele>
        <time>2016-05-15T06:09:28Z</time>
      </trkpt>
      <trkpt lat="45.04544" lon="6.03158">
        <ele>745</ele>
        <time>2016-05-15T06:09:30Z</time>
      </trkpt>
      <trkpt lat="45.04554" lon="6.03146">
        <ele>744</ele>
        <time>2016-05-15T06:09:32Z</time>
      </trkpt>
      <trkpt lat="45.04566" lon="6.03133">
        <ele>744</ele>
        <time>2016-05-15T06:09:34Z</time>
      </trkpt>
      <trkpt lat="45.04576" lon="6.03118">
        <ele>744</ele>
        <time>2016-05-15T06:09:36Z</time>
      </trkpt>
      <trkpt lat="45.04584" lon="6.03104">
        <ele>744</ele>
        <time>2016-05-15T06:09:38Z</time>
      </trkpt>
      <trkpt lat="45.04595" lon="6.03091">
        <ele>744</ele>
        <time>2016-05-15T06:09:40Z</time>
      </trkpt>
      <trkpt lat="45.04605" lon="6.03077">
        <ele>744</ele>
        <time>2016-05-15T06:09:42Z</time>
      </trkpt>
      <trkpt lat="45.04615" lon="6.03061">
        <ele>744</ele>
        <time>2016-05-15T06:09:44Z</time>
      </trkpt>
      <trkpt lat="45.04624" lon="6.03044">
        <ele>744</ele>
        <time>2016-05-15T06:09:46Z</time>
      </trkpt>
      <trkpt lat="45.04633" lon="6.0303">
        <ele>744</ele>
        <time>2016-05-15T06:09:48Z</time>
      </trkpt>
      <trkpt lat="45.0464" lon="6.03017">
        <ele>744</ele>
        <time>2016-05-15T06:09:50Z</time>
      </trkpt>
      <trkpt lat="45.04647" lon="6.03004">
        <ele>747</ele>
        <time>2016-05-15T06:09:52Z</time>
      </trkpt>
      <trkpt lat="45.04653" lon="6.02993">
        <ele>747</ele>
        <time>2016-05-15T06:09:54Z</time>
      </trkpt>
      <trkpt lat="45.0466" lon="6.02981">
        <ele>747</ele>
        <time>2016-05-15T06:09:56Z</time>
      </trkpt>
      <trkpt lat="45.04674" lon="6.02969">
        <ele>748</ele>
        <time>2016-05-15T06:09:58Z</time>
      </trkpt>
      <trkpt lat="45.04682" lon="6.02954">
        <ele>747</ele>
        <time>2016-05-15T06:10:00Z</time>
      </trkpt>
      <trkpt lat="45.04692" lon="6.0294">
        <ele>747</ele>
        <time>2016-05-15T06:10:02Z</time>
      </trkpt>
      <trkpt lat="45.04704" lon="6.02931">
        <ele>747</ele>
        <time>2016-05-15T06:10:04Z</time>
      </trkpt>
      <trkpt lat="45.04717" lon="6.02925">
        <ele>748</ele>
        <time>2016-05-15T06:10:06Z</time>
      </trkpt>
      <trkpt lat="45.0473" lon="6.02922">
        <ele>748</ele>
        <time>2016-05-15T06:10:08Z</time>
      </trkpt>
      <trkpt lat="45.04745" lon="6.02922">
        <ele>748</ele>
        <time>2016-05-15T06:10:10Z</time>
      </trkpt>
      <trkpt lat="45.0476" lon="6.02922">
        <ele>748</ele>
        <time>2016-05-15T06:10:12Z</time>
      </trkpt>
      <trkpt lat="45.04778" lon="6.02917">
        <ele>748</ele>
        <time>2016-05-15T06:10:14Z</time>
      </trkpt>
      <trkpt lat="45.04792" lon="6.02909">
        <ele>744</ele>
        <time>2016-05-15T06:10:16Z</time>
      </trkpt>
      <trkpt lat="45.04806" lon="6.02897">
        <ele>744</ele>
        <time>2016-05-15T06:10:18Z</time>
      </trkpt>
      <trkpt lat="45.0482" lon="6.02885">
        <ele>741</ele>
        <time>2016-05-15T06:10:20Z</time>
      </trkpt>
      <trkpt lat="45.04834" lon="6.02868">
        <ele>741</ele>
        <time>2016-05-15T06:10:22Z</time>
      </trkpt>
      <trkpt lat="45.04849" lon="6.02856">
        <ele>741</ele>
        <time>2016-05-15T06:10:24Z</time>
      </trkpt>
      <trkpt lat="45.04859" lon="6.02839">
        <ele>741</ele>
        <time>2016-05-15T06:10:26Z</time>
      </trkpt>
      <trkpt lat="45.04864" lon="6.02829">
        <ele>741</ele>
        <time>2016-05-15T06:10:27Z</time>
      </trkpt>
      <trkpt lat="45.04873" lon="6.0281">
        <ele>741</ele>
        <time>2016-05-15T06:10:29Z</time>
      </trkpt>
      <trkpt lat="45.04883" lon="6.02794">
        <ele>742</ele>
        <time>2016-05-15T06:10:31Z</time>
      </trkpt>
      <trkpt lat="45.04893" lon="6.02781">
        <ele>742</ele>
        <time>2016-05-15T06:10:33Z</time>
      </trkpt>
      <trkpt lat="45.04905" lon="6.02775">
        <ele>743</ele>
        <time>2016-05-15T06:10:35Z</time>
      </trkpt>
      <trkpt lat="45.04916" lon="6.02778">
        <ele>743</ele>
        <time>2016-05-15T06:10:37Z</time>
      </trkpt>
      <trkpt lat="45.04927" lon="6.02785">
        <ele>743</ele>
        <time>2016-05-15T06:10:39Z</time>
      </trkpt>
      <trkpt lat="45.04938" lon="6.02794">
        <ele>743</ele>
        <time>2016-05-15T06:10:41Z</time>
      </trkpt>
      <trkpt lat="45.04947" lon="6.02804">
        <ele>743</ele>
        <time>2016-05-15T06:10:43Z</time>
      </trkpt>
      <trkpt lat="45.04957" lon="6.02816">
        <ele>743</ele>
        <time>2016-05-15T06:10:45Z</time>
      </trkpt>
      <trkpt lat="45.04968" lon="6.02828">
        <ele>743</ele>
        <time>2016-05-15T06:10:47Z</time>
      </trkpt>
      <trkpt lat="45.04979" lon="6.02842">
        <ele>743</ele>
        <time>2016-05-15T06:10:49Z</time>
      </trkpt>
      <trkpt lat="45.04992" lon="6.02855">
        <ele>743</ele>
        <time>2016-05-15T06:10:51Z</time>
      </trkpt>
      <trkpt lat="45.05004" lon="6.02867">
        <ele>743</ele>
        <time>2016-05-15T06:10:53Z</time>
      </trkpt>
      <trkpt lat="45.05017" lon="6.02879">
        <ele>741</ele>
        <time>2016-05-15T06:10:55Z</time>
      </trkpt>
      <trkpt lat="45.05031" lon="6.0289">
        <ele>741</ele>
        <time>2016-05-15T06:10:57Z</time>
      </trkpt>
      <trkpt lat="45.05044" lon="6.029">
        <ele>741</ele>
        <time>2016-05-15T06:10:59Z</time>
      </trkpt>
      <trkpt lat="45.05057" lon="6.0291">
        <ele>740</ele>
        <time>2016-05-15T06:11:01Z</time>
      </trkpt>
      <trkpt lat="45.05071" lon="6.02918">
        <ele>740</ele>
        <time>2016-05-15T06:11:03Z</time>
      </trkpt>
      <trkpt lat="45.05085" lon="6.02926">
        <ele>740</ele>
        <time>2016-05-15T06:11:05Z</time>
      </trkpt>
      <trkpt lat="45.05099" lon="6.02933">
        <ele>740</ele>
        <time>2016-05-15T06:11:07Z</time>
      </trkpt>
      <trkpt lat="45.05112" lon="6.02939">
        <ele>740</ele>
        <time>2016-05-15T06:11:09Z</time>
      </trkpt>
      <trkpt lat="45.05125" lon="6.02945">
        <ele>740</ele>
        <time>2016-05-15T06:11:11Z</time>
      </trkpt>
      <trkpt lat="45.05139" lon="6.02948">
        <ele>740</ele>
        <time>2016-05-15T06:11:13Z</time>
      </trkpt>
      <trkpt lat="45.05153" lon="6.02952">
        <ele>740</ele>
        <time>2016-05-15T06:11:15Z</time>
      </trkpt>
      <trkpt lat="45.05166" lon="6.02956">
        <ele>740</ele>
        <time>2016-05-15T06:11:17Z</time>
      </trkpt>
      <trkpt lat="45.05179" lon="6.02959">
        <ele>740</ele>
        <time>2016-05-15T06:11:19Z</time>
      </trkpt>
      <trkpt lat="45.05192" lon="6.02961">
        <ele>740</ele>
        <time>2016-05-15T06:11:21Z</time>
      </trkpt>
      <trkpt lat="45.05198" lon="6.02961">
        <ele>740</ele>
        <time>2016-05-15T06:11:22Z</time>
      </trkpt>
      <trkpt lat="45.05205" lon="6.02962">
        <ele>740</ele>
        <time>2016-05-15T06:11:23Z</time>
      </trkpt>
      <trkpt lat="45.05211" lon="6.02962">
        <ele>740</ele>
        <time>2016-05-15T06:11:24Z</time>
      </trkpt>
      <trkpt lat="45.05217" lon="6.02962">
        <ele>741</ele>
        <time>2016-05-15T06:11:25Z</time>
      </trkpt>
      <trkpt lat="45.05222" lon="6.02961">
        <ele>741</ele>
        <time>2016-05-15T06:11:26Z</time>
      </trkpt>
      <trkpt lat="45.05228" lon="6.0296">
        <ele>741</ele>
        <time>2016-05-15T06:11:27Z</time>
      </trkpt>
      <trkpt lat="45.0524" lon="6.02959">
        <ele>741</ele>
        <time>2016-05-15T06:11:29Z</time>
      </trkpt>
      <trkpt lat="45.05252" lon="6.02956">
        <ele>741</ele>
        <time>2016-05-15T06:11:31Z</time>
      </trkpt>
      <trkpt lat="45.05263" lon="6.02951">
        <ele>741</ele>
        <time>2016-05-15T06:11:33Z</time>
      </trkpt>
      <trkpt lat="45.05268" lon="6.02949">
        <ele>741</ele>
        <time>2016-05-15T06:11:34Z</time>
      </trkpt>
      <trkpt lat="45.0528" lon="6.02945">
        <ele>741</ele>
        <time>2016-05-15T06:11:36Z</time>
      </trkpt>
      <trkpt lat="45.05292" lon="6.02938">
        <ele>742</ele>
        <time>2016-05-15T06:11:38Z</time>
      </trkpt>
      <trkpt lat="45.05305" lon="6.02932">
        <ele>742</ele>
        <time>2016-05-15T06:11:40Z</time>
      </trkpt>
      <trkpt lat="45.05316" lon="6.02926">
        <ele>742</ele>
        <time>2016-05-15T06:11:42Z</time>
      </trkpt>
      <trkpt lat="45.05328" lon="6.02921">
        <ele>742</ele>
        <time>2016-05-15T06:11:44Z</time>
      </trkpt>
      <trkpt lat="45.05338" lon="6.02914">
        <ele>741</ele>
        <time>2016-05-15T06:11:46Z</time>
      </trkpt>
      <trkpt lat="45.05349" lon="6.02909">
        <ele>741</ele>
        <time>2016-05-15T06:11:48Z</time>
      </trkpt>
      <trkpt lat="45.05359" lon="6.02906">
        <ele>741</ele>
        <time>2016-05-15T06:11:50Z</time>
      </trkpt>
      <trkpt lat="45.0537" lon="6.02901">
        <ele>741</ele>
        <time>2016-05-15T06:11:52Z</time>
      </trkpt>
      <trkpt lat="45.0538" lon="6.02901">
        <ele>741</ele>
        <time>2016-05-15T06:11:54Z</time>
      </trkpt>
      <trkpt lat="45.0539" lon="6.02901">
        <ele>740</ele>
        <time>2016-05-15T06:11:56Z</time>
      </trkpt>
      <trkpt lat="45.05404" lon="6.02905">
        <ele>740</ele>
        <time>2016-05-15T06:11:58Z</time>
      </trkpt>
      <trkpt lat="45.05412" lon="6.02913">
        <ele>738</ele>
        <time>2016-05-15T06:12:00Z</time>
      </trkpt>
      <trkpt lat="45.05417" lon="6.02927">
        <ele>738</ele>
        <time>2016-05-15T06:12:02Z</time>
      </trkpt>
      <trkpt lat="45.05418" lon="6.02944">
        <ele>738</ele>
        <time>2016-05-15T06:12:04Z</time>
      </trkpt>
      <trkpt lat="45.05421" lon="6.02959">
        <ele>738</ele>
        <time>2016-05-15T06:12:06Z</time>
      </trkpt>
      <trkpt lat="45.05423" lon="6.02975">
        <ele>738</ele>
        <time>2016-05-15T06:12:08Z</time>
      </trkpt>
      <trkpt lat="45.05428" lon="6.02989">
        <ele>737</ele>
        <time>2016-05-15T06:12:10Z</time>
      </trkpt>
      <trkpt lat="45.05429" lon="6.03004">
        <ele>737</ele>
        <time>2016-05-15T06:12:12Z</time>
      </trkpt>
      <trkpt lat="45.05432" lon="6.03018">
        <ele>737</ele>
        <time>2016-05-15T06:12:14Z</time>
      </trkpt>
      <trkpt lat="45.05435" lon="6.03032">
        <ele>736</ele>
        <time>2016-05-15T06:12:16Z</time>
      </trkpt>
      <trkpt lat="45.0544" lon="6.03045">
        <ele>736</ele>
        <time>2016-05-15T06:12:18Z</time>
      </trkpt>
      <trkpt lat="45.05443" lon="6.03059">
        <ele>736</ele>
        <time>2016-05-15T06:12:20Z</time>
      </trkpt>
      <trkpt lat="45.05445" lon="6.03065">
        <ele>735</ele>
        <time>2016-05-15T06:12:21Z</time>
      </trkpt>
      <trkpt lat="45.05446" lon="6.03071">
        <ele>735</ele>
        <time>2016-05-15T06:12:22Z</time>
      </trkpt>
      <trkpt lat="45.0545" lon="6.03084">
        <ele>735</ele>
        <time>2016-05-15T06:12:24Z</time>
      </trkpt>
      <trkpt lat="45.05451" lon="6.0309">
        <ele>735</ele>
        <time>2016-05-15T06:12:25Z</time>
      </trkpt>
      <trkpt lat="45.05453" lon="6.03096">
        <ele>735</ele>
        <time>2016-05-15T06:12:26Z</time>
      </trkpt>
      <trkpt lat="45.05454" lon="6.03101">
        <ele>735</ele>
        <time>2016-05-15T06:12:27Z</time>
      </trkpt>
      <trkpt lat="45.05456" lon="6.03107">
        <ele>735</ele>
        <time>2016-05-15T06:12:28Z</time>
      </trkpt>
      <trkpt lat="45.05457" lon="6.03113">
        <ele>735</ele>
        <time>2016-05-15T06:12:29Z</time>
      </trkpt>
      <trkpt lat="45.05459" lon="6.03119">
        <ele>735</ele>
        <time>2016-05-15T06:12:30Z</time>
      </trkpt>
      <trkpt lat="45.0546" lon="6.03125">
        <ele>736</ele>
        <time>2016-05-15T06:12:31Z</time>
      </trkpt>
      <trkpt lat="45.05461" lon="6.03131">
        <ele>736</ele>
        <time>2016-05-15T06:12:32Z</time>
      </trkpt>
      <trkpt lat="45.05463" lon="6.03137">
        <ele>736</ele>
        <time>2016-05-15T06:12:33Z</time>
      </trkpt>
      <trkpt lat="45.05464" lon="6.03143">
        <ele>736</ele>
        <time>2016-05-15T06:12:34Z</time>
      </trkpt>
      <trkpt lat="45.05466" lon="6.03148">
        <ele>736</ele>
        <time>2016-05-15T06:12:35Z</time>
      </trkpt>
      <trkpt lat="45.05467" lon="6.03153">
        <ele>736</ele>
        <time>2016-05-15T06:12:36Z</time>
      </trkpt>
      <trkpt lat="45.05467" lon="6.03158">
        <ele>736</ele>
        <time>2016-05-15T06:12:37Z</time>
      </trkpt>
      <trkpt lat="45.05476" lon="6.03153">
        <ele>735</ele>
        <time>2016-05-15T06:12:43Z</time>
      </trkpt>
      <trkpt lat="45.0548" lon="6.03137">
        <ele>735</ele>
        <time>2016-05-15T06:12:46Z</time>
      </trkpt>
      <trkpt lat="45.05479" lon="6.03123">
        <ele>735</ele>
        <time>2016-05-15T06:12:49Z</time>
      </trkpt>
      <trkpt lat="45.05479" lon="6.03109">
        <ele>735</ele>
        <time>2016-05-15T06:12:53Z</time>
      </trkpt>
      <trkpt lat="45.05484" lon="6.03108">
        <ele>735</ele>
        <time>2016-05-15T06:12:56Z</time>
      </trkpt>
      <trkpt lat="45.05483" lon="6.03124">
        <ele>735</ele>
        <time>2016-05-15T06:13:00Z</time>
      </trkpt>
      <trkpt lat="45.05482" lon="6.03139">
        <ele>735</ele>
        <time>2016-05-15T06:13:04Z</time>
      </trkpt>
      <trkpt lat="45.05477" lon="6.03148">
        <ele>735</ele>
        <time>2016-05-15T06:13:07Z</time>
      </trkpt>
      <trkpt lat="45.05474" lon="6.0315">
        <ele>735</ele>
        <time>2016-05-15T06:13:08Z</time>
      </trkpt>
      <trkpt lat="45.0547" lon="6.03152">
        <ele>735</ele>
        <time>2016-05-15T06:13:09Z</time>
      </trkpt>
      <trkpt lat="45.05468" lon="6.03153">
        <ele>735</ele>
        <time>2016-05-15T06:13:10Z</time>
      </trkpt>
      <trkpt lat="45.05465" lon="6.03153">
        <ele>735</ele>
        <time>2016-05-15T06:13:11Z</time>
      </trkpt>
      <trkpt lat="45.05459" lon="6.03174">
        <ele>736</ele>
        <time>2016-05-15T06:16:37Z</time>
      </trkpt>
      <trkpt lat="45.05462" lon="6.03162">
        <ele>736</ele>
        <time>2016-05-15T06:16:39Z</time>
      </trkpt>
      <trkpt lat="45.05462" lon="6.03149">
        <ele>736</ele>
        <time>2016-05-15T06:16:41Z</time>
      </trkpt>
      <trkpt lat="45.05461" lon="6.03132">
        <ele>736</ele>
        <time>2016-05-15T06:16:44Z</time>
      </trkpt>
      <trkpt lat="45.0546" lon="6.03118">
        <ele>736</ele>
        <time>2016-05-15T06:16:47Z</time>
      </trkpt>
      <trkpt lat="45.05455" lon="6.03104">
        <ele>736</ele>
        <time>2016-05-15T06:16:50Z</time>
      </trkpt>
      <trkpt lat="45.05449" lon="6.03088">
        <ele>736</ele>
        <time>2016-05-15T06:16:53Z</time>
      </trkpt>
      <trkpt lat="45.05447" lon="6.03083">
        <ele>736</ele>
        <time>2016-05-15T06:16:54Z</time>
      </trkpt>
      <trkpt lat="45.05444" lon="6.03068">
        <ele>736</ele>
        <time>2016-05-15T06:16:57Z</time>
      </trkpt>
      <trkpt lat="45.0544" lon="6.03052">
        <ele>737</ele>
        <time>2016-05-15T06:17:00Z</time>
      </trkpt>
      <trkpt lat="45.05437" lon="6.03036">
        <ele>737</ele>
        <time>2016-05-15T06:17:03Z</time>
      </trkpt>
      <trkpt lat="45.05433" lon="6.03019">
        <ele>737</ele>
        <time>2016-05-15T06:17:06Z</time>
      </trkpt>
      <trkpt lat="45.05428" lon="6.03003">
        <ele>737</ele>
        <time>2016-05-15T06:17:09Z</time>
      </trkpt>
      <trkpt lat="45.05424" lon="6.0299">
        <ele>738</ele>
        <time>2016-05-15T06:17:12Z</time>
      </trkpt>
      <trkpt lat="45.0542" lon="6.02973">
        <ele>738</ele>
        <time>2016-05-15T06:17:15Z</time>
      </trkpt>
      <trkpt lat="45.05414" lon="6.02955">
        <ele>738</ele>
        <time>2016-05-15T06:17:18Z</time>
      </trkpt>
      <trkpt lat="45.0541" lon="6.02941">
        <ele>738</ele>
        <time>2016-05-15T06:17:20Z</time>
      </trkpt>
      <trkpt lat="45.05404" lon="6.02926">
        <ele>739</ele>
        <time>2016-05-15T06:17:22Z</time>
      </trkpt>
      <trkpt lat="45.05401" lon="6.02912">
        <ele>739</ele>
        <time>2016-05-15T06:17:24Z</time>
      </trkpt>
      <trkpt lat="45.05406" lon="6.029">
        <ele>739</ele>
        <time>2016-05-15T06:17:26Z</time>
      </trkpt>
      <trkpt lat="45.05418" lon="6.02896">
        <ele>739</ele>
        <time>2016-05-15T06:17:28Z</time>
      </trkpt>
      <trkpt lat="45.05427" lon="6.02895">
        <ele>739</ele>
        <time>2016-05-15T06:17:31Z</time>
      </trkpt>
      <trkpt lat="45.05438" lon="6.02888">
        <ele>740</ele>
        <time>2016-05-15T06:17:34Z</time>
      </trkpt>
      <trkpt lat="45.05447" lon="6.02883">
        <ele>740</ele>
        <time>2016-05-15T06:17:36Z</time>
      </trkpt>
      <trkpt lat="45.05457" lon="6.02874">
        <ele>740</ele>
        <time>2016-05-15T06:17:39Z</time>
      </trkpt>
      <trkpt lat="45.05467" lon="6.02866">
        <ele>741</ele>
        <time>2016-05-15T06:17:41Z</time>
      </trkpt>
      <trkpt lat="45.05478" lon="6.02858">
        <ele>741</ele>
        <time>2016-05-15T06:17:43Z</time>
      </trkpt>
      <trkpt lat="45.05488" lon="6.02846">
        <ele>741</ele>
        <time>2016-05-15T06:17:45Z</time>
      </trkpt>
      <trkpt lat="45.05496" lon="6.02834">
        <ele>741</ele>
        <time>2016-05-15T06:17:47Z</time>
      </trkpt>
      <trkpt lat="45.05506" lon="6.02825">
        <ele>741</ele>
        <time>2016-05-15T06:17:49Z</time>
      </trkpt>
      <trkpt lat="45.05514" lon="6.02815">
        <ele>741</ele>
        <time>2016-05-15T06:17:51Z</time>
      </trkpt>
      <trkpt lat="45.05519" lon="6.02811">
        <ele>741</ele>
        <time>2016-05-15T06:17:52Z</time>
      </trkpt>
      <trkpt lat="45.05523" lon="6.02806">
        <ele>741</ele>
        <time>2016-05-15T06:17:53Z</time>
      </trkpt>
      <trkpt lat="45.05527" lon="6.02801">
        <ele>741</ele>
        <time>2016-05-15T06:17:54Z</time>
      </trkpt>
      <trkpt lat="45.05531" lon="6.02797">
        <ele>741</ele>
        <time>2016-05-15T06:17:55Z</time>
      </trkpt>
      <trkpt lat="45.0554" lon="6.02788">
        <ele>741</ele>
        <time>2016-05-15T06:17:57Z</time>
      </trkpt>
      <trkpt lat="45.05544" lon="6.02783">
        <ele>741</ele>
        <time>2016-05-15T06:17:58Z</time>
      </trkpt>
      <trkpt lat="45.05548" lon="6.02779">
        <ele>741</ele>
        <time>2016-05-15T06:17:59Z</time>
      </trkpt>
      <trkpt lat="45.05552" lon="6.02774">
        <ele>741</ele>
        <time>2016-05-15T06:18:00Z</time>
      </trkpt>
      <trkpt lat="45.05557" lon="6.02769">
        <ele>742</ele>
        <time>2016-05-15T06:18:01Z</time>
      </trkpt>
      <trkpt lat="45.05561" lon="6.02765">
        <ele>742</ele>
        <time>2016-05-15T06:18:02Z</time>
      </trkpt>
      <trkpt lat="45.05565" lon="6.02761">
        <ele>742</ele>
        <time>2016-05-15T06:18:03Z</time>
      </trkpt>
      <trkpt lat="45.05572" lon="6.02753">
        <ele>742</ele>
        <time>2016-05-15T06:18:05Z</time>
      </trkpt>
      <trkpt lat="45.05575" lon="6.02749">
        <ele>742</ele>
        <time>2016-05-15T06:18:06Z</time>
      </trkpt>
      <trkpt lat="45.05579" lon="6.02746">
        <ele>742</ele>
        <time>2016-05-15T06:18:07Z</time>
      </trkpt>
      <trkpt lat="45.05582" lon="6.02742">
        <ele>742</ele>
        <time>2016-05-15T06:18:08Z</time>
      </trkpt>
      <trkpt lat="45.05585" lon="6.02738">
        <ele>742</ele>
        <time>2016-05-15T06:18:09Z</time>
      </trkpt>
      <trkpt lat="45.05593" lon="6.02732">
        <ele>742</ele>
        <time>2016-05-15T06:18:11Z</time>
      </trkpt>
      <trkpt lat="45.05604" lon="6.02723">
        <ele>744</ele>
        <time>2016-05-15T06:18:14Z</time>
      </trkpt>
      <trkpt lat="45.05611" lon="6.02717">
        <ele>744</ele>
        <time>2016-05-15T06:18:16Z</time>
      </trkpt>
      <trkpt lat="45.05614" lon="6.02714">
        <ele>744</ele>
        <time>2016-05-15T06:18:17Z</time>
      </trkpt>
      <trkpt lat="45.05617" lon="6.02712">
        <ele>744</ele>
        <time>2016-05-15T06:18:18Z</time>
      </trkpt>
      <trkpt lat="45.0562" lon="6.02709">
        <ele>744</ele>
        <time>2016-05-15T06:18:19Z</time>
      </trkpt>
      <trkpt lat="45.05623" lon="6.02706">
        <ele>744</ele>
        <time>2016-05-15T06:18:20Z</time>
      </trkpt>
      <trkpt lat="45.05627" lon="6.02703">
        <ele>748</ele>
        <time>2016-05-15T06:18:21Z</time>
      </trkpt>
      <trkpt lat="45.0563" lon="6.02701">
        <ele>748</ele>
        <time>2016-05-15T06:18:22Z</time>
      </trkpt>
      <trkpt lat="45.05633" lon="6.02699">
        <ele>748</ele>
        <time>2016-05-15T06:18:23Z</time>
      </trkpt>
      <trkpt lat="45.05642" lon="6.02692">
        <ele>748</ele>
        <time>2016-05-15T06:18:26Z</time>
      </trkpt>
      <trkpt lat="45.0565" lon="6.02684">
        <ele>748</ele>
        <time>2016-05-15T06:18:29Z</time>
      </trkpt>
      <trkpt lat="45.0566" lon="6.02677">
        <ele>751</ele>
        <time>2016-05-15T06:18:32Z</time>
      </trkpt>
      <trkpt lat="45.0567" lon="6.02671">
        <ele>752</ele>
        <time>2016-05-15T06:18:35Z</time>
      </trkpt>
      <trkpt lat="45.05679" lon="6.02663">
        <ele>753</ele>
        <time>2016-05-15T06:18:38Z</time>
      </trkpt>
      <trkpt lat="45.05685" lon="6.02657">
        <ele>752</ele>
        <time>2016-05-15T06:18:40Z</time>
      </trkpt>
      <trkpt lat="45.05688" lon="6.02654">
        <ele>751</ele>
        <time>2016-05-15T06:18:41Z</time>
      </trkpt>
      <trkpt lat="45.05692" lon="6.0265">
        <ele>751</ele>
        <time>2016-05-15T06:18:42Z</time>
      </trkpt>
      <trkpt lat="45.05696" lon="6.02647">
        <ele>751</ele>
        <time>2016-05-15T06:18:43Z</time>
      </trkpt>
      <trkpt lat="45.057" lon="6.02643">
        <ele>751</ele>
        <time>2016-05-15T06:18:44Z</time>
      </trkpt>
      <trkpt lat="45.05704" lon="6.02638">
        <ele>751</ele>
        <time>2016-05-15T06:18:45Z</time>
      </trkpt>
      <trkpt lat="45.05709" lon="6.02634">
        <ele>751</ele>
        <time>2016-05-15T06:18:46Z</time>
      </trkpt>
      <trkpt lat="45.05714" lon="6.02629">
        <ele>751</ele>
        <time>2016-05-15T06:18:47Z</time>
      </trkpt>
      <trkpt lat="45.0572" lon="6.02624">
        <ele>751</ele>
        <time>2016-05-15T06:18:48Z</time>
      </trkpt>
      <trkpt lat="45.05726" lon="6.02618">
        <ele>751</ele>
        <time>2016-05-15T06:18:49Z</time>
      </trkpt>
      <trkpt lat="45.05732" lon="6.02613">
        <ele>751</ele>
        <time>2016-05-15T06:18:50Z</time>
      </trkpt>
      <trkpt lat="45.05739" lon="6.02606">
        <ele>749</ele>
        <time>2016-05-15T06:18:51Z</time>
      </trkpt>
      <trkpt lat="45.05745" lon="6.026">
        <ele>749</ele>
        <time>2016-05-15T06:18:52Z</time>
      </trkpt>
      <trkpt lat="45.05752" lon="6.02594">
        <ele>749</ele>
        <time>2016-05-15T06:18:53Z</time>
      </trkpt>
      <trkpt lat="45.05759" lon="6.02589">
        <ele>749</ele>
        <time>2016-05-15T06:18:54Z</time>
      </trkpt>
      <trkpt lat="45.05772" lon="6.02579">
        <ele>747</ele>
        <time>2016-05-15T06:18:56Z</time>
      </trkpt>
      <trkpt lat="45.05779" lon="6.02574">
        <ele>747</ele>
        <time>2016-05-15T06:18:57Z</time>
      </trkpt>
      <trkpt lat="45.05785" lon="6.02568">
        <ele>747</ele>
        <time>2016-05-15T06:18:58Z</time>
      </trkpt>
      <trkpt lat="45.0579" lon="6.02562">
        <ele>747</ele>
        <time>2016-05-15T06:18:59Z</time>
      </trkpt>
      <trkpt lat="45.05795" lon="6.02556">
        <ele>744</ele>
        <time>2016-05-15T06:19:00Z</time>
      </trkpt>
      <trkpt lat="45.05798" lon="6.02548">
        <ele>744</ele>
        <time>2016-05-15T06:19:01Z</time>
      </trkpt>
      <trkpt lat="45.058" lon="6.02539">
        <ele>744</ele>
        <time>2016-05-15T06:19:02Z</time>
      </trkpt>
      <trkpt lat="45.05803" lon="6.02523">
        <ele>744</ele>
        <time>2016-05-15T06:19:04Z</time>
      </trkpt>
      <trkpt lat="45.05815" lon="6.02517">
        <ele>744</ele>
        <time>2016-05-15T06:19:07Z</time>
      </trkpt>
      <trkpt lat="45.05824" lon="6.02513">
        <ele>744</ele>
        <time>2016-05-15T06:19:09Z</time>
      </trkpt>
      <trkpt lat="45.05828" lon="6.02511">
        <ele>745</ele>
        <time>2016-05-15T06:19:10Z</time>
      </trkpt>
      <trkpt lat="45.05832" lon="6.02509">
        <ele>745</ele>
        <time>2016-05-15T06:19:11Z</time>
      </trkpt>
      <trkpt lat="45.05842" lon="6.02507">
        <ele>745</ele>
        <time>2016-05-15T06:19:13Z</time>
      </trkpt>
      <trkpt lat="45.05848" lon="6.02506">
        <ele>745</ele>
        <time>2016-05-15T06:19:14Z</time>
      </trkpt>
      <trkpt lat="45.05854" lon="6.02507">
        <ele>744</ele>
        <time>2016-05-15T06:19:15Z</time>
      </trkpt>
      <trkpt lat="45.05861" lon="6.02508">
        <ele>744</ele>
        <time>2016-05-15T06:19:16Z</time>
      </trkpt>
      <trkpt lat="45.05868" lon="6.02509">
        <ele>744</ele>
        <time>2016-05-15T06:19:17Z</time>
      </trkpt>
      <trkpt lat="45.05875" lon="6.02509">
        <ele>744</ele>
        <time>2016-05-15T06:19:18Z</time>
      </trkpt>
      <trkpt lat="45.05883" lon="6.0251">
        <ele>744</ele>
        <time>2016-05-15T06:19:19Z</time>
      </trkpt>
      <trkpt lat="45.05891" lon="6.0251">
        <ele>744</ele>
        <time>2016-05-15T06:19:20Z</time>
      </trkpt>
      <trkpt lat="45.05899" lon="6.0251">
        <ele>744</ele>
        <time>2016-05-15T06:19:21Z</time>
      </trkpt>
      <trkpt lat="45.05906" lon="6.0251">
        <ele>744</ele>
        <time>2016-05-15T06:19:22Z</time>
      </trkpt>
      <trkpt lat="45.05914" lon="6.02509">
        <ele>744</ele>
        <time>2016-05-15T06:19:23Z</time>
      </trkpt>
      <trkpt lat="45.05922" lon="6.02507">
        <ele>744</ele>
        <time>2016-05-15T06:19:24Z</time>
      </trkpt>
      <trkpt lat="45.0593" lon="6.02503">
        <ele>741</ele>
        <time>2016-05-15T06:19:25Z</time>
      </trkpt>
      <trkpt lat="45.05937" lon="6.02495">
        <ele>741</ele>
        <time>2016-05-15T06:19:26Z</time>
      </trkpt>
      <trkpt lat="45.05943" lon="6.02487">
        <ele>741</ele>
        <time>2016-05-15T06:19:27Z</time>
      </trkpt>
      <trkpt lat="45.0595" lon="6.02479">
        <ele>741</ele>
        <time>2016-05-15T06:19:28Z</time>
      </trkpt>
      <trkpt lat="45.05962" lon="6.02461">
        <ele>740</ele>
        <time>2016-05-15T06:19:30Z</time>
      </trkpt>
      <trkpt lat="45.05974" lon="6.02445">
        <ele>740</ele>
        <time>2016-05-15T06:19:32Z</time>
      </trkpt>
      <trkpt lat="45.05984" lon="6.02427">
        <ele>740</ele>
        <time>2016-05-15T06:19:34Z</time>
      </trkpt>
      <trkpt lat="45.05996" lon="6.02409">
        <ele>738</ele>
        <time>2016-05-15T06:19:36Z</time>
      </trkpt>
      <trkpt lat="45.06008" lon="6.02393">
        <ele>738</ele>
        <time>2016-05-15T06:19:38Z</time>
      </trkpt>
      <trkpt lat="45.06023" lon="6.02384">
        <ele>739</ele>
        <time>2016-05-15T06:19:40Z</time>
      </trkpt>
      <trkpt lat="45.06037" lon="6.02376">
        <ele>739</ele>
        <time>2016-05-15T06:19:42Z</time>
      </trkpt>
      <trkpt lat="45.06051" lon="6.02368">
        <ele>739</ele>
        <time>2016-05-15T06:19:44Z</time>
      </trkpt>
      <trkpt lat="45.06064" lon="6.02362">
        <ele>741</ele>
        <time>2016-05-15T06:19:46Z</time>
      </trkpt>
      <trkpt lat="45.0607" lon="6.0236">
        <ele>741</ele>
        <time>2016-05-15T06:19:47Z</time>
      </trkpt>
      <trkpt lat="45.06083" lon="6.02357">
        <ele>741</ele>
        <time>2016-05-15T06:19:49Z</time>
      </trkpt>
      <trkpt lat="45.06096" lon="6.02355">
        <ele>741</ele>
        <time>2016-05-15T06:19:51Z</time>
      </trkpt>
      <trkpt lat="45.06106" lon="6.02353">
        <ele>742</ele>
        <time>2016-05-15T06:19:53Z</time>
      </trkpt>
      <trkpt lat="45.06117" lon="6.02349">
        <ele>742</ele>
        <time>2016-05-15T06:19:55Z</time>
      </trkpt>
      <trkpt lat="45.06129" lon="6.02344">
        <ele>742</ele>
        <time>2016-05-15T06:19:57Z</time>
      </trkpt>
      <trkpt lat="45.06141" lon="6.02339">
        <ele>742</ele>
        <time>2016-05-15T06:19:59Z</time>
      </trkpt>
      <trkpt lat="45.06154" lon="6.02334">
        <ele>741</ele>
        <time>2016-05-15T06:20:01Z</time>
      </trkpt>
      <trkpt lat="45.06168" lon="6.02328">
        <ele>741</ele>
        <time>2016-05-15T06:20:03Z</time>
      </trkpt>
      <trkpt lat="45.06181" lon="6.02321">
        <ele>741</ele>
        <time>2016-05-15T06:20:05Z</time>
      </trkpt>
      <trkpt lat="45.06189" lon="6.02316">
        <ele>741</ele>
        <time>2016-05-15T06:20:06Z</time>
      </trkpt>
      <trkpt lat="45.06203" lon="6.02305">
        <ele>741</ele>
        <time>2016-05-15T06:20:08Z</time>
      </trkpt>
      <trkpt lat="45.06215" lon="6.02294">
        <ele>741</ele>
        <time>2016-05-15T06:20:10Z</time>
      </trkpt>
      <trkpt lat="45.06226" lon="6.02281">
        <ele>740</ele>
        <time>2016-05-15T06:20:12Z</time>
      </trkpt>
      <trkpt lat="45.06236" lon="6.02264">
        <ele>740</ele>
        <time>2016-05-15T06:20:14Z</time>
      </trkpt>
      <trkpt lat="45.0625" lon="6.02253">
        <ele>739</ele>
        <time>2016-05-15T06:20:16Z</time>
      </trkpt>
      <trkpt lat="45.06264" lon="6.02243">
        <ele>739</ele>
        <time>2016-05-15T06:20:18Z</time>
      </trkpt>
      <trkpt lat="45.06277" lon="6.02233">
        <ele>739</ele>
        <time>2016-05-15T06:20:20Z</time>
      </trkpt>
      <trkpt lat="45.06289" lon="6.02224">
        <ele>739</ele>
        <time>2016-05-15T06:20:22Z</time>
      </trkpt>
      <trkpt lat="45.06301" lon="6.02214">
        <ele>739</ele>
        <time>2016-05-15T06:20:24Z</time>
      </trkpt>
      <trkpt lat="45.06312" lon="6.02205">
        <ele>739</ele>
        <time>2016-05-15T06:20:26Z</time>
      </trkpt>
      <trkpt lat="45.0632" lon="6.02196">
        <ele>739</ele>
        <time>2016-05-15T06:20:28Z</time>
      </trkpt>
      <trkpt lat="45.06329" lon="6.02186">
        <ele>739</ele>
        <time>2016-05-15T06:20:30Z</time>
      </trkpt>
      <trkpt lat="45.06337" lon="6.02175">
        <ele>743</ele>
        <time>2016-05-15T06:20:32Z</time>
      </trkpt>
      <trkpt lat="45.06344" lon="6.02163">
        <ele>743</ele>
        <time>2016-05-15T06:20:34Z</time>
      </trkpt>
      <trkpt lat="45.06347" lon="6.0215">
        <ele>743</ele>
        <time>2016-05-15T06:20:36Z</time>
      </trkpt>
      <trkpt lat="45.06352" lon="6.02135">
        <ele>747</ele>
        <time>2016-05-15T06:20:39Z</time>
      </trkpt>
      <trkpt lat="45.06356" lon="6.02119">
        <ele>747</ele>
        <time>2016-05-15T06:20:42Z</time>
      </trkpt>
      <trkpt lat="45.06365" lon="6.02107">
        <ele>750</ele>
        <time>2016-05-15T06:20:46Z</time>
      </trkpt>
      <trkpt lat="45.06373" lon="6.02101">
        <ele>751</ele>
        <time>2016-05-15T06:20:48Z</time>
      </trkpt>
      <trkpt lat="45.06382" lon="6.02092">
        <ele>751</ele>
        <time>2016-05-15T06:20:50Z</time>
      </trkpt>
      <trkpt lat="45.0639" lon="6.02085">
        <ele>752</ele>
        <time>2016-05-15T06:20:52Z</time>
      </trkpt>
      <trkpt lat="45.06397" lon="6.02076">
        <ele>752</ele>
        <time>2016-05-15T06:20:55Z</time>
      </trkpt>
      <trkpt lat="45.06405" lon="6.02063">
        <ele>752</ele>
        <time>2016-05-15T06:20:58Z</time>
      </trkpt>
      <trkpt lat="45.06414" lon="6.02049">
        <ele>751</ele>
        <time>2016-05-15T06:21:01Z</time>
      </trkpt>
      <trkpt lat="45.06421" lon="6.02032">
        <ele>751</ele>
        <time>2016-05-15T06:21:03Z</time>
      </trkpt>
      <trkpt lat="45.06428" lon="6.02015">
        <ele>751</ele>
        <time>2016-05-15T06:21:05Z</time>
      </trkpt>
      <trkpt lat="45.06435" lon="6.01998">
        <ele>751</ele>
        <time>2016-05-15T06:21:07Z</time>
      </trkpt>
      <trkpt lat="45.06444" lon="6.01981">
        <ele>751</ele>
        <time>2016-05-15T06:21:09Z</time>
      </trkpt>
      <trkpt lat="45.06453" lon="6.01968">
        <ele>751</ele>
        <time>2016-05-15T06:21:11Z</time>
      </trkpt>
      <trkpt lat="45.06468" lon="6.01961">
        <ele>751</ele>
        <time>2016-05-15T06:21:13Z</time>
      </trkpt>
      <trkpt lat="45.06478" lon="6.01958">
        <ele>751</ele>
        <time>2016-05-15T06:21:14Z</time>
      </trkpt>
      <trkpt lat="45.06487" lon="6.01955">
        <ele>751</ele>
        <time>2016-05-15T06:21:15Z</time>
      </trkpt>
      <trkpt lat="45.06498" lon="6.01952">
        <ele>751</ele>
        <time>2016-05-15T06:21:16Z</time>
      </trkpt>
      <trkpt lat="45.06511" lon="6.01944">
        <ele>751</ele>
        <time>2016-05-15T06:21:18Z</time>
      </trkpt>
      <trkpt lat="45.06525" lon="6.01937">
        <ele>751</ele>
        <time>2016-05-15T06:21:20Z</time>
      </trkpt>
      <trkpt lat="45.06539" lon="6.01931">
        <ele>751</ele>
        <time>2016-05-15T06:21:22Z</time>
      </trkpt>
      <trkpt lat="45.06549" lon="6.01928">
        <ele>751</ele>
        <time>2016-05-15T06:21:23Z</time>
      </trkpt>
      <trkpt lat="45.06558" lon="6.01926">
        <ele>751</ele>
        <time>2016-05-15T06:21:24Z</time>
      </trkpt>
      <trkpt lat="45.06567" lon="6.01926">
        <ele>751</ele>
        <time>2016-05-15T06:21:25Z</time>
      </trkpt>
      <trkpt lat="45.06577" lon="6.01925">
        <ele>748</ele>
        <time>2016-05-15T06:21:26Z</time>
      </trkpt>
      <trkpt lat="45.06592" lon="6.01927">
        <ele>748</ele>
        <time>2016-05-15T06:21:28Z</time>
      </trkpt>
      <trkpt lat="45.06603" lon="6.01927">
        <ele>747</ele>
        <time>2016-05-15T06:21:30Z</time>
      </trkpt>
      <trkpt lat="45.06617" lon="6.01922">
        <ele>747</ele>
        <time>2016-05-15T06:21:32Z</time>
      </trkpt>
      <trkpt lat="45.06631" lon="6.01917">
        <ele>747</ele>
        <time>2016-05-15T06:21:34Z</time>
      </trkpt>
      <trkpt lat="45.06642" lon="6.01912">
        <ele>746</ele>
        <time>2016-05-15T06:21:36Z</time>
      </trkpt>
      <trkpt lat="45.06656" lon="6.01908">
        <ele>746</ele>
        <time>2016-05-15T06:21:38Z</time>
      </trkpt>
      <trkpt lat="45.06672" lon="6.01904">
        <ele>746</ele>
        <time>2016-05-15T06:21:40Z</time>
      </trkpt>
      <trkpt lat="45.0669" lon="6.01903">
        <ele>746</ele>
        <time>2016-05-15T06:21:42Z</time>
      </trkpt>
      <trkpt lat="45.067" lon="6.01903">
        <ele>746</ele>
        <time>2016-05-15T06:21:43Z</time>
      </trkpt>
      <trkpt lat="45.06709" lon="6.01902">
        <ele>746</ele>
        <time>2016-05-15T06:21:44Z</time>
      </trkpt>
      <trkpt lat="45.06724" lon="6.01907">
        <ele>746</ele>
        <time>2016-05-15T06:21:46Z</time>
      </trkpt>
      <trkpt lat="45.06739" lon="6.01913">
        <ele>743</ele>
        <time>2016-05-15T06:21:48Z</time>
      </trkpt>
      <trkpt lat="45.06755" lon="6.01918">
        <ele>743</ele>
        <time>2016-05-15T06:21:50Z</time>
      </trkpt>
      <trkpt lat="45.06767" lon="6.01924">
        <ele>743</ele>
        <time>2016-05-15T06:21:52Z</time>
      </trkpt>
      <trkpt lat="45.06783" lon="6.01929">
        <ele>743</ele>
        <time>2016-05-15T06:21:54Z</time>
      </trkpt>
      <trkpt lat="45.06797" lon="6.0193">
        <ele>742</ele>
        <time>2016-05-15T06:21:56Z</time>
      </trkpt>
      <trkpt lat="45.06812" lon="6.01928">
        <ele>742</ele>
        <time>2016-05-15T06:21:58Z</time>
      </trkpt>
      <trkpt lat="45.06826" lon="6.01924">
        <ele>742</ele>
        <time>2016-05-15T06:22:00Z</time>
      </trkpt>
      <trkpt lat="45.0684" lon="6.0192">
        <ele>741</ele>
        <time>2016-05-15T06:22:02Z</time>
      </trkpt>
      <trkpt lat="45.06853" lon="6.0192">
        <ele>741</ele>
        <time>2016-05-15T06:22:04Z</time>
      </trkpt>
      <trkpt lat="45.06866" lon="6.01922">
        <ele>741</ele>
        <time>2016-05-15T06:22:06Z</time>
      </trkpt>
      <trkpt lat="45.06883" lon="6.01928">
        <ele>739</ele>
        <time>2016-05-15T06:22:08Z</time>
      </trkpt>
      <trkpt lat="45.06899" lon="6.01935">
        <ele>739</ele>
        <time>2016-05-15T06:22:10Z</time>
      </trkpt>
      <trkpt lat="45.06916" lon="6.01942">
        <ele>738</ele>
        <time>2016-05-15T06:22:12Z</time>
      </trkpt>
      <trkpt lat="45.06933" lon="6.01947">
        <ele>738</ele>
        <time>2016-05-15T06:22:14Z</time>
      </trkpt>
      <trkpt lat="45.06946" lon="6.0195">
        <ele>738</ele>
        <time>2016-05-15T06:22:16Z</time>
      </trkpt>
      <trkpt lat="45.06958" lon="6.01945">
        <ele>738</ele>
        <time>2016-05-15T06:22:18Z</time>
      </trkpt>
      <trkpt lat="45.0697" lon="6.01938">
        <ele>738</ele>
        <time>2016-05-15T06:22:20Z</time>
      </trkpt>
      <trkpt lat="45.06981" lon="6.01931">
        <ele>737</ele>
        <time>2016-05-15T06:22:22Z</time>
      </trkpt>
      <trkpt lat="45.06994" lon="6.01926">
        <ele>737</ele>
        <time>2016-05-15T06:22:24Z</time>
      </trkpt>
      <trkpt lat="45.07008" lon="6.01921">
        <ele>737</ele>
        <time>2016-05-15T06:22:26Z</time>
      </trkpt>
      <trkpt lat="45.07023" lon="6.01918">
        <ele>737</ele>
        <time>2016-05-15T06:22:28Z</time>
      </trkpt>
      <trkpt lat="45.07034" lon="6.01912">
        <ele>737</ele>
        <time>2016-05-15T06:22:30Z</time>
      </trkpt>
      <trkpt lat="45.07045" lon="6.01906">
        <ele>738</ele>
        <time>2016-05-15T06:22:32Z</time>
      </trkpt>
      <trkpt lat="45.07055" lon="6.019">
        <ele>738</ele>
        <time>2016-05-15T06:22:34Z</time>
      </trkpt>
      <trkpt lat="45.07067" lon="6.01895">
        <ele>738</ele>
        <time>2016-05-15T06:22:36Z</time>
      </trkpt>
      <trkpt lat="45.0708" lon="6.01892">
        <ele>738</ele>
        <time>2016-05-15T06:22:38Z</time>
      </trkpt>
      <trkpt lat="45.07091" lon="6.01886">
        <ele>738</ele>
        <time>2016-05-15T06:22:40Z</time>
      </trkpt>
      <trkpt lat="45.071" lon="6.0188">
        <ele>739</ele>
        <time>2016-05-15T06:22:42Z</time>
      </trkpt>
      <trkpt lat="45.0711" lon="6.01873">
        <ele>739</ele>
        <time>2016-05-15T06:22:44Z</time>
      </trkpt>
      <trkpt lat="45.07119" lon="6.01867">
        <ele>739</ele>
        <time>2016-05-15T06:22:46Z</time>
      </trkpt>
      <trkpt lat="45.07128" lon="6.01859">
        <ele>739</ele>
        <time>2016-05-15T06:22:48Z</time>
      </trkpt>
      <trkpt lat="45.07138" lon="6.01851">
        <ele>739</ele>
        <time>2016-05-15T06:22:50Z</time>
      </trkpt>
      <trkpt lat="45.07146" lon="6.01843">
        <ele>740</ele>
        <time>2016-05-15T06:22:52Z</time>
      </trkpt>
      <trkpt lat="45.07155" lon="6.01835">
        <ele>740</ele>
        <time>2016-05-15T06:22:54Z</time>
      </trkpt>
      <trkpt lat="45.07157" lon="6.01821">
        <ele>740</ele>
        <time>2016-05-15T06:22:57Z</time>
      </trkpt>
      <trkpt lat="45.07157" lon="6.01806">
        <ele>742</ele>
        <time>2016-05-15T06:23:00Z</time>
      </trkpt>
      <trkpt lat="45.07157" lon="6.01788">
        <ele>742</ele>
        <time>2016-05-15T06:23:03Z</time>
      </trkpt>
      <trkpt lat="45.07159" lon="6.01772">
        <ele>742</ele>
        <time>2016-05-15T06:23:06Z</time>
      </trkpt>
      <trkpt lat="45.07159" lon="6.01759">
        <ele>742</ele>
        <time>2016-05-15T06:23:08Z</time>
      </trkpt>
      <trkpt lat="45.07156" lon="6.01746">
        <ele>742</ele>
        <time>2016-05-15T06:23:10Z</time>
      </trkpt>
      <trkpt lat="45.07158" lon="6.01731">
        <ele>742</ele>
        <time>2016-05-15T06:23:12Z</time>
      </trkpt>
      <trkpt lat="45.07166" lon="6.01717">
        <ele>742</ele>
        <time>2016-05-15T06:23:15Z</time>
      </trkpt>
      <trkpt lat="45.07173" lon="6.01707">
        <ele>742</ele>
        <time>2016-05-15T06:23:17Z</time>
      </trkpt>
      <trkpt lat="45.0718" lon="6.01696">
        <ele>742</ele>
        <time>2016-05-15T06:23:19Z</time>
      </trkpt>
      <trkpt lat="45.07187" lon="6.01682">
        <ele>743</ele>
        <time>2016-05-15T06:23:21Z</time>
      </trkpt>
      <trkpt lat="45.07192" lon="6.0167">
        <ele>743</ele>
        <time>2016-05-15T06:23:23Z</time>
      </trkpt>
      <trkpt lat="45.07198" lon="6.01658">
        <ele>743</ele>
        <time>2016-05-15T06:23:25Z</time>
      </trkpt>
      <trkpt lat="45.07204" lon="6.01648">
        <ele>743</ele>
        <time>2016-05-15T06:23:28Z</time>
      </trkpt>
      <trkpt lat="45.07216" lon="6.0165">
        <ele>743</ele>
        <time>2016-05-15T06:23:32Z</time>
      </trkpt>
      <trkpt lat="45.07225" lon="6.01655">
        <ele>743</ele>
        <time>2016-05-15T06:23:34Z</time>
      </trkpt>
      <trkpt lat="45.07234" lon="6.01654">
        <ele>743</ele>
        <time>2016-05-15T06:23:36Z</time>
      </trkpt>
      <trkpt lat="45.07243" lon="6.01652">
        <ele>743</ele>
        <time>2016-05-15T06:23:38Z</time>
      </trkpt>
      <trkpt lat="45.07254" lon="6.01649">
        <ele>743</ele>
        <time>2016-05-15T06:23:40Z</time>
      </trkpt>
      <trkpt lat="45.07263" lon="6.01644">
        <ele>742</ele>
        <time>2016-05-15T06:23:42Z</time>
      </trkpt>
      <trkpt lat="45.07273" lon="6.01639">
        <ele>742</ele>
        <time>2016-05-15T06:23:44Z</time>
      </trkpt>
      <trkpt lat="45.07284" lon="6.01637">
        <ele>742</ele>
        <time>2016-05-15T06:23:47Z</time>
      </trkpt>
      <trkpt lat="45.07294" lon="6.01635">
        <ele>743</ele>
        <time>2016-05-15T06:23:51Z</time>
      </trkpt>
      <trkpt lat="45.07306" lon="6.0163">
        <ele>743</ele>
        <time>2016-05-15T06:23:54Z</time>
      </trkpt>
      <trkpt lat="45.07314" lon="6.01623">
        <ele>743</ele>
        <time>2016-05-15T06:23:56Z</time>
      </trkpt>
      <trkpt lat="45.07322" lon="6.01616">
        <ele>743</ele>
        <time>2016-05-15T06:23:58Z</time>
      </trkpt>
      <trkpt lat="45.07326" lon="6.01613">
        <ele>743</ele>
        <time>2016-05-15T06:23:59Z</time>
      </trkpt>
      <trkpt lat="45.0733" lon="6.0161">
        <ele>746</ele>
        <time>2016-05-15T06:24:00Z</time>
      </trkpt>
      <trkpt lat="45.07334" lon="6.01607">
        <ele>746</ele>
        <time>2016-05-15T06:24:01Z</time>
      </trkpt>
      <trkpt lat="45.07338" lon="6.01604">
        <ele>746</ele>
        <time>2016-05-15T06:24:02Z</time>
      </trkpt>
      <trkpt lat="45.07342" lon="6.01602">
        <ele>746</ele>
        <time>2016-05-15T06:24:03Z</time>
      </trkpt>
      <trkpt lat="45.07345" lon="6.01599">
        <ele>746</ele>
        <time>2016-05-15T06:24:04Z</time>
      </trkpt>
      <trkpt lat="45.07349" lon="6.01597">
        <ele>747</ele>
        <time>2016-05-15T06:24:05Z</time>
      </trkpt>
      <trkpt lat="45.07353" lon="6.01594">
        <ele>747</ele>
        <time>2016-05-15T06:24:06Z</time>
      </trkpt>
      <trkpt lat="45.07357" lon="6.01592">
        <ele>747</ele>
        <time>2016-05-15T06:24:07Z</time>
      </trkpt>
      <trkpt lat="45.0736" lon="6.01589">
        <ele>747</ele>
        <time>2016-05-15T06:24:08Z</time>
      </trkpt>
      <trkpt lat="45.07364" lon="6.01587">
        <ele>747</ele>
        <time>2016-05-15T06:24:09Z</time>
      </trkpt>
      <trkpt lat="45.07368" lon="6.01585">
        <ele>748</ele>
        <time>2016-05-15T06:24:10Z</time>
      </trkpt>
      <trkpt lat="45.07371" lon="6.01582">
        <ele>748</ele>
        <time>2016-05-15T06:24:11Z</time>
      </trkpt>
      <trkpt lat="45.07375" lon="6.01579">
        <ele>748</ele>
        <time>2016-05-15T06:24:12Z</time>
      </trkpt>
      <trkpt lat="45.07378" lon="6.01575">
        <ele>748</ele>
        <time>2016-05-15T06:24:13Z</time>
      </trkpt>
      <trkpt lat="45.07382" lon="6.01571">
        <ele>748</ele>
        <time>2016-05-15T06:24:14Z</time>
      </trkpt>
      <trkpt lat="45.07385" lon="6.01567">
        <ele>748</ele>
        <time>2016-05-15T06:24:15Z</time>
      </trkpt>
      <trkpt lat="45.07387" lon="6.01562">
        <ele>748</ele>
        <time>2016-05-15T06:24:16Z</time>
      </trkpt>
      <trkpt lat="45.0739" lon="6.01557">
        <ele>748</ele>
        <time>2016-05-15T06:24:17Z</time>
      </trkpt>
      <trkpt lat="45.07393" lon="6.01551">
        <ele>748</ele>
        <time>2016-05-15T06:24:18Z</time>
      </trkpt>
      <trkpt lat="45.07396" lon="6.01544">
        <ele>748</ele>
        <time>2016-05-15T06:24:19Z</time>
      </trkpt>
      <trkpt lat="45.07399" lon="6.01538">
        <ele>747</ele>
        <time>2016-05-15T06:24:20Z</time>
      </trkpt>
      <trkpt lat="45.07403" lon="6.01532">
        <ele>747</ele>
        <time>2016-05-15T06:24:21Z</time>
      </trkpt>
      <trkpt lat="45.07407" lon="6.01526">
        <ele>747</ele>
        <time>2016-05-15T06:24:22Z</time>
      </trkpt>
      <trkpt lat="45.07411" lon="6.01519">
        <ele>747</ele>
        <time>2016-05-15T06:24:23Z</time>
      </trkpt>
      <trkpt lat="45.07415" lon="6.0151">
        <ele>747</ele>
        <time>2016-05-15T06:24:24Z</time>
      </trkpt>
      <trkpt lat="45.07419" lon="6.01501">
        <ele>747</ele>
        <time>2016-05-15T06:24:25Z</time>
      </trkpt>
      <trkpt lat="45.07423" lon="6.01492">
        <ele>747</ele>
        <time>2016-05-15T06:24:26Z</time>
      </trkpt>
      <trkpt lat="45.07427" lon="6.01482">
        <ele>747</ele>
        <time>2016-05-15T06:24:27Z</time>
      </trkpt>
      <trkpt lat="45.07431" lon="6.01472">
        <ele>747</ele>
        <time>2016-05-15T06:24:28Z</time>
      </trkpt>
      <trkpt lat="45.07434" lon="6.01461">
        <ele>747</ele>
        <time>2016-05-15T06:24:29Z</time>
      </trkpt>
      <trkpt lat="45.07438" lon="6.0145">
        <ele>747</ele>
        <time>2016-05-15T06:24:30Z</time>
      </trkpt>
      <trkpt lat="45.07442" lon="6.01439">
        <ele>744</ele>
        <time>2016-05-15T06:24:31Z</time>
      </trkpt>
      <trkpt lat="45.07446" lon="6.01428">
        <ele>744</ele>
        <time>2016-05-15T06:24:32Z</time>
      </trkpt>
      <trkpt lat="45.0745" lon="6.01417">
        <ele>744</ele>
        <time>2016-05-15T06:24:33Z</time>
      </trkpt>
      <trkpt lat="45.07453" lon="6.01406">
        <ele>744</ele>
        <time>2016-05-15T06:24:34Z</time>
      </trkpt>
      <trkpt lat="45.07457" lon="6.01396">
        <ele>741</ele>
        <time>2016-05-15T06:24:35Z</time>
      </trkpt>
      <trkpt lat="45.07461" lon="6.01385">
        <ele>741</ele>
        <time>2016-05-15T06:24:36Z</time>
      </trkpt>
      <trkpt lat="45.07466" lon="6.01375">
        <ele>741</ele>
        <time>2016-05-15T06:24:37Z</time>
      </trkpt>
      <trkpt lat="45.0747" lon="6.01364">
        <ele>741</ele>
        <time>2016-05-15T06:24:38Z</time>
      </trkpt>
      <trkpt lat="45.07474" lon="6.01354">
        <ele>741</ele>
        <time>2016-05-15T06:24:39Z</time>
      </trkpt>
      <trkpt lat="45.07478" lon="6.01344">
        <ele>741</ele>
        <time>2016-05-15T06:24:40Z</time>
      </trkpt>
      <trkpt lat="45.07482" lon="6.01334">
        <ele>741</ele>
        <time>2016-05-15T06:24:41Z</time>
      </trkpt>
      <trkpt lat="45.07486" lon="6.01324">
        <ele>741</ele>
        <time>2016-05-15T06:24:42Z</time>
      </trkpt>
      <trkpt lat="45.0749" lon="6.01314">
        <ele>741</ele>
        <time>2016-05-15T06:24:43Z</time>
      </trkpt>
      <trkpt lat="45.07494" lon="6.01304">
        <ele>741</ele>
        <time>2016-05-15T06:24:44Z</time>
      </trkpt>
      <trkpt lat="45.07497" lon="6.01295">
        <ele>742</ele>
        <time>2016-05-15T06:24:45Z</time>
      </trkpt>
      <trkpt lat="45.07501" lon="6.01285">
        <ele>742</ele>
        <time>2016-05-15T06:24:46Z</time>
      </trkpt>
      <trkpt lat="45.07504" lon="6.01276">
        <ele>742</ele>
        <time>2016-05-15T06:24:47Z</time>
      </trkpt>
      <trkpt lat="45.07508" lon="6.01268">
        <ele>742</ele>
        <time>2016-05-15T06:24:48Z</time>
      </trkpt>
      <trkpt lat="45.07512" lon="6.01259">
        <ele>742</ele>
        <time>2016-05-15T06:24:49Z</time>
      </trkpt>
      <trkpt lat="45.07516" lon="6.01251">
        <ele>742</ele>
        <time>2016-05-15T06:24:50Z</time>
      </trkpt>
      <trkpt lat="45.07521" lon="6.01243">
        <ele>741</ele>
        <time>2016-05-15T06:24:51Z</time>
      </trkpt>
      <trkpt lat="45.07526" lon="6.01235">
        <ele>741</ele>
        <time>2016-05-15T06:24:52Z</time>
      </trkpt>
      <trkpt lat="45.07531" lon="6.01227">
        <ele>741</ele>
        <time>2016-05-15T06:24:53Z</time>
      </trkpt>
      <trkpt lat="45.0754" lon="6.01211">
        <ele>741</ele>
        <time>2016-05-15T06:24:55Z</time>
      </trkpt>
      <trkpt lat="45.07548" lon="6.01193">
        <ele>740</ele>
        <time>2016-05-15T06:24:57Z</time>
      </trkpt>
      <trkpt lat="45.07554" lon="6.01174">
        <ele>740</ele>
        <time>2016-05-15T06:24:59Z</time>
      </trkpt>
      <trkpt lat="45.07557" lon="6.01154">
        <ele>740</ele>
        <time>2016-05-15T06:25:01Z</time>
      </trkpt>
      <trkpt lat="45.07557" lon="6.01133">
        <ele>739</ele>
        <time>2016-05-15T06:25:03Z</time>
      </trkpt>
      <trkpt lat="45.07555" lon="6.01123">
        <ele>739</ele>
        <time>2016-05-15T06:25:04Z</time>
      </trkpt>
      <trkpt lat="45.07549" lon="6.01104">
        <ele>739</ele>
        <time>2016-05-15T06:25:06Z</time>
      </trkpt>
      <trkpt lat="45.0754" lon="6.01087">
        <ele>739</ele>
        <time>2016-05-15T06:25:08Z</time>
      </trkpt>
      <trkpt lat="45.07536" lon="6.01078">
        <ele>739</ele>
        <time>2016-05-15T06:25:09Z</time>
      </trkpt>
      <trkpt lat="45.07532" lon="6.0107">
        <ele>739</ele>
        <time>2016-05-15T06:25:10Z</time>
      </trkpt>
      <trkpt lat="45.07528" lon="6.0106">
        <ele>738</ele>
        <time>2016-05-15T06:25:11Z</time>
      </trkpt>
      <trkpt lat="45.07525" lon="6.01051">
        <ele>738</ele>
        <time>2016-05-15T06:25:12Z</time>
      </trkpt>
      <trkpt lat="45.07523" lon="6.01041">
        <ele>738</ele>
        <time>2016-05-15T06:25:13Z</time>
      </trkpt>
      <trkpt lat="45.0752" lon="6.01031">
        <ele>738</ele>
        <time>2016-05-15T06:25:14Z</time>
      </trkpt>
      <trkpt lat="45.07517" lon="6.01022">
        <ele>738</ele>
        <time>2016-05-15T06:25:15Z</time>
      </trkpt>
      <trkpt lat="45.07515" lon="6.01013">
        <ele>738</ele>
        <time>2016-05-15T06:25:16Z</time>
      </trkpt>
      <trkpt lat="45.07514" lon="6.01003">
        <ele>738</ele>
        <time>2016-05-15T06:25:17Z</time>
      </trkpt>
      <trkpt lat="45.07513" lon="6.00993">
        <ele>738</ele>
        <time>2016-05-15T06:25:18Z</time>
      </trkpt>
      <trkpt lat="45.07512" lon="6.00983">
        <ele>738</ele>
        <time>2016-05-15T06:25:19Z</time>
      </trkpt>
      <trkpt lat="45.07512" lon="6.00963">
        <ele>737</ele>
        <time>2016-05-15T06:25:21Z</time>
      </trkpt>
      <trkpt lat="45.07513" lon="6.00943">
        <ele>737</ele>
        <time>2016-05-15T06:25:23Z</time>
      </trkpt>
      <trkpt lat="45.07516" lon="6.00923">
        <ele>737</ele>
        <time>2016-05-15T06:25:25Z</time>
      </trkpt>
      <trkpt lat="45.07518" lon="6.00904">
        <ele>737</ele>
        <time>2016-05-15T06:25:27Z</time>
      </trkpt>
      <trkpt lat="45.0752" lon="6.00885">
        <ele>737</ele>
        <time>2016-05-15T06:25:29Z</time>
      </trkpt>
      <trkpt lat="45.07522" lon="6.00867">
        <ele>737</ele>
        <time>2016-05-15T06:25:31Z</time>
      </trkpt>
      <trkpt lat="45.07524" lon="6.00849">
        <ele>738</ele>
        <time>2016-05-15T06:25:33Z</time>
      </trkpt>
      <trkpt lat="45.07526" lon="6.00831">
        <ele>738</ele>
        <time>2016-05-15T06:25:35Z</time>
      </trkpt>
      <trkpt lat="45.07529" lon="6.00814">
        <ele>738</ele>
        <time>2016-05-15T06:25:37Z</time>
      </trkpt>
      <trkpt lat="45.07531" lon="6.00795">
        <ele>738</ele>
        <time>2016-05-15T06:25:39Z</time>
      </trkpt>
      <trkpt lat="45.07533" lon="6.00776">
        <ele>738</ele>
        <time>2016-05-15T06:25:41Z</time>
      </trkpt>
      <trkpt lat="45.07536" lon="6.00758">
        <ele>738</ele>
        <time>2016-05-15T06:25:43Z</time>
      </trkpt>
      <trkpt lat="45.07542" lon="6.00741">
        <ele>738</ele>
        <time>2016-05-15T06:25:45Z</time>
      </trkpt>
      <trkpt lat="45.07552" lon="6.00726">
        <ele>738</ele>
        <time>2016-05-15T06:25:47Z</time>
      </trkpt>
      <trkpt lat="45.07564" lon="6.00716">
        <ele>738</ele>
        <time>2016-05-15T06:25:49Z</time>
      </trkpt>
      <trkpt lat="45.07574" lon="6.00703">
        <ele>736</ele>
        <time>2016-05-15T06:25:51Z</time>
      </trkpt>
      <trkpt lat="45.07585" lon="6.00688">
        <ele>736</ele>
        <time>2016-05-15T06:25:53Z</time>
      </trkpt>
      <trkpt lat="45.07597" lon="6.00676">
        <ele>736</ele>
        <time>2016-05-15T06:25:55Z</time>
      </trkpt>
      <trkpt lat="45.07612" lon="6.00666">
        <ele>736</ele>
        <time>2016-05-15T06:25:57Z</time>
      </trkpt>
      <trkpt lat="45.07619" lon="6.00659">
        <ele>736</ele>
        <time>2016-05-15T06:25:58Z</time>
      </trkpt>
      <trkpt lat="45.07633" lon="6.0065">
        <ele>736</ele>
        <time>2016-05-15T06:26:00Z</time>
      </trkpt>
      <trkpt lat="45.07645" lon="6.0064">
        <ele>737</ele>
        <time>2016-05-15T06:26:02Z</time>
      </trkpt>
      <trkpt lat="45.07655" lon="6.00628">
        <ele>737</ele>
        <time>2016-05-15T06:26:04Z</time>
      </trkpt>
      <trkpt lat="45.07665" lon="6.00614">
        <ele>737</ele>
        <time>2016-05-15T06:26:06Z</time>
      </trkpt>
      <trkpt lat="45.07676" lon="6.00604">
        <ele>737</ele>
        <time>2016-05-15T06:26:08Z</time>
      </trkpt>
      <trkpt lat="45.07691" lon="6.00592">
        <ele>737</ele>
        <time>2016-05-15T06:26:10Z</time>
      </trkpt>
      <trkpt lat="45.07705" lon="6.0058">
        <ele>737</ele>
        <time>2016-05-15T06:26:12Z</time>
      </trkpt>
      <trkpt lat="45.07717" lon="6.00571">
        <ele>735</ele>
        <time>2016-05-15T06:26:14Z</time>
      </trkpt>
      <trkpt lat="45.07731" lon="6.00565">
        <ele>735</ele>
        <time>2016-05-15T06:26:16Z</time>
      </trkpt>
      <trkpt lat="45.07745" lon="6.00561">
        <ele>735</ele>
        <time>2016-05-15T06:26:18Z</time>
      </trkpt>
      <trkpt lat="45.07756" lon="6.00553">
        <ele>735</ele>
        <time>2016-05-15T06:26:20Z</time>
      </trkpt>
      <trkpt lat="45.07768" lon="6.00541">
        <ele>734</ele>
        <time>2016-05-15T06:26:22Z</time>
      </trkpt>
      <trkpt lat="45.07778" lon="6.00528">
        <ele>734</ele>
        <time>2016-05-15T06:26:24Z</time>
      </trkpt>
      <trkpt lat="45.07786" lon="6.00516">
        <ele>734</ele>
        <time>2016-05-15T06:26:26Z</time>
      </trkpt>
      <trkpt lat="45.07793" lon="6.00505">
        <ele>734</ele>
        <time>2016-05-15T06:26:28Z</time>
      </trkpt>
      <trkpt lat="45.078" lon="6.00494">
        <ele>734</ele>
        <time>2016-05-15T06:26:30Z</time>
      </trkpt>
      <trkpt lat="45.07809" lon="6.00476">
        <ele>736</ele>
        <time>2016-05-15T06:26:33Z</time>
      </trkpt>
      <trkpt lat="45.07818" lon="6.00459">
        <ele>736</ele>
        <time>2016-05-15T06:26:35Z</time>
      </trkpt>
      <trkpt lat="45.0783" lon="6.0044">
        <ele>736</ele>
        <time>2016-05-15T06:26:37Z</time>
      </trkpt>
      <trkpt lat="45.07835" lon="6.0043">
        <ele>736</ele>
        <time>2016-05-15T06:26:38Z</time>
      </trkpt>
      <trkpt lat="45.07847" lon="6.00414">
        <ele>736</ele>
        <time>2016-05-15T06:26:40Z</time>
      </trkpt>
      <trkpt lat="45.07859" lon="6.00406">
        <ele>733</ele>
        <time>2016-05-15T06:26:42Z</time>
      </trkpt>
      <trkpt lat="45.0787" lon="6.00406">
        <ele>733</ele>
        <time>2016-05-15T06:26:44Z</time>
      </trkpt>
      <trkpt lat="45.07885" lon="6.00403">
        <ele>732</ele>
        <time>2016-05-15T06:26:46Z</time>
      </trkpt>
      <trkpt lat="45.07901" lon="6.00398">
        <ele>732</ele>
        <time>2016-05-15T06:26:48Z</time>
      </trkpt>
      <trkpt lat="45.07916" lon="6.00391">
        <ele>732</ele>
        <time>2016-05-15T06:26:50Z</time>
      </trkpt>
      <trkpt lat="45.07927" lon="6.0038">
        <ele>731</ele>
        <time>2016-05-15T06:26:52Z</time>
      </trkpt>
      <trkpt lat="45.07939" lon="6.00367">
        <ele>731</ele>
        <time>2016-05-15T06:26:54Z</time>
      </trkpt>
      <trkpt lat="45.07954" lon="6.00359">
        <ele>731</ele>
        <time>2016-05-15T06:26:56Z</time>
      </trkpt>
      <trkpt lat="45.07969" lon="6.00357">
        <ele>731</ele>
        <time>2016-05-15T06:26:58Z</time>
      </trkpt>
      <trkpt lat="45.07982" lon="6.00355">
        <ele>733</ele>
        <time>2016-05-15T06:27:00Z</time>
      </trkpt>
      <trkpt lat="45.07994" lon="6.0035">
        <ele>733</ele>
        <time>2016-05-15T06:27:02Z</time>
      </trkpt>
      <trkpt lat="45.08003" lon="6.00345">
        <ele>733</ele>
        <time>2016-05-15T06:27:04Z</time>
      </trkpt>
      <trkpt lat="45.08013" lon="6.00339">
        <ele>733</ele>
        <time>2016-05-15T06:27:06Z</time>
      </trkpt>
      <trkpt lat="45.08025" lon="6.00329">
        <ele>733</ele>
        <time>2016-05-15T06:27:08Z</time>
      </trkpt>
      <trkpt lat="45.08038" lon="6.00317">
        <ele>733</ele>
        <time>2016-05-15T06:27:10Z</time>
      </trkpt>
      <trkpt lat="45.08051" lon="6.00307">
        <ele>733</ele>
        <time>2016-05-15T06:27:12Z</time>
      </trkpt>
      <trkpt lat="45.08066" lon="6.003">
        <ele>733</ele>
        <time>2016-05-15T06:27:14Z</time>
      </trkpt>
      <trkpt lat="45.08078" lon="6.00292">
        <ele>732</ele>
        <time>2016-05-15T06:27:16Z</time>
      </trkpt>
      <trkpt lat="45.08089" lon="6.00283">
        <ele>732</ele>
        <time>2016-05-15T06:27:18Z</time>
      </trkpt>
      <trkpt lat="45.08102" lon="6.00272">
        <ele>732</ele>
        <time>2016-05-15T06:27:20Z</time>
      </trkpt>
      <trkpt lat="45.08115" lon="6.00266">
        <ele>732</ele>
        <time>2016-05-15T06:27:22Z</time>
      </trkpt>
      <trkpt lat="45.08128" lon="6.0026">
        <ele>732</ele>
        <time>2016-05-15T06:27:24Z</time>
      </trkpt>
      <trkpt lat="45.08139" lon="6.00254">
        <ele>732</ele>
        <time>2016-05-15T06:27:26Z</time>
      </trkpt>
      <trkpt lat="45.08152" lon="6.00248">
        <ele>732</ele>
        <time>2016-05-15T06:27:28Z</time>
      </trkpt>
      <trkpt lat="45.08164" lon="6.00246">
        <ele>732</ele>
        <time>2016-05-15T06:27:30Z</time>
      </trkpt>
      <trkpt lat="45.08175" lon="6.00249">
        <ele>732</ele>
        <time>2016-05-15T06:27:32Z</time>
      </trkpt>
      <trkpt lat="45.08188" lon="6.00245">
        <ele>732</ele>
        <time>2016-05-15T06:27:34Z</time>
      </trkpt>
      <trkpt lat="45.082" lon="6.00237">
        <ele>731</ele>
        <time>2016-05-15T06:27:36Z</time>
      </trkpt>
      <trkpt lat="45.08213" lon="6.00229">
        <ele>731</ele>
        <time>2016-05-15T06:27:38Z</time>
      </trkpt>
      <trkpt lat="45.08225" lon="6.00222">
        <ele>731</ele>
        <time>2016-05-15T06:27:40Z</time>
      </trkpt>
      <trkpt lat="45.08238" lon="6.00219">
        <ele>731</ele>
        <time>2016-05-15T06:27:42Z</time>
      </trkpt>
      <trkpt lat="45.08252" lon="6.00214">
        <ele>731</ele>
        <time>2016-05-15T06:27:44Z</time>
      </trkpt>
      <trkpt lat="45.08264" lon="6.00213">
        <ele>731</ele>
        <time>2016-05-15T06:27:46Z</time>
      </trkpt>
      <trkpt lat="45.08274" lon="6.00213">
        <ele>731</ele>
        <time>2016-05-15T06:27:48Z</time>
      </trkpt>
      <trkpt lat="45.08285" lon="6.00212">
        <ele>731</ele>
        <time>2016-05-15T06:27:50Z</time>
      </trkpt>
      <trkpt lat="45.08296" lon="6.0021">
        <ele>731</ele>
        <time>2016-05-15T06:27:52Z</time>
      </trkpt>
      <trkpt lat="45.08306" lon="6.00207">
        <ele>731</ele>
        <time>2016-05-15T06:27:54Z</time>
      </trkpt>
      <trkpt lat="45.08317" lon="6.00203">
        <ele>734</ele>
        <time>2016-05-15T06:27:57Z</time>
      </trkpt>
      <trkpt lat="45.08329" lon="6.002">
        <ele>734</ele>
        <time>2016-05-15T06:28:00Z</time>
      </trkpt>
      <trkpt lat="45.0834" lon="6.00191">
        <ele>738</ele>
        <time>2016-05-15T06:28:03Z</time>
      </trkpt>
      <trkpt lat="45.08352" lon="6.00183">
        <ele>739</ele>
        <time>2016-05-15T06:28:06Z</time>
      </trkpt>
      <trkpt lat="45.08361" lon="6.00173">
        <ele>739</ele>
        <time>2016-05-15T06:28:09Z</time>
      </trkpt>
      <trkpt lat="45.08374" lon="6.00164">
        <ele>739</ele>
        <time>2016-05-15T06:28:11Z</time>
      </trkpt>
      <trkpt lat="45.08388" lon="6.00152">
        <ele>737</ele>
        <time>2016-05-15T06:28:13Z</time>
      </trkpt>
      <trkpt lat="45.08402" lon="6.00143">
        <ele>737</ele>
        <time>2016-05-15T06:28:15Z</time>
      </trkpt>
      <trkpt lat="45.08417" lon="6.00135">
        <ele>733</ele>
        <time>2016-05-15T06:28:17Z</time>
      </trkpt>
      <trkpt lat="45.08433" lon="6.00128">
        <ele>733</ele>
        <time>2016-05-15T06:28:19Z</time>
      </trkpt>
      <trkpt lat="45.08449" lon="6.00123">
        <ele>732</ele>
        <time>2016-05-15T06:28:21Z</time>
      </trkpt>
      <trkpt lat="45.08466" lon="6.0012">
        <ele>732</ele>
        <time>2016-05-15T06:28:23Z</time>
      </trkpt>
      <trkpt lat="45.0848" lon="6.0012">
        <ele>734</ele>
        <time>2016-05-15T06:28:25Z</time>
      </trkpt>
      <trkpt lat="45.08492" lon="6.00116">
        <ele>734</ele>
        <time>2016-05-15T06:28:27Z</time>
      </trkpt>
      <trkpt lat="45.08503" lon="6.0011">
        <ele>734</ele>
        <time>2016-05-15T06:28:30Z</time>
      </trkpt>
      <trkpt lat="45.08512" lon="6.00104">
        <ele>734</ele>
        <time>2016-05-15T06:28:33Z</time>
      </trkpt>
      <trkpt lat="45.08524" lon="6.00099">
        <ele>738</ele>
        <time>2016-05-15T06:28:36Z</time>
      </trkpt>
      <trkpt lat="45.08536" lon="6.00096">
        <ele>738</ele>
        <time>2016-05-15T06:28:39Z</time>
      </trkpt>
      <trkpt lat="45.08546" lon="6.00091">
        <ele>739</ele>
        <time>2016-05-15T06:28:41Z</time>
      </trkpt>
      <trkpt lat="45.08559" lon="6.00087">
        <ele>739</ele>
        <time>2016-05-15T06:28:44Z</time>
      </trkpt>
      <trkpt lat="45.08569" lon="6.00085">
        <ele>739</ele>
        <time>2016-05-15T06:28:47Z</time>
      </trkpt>
      <trkpt lat="45.08579" lon="6.00084">
        <ele>739</ele>
        <time>2016-05-15T06:28:49Z</time>
      </trkpt>
      <trkpt lat="45.0859" lon="6.00087">
        <ele>739</ele>
        <time>2016-05-15T06:28:51Z</time>
      </trkpt>
      <trkpt lat="45.08594" lon="6.00104">
        <ele>739</ele>
        <time>2016-05-15T06:28:54Z</time>
      </trkpt>
      <trkpt lat="45.086" lon="6.00116">
        <ele>739</ele>
        <time>2016-05-15T06:28:56Z</time>
      </trkpt>
      <trkpt lat="45.08607" lon="6.00126">
        <ele>734</ele>
        <time>2016-05-15T06:28:58Z</time>
      </trkpt>
      <trkpt lat="45.08612" lon="6.00144">
        <ele>733</ele>
        <time>2016-05-15T06:29:00Z</time>
      </trkpt>
      <trkpt lat="45.08621" lon="6.00162">
        <ele>733</ele>
        <time>2016-05-15T06:29:02Z</time>
      </trkpt>
      <trkpt lat="45.0863" lon="6.00174">
        <ele>733</ele>
        <time>2016-05-15T06:29:04Z</time>
      </trkpt>
      <trkpt lat="45.08638" lon="6.00185">
        <ele>734</ele>
        <time>2016-05-15T06:29:06Z</time>
      </trkpt>
      <trkpt lat="45.08647" lon="6.0019">
        <ele>734</ele>
        <time>2016-05-15T06:29:08Z</time>
      </trkpt>
      <trkpt lat="45.08657" lon="6.00199">
        <ele>734</ele>
        <time>2016-05-15T06:29:10Z</time>
      </trkpt>
      <trkpt lat="45.08664" lon="6.00209">
        <ele>734</ele>
        <time>2016-05-15T06:29:12Z</time>
      </trkpt>
      <trkpt lat="45.08673" lon="6.00218">
        <ele>734</ele>
        <time>2016-05-15T06:29:14Z</time>
      </trkpt>
      <trkpt lat="45.08681" lon="6.00226">
        <ele>734</ele>
        <time>2016-05-15T06:29:16Z</time>
      </trkpt>
      <trkpt lat="45.0869" lon="6.00234">
        <ele>734</ele>
        <time>2016-05-15T06:29:18Z</time>
      </trkpt>
      <trkpt lat="45.087" lon="6.00241">
        <ele>734</ele>
        <time>2016-05-15T06:29:20Z</time>
      </trkpt>
      <trkpt lat="45.0871" lon="6.00249">
        <ele>734</ele>
        <time>2016-05-15T06:29:22Z</time>
      </trkpt>
      <trkpt lat="45.08721" lon="6.00254">
        <ele>734</ele>
        <time>2016-05-15T06:29:24Z</time>
      </trkpt>
      <trkpt lat="45.08732" lon="6.00255">
        <ele>734</ele>
        <time>2016-05-15T06:29:26Z</time>
      </trkpt>
      <trkpt lat="45.08746" lon="6.00258">
        <ele>734</ele>
        <time>2016-05-15T06:29:28Z</time>
      </trkpt>
      <trkpt lat="45.08757" lon="6.00261">
        <ele>736</ele>
        <time>2016-05-15T06:29:30Z</time>
      </trkpt>
      <trkpt lat="45.08767" lon="6.00266">
        <ele>736</ele>
        <time>2016-05-15T06:29:32Z</time>
      </trkpt>
      <trkpt lat="45.08777" lon="6.00267">
        <ele>736</ele>
        <time>2016-05-15T06:29:34Z</time>
      </trkpt>
      <trkpt lat="45.08786" lon="6.0027">
        <ele>736</ele>
        <time>2016-05-15T06:29:36Z</time>
      </trkpt>
      <trkpt lat="45.08795" lon="6.00273">
        <ele>736</ele>
        <time>2016-05-15T06:29:38Z</time>
      </trkpt>
      <trkpt lat="45.08807" lon="6.00277">
        <ele>736</ele>
        <time>2016-05-15T06:29:40Z</time>
      </trkpt>
      <trkpt lat="45.08816" lon="6.00279">
        <ele>736</ele>
        <time>2016-05-15T06:29:42Z</time>
      </trkpt>
      <trkpt lat="45.08819" lon="6.00264">
        <ele>736</ele>
        <time>2016-05-15T06:29:46Z</time>
      </trkpt>
      <trkpt lat="45.08821" lon="6.00251">
        <ele>736</ele>
        <time>2016-05-15T06:29:49Z</time>
      </trkpt>
      <trkpt lat="45.08831" lon="6.00243">
        <ele>739</ele>
        <time>2016-05-15T06:29:54Z</time>
      </trkpt>
      <trkpt lat="45.08843" lon="6.00239">
        <ele>742</ele>
        <time>2016-05-15T06:29:57Z</time>
      </trkpt>
      <trkpt lat="45.08852" lon="6.00229">
        <ele>744</ele>
        <time>2016-05-15T06:30:01Z</time>
      </trkpt>
      <trkpt lat="45.08858" lon="6.00218">
        <ele>744</ele>
        <time>2016-05-15T06:30:04Z</time>
      </trkpt>
      <trkpt lat="45.0887" lon="6.00213">
        <ele>744</ele>
        <time>2016-05-15T06:30:07Z</time>
      </trkpt>
      <trkpt lat="45.08882" lon="6.0021">
        <ele>745</ele>
        <time>2016-05-15T06:30:10Z</time>
      </trkpt>
      <trkpt lat="45.08896" lon="6.00203">
        <ele>745</ele>
        <time>2016-05-15T06:30:13Z</time>
      </trkpt>
      <trkpt lat="45.08905" lon="6.00198">
        <ele>745</ele>
        <time>2016-05-15T06:30:15Z</time>
      </trkpt>
      <trkpt lat="45.08914" lon="6.0019">
        <ele>745</ele>
        <time>2016-05-15T06:30:18Z</time>
      </trkpt>
      <trkpt lat="45.08926" lon="6.00181">
        <ele>745</ele>
        <time>2016-05-15T06:30:21Z</time>
      </trkpt>
      <trkpt lat="45.08936" lon="6.00175">
        <ele>745</ele>
        <time>2016-05-15T06:30:23Z</time>
      </trkpt>
      <trkpt lat="45.08945" lon="6.00169">
        <ele>745</ele>
        <time>2016-05-15T06:30:25Z</time>
      </trkpt>
      <trkpt lat="45.08956" lon="6.00161">
        <ele>745</ele>
        <time>2016-05-15T06:30:28Z</time>
      </trkpt>
      <trkpt lat="45.08965" lon="6.00155">
        <ele>745</ele>
        <time>2016-05-15T06:30:30Z</time>
      </trkpt>
      <trkpt lat="45.08979" lon="6.00148">
        <ele>743</ele>
        <time>2016-05-15T06:30:32Z</time>
      </trkpt>
      <trkpt lat="45.08994" lon="6.00139">
        <ele>743</ele>
        <time>2016-05-15T06:30:34Z</time>
      </trkpt>
      <trkpt lat="45.09008" lon="6.00131">
        <ele>743</ele>
        <time>2016-05-15T06:30:36Z</time>
      </trkpt>
      <trkpt lat="45.09022" lon="6.00127">
        <ele>743</ele>
        <time>2016-05-15T06:30:38Z</time>
      </trkpt>
      <trkpt lat="45.09037" lon="6.00126">
        <ele>743</ele>
        <time>2016-05-15T06:30:40Z</time>
      </trkpt>
      <trkpt lat="45.09052" lon="6.00126">
        <ele>740</ele>
        <time>2016-05-15T06:30:42Z</time>
      </trkpt>
      <trkpt lat="45.09066" lon="6.00124">
        <ele>740</ele>
        <time>2016-05-15T06:30:44Z</time>
      </trkpt>
      <trkpt lat="45.09084" lon="6.00115">
        <ele>737</ele>
        <time>2016-05-15T06:30:46Z</time>
      </trkpt>
      <trkpt lat="45.09094" lon="6.00108">
        <ele>737</ele>
        <time>2016-05-15T06:30:48Z</time>
      </trkpt>
      <trkpt lat="45.09108" lon="6.00103">
        <ele>737</ele>
        <time>2016-05-15T06:30:50Z</time>
      </trkpt>
      <trkpt lat="45.09122" lon="6.00104">
        <ele>735</ele>
        <time>2016-05-15T06:30:52Z</time>
      </trkpt>
      <trkpt lat="45.09136" lon="6.00109">
        <ele>735</ele>
        <time>2016-05-15T06:30:54Z</time>
      </trkpt>
      <trkpt lat="45.09149" lon="6.00114">
        <ele>734</ele>
        <time>2016-05-15T06:30:56Z</time>
      </trkpt>
      <trkpt lat="45.09164" lon="6.00122">
        <ele>734</ele>
        <time>2016-05-15T06:30:58Z</time>
      </trkpt>
      <trkpt lat="45.0918" lon="6.00132">
        <ele>733</ele>
        <time>2016-05-15T06:31:00Z</time>
      </trkpt>
      <trkpt lat="45.09189" lon="6.00137">
        <ele>733</ele>
        <time>2016-05-15T06:31:01Z</time>
      </trkpt>
      <trkpt lat="45.09199" lon="6.00143">
        <ele>733</ele>
        <time>2016-05-15T06:31:02Z</time>
      </trkpt>
      <trkpt lat="45.09209" lon="6.00148">
        <ele>733</ele>
        <time>2016-05-15T06:31:03Z</time>
      </trkpt>
      <trkpt lat="45.09218" lon="6.00152">
        <ele>733</ele>
        <time>2016-05-15T06:31:04Z</time>
      </trkpt>
      <trkpt lat="45.09232" lon="6.00166">
        <ele>733</ele>
        <time>2016-05-15T06:31:06Z</time>
      </trkpt>
      <trkpt lat="45.09244" lon="6.00181">
        <ele>733</ele>
        <time>2016-05-15T06:31:08Z</time>
      </trkpt>
      <trkpt lat="45.09257" lon="6.00193">
        <ele>733</ele>
        <time>2016-05-15T06:31:10Z</time>
      </trkpt>
      <trkpt lat="45.09269" lon="6.00202">
        <ele>733</ele>
        <time>2016-05-15T06:31:12Z</time>
      </trkpt>
      <trkpt lat="45.09283" lon="6.00206">
        <ele>733</ele>
        <time>2016-05-15T06:31:14Z</time>
      </trkpt>
      <trkpt lat="45.09297" lon="6.00206">
        <ele>733</ele>
        <time>2016-05-15T06:31:16Z</time>
      </trkpt>
      <trkpt lat="45.09312" lon="6.00206">
        <ele>733</ele>
        <time>2016-05-15T06:31:18Z</time>
      </trkpt>
      <trkpt lat="45.09327" lon="6.00208">
        <ele>733</ele>
        <time>2016-05-15T06:31:20Z</time>
      </trkpt>
      <trkpt lat="45.09342" lon="6.0021">
        <ele>733</ele>
        <time>2016-05-15T06:31:22Z</time>
      </trkpt>
      <trkpt lat="45.09358" lon="6.00214">
        <ele>733</ele>
        <time>2016-05-15T06:31:24Z</time>
      </trkpt>
      <trkpt lat="45.09371" lon="6.00222">
        <ele>733</ele>
        <time>2016-05-15T06:31:26Z</time>
      </trkpt>
      <trkpt lat="45.09385" lon="6.0023">
        <ele>733</ele>
        <time>2016-05-15T06:31:28Z</time>
      </trkpt>
      <trkpt lat="45.09398" lon="6.00238">
        <ele>733</ele>
        <time>2016-05-15T06:31:30Z</time>
      </trkpt>
      <trkpt lat="45.09411" lon="6.00247">
        <ele>733</ele>
        <time>2016-05-15T06:31:32Z</time>
      </trkpt>
      <trkpt lat="45.09424" lon="6.00255">
        <ele>733</ele>
        <time>2016-05-15T06:31:34Z</time>
      </trkpt>
      <trkpt lat="45.09436" lon="6.0026">
        <ele>732</ele>
        <time>2016-05-15T06:31:36Z</time>
      </trkpt>
      <trkpt lat="45.09449" lon="6.00263">
        <ele>732</ele>
        <time>2016-05-15T06:31:38Z</time>
      </trkpt>
      <trkpt lat="45.09463" lon="6.00264">
        <ele>732</ele>
        <time>2016-05-15T06:31:40Z</time>
      </trkpt>
      <trkpt lat="45.09478" lon="6.00263">
        <ele>732</ele>
        <time>2016-05-15T06:31:42Z</time>
      </trkpt>
      <trkpt lat="45.09494" lon="6.00262">
        <ele>732</ele>
        <time>2016-05-15T06:31:44Z</time>
      </trkpt>
      <trkpt lat="45.09508" lon="6.00265">
        <ele>732</ele>
        <time>2016-05-15T06:31:46Z</time>
      </trkpt>
      <trkpt lat="45.09522" lon="6.00266">
        <ele>732</ele>
        <time>2016-05-15T06:31:48Z</time>
      </trkpt>
      <trkpt lat="45.09536" lon="6.00266">
        <ele>732</ele>
        <time>2016-05-15T06:31:50Z</time>
      </trkpt>
      <trkpt lat="45.09549" lon="6.0027">
        <ele>732</ele>
        <time>2016-05-15T06:31:52Z</time>
      </trkpt>
      <trkpt lat="45.09561" lon="6.00275">
        <ele>732</ele>
        <time>2016-05-15T06:31:54Z</time>
      </trkpt>
      <trkpt lat="45.0957" lon="6.00282">
        <ele>733</ele>
        <time>2016-05-15T06:31:56Z</time>
      </trkpt>
      <trkpt lat="45.09576" lon="6.00292">
        <ele>733</ele>
        <time>2016-05-15T06:31:58Z</time>
      </trkpt>
      <trkpt lat="45.09581" lon="6.00303">
        <ele>737</ele>
        <time>2016-05-15T06:32:00Z</time>
      </trkpt>
      <trkpt lat="45.09587" lon="6.00315">
        <ele>737</ele>
        <time>2016-05-15T06:32:02Z</time>
      </trkpt>
      <trkpt lat="45.09593" lon="6.00327">
        <ele>737</ele>
        <time>2016-05-15T06:32:04Z</time>
      </trkpt>
      <trkpt lat="45.09599" lon="6.00339">
        <ele>737</ele>
        <time>2016-05-15T06:32:06Z</time>
      </trkpt>
      <trkpt lat="45.09604" lon="6.00353">
        <ele>737</ele>
        <time>2016-05-15T06:32:08Z</time>
      </trkpt>
      <trkpt lat="45.09606" lon="6.00372">
        <ele>737</ele>
        <time>2016-05-15T06:32:10Z</time>
      </trkpt>
      <trkpt lat="45.09607" lon="6.00395">
        <ele>734</ele>
        <time>2016-05-15T06:32:12Z</time>
      </trkpt>
      <trkpt lat="45.09606" lon="6.00415">
        <ele>734</ele>
        <time>2016-05-15T06:32:14Z</time>
      </trkpt>
      <trkpt lat="45.09607" lon="6.00437">
        <ele>734</ele>
        <time>2016-05-15T06:32:16Z</time>
      </trkpt>
      <trkpt lat="45.09609" lon="6.00459">
        <ele>734</ele>
        <time>2016-05-15T06:32:18Z</time>
      </trkpt>
      <trkpt lat="45.09614" lon="6.00479">
        <ele>733</ele>
        <time>2016-05-15T06:32:20Z</time>
      </trkpt>
      <trkpt lat="45.09625" lon="6.00497">
        <ele>733</ele>
        <time>2016-05-15T06:32:22Z</time>
      </trkpt>
      <trkpt lat="45.09634" lon="6.00511">
        <ele>733</ele>
        <time>2016-05-15T06:32:24Z</time>
      </trkpt>
      <trkpt lat="45.0964" lon="6.00523">
        <ele>733</ele>
        <time>2016-05-15T06:32:26Z</time>
      </trkpt>
      <trkpt lat="45.0965" lon="6.00533">
        <ele>733</ele>
        <time>2016-05-15T06:32:28Z</time>
      </trkpt>
      <trkpt lat="45.09658" lon="6.00541">
        <ele>734</ele>
        <time>2016-05-15T06:32:30Z</time>
      </trkpt>
      <trkpt lat="45.09669" lon="6.00542">
        <ele>734</ele>
        <time>2016-05-15T06:32:33Z</time>
      </trkpt>
      <trkpt lat="45.0968" lon="6.00539">
        <ele>734</ele>
        <time>2016-05-15T06:32:35Z</time>
      </trkpt>
      <trkpt lat="45.09695" lon="6.00533">
        <ele>734</ele>
        <time>2016-05-15T06:32:37Z</time>
      </trkpt>
      <trkpt lat="45.09709" lon="6.00529">
        <ele>734</ele>
        <time>2016-05-15T06:32:39Z</time>
      </trkpt>
      <trkpt lat="45.09718" lon="6.0053">
        <ele>737</ele>
        <time>2016-05-15T06:32:41Z</time>
      </trkpt>
      <trkpt lat="45.09727" lon="6.00534">
        <ele>737</ele>
        <time>2016-05-15T06:32:43Z</time>
      </trkpt>
      <trkpt lat="45.09739" lon="6.00536">
        <ele>737</ele>
        <time>2016-05-15T06:32:45Z</time>
      </trkpt>
      <trkpt lat="45.09749" lon="6.00536">
        <ele>738</ele>
        <time>2016-05-15T06:32:47Z</time>
      </trkpt>
      <trkpt lat="45.09759" lon="6.00538">
        <ele>738</ele>
        <time>2016-05-15T06:32:49Z</time>
      </trkpt>
      <trkpt lat="45.09769" lon="6.00543">
        <ele>738</ele>
        <time>2016-05-15T06:32:51Z</time>
      </trkpt>
      <trkpt lat="45.09783" lon="6.00546">
        <ele>738</ele>
        <time>2016-05-15T06:32:54Z</time>
      </trkpt>
      <trkpt lat="45.09797" lon="6.00548">
        <ele>738</ele>
        <time>2016-05-15T06:32:57Z</time>
      </trkpt>
      <trkpt lat="45.09807" lon="6.00552">
        <ele>740</ele>
        <time>2016-05-15T06:33:00Z</time>
      </trkpt>
      <trkpt lat="45.09817" lon="6.00556">
        <ele>740</ele>
        <time>2016-05-15T06:33:02Z</time>
      </trkpt>
      <trkpt lat="45.09828" lon="6.00557">
        <ele>740</ele>
        <time>2016-05-15T06:33:05Z</time>
      </trkpt>
      <trkpt lat="45.09837" lon="6.00562">
        <ele>740</ele>
        <time>2016-05-15T06:33:08Z</time>
      </trkpt>
      <trkpt lat="45.0985" lon="6.00567">
        <ele>740</ele>
        <time>2016-05-15T06:33:13Z</time>
      </trkpt>
      <trkpt lat="45.0986" lon="6.00566">
        <ele>740</ele>
        <time>2016-05-15T06:33:15Z</time>
      </trkpt>
      <trkpt lat="45.0987" lon="6.00567">
        <ele>740</ele>
        <time>2016-05-15T06:33:17Z</time>
      </trkpt>
      <trkpt lat="45.0988" lon="6.00567">
        <ele>740</ele>
        <time>2016-05-15T06:33:19Z</time>
      </trkpt>
      <trkpt lat="45.09889" lon="6.00564">
        <ele>740</ele>
        <time>2016-05-15T06:33:21Z</time>
      </trkpt>
      <trkpt lat="45.09899" lon="6.00559">
        <ele>740</ele>
        <time>2016-05-15T06:33:23Z</time>
      </trkpt>
      <trkpt lat="45.0991" lon="6.00552">
        <ele>740</ele>
        <time>2016-05-15T06:33:26Z</time>
      </trkpt>
      <trkpt lat="45.0992" lon="6.00551">
        <ele>740</ele>
        <time>2016-05-15T06:33:29Z</time>
      </trkpt>
      <trkpt lat="45.09931" lon="6.00556">
        <ele>740</ele>
        <time>2016-05-15T06:33:32Z</time>
      </trkpt>
      <trkpt lat="45.09944" lon="6.00554">
        <ele>740</ele>
        <time>2016-05-15T06:33:35Z</time>
      </trkpt>
      <trkpt lat="45.09954" lon="6.00549">
        <ele>740</ele>
        <time>2016-05-15T06:33:38Z</time>
      </trkpt>
      <trkpt lat="45.09962" lon="6.00543">
        <ele>739</ele>
        <time>2016-05-15T06:33:40Z</time>
      </trkpt>
      <trkpt lat="45.09972" lon="6.00535">
        <ele>739</ele>
        <time>2016-05-15T06:33:42Z</time>
      </trkpt>
      <trkpt lat="45.09982" lon="6.00528">
        <ele>739</ele>
        <time>2016-05-15T06:33:44Z</time>
      </trkpt>
      <trkpt lat="45.09992" lon="6.00523">
        <ele>739</ele>
        <time>2016-05-15T06:33:46Z</time>
      </trkpt>
      <trkpt lat="45.10002" lon="6.00519">
        <ele>739</ele>
        <time>2016-05-15T06:33:48Z</time>
      </trkpt>
      <trkpt lat="45.10011" lon="6.00516">
        <ele>741</ele>
        <time>2016-05-15T06:33:50Z</time>
      </trkpt>
      <trkpt lat="45.10022" lon="6.00511">
        <ele>741</ele>
        <time>2016-05-15T06:33:52Z</time>
      </trkpt>
      <trkpt lat="45.10032" lon="6.00504">
        <ele>741</ele>
        <time>2016-05-15T06:33:54Z</time>
      </trkpt>
      <trkpt lat="45.10043" lon="6.00499">
        <ele>741</ele>
        <time>2016-05-15T06:33:56Z</time>
      </trkpt>
      <trkpt lat="45.10056" lon="6.00492">
        <ele>741</ele>
        <time>2016-05-15T06:33:58Z</time>
      </trkpt>
      <trkpt lat="45.10071" lon="6.00484">
        <ele>741</ele>
        <time>2016-05-15T06:34:00Z</time>
      </trkpt>
      <trkpt lat="45.10083" lon="6.00474">
        <ele>742</ele>
        <time>2016-05-15T06:34:02Z</time>
      </trkpt>
      <trkpt lat="45.10094" lon="6.00467">
        <ele>742</ele>
        <time>2016-05-15T06:34:04Z</time>
      </trkpt>
      <trkpt lat="45.10105" lon="6.00457">
        <ele>742</ele>
        <time>2016-05-15T06:34:06Z</time>
      </trkpt>
      <trkpt lat="45.10118" lon="6.00447">
        <ele>742</ele>
        <time>2016-05-15T06:34:08Z</time>
      </trkpt>
      <trkpt lat="45.10131" lon="6.00435">
        <ele>742</ele>
        <time>2016-05-15T06:34:10Z</time>
      </trkpt>
      <trkpt lat="45.10144" lon="6.00424">
        <ele>742</ele>
        <time>2016-05-15T06:34:12Z</time>
      </trkpt>
      <trkpt lat="45.10157" lon="6.00414">
        <ele>742</ele>
        <time>2016-05-15T06:34:14Z</time>
      </trkpt>
      <trkpt lat="45.10172" lon="6.00403">
        <ele>742</ele>
        <time>2016-05-15T06:34:16Z</time>
      </trkpt>
      <trkpt lat="45.10186" lon="6.00395">
        <ele>742</ele>
        <time>2016-05-15T06:34:18Z</time>
      </trkpt>
      <trkpt lat="45.10203" lon="6.00387">
        <ele>742</ele>
        <time>2016-05-15T06:34:20Z</time>
      </trkpt>
      <trkpt lat="45.10216" lon="6.00381">
        <ele>732</ele>
        <time>2016-05-15T06:34:22Z</time>
      </trkpt>
      <trkpt lat="45.10231" lon="6.00377">
        <ele>732</ele>
        <time>2016-05-15T06:34:24Z</time>
      </trkpt>
      <trkpt lat="45.1024" lon="6.00376">
        <ele>732</ele>
        <time>2016-05-15T06:34:25Z</time>
      </trkpt>
      <trkpt lat="45.10251" lon="6.00373">
        <ele>732</ele>
        <time>2016-05-15T06:34:26Z</time>
      </trkpt>
      <trkpt lat="45.10261" lon="6.00368">
        <ele>732</ele>
        <time>2016-05-15T06:34:27Z</time>
      </trkpt>
      <trkpt lat="45.10271" lon="6.00363">
        <ele>732</ele>
        <time>2016-05-15T06:34:28Z</time>
      </trkpt>
      <trkpt lat="45.10282" lon="6.00361">
        <ele>731</ele>
        <time>2016-05-15T06:34:29Z</time>
      </trkpt>
      <trkpt lat="45.10292" lon="6.00361">
        <ele>732</ele>
        <time>2016-05-15T06:34:30Z</time>
      </trkpt>
      <trkpt lat="45.10302" lon="6.00362">
        <ele>732</ele>
        <time>2016-05-15T06:34:31Z</time>
      </trkpt>
      <trkpt lat="45.10311" lon="6.00364">
        <ele>732</ele>
        <time>2016-05-15T06:34:32Z</time>
      </trkpt>
      <trkpt lat="45.10322" lon="6.00364">
        <ele>732</ele>
        <time>2016-05-15T06:34:33Z</time>
      </trkpt>
      <trkpt lat="45.10331" lon="6.00364">
        <ele>732</ele>
        <time>2016-05-15T06:34:34Z</time>
      </trkpt>
      <trkpt lat="45.10347" lon="6.00365">
        <ele>732</ele>
        <time>2016-05-15T06:34:36Z</time>
      </trkpt>
      <trkpt lat="45.10363" lon="6.00365">
        <ele>732</ele>
        <time>2016-05-15T06:34:38Z</time>
      </trkpt>
      <trkpt lat="45.10378" lon="6.00368">
        <ele>732</ele>
        <time>2016-05-15T06:34:40Z</time>
      </trkpt>
      <trkpt lat="45.10392" lon="6.00372">
        <ele>732</ele>
        <time>2016-05-15T06:34:42Z</time>
      </trkpt>
      <trkpt lat="45.10405" lon="6.00373">
        <ele>732</ele>
        <time>2016-05-15T06:34:44Z</time>
      </trkpt>
      <trkpt lat="45.10418" lon="6.00374">
        <ele>732</ele>
        <time>2016-05-15T06:34:46Z</time>
      </trkpt>
      <trkpt lat="45.10431" lon="6.00375">
        <ele>732</ele>
        <time>2016-05-15T06:34:48Z</time>
      </trkpt>
      <trkpt lat="45.10444" lon="6.00377">
        <ele>732</ele>
        <time>2016-05-15T06:34:50Z</time>
      </trkpt>
      <trkpt lat="45.10458" lon="6.00377">
        <ele>732</ele>
        <time>2016-05-15T06:34:52Z</time>
      </trkpt>
      <trkpt lat="45.10471" lon="6.00376">
        <ele>732</ele>
        <time>2016-05-15T06:34:54Z</time>
      </trkpt>
      <trkpt lat="45.10484" lon="6.00373">
        <ele>732</ele>
        <time>2016-05-15T06:34:56Z</time>
      </trkpt>
      <trkpt lat="45.10493" lon="6.00371">
        <ele>732</ele>
        <time>2016-05-15T06:34:58Z</time>
      </trkpt>
      <trkpt lat="45.10506" lon="6.00371">
        <ele>733</ele>
        <time>2016-05-15T06:35:01Z</time>
      </trkpt>
      <trkpt lat="45.10518" lon="6.00372">
        <ele>733</ele>
        <time>2016-05-15T06:35:04Z</time>
      </trkpt>
      <trkpt lat="45.10527" lon="6.00374">
        <ele>733</ele>
        <time>2016-05-15T06:35:06Z</time>
      </trkpt>
      <trkpt lat="45.10539" lon="6.00374">
        <ele>733</ele>
        <time>2016-05-15T06:35:09Z</time>
      </trkpt>
      <trkpt lat="45.10549" lon="6.00365">
        <ele>733</ele>
        <time>2016-05-15T06:35:12Z</time>
      </trkpt>
      <trkpt lat="45.10562" lon="6.0036">
        <ele>733</ele>
        <time>2016-05-15T06:35:14Z</time>
      </trkpt>
      <trkpt lat="45.10573" lon="6.00356">
        <ele>733</ele>
        <time>2016-05-15T06:35:16Z</time>
      </trkpt>
      <trkpt lat="45.10584" lon="6.00352">
        <ele>733</ele>
        <time>2016-05-15T06:35:18Z</time>
      </trkpt>
      <trkpt lat="45.10594" lon="6.00348">
        <ele>732</ele>
        <time>2016-05-15T06:35:20Z</time>
      </trkpt>
      <trkpt lat="45.10603" lon="6.00348">
        <ele>732</ele>
        <time>2016-05-15T06:35:22Z</time>
      </trkpt>
      <trkpt lat="45.10613" lon="6.00346">
        <ele>732</ele>
        <time>2016-05-15T06:35:24Z</time>
      </trkpt>
      <trkpt lat="45.10627" lon="6.00345">
        <ele>732</ele>
        <time>2016-05-15T06:35:27Z</time>
      </trkpt>
      <trkpt lat="45.10639" lon="6.00349">
        <ele>732</ele>
        <time>2016-05-15T06:35:29Z</time>
      </trkpt>
      <trkpt lat="45.10652" lon="6.00353">
        <ele>733</ele>
        <time>2016-05-15T06:35:31Z</time>
      </trkpt>
      <trkpt lat="45.10666" lon="6.00358">
        <ele>733</ele>
        <time>2016-05-15T06:35:33Z</time>
      </trkpt>
      <trkpt lat="45.10678" lon="6.00366">
        <ele>733</ele>
        <time>2016-05-15T06:35:35Z</time>
      </trkpt>
      <trkpt lat="45.10689" lon="6.00376">
        <ele>733</ele>
        <time>2016-05-15T06:35:37Z</time>
      </trkpt>
      <trkpt lat="45.10701" lon="6.00383">
        <ele>733</ele>
        <time>2016-05-15T06:35:39Z</time>
      </trkpt>
      <trkpt lat="45.10712" lon="6.00391">
        <ele>731</ele>
        <time>2016-05-15T06:35:41Z</time>
      </trkpt>
      <trkpt lat="45.10724" lon="6.00399">
        <ele>731</ele>
        <time>2016-05-15T06:35:43Z</time>
      </trkpt>
      <trkpt lat="45.10736" lon="6.00406">
        <ele>731</ele>
        <time>2016-05-15T06:35:45Z</time>
      </trkpt>
      <trkpt lat="45.10745" lon="6.00413">
        <ele>731</ele>
        <time>2016-05-15T06:35:47Z</time>
      </trkpt>
      <trkpt lat="45.10756" lon="6.00419">
        <ele>731</ele>
        <time>2016-05-15T06:35:49Z</time>
      </trkpt>
      <trkpt lat="45.1077" lon="6.00424">
        <ele>731</ele>
        <time>2016-05-15T06:35:51Z</time>
      </trkpt>
      <trkpt lat="45.10784" lon="6.00427">
        <ele>732</ele>
        <time>2016-05-15T06:35:53Z</time>
      </trkpt>
      <trkpt lat="45.10796" lon="6.0043">
        <ele>732</ele>
        <time>2016-05-15T06:35:55Z</time>
      </trkpt>
      <trkpt lat="45.10807" lon="6.00432">
        <ele>732</ele>
        <time>2016-05-15T06:35:57Z</time>
      </trkpt>
      <trkpt lat="45.10817" lon="6.00436">
        <ele>732</ele>
        <time>2016-05-15T06:35:59Z</time>
      </trkpt>
      <trkpt lat="45.10828" lon="6.00442">
        <ele>730</ele>
        <time>2016-05-15T06:36:01Z</time>
      </trkpt>
      <trkpt lat="45.10842" lon="6.00447">
        <ele>730</ele>
        <time>2016-05-15T06:36:03Z</time>
      </trkpt>
      <trkpt lat="45.10856" lon="6.00453">
        <ele>730</ele>
        <time>2016-05-15T06:36:05Z</time>
      </trkpt>
      <trkpt lat="45.10867" lon="6.00461">
        <ele>730</ele>
        <time>2016-05-15T06:36:07Z</time>
      </trkpt>
      <trkpt lat="45.10879" lon="6.00466">
        <ele>730</ele>
        <time>2016-05-15T06:36:09Z</time>
      </trkpt>
      <trkpt lat="45.10892" lon="6.00467">
        <ele>730</ele>
        <time>2016-05-15T06:36:11Z</time>
      </trkpt>
      <trkpt lat="45.10906" lon="6.0047">
        <ele>730</ele>
        <time>2016-05-15T06:36:13Z</time>
      </trkpt>
      <trkpt lat="45.10918" lon="6.00476">
        <ele>730</ele>
        <time>2016-05-15T06:36:15Z</time>
      </trkpt>
      <trkpt lat="45.1093" lon="6.00484">
        <ele>730</ele>
        <time>2016-05-15T06:36:17Z</time>
      </trkpt>
      <trkpt lat="45.10942" lon="6.00488">
        <ele>730</ele>
        <time>2016-05-15T06:36:19Z</time>
      </trkpt>
      <trkpt lat="45.10955" lon="6.00494">
        <ele>730</ele>
        <time>2016-05-15T06:36:22Z</time>
      </trkpt>
      <trkpt lat="45.10965" lon="6.00502">
        <ele>731</ele>
        <time>2016-05-15T06:36:24Z</time>
      </trkpt>
      <trkpt lat="45.10974" lon="6.00509">
        <ele>731</ele>
        <time>2016-05-15T06:36:26Z</time>
      </trkpt>
      <trkpt lat="45.10984" lon="6.00514">
        <ele>731</ele>
        <time>2016-05-15T06:36:28Z</time>
      </trkpt>
      <trkpt lat="45.10993" lon="6.00519">
        <ele>732</ele>
        <time>2016-05-15T06:36:30Z</time>
      </trkpt>
      <trkpt lat="45.11003" lon="6.00527">
        <ele>732</ele>
        <time>2016-05-15T06:36:32Z</time>
      </trkpt>
      <trkpt lat="45.11012" lon="6.00536">
        <ele>732</ele>
        <time>2016-05-15T06:36:34Z</time>
      </trkpt>
      <trkpt lat="45.11022" lon="6.00543">
        <ele>732</ele>
        <time>2016-05-15T06:36:36Z</time>
      </trkpt>
      <trkpt lat="45.11032" lon="6.00554">
        <ele>732</ele>
        <time>2016-05-15T06:36:38Z</time>
      </trkpt>
      <trkpt lat="45.11043" lon="6.00561">
        <ele>732</ele>
        <time>2016-05-15T06:36:40Z</time>
      </trkpt>
      <trkpt lat="45.11053" lon="6.00567">
        <ele>731</ele>
        <time>2016-05-15T06:36:42Z</time>
      </trkpt>
      <trkpt lat="45.11062" lon="6.0057">
        <ele>731</ele>
        <time>2016-05-15T06:36:44Z</time>
      </trkpt>
      <trkpt lat="45.11073" lon="6.0057">
        <ele>731</ele>
        <time>2016-05-15T06:36:47Z</time>
      </trkpt>
      <trkpt lat="45.11087" lon="6.00571">
        <ele>731</ele>
        <time>2016-05-15T06:36:50Z</time>
      </trkpt>
      <trkpt lat="45.11099" lon="6.00573">
        <ele>730</ele>
        <time>2016-05-15T06:36:52Z</time>
      </trkpt>
      <trkpt lat="45.11111" lon="6.00576">
        <ele>730</ele>
        <time>2016-05-15T06:36:55Z</time>
      </trkpt>
      <trkpt lat="45.1112" lon="6.00584">
        <ele>730</ele>
        <time>2016-05-15T06:36:58Z</time>
      </trkpt>
      <trkpt lat="45.11112" lon="6.00591">
        <ele>729</ele>
        <time>2016-05-15T06:37:03Z</time>
      </trkpt>
      <trkpt lat="45.11104" lon="6.00601">
        <ele>729</ele>
        <time>2016-05-15T06:37:07Z</time>
      </trkpt>
      <trkpt lat="45.11094" lon="6.00607">
        <ele>729</ele>
        <time>2016-05-15T06:37:10Z</time>
      </trkpt>
      <trkpt lat="45.11083" lon="6.00609">
        <ele>730</ele>
        <time>2016-05-15T06:37:13Z</time>
      </trkpt>
      <trkpt lat="45.11075" lon="6.00619">
        <ele>730</ele>
        <time>2016-05-15T06:37:16Z</time>
      </trkpt>
      <trkpt lat="45.11074" lon="6.00632">
        <ele>730</ele>
        <time>2016-05-15T06:37:18Z</time>
      </trkpt>
      <trkpt lat="45.11074" lon="6.00646">
        <ele>731</ele>
        <time>2016-05-15T06:37:20Z</time>
      </trkpt>
      <trkpt lat="45.11078" lon="6.00662">
        <ele>731</ele>
        <time>2016-05-15T06:37:23Z</time>
      </trkpt>
      <trkpt lat="45.11089" lon="6.00662">
        <ele>731</ele>
        <time>2016-05-15T06:37:26Z</time>
      </trkpt>
      <trkpt lat="45.11098" lon="6.00665">
        <ele>731</ele>
        <time>2016-05-15T06:37:28Z</time>
      </trkpt>
      <trkpt lat="45.11109" lon="6.00666">
        <ele>731</ele>
        <time>2016-05-15T06:37:30Z</time>
      </trkpt>
      <trkpt lat="45.1112" lon="6.00663">
        <ele>731</ele>
        <time>2016-05-15T06:37:32Z</time>
      </trkpt>
      <trkpt lat="45.11133" lon="6.00659">
        <ele>733</ele>
        <time>2016-05-15T06:37:34Z</time>
      </trkpt>
      <trkpt lat="45.11146" lon="6.00657">
        <ele>733</ele>
        <time>2016-05-15T06:37:36Z</time>
      </trkpt>
      <trkpt lat="45.11159" lon="6.00653">
        <ele>733</ele>
        <time>2016-05-15T06:37:38Z</time>
      </trkpt>
      <trkpt lat="45.11171" lon="6.0065">
        <ele>732</ele>
        <time>2016-05-15T06:37:40Z</time>
      </trkpt>
      <trkpt lat="45.11182" lon="6.00648">
        <ele>732</ele>
        <time>2016-05-15T06:37:42Z</time>
      </trkpt>
      <trkpt lat="45.11195" lon="6.00645">
        <ele>732</ele>
        <time>2016-05-15T06:37:44Z</time>
      </trkpt>
      <trkpt lat="45.11209" lon="6.00641">
        <ele>732</ele>
        <time>2016-05-15T06:37:46Z</time>
      </trkpt>
      <trkpt lat="45.11223" lon="6.00638">
        <ele>732</ele>
        <time>2016-05-15T06:37:48Z</time>
      </trkpt>
      <trkpt lat="45.11238" lon="6.00634">
        <ele>732</ele>
        <time>2016-05-15T06:37:50Z</time>
      </trkpt>
      <trkpt lat="45.11253" lon="6.00629">
        <ele>732</ele>
        <time>2016-05-15T06:37:52Z</time>
      </trkpt>
      <trkpt lat="45.11266" lon="6.00626">
        <ele>732</ele>
        <time>2016-05-15T06:37:54Z</time>
      </trkpt>
      <trkpt lat="45.11279" lon="6.00624">
        <ele>732</ele>
        <time>2016-05-15T06:37:56Z</time>
      </trkpt>
      <trkpt lat="45.11293" lon="6.00621">
        <ele>732</ele>
        <time>2016-05-15T06:37:58Z</time>
      </trkpt>
      <trkpt lat="45.11306" lon="6.00618">
        <ele>732</ele>
        <time>2016-05-15T06:38:00Z</time>
      </trkpt>
      <trkpt lat="45.11319" lon="6.00615">
        <ele>732</ele>
        <time>2016-05-15T06:38:02Z</time>
      </trkpt>
      <trkpt lat="45.11332" lon="6.00615">
        <ele>732</ele>
        <time>2016-05-15T06:38:04Z</time>
      </trkpt>
      <trkpt lat="45.11344" lon="6.00615">
        <ele>732</ele>
        <time>2016-05-15T06:38:06Z</time>
      </trkpt>
      <trkpt lat="45.11357" lon="6.00614">
        <ele>732</ele>
        <time>2016-05-15T06:38:08Z</time>
      </trkpt>
      <trkpt lat="45.11369" lon="6.0061">
        <ele>732</ele>
        <time>2016-05-15T06:38:10Z</time>
      </trkpt>
      <trkpt lat="45.11381" lon="6.00614">
        <ele>732</ele>
        <time>2016-05-15T06:38:12Z</time>
      </trkpt>
      <trkpt lat="45.11387" lon="6.00628">
        <ele>732</ele>
        <time>2016-05-15T06:38:14Z</time>
      </trkpt>
      <trkpt lat="45.11388" lon="6.00646">
        <ele>732</ele>
        <time>2016-05-15T06:38:16Z</time>
      </trkpt>
      <trkpt lat="45.1139" lon="6.00664">
        <ele>732</ele>
        <time>2016-05-15T06:38:18Z</time>
      </trkpt>
      <trkpt lat="45.11393" lon="6.00682">
        <ele>732</ele>
        <time>2016-05-15T06:38:20Z</time>
      </trkpt>
      <trkpt lat="45.11396" lon="6.007">
        <ele>732</ele>
        <time>2016-05-15T06:38:22Z</time>
      </trkpt>
      <trkpt lat="45.11398" lon="6.00718">
        <ele>732</ele>
        <time>2016-05-15T06:38:24Z</time>
      </trkpt>
      <trkpt lat="45.114" lon="6.00737">
        <ele>732</ele>
        <time>2016-05-15T06:38:26Z</time>
      </trkpt>
      <trkpt lat="45.11401" lon="6.00756">
        <ele>732</ele>
        <time>2016-05-15T06:38:28Z</time>
      </trkpt>
      <trkpt lat="45.11403" lon="6.00775">
        <ele>731</ele>
        <time>2016-05-15T06:38:30Z</time>
      </trkpt>
      <trkpt lat="45.11405" lon="6.00793">
        <ele>731</ele>
        <time>2016-05-15T06:38:32Z</time>
      </trkpt>
      <trkpt lat="45.11407" lon="6.00812">
        <ele>731</ele>
        <time>2016-05-15T06:38:34Z</time>
      </trkpt>
      <trkpt lat="45.11409" lon="6.00831">
        <ele>731</ele>
        <time>2016-05-15T06:38:36Z</time>
      </trkpt>
      <trkpt lat="45.11411" lon="6.0085">
        <ele>731</ele>
        <time>2016-05-15T06:38:38Z</time>
      </trkpt>
      <trkpt lat="45.11413" lon="6.00868">
        <ele>730</ele>
        <time>2016-05-15T06:38:40Z</time>
      </trkpt>
      <trkpt lat="45.11415" lon="6.00887">
        <ele>730</ele>
        <time>2016-05-15T06:38:42Z</time>
      </trkpt>
      <trkpt lat="45.11417" lon="6.00906">
        <ele>730</ele>
        <time>2016-05-15T06:38:44Z</time>
      </trkpt>
      <trkpt lat="45.11419" lon="6.00926">
        <ele>730</ele>
        <time>2016-05-15T06:38:46Z</time>
      </trkpt>
      <trkpt lat="45.11422" lon="6.00946">
        <ele>730</ele>
        <time>2016-05-15T06:38:48Z</time>
      </trkpt>
      <trkpt lat="45.11425" lon="6.00966">
        <ele>731</ele>
        <time>2016-05-15T06:38:50Z</time>
      </trkpt>
      <trkpt lat="45.11427" lon="6.00985">
        <ele>731</ele>
        <time>2016-05-15T06:38:52Z</time>
      </trkpt>
      <trkpt lat="45.11429" lon="6.01004">
        <ele>731</ele>
        <time>2016-05-15T06:38:54Z</time>
      </trkpt>
      <trkpt lat="45.11431" lon="6.01023">
        <ele>731</ele>
        <time>2016-05-15T06:38:56Z</time>
      </trkpt>
      <trkpt lat="45.11434" lon="6.01042">
        <ele>731</ele>
        <time>2016-05-15T06:38:58Z</time>
      </trkpt>
      <trkpt lat="45.11436" lon="6.01061">
        <ele>731</ele>
        <time>2016-05-15T06:39:00Z</time>
      </trkpt>
      <trkpt lat="45.11438" lon="6.0108">
        <ele>730</ele>
        <time>2016-05-15T06:39:02Z</time>
      </trkpt>
      <trkpt lat="45.1144" lon="6.01099">
        <ele>730</ele>
        <time>2016-05-15T06:39:04Z</time>
      </trkpt>
      <trkpt lat="45.11442" lon="6.01118">
        <ele>730</ele>
        <time>2016-05-15T06:39:06Z</time>
      </trkpt>
      <trkpt lat="45.11444" lon="6.01138">
        <ele>730</ele>
        <time>2016-05-15T06:39:08Z</time>
      </trkpt>
      <trkpt lat="45.11446" lon="6.01158">
        <ele>730</ele>
        <time>2016-05-15T06:39:10Z</time>
      </trkpt>
      <trkpt lat="45.11448" lon="6.01178">
        <ele>730</ele>
        <time>2016-05-15T06:39:12Z</time>
      </trkpt>
      <trkpt lat="45.1145" lon="6.01198">
        <ele>730</ele>
        <time>2016-05-15T06:39:14Z</time>
      </trkpt>
      <trkpt lat="45.11453" lon="6.01215">
        <ele>730</ele>
        <time>2016-05-15T06:39:16Z</time>
      </trkpt>
      <trkpt lat="45.11457" lon="6.01232">
        <ele>730</ele>
        <time>2016-05-15T06:39:18Z</time>
      </trkpt>
      <trkpt lat="45.11462" lon="6.01248">
        <ele>730</ele>
        <time>2016-05-15T06:39:20Z</time>
      </trkpt>
      <trkpt lat="45.11466" lon="6.01264">
        <ele>732</ele>
        <time>2016-05-15T06:39:22Z</time>
      </trkpt>
      <trkpt lat="45.11473" lon="6.01278">
        <ele>732</ele>
        <time>2016-05-15T06:39:24Z</time>
      </trkpt>
      <trkpt lat="45.11479" lon="6.01293">
        <ele>732</ele>
        <time>2016-05-15T06:39:26Z</time>
      </trkpt>
      <trkpt lat="45.11486" lon="6.01307">
        <ele>732</ele>
        <time>2016-05-15T06:39:28Z</time>
      </trkpt>
      <trkpt lat="45.11494" lon="6.01318">
        <ele>732</ele>
        <time>2016-05-15T06:39:30Z</time>
      </trkpt>
      <trkpt lat="45.11504" lon="6.01328">
        <ele>732</ele>
        <time>2016-05-15T06:39:32Z</time>
      </trkpt>
      <trkpt lat="45.11514" lon="6.01337">
        <ele>733</ele>
        <time>2016-05-15T06:39:34Z</time>
      </trkpt>
      <trkpt lat="45.11523" lon="6.01347">
        <ele>733</ele>
        <time>2016-05-15T06:39:36Z</time>
      </trkpt>
      <trkpt lat="45.11532" lon="6.01355">
        <ele>733</ele>
        <time>2016-05-15T06:39:38Z</time>
      </trkpt>
      <trkpt lat="45.1154" lon="6.01363">
        <ele>733</ele>
        <time>2016-05-15T06:39:40Z</time>
      </trkpt>
      <trkpt lat="45.11547" lon="6.01371">
        <ele>733</ele>
        <time>2016-05-15T06:39:42Z</time>
      </trkpt>
      <trkpt lat="45.11544" lon="6.01387">
        <ele>733</ele>
        <time>2016-05-15T06:39:45Z</time>
      </trkpt>
      <trkpt lat="45.11539" lon="6.01399">
        <ele>733</ele>
        <time>2016-05-15T06:39:47Z</time>
      </trkpt>
      <trkpt lat="45.11534" lon="6.01412">
        <ele>733</ele>
        <time>2016-05-15T06:39:49Z</time>
      </trkpt>
      <trkpt lat="45.11527" lon="6.01425">
        <ele>733</ele>
        <time>2016-05-15T06:39:51Z</time>
      </trkpt>
      <trkpt lat="45.11521" lon="6.01438">
        <ele>733</ele>
        <time>2016-05-15T06:39:53Z</time>
      </trkpt>
      <trkpt lat="45.11514" lon="6.01452">
        <ele>733</ele>
        <time>2016-05-15T06:39:55Z</time>
      </trkpt>
      <trkpt lat="45.11507" lon="6.01466">
        <ele>733</ele>
        <time>2016-05-15T06:39:57Z</time>
      </trkpt>
      <trkpt lat="45.11499" lon="6.0148">
        <ele>733</ele>
        <time>2016-05-15T06:39:59Z</time>
      </trkpt>
      <trkpt lat="45.11492" lon="6.01495">
        <ele>733</ele>
        <time>2016-05-15T06:40:01Z</time>
      </trkpt>
      <trkpt lat="45.11484" lon="6.0151">
        <ele>733</ele>
        <time>2016-05-15T06:40:03Z</time>
      </trkpt>
      <trkpt lat="45.11475" lon="6.01524">
        <ele>733</ele>
        <time>2016-05-15T06:40:05Z</time>
      </trkpt>
      <trkpt lat="45.11467" lon="6.01536">
        <ele>733</ele>
        <time>2016-05-15T06:40:07Z</time>
      </trkpt>
      <trkpt lat="45.11457" lon="6.01546">
        <ele>733</ele>
        <time>2016-05-15T06:40:09Z</time>
      </trkpt>
      <trkpt lat="45.11449" lon="6.01561">
        <ele>733</ele>
        <time>2016-05-15T06:40:11Z</time>
      </trkpt>
      <trkpt lat="45.11442" lon="6.01576">
        <ele>733</ele>
        <time>2016-05-15T06:40:13Z</time>
      </trkpt>
      <trkpt lat="45.11434" lon="6.01591">
        <ele>733</ele>
        <time>2016-05-15T06:40:15Z</time>
      </trkpt>
      <trkpt lat="45.11426" lon="6.01606">
        <ele>733</ele>
        <time>2016-05-15T06:40:17Z</time>
      </trkpt>
      <trkpt lat="45.11418" lon="6.0162">
        <ele>733</ele>
        <time>2016-05-15T06:40:19Z</time>
      </trkpt>
      <trkpt lat="45.1141" lon="6.01635">
        <ele>733</ele>
        <time>2016-05-15T06:40:21Z</time>
      </trkpt>
      <trkpt lat="45.11403" lon="6.01649">
        <ele>733</ele>
        <time>2016-05-15T06:40:23Z</time>
      </trkpt>
      <trkpt lat="45.11395" lon="6.01664">
        <ele>733</ele>
        <time>2016-05-15T06:40:25Z</time>
      </trkpt>
      <trkpt lat="45.11388" lon="6.01678">
        <ele>733</ele>
        <time>2016-05-15T06:40:27Z</time>
      </trkpt>
      <trkpt lat="45.1138" lon="6.01692">
        <ele>733</ele>
        <time>2016-05-15T06:40:29Z</time>
      </trkpt>
      <trkpt lat="45.11372" lon="6.01705">
        <ele>733</ele>
        <time>2016-05-15T06:40:31Z</time>
      </trkpt>
      <trkpt lat="45.11365" lon="6.0172">
        <ele>733</ele>
        <time>2016-05-15T06:40:33Z</time>
      </trkpt>
      <trkpt lat="45.11357" lon="6.01735">
        <ele>733</ele>
        <time>2016-05-15T06:40:35Z</time>
      </trkpt>
      <trkpt lat="45.11349" lon="6.01749">
        <ele>733</ele>
        <time>2016-05-15T06:40:37Z</time>
      </trkpt>
      <trkpt lat="45.11341" lon="6.01763">
        <ele>733</ele>
        <time>2016-05-15T06:40:39Z</time>
      </trkpt>
      <trkpt lat="45.11333" lon="6.01777">
        <ele>733</ele>
        <time>2016-05-15T06:40:41Z</time>
      </trkpt>
      <trkpt lat="45.11324" lon="6.01788">
        <ele>733</ele>
        <time>2016-05-15T06:40:43Z</time>
      </trkpt>
      <trkpt lat="45.11315" lon="6.01799">
        <ele>733</ele>
        <time>2016-05-15T06:40:45Z</time>
      </trkpt>
      <trkpt lat="45.11307" lon="6.0181">
        <ele>733</ele>
        <time>2016-05-15T06:40:47Z</time>
      </trkpt>
      <trkpt lat="45.11298" lon="6.01823">
        <ele>733</ele>
        <time>2016-05-15T06:40:49Z</time>
      </trkpt>
      <trkpt lat="45.11289" lon="6.01834">
        <ele>733</ele>
        <time>2016-05-15T06:40:51Z</time>
      </trkpt>
      <trkpt lat="45.11279" lon="6.01845">
        <ele>733</ele>
        <time>2016-05-15T06:40:53Z</time>
      </trkpt>
      <trkpt lat="45.11269" lon="6.01856">
        <ele>733</ele>
        <time>2016-05-15T06:40:55Z</time>
      </trkpt>
      <trkpt lat="45.1126" lon="6.01866">
        <ele>733</ele>
        <time>2016-05-15T06:40:57Z</time>
      </trkpt>
      <trkpt lat="45.1125" lon="6.01876">
        <ele>733</ele>
        <time>2016-05-15T06:40:59Z</time>
      </trkpt>
      <trkpt lat="45.11241" lon="6.01886">
        <ele>733</ele>
        <time>2016-05-15T06:41:01Z</time>
      </trkpt>
      <trkpt lat="45.11231" lon="6.01896">
        <ele>733</ele>
        <time>2016-05-15T06:41:03Z</time>
      </trkpt>
      <trkpt lat="45.1122" lon="6.01905">
        <ele>733</ele>
        <time>2016-05-15T06:41:05Z</time>
      </trkpt>
      <trkpt lat="45.1121" lon="6.01913">
        <ele>733</ele>
        <time>2016-05-15T06:41:07Z</time>
      </trkpt>
      <trkpt lat="45.11199" lon="6.01922">
        <ele>733</ele>
        <time>2016-05-15T06:41:09Z</time>
      </trkpt>
      <trkpt lat="45.11188" lon="6.0193">
        <ele>733</ele>
        <time>2016-05-15T06:41:11Z</time>
      </trkpt>
      <trkpt lat="45.11177" lon="6.01938">
        <ele>733</ele>
        <time>2016-05-15T06:41:13Z</time>
      </trkpt>
      <trkpt lat="45.11165" lon="6.01945">
        <ele>733</ele>
        <time>2016-05-15T06:41:15Z</time>
      </trkpt>
      <trkpt lat="45.11154" lon="6.01952">
        <ele>733</ele>
        <time>2016-05-15T06:41:17Z</time>
      </trkpt>
      <trkpt lat="45.11143" lon="6.01959">
        <ele>733</ele>
        <time>2016-05-15T06:41:19Z</time>
      </trkpt>
      <trkpt lat="45.11132" lon="6.01965">
        <ele>733</ele>
        <time>2016-05-15T06:41:21Z</time>
      </trkpt>
      <trkpt lat="45.11126" lon="6.01968">
        <ele>732</ele>
        <time>2016-05-15T06:41:22Z</time>
      </trkpt>
      <trkpt lat="45.11115" lon="6.01975">
        <ele>732</ele>
        <time>2016-05-15T06:41:24Z</time>
      </trkpt>
      <trkpt lat="45.11103" lon="6.01981">
        <ele>732</ele>
        <time>2016-05-15T06:41:26Z</time>
      </trkpt>
      <trkpt lat="45.11092" lon="6.01987">
        <ele>732</ele>
        <time>2016-05-15T06:41:28Z</time>
      </trkpt>
      <trkpt lat="45.1108" lon="6.01994">
        <ele>733</ele>
        <time>2016-05-15T06:41:30Z</time>
      </trkpt>
      <trkpt lat="45.11069" lon="6.02001">
        <ele>733</ele>
        <time>2016-05-15T06:41:32Z</time>
      </trkpt>
      <trkpt lat="45.11058" lon="6.02008">
        <ele>733</ele>
        <time>2016-05-15T06:41:34Z</time>
      </trkpt>
      <trkpt lat="45.11052" lon="6.02011">
        <ele>733</ele>
        <time>2016-05-15T06:41:35Z</time>
      </trkpt>
      <trkpt lat="45.11047" lon="6.02014">
        <ele>733</ele>
        <time>2016-05-15T06:41:36Z</time>
      </trkpt>
      <trkpt lat="45.11041" lon="6.02018">
        <ele>733</ele>
        <time>2016-05-15T06:41:37Z</time>
      </trkpt>
      <trkpt lat="45.11029" lon="6.02024">
        <ele>733</ele>
        <time>2016-05-15T06:41:39Z</time>
      </trkpt>
      <trkpt lat="45.11024" lon="6.02028">
        <ele>733</ele>
        <time>2016-05-15T06:41:40Z</time>
      </trkpt>
      <trkpt lat="45.11012" lon="6.02035">
        <ele>733</ele>
        <time>2016-05-15T06:41:42Z</time>
      </trkpt>
      <trkpt lat="45.11001" lon="6.02041">
        <ele>733</ele>
        <time>2016-05-15T06:41:44Z</time>
      </trkpt>
      <trkpt lat="45.10989" lon="6.02048">
        <ele>733</ele>
        <time>2016-05-15T06:41:46Z</time>
      </trkpt>
      <trkpt lat="45.10978" lon="6.02055">
        <ele>733</ele>
        <time>2016-05-15T06:41:48Z</time>
      </trkpt>
      <trkpt lat="45.10967" lon="6.02061">
        <ele>733</ele>
        <time>2016-05-15T06:41:50Z</time>
      </trkpt>
      <trkpt lat="45.10955" lon="6.02067">
        <ele>733</ele>
        <time>2016-05-15T06:41:52Z</time>
      </trkpt>
      <trkpt lat="45.10944" lon="6.02074">
        <ele>733</ele>
        <time>2016-05-15T06:41:54Z</time>
      </trkpt>
      <trkpt lat="45.10933" lon="6.02081">
        <ele>733</ele>
        <time>2016-05-15T06:41:56Z</time>
      </trkpt>
      <trkpt lat="45.10921" lon="6.02088">
        <ele>733</ele>
        <time>2016-05-15T06:41:58Z</time>
      </trkpt>
      <trkpt lat="45.1091" lon="6.02094">
        <ele>733</ele>
        <time>2016-05-15T06:42:00Z</time>
      </trkpt>
      <trkpt lat="45.109" lon="6.02099">
        <ele>733</ele>
        <time>2016-05-15T06:42:02Z</time>
      </trkpt>
      <trkpt lat="45.10889" lon="6.02105">
        <ele>733</ele>
        <time>2016-05-15T06:42:04Z</time>
      </trkpt>
      <trkpt lat="45.10877" lon="6.0211">
        <ele>733</ele>
        <time>2016-05-15T06:42:06Z</time>
      </trkpt>
      <trkpt lat="45.10864" lon="6.02115">
        <ele>733</ele>
        <time>2016-05-15T06:42:08Z</time>
      </trkpt>
      <trkpt lat="45.10852" lon="6.0212">
        <ele>733</ele>
        <time>2016-05-15T06:42:10Z</time>
      </trkpt>
      <trkpt lat="45.10839" lon="6.02125">
        <ele>733</ele>
        <time>2016-05-15T06:42:12Z</time>
      </trkpt>
      <trkpt lat="45.10827" lon="6.02128">
        <ele>733</ele>
        <time>2016-05-15T06:42:14Z</time>
      </trkpt>
      <trkpt lat="45.10815" lon="6.02132">
        <ele>733</ele>
        <time>2016-05-15T06:42:16Z</time>
      </trkpt>
      <trkpt lat="45.10804" lon="6.02135">
        <ele>733</ele>
        <time>2016-05-15T06:42:18Z</time>
      </trkpt>
      <trkpt lat="45.10792" lon="6.02139">
        <ele>733</ele>
        <time>2016-05-15T06:42:20Z</time>
      </trkpt>
      <trkpt lat="45.1078" lon="6.02144">
        <ele>733</ele>
        <time>2016-05-15T06:42:22Z</time>
      </trkpt>
      <trkpt lat="45.10767" lon="6.02148">
        <ele>733</ele>
        <time>2016-05-15T06:42:24Z</time>
      </trkpt>
      <trkpt lat="45.10755" lon="6.02151">
        <ele>733</ele>
        <time>2016-05-15T06:42:26Z</time>
      </trkpt>
      <trkpt lat="45.10742" lon="6.02154">
        <ele>733</ele>
        <time>2016-05-15T06:42:28Z</time>
      </trkpt>
      <trkpt lat="45.1073" lon="6.02157">
        <ele>733</ele>
        <time>2016-05-15T06:42:30Z</time>
      </trkpt>
      <trkpt lat="45.10717" lon="6.0216">
        <ele>733</ele>
        <time>2016-05-15T06:42:32Z</time>
      </trkpt>
      <trkpt lat="45.10705" lon="6.02163">
        <ele>733</ele>
        <time>2016-05-15T06:42:34Z</time>
      </trkpt>
      <trkpt lat="45.10692" lon="6.02166">
        <ele>733</ele>
        <time>2016-05-15T06:42:36Z</time>
      </trkpt>
      <trkpt lat="45.1068" lon="6.02168">
        <ele>733</ele>
        <time>2016-05-15T06:42:38Z</time>
      </trkpt>
      <trkpt lat="45.10667" lon="6.02171">
        <ele>733</ele>
        <time>2016-05-15T06:42:40Z</time>
      </trkpt>
      <trkpt lat="45.10655" lon="6.02173">
        <ele>733</ele>
        <time>2016-05-15T06:42:42Z</time>
      </trkpt>
      <trkpt lat="45.10643" lon="6.02175">
        <ele>733</ele>
        <time>2016-05-15T06:42:44Z</time>
      </trkpt>
      <trkpt lat="45.10632" lon="6.02176">
        <ele>733</ele>
        <time>2016-05-15T06:42:46Z</time>
      </trkpt>
      <trkpt lat="45.10621" lon="6.02179">
        <ele>733</ele>
        <time>2016-05-15T06:42:48Z</time>
      </trkpt>
      <trkpt lat="45.10609" lon="6.0218">
        <ele>733</ele>
        <time>2016-05-15T06:42:50Z</time>
      </trkpt>
      <trkpt lat="45.10597" lon="6.02181">
        <ele>733</ele>
        <time>2016-05-15T06:42:52Z</time>
      </trkpt>
      <trkpt lat="45.10586" lon="6.02182">
        <ele>733</ele>
        <time>2016-05-15T06:42:54Z</time>
      </trkpt>
      <trkpt lat="45.10575" lon="6.02182">
        <ele>733</ele>
        <time>2016-05-15T06:42:56Z</time>
      </trkpt>
      <trkpt lat="45.10563" lon="6.02182">
        <ele>733</ele>
        <time>2016-05-15T06:42:58Z</time>
      </trkpt>
      <trkpt lat="45.10552" lon="6.02182">
        <ele>733</ele>
        <time>2016-05-15T06:43:00Z</time>
      </trkpt>
      <trkpt lat="45.10541" lon="6.02181">
        <ele>733</ele>
        <time>2016-05-15T06:43:02Z</time>
      </trkpt>
      <trkpt lat="45.10531" lon="6.02181">
        <ele>733</ele>
        <time>2016-05-15T06:43:04Z</time>
      </trkpt>
      <trkpt lat="45.10521" lon="6.0218">
        <ele>733</ele>
        <time>2016-05-15T06:43:06Z</time>
      </trkpt>
      <trkpt lat="45.10511" lon="6.0218">
        <ele>733</ele>
        <time>2016-05-15T06:43:08Z</time>
      </trkpt>
      <trkpt lat="45.10499" lon="6.0218">
        <ele>733</ele>
        <time>2016-05-15T06:43:10Z</time>
      </trkpt>
      <trkpt lat="45.10487" lon="6.02179">
        <ele>733</ele>
        <time>2016-05-15T06:43:12Z</time>
      </trkpt>
      <trkpt lat="45.10476" lon="6.02179">
        <ele>733</ele>
        <time>2016-05-15T06:43:14Z</time>
      </trkpt>
      <trkpt lat="45.10464" lon="6.0218">
        <ele>733</ele>
        <time>2016-05-15T06:43:16Z</time>
      </trkpt>
      <trkpt lat="45.10452" lon="6.02182">
        <ele>733</ele>
        <time>2016-05-15T06:43:18Z</time>
      </trkpt>
      <trkpt lat="45.10441" lon="6.02182">
        <ele>733</ele>
        <time>2016-05-15T06:43:20Z</time>
      </trkpt>
      <trkpt lat="45.10428" lon="6.02181">
        <ele>733</ele>
        <time>2016-05-15T06:43:22Z</time>
      </trkpt>
      <trkpt lat="45.10416" lon="6.02181">
        <ele>733</ele>
        <time>2016-05-15T06:43:24Z</time>
      </trkpt>
      <trkpt lat="45.10407" lon="6.02179">
        <ele>733</ele>
        <time>2016-05-15T06:43:26Z</time>
      </trkpt>
      <trkpt lat="45.10398" lon="6.02178">
        <ele>733</ele>
        <time>2016-05-15T06:43:28Z</time>
      </trkpt>
      <trkpt lat="45.10387" lon="6.02177">
        <ele>733</ele>
        <time>2016-05-15T06:43:30Z</time>
      </trkpt>
      <trkpt lat="45.10375" lon="6.02177">
        <ele>733</ele>
        <time>2016-05-15T06:43:32Z</time>
      </trkpt>
      <trkpt lat="45.10361" lon="6.02178">
        <ele>733</ele>
        <time>2016-05-15T06:43:34Z</time>
      </trkpt>
      <trkpt lat="45.10348" lon="6.02177">
        <ele>733</ele>
        <time>2016-05-15T06:43:36Z</time>
      </trkpt>
      <trkpt lat="45.10336" lon="6.02178">
        <ele>733</ele>
        <time>2016-05-15T06:43:38Z</time>
      </trkpt>
      <trkpt lat="45.10323" lon="6.02178">
        <ele>734</ele>
        <time>2016-05-15T06:43:40Z</time>
      </trkpt>
      <trkpt lat="45.10311" lon="6.02178">
        <ele>734</ele>
        <time>2016-05-15T06:43:42Z</time>
      </trkpt>
      <trkpt lat="45.10299" lon="6.02179">
        <ele>734</ele>
        <time>2016-05-15T06:43:44Z</time>
      </trkpt>
      <trkpt lat="45.10288" lon="6.02179">
        <ele>734</ele>
        <time>2016-05-15T06:43:46Z</time>
      </trkpt>
      <trkpt lat="45.10278" lon="6.0218">
        <ele>734</ele>
        <time>2016-05-15T06:43:48Z</time>
      </trkpt>
      <trkpt lat="45.10265" lon="6.02178">
        <ele>734</ele>
        <time>2016-05-15T06:43:50Z</time>
      </trkpt>
      <trkpt lat="45.10253" lon="6.02175">
        <ele>734</ele>
        <time>2016-05-15T06:43:52Z</time>
      </trkpt>
      <trkpt lat="45.1024" lon="6.02171">
        <ele>734</ele>
        <time>2016-05-15T06:43:54Z</time>
      </trkpt>
      <trkpt lat="45.10227" lon="6.02168">
        <ele>734</ele>
        <time>2016-05-15T06:43:56Z</time>
      </trkpt>
      <trkpt lat="45.10215" lon="6.02165">
        <ele>734</ele>
        <time>2016-05-15T06:43:58Z</time>
      </trkpt>
      <trkpt lat="45.10203" lon="6.02161">
        <ele>733</ele>
        <time>2016-05-15T06:44:00Z</time>
      </trkpt>
      <trkpt lat="45.1019" lon="6.02158">
        <ele>733</ele>
        <time>2016-05-15T06:44:02Z</time>
      </trkpt>
      <trkpt lat="45.10177" lon="6.02153">
        <ele>733</ele>
        <time>2016-05-15T06:44:04Z</time>
      </trkpt>
      <trkpt lat="45.10164" lon="6.02149">
        <ele>733</ele>
        <time>2016-05-15T06:44:06Z</time>
      </trkpt>
      <trkpt lat="45.1015" lon="6.02145">
        <ele>733</ele>
        <time>2016-05-15T06:44:08Z</time>
      </trkpt>
      <trkpt lat="45.10138" lon="6.02142">
        <ele>733</ele>
        <time>2016-05-15T06:44:10Z</time>
      </trkpt>
      <trkpt lat="45.10125" lon="6.02138">
        <ele>733</ele>
        <time>2016-05-15T06:44:12Z</time>
      </trkpt>
      <trkpt lat="45.10112" lon="6.02135">
        <ele>733</ele>
        <time>2016-05-15T06:44:14Z</time>
      </trkpt>
      <trkpt lat="45.101" lon="6.02132">
        <ele>733</ele>
        <time>2016-05-15T06:44:16Z</time>
      </trkpt>
      <trkpt lat="45.10088" lon="6.0213">
        <ele>733</ele>
        <time>2016-05-15T06:44:18Z</time>
      </trkpt>
      <trkpt lat="45.10075" lon="6.02126">
        <ele>733</ele>
        <time>2016-05-15T06:44:20Z</time>
      </trkpt>
      <trkpt lat="45.10063" lon="6.02123">
        <ele>733</ele>
        <time>2016-05-15T06:44:22Z</time>
      </trkpt>
      <trkpt lat="45.10053" lon="6.02118">
        <ele>733</ele>
        <time>2016-05-15T06:44:24Z</time>
      </trkpt>
      <trkpt lat="45.10042" lon="6.02115">
        <ele>733</ele>
        <time>2016-05-15T06:44:26Z</time>
      </trkpt>
      <trkpt lat="45.1003" lon="6.02112">
        <ele>733</ele>
        <time>2016-05-15T06:44:28Z</time>
      </trkpt>
      <trkpt lat="45.10016" lon="6.02107">
        <ele>733</ele>
        <time>2016-05-15T06:44:30Z</time>
      </trkpt>
      <trkpt lat="45.10003" lon="6.02103">
        <ele>733</ele>
        <time>2016-05-15T06:44:32Z</time>
      </trkpt>
      <trkpt lat="45.09992" lon="6.02098">
        <ele>733</ele>
        <time>2016-05-15T06:44:34Z</time>
      </trkpt>
      <trkpt lat="45.09978" lon="6.02096">
        <ele>733</ele>
        <time>2016-05-15T06:44:36Z</time>
      </trkpt>
      <trkpt lat="45.09966" lon="6.02092">
        <ele>733</ele>
        <time>2016-05-15T06:44:38Z</time>
      </trkpt>
      <trkpt lat="45.09956" lon="6.0209">
        <ele>733</ele>
        <time>2016-05-15T06:44:40Z</time>
      </trkpt>
      <trkpt lat="45.09946" lon="6.02088">
        <ele>733</ele>
        <time>2016-05-15T06:44:42Z</time>
      </trkpt>
      <trkpt lat="45.09932" lon="6.02084">
        <ele>733</ele>
        <time>2016-05-15T06:44:44Z</time>
      </trkpt>
      <trkpt lat="45.09918" lon="6.02079">
        <ele>733</ele>
        <time>2016-05-15T06:44:46Z</time>
      </trkpt>
      <trkpt lat="45.09905" lon="6.02074">
        <ele>733</ele>
        <time>2016-05-15T06:44:48Z</time>
      </trkpt>
      <trkpt lat="45.09892" lon="6.0207">
        <ele>734</ele>
        <time>2016-05-15T06:44:50Z</time>
      </trkpt>
      <trkpt lat="45.09878" lon="6.02068">
        <ele>734</ele>
        <time>2016-05-15T06:44:52Z</time>
      </trkpt>
      <trkpt lat="45.09866" lon="6.02063">
        <ele>734</ele>
        <time>2016-05-15T06:44:54Z</time>
      </trkpt>
      <trkpt lat="45.09854" lon="6.02061">
        <ele>734</ele>
        <time>2016-05-15T06:44:56Z</time>
      </trkpt>
      <trkpt lat="45.09842" lon="6.02056">
        <ele>734</ele>
        <time>2016-05-15T06:44:58Z</time>
      </trkpt>
      <trkpt lat="45.09829" lon="6.02054">
        <ele>734</ele>
        <time>2016-05-15T06:45:00Z</time>
      </trkpt>
      <trkpt lat="45.09818" lon="6.02049">
        <ele>734</ele>
        <time>2016-05-15T06:45:02Z</time>
      </trkpt>
      <trkpt lat="45.09805" lon="6.02046">
        <ele>734</ele>
        <time>2016-05-15T06:45:04Z</time>
      </trkpt>
      <trkpt lat="45.09793" lon="6.02044">
        <ele>734</ele>
        <time>2016-05-15T06:45:06Z</time>
      </trkpt>
      <trkpt lat="45.09778" lon="6.02042">
        <ele>734</ele>
        <time>2016-05-15T06:45:08Z</time>
      </trkpt>
      <trkpt lat="45.09766" lon="6.0204">
        <ele>734</ele>
        <time>2016-05-15T06:45:10Z</time>
      </trkpt>
      <trkpt lat="45.09753" lon="6.02037">
        <ele>734</ele>
        <time>2016-05-15T06:45:12Z</time>
      </trkpt>
      <trkpt lat="45.09739" lon="6.02032">
        <ele>734</ele>
        <time>2016-05-15T06:45:14Z</time>
      </trkpt>
      <trkpt lat="45.09726" lon="6.02027">
        <ele>734</ele>
        <time>2016-05-15T06:45:16Z</time>
      </trkpt>
      <trkpt lat="45.09715" lon="6.02024">
        <ele>734</ele>
        <time>2016-05-15T06:45:18Z</time>
      </trkpt>
      <trkpt lat="45.09704" lon="6.02023">
        <ele>734</ele>
        <time>2016-05-15T06:45:20Z</time>
      </trkpt>
      <trkpt lat="45.09692" lon="6.02019">
        <ele>734</ele>
        <time>2016-05-15T06:45:22Z</time>
      </trkpt>
      <trkpt lat="45.09683" lon="6.02016">
        <ele>734</ele>
        <time>2016-05-15T06:45:24Z</time>
      </trkpt>
      <trkpt lat="45.09673" lon="6.02012">
        <ele>734</ele>
        <time>2016-05-15T06:45:26Z</time>
      </trkpt>
      <trkpt lat="45.0966" lon="6.02005">
        <ele>734</ele>
        <time>2016-05-15T06:45:28Z</time>
      </trkpt>
      <trkpt lat="45.09648" lon="6.02001">
        <ele>734</ele>
        <time>2016-05-15T06:45:30Z</time>
      </trkpt>
      <trkpt lat="45.09637" lon="6.01998">
        <ele>734</ele>
        <time>2016-05-15T06:45:32Z</time>
      </trkpt>
      <trkpt lat="45.09626" lon="6.01995">
        <ele>734</ele>
        <time>2016-05-15T06:45:34Z</time>
      </trkpt>
      <trkpt lat="45.09614" lon="6.01992">
        <ele>734</ele>
        <time>2016-05-15T06:45:36Z</time>
      </trkpt>
      <trkpt lat="45.09599" lon="6.01988">
        <ele>734</ele>
        <time>2016-05-15T06:45:38Z</time>
      </trkpt>
      <trkpt lat="45.09587" lon="6.01983">
        <ele>734</ele>
        <time>2016-05-15T06:45:40Z</time>
      </trkpt>
      <trkpt lat="45.09574" lon="6.01977">
        <ele>735</ele>
        <time>2016-05-15T06:45:42Z</time>
      </trkpt>
      <trkpt lat="45.0956" lon="6.01974">
        <ele>735</ele>
        <time>2016-05-15T06:45:44Z</time>
      </trkpt>
      <trkpt lat="45.09548" lon="6.0197">
        <ele>735</ele>
        <time>2016-05-15T06:45:46Z</time>
      </trkpt>
      <trkpt lat="45.09536" lon="6.01965">
        <ele>735</ele>
        <time>2016-05-15T06:45:48Z</time>
      </trkpt>
      <trkpt lat="45.09522" lon="6.01962">
        <ele>735</ele>
        <time>2016-05-15T06:45:50Z</time>
      </trkpt>
      <trkpt lat="45.09508" lon="6.01955">
        <ele>735</ele>
        <time>2016-05-15T06:45:52Z</time>
      </trkpt>
      <trkpt lat="45.09494" lon="6.0195">
        <ele>735</ele>
        <time>2016-05-15T06:45:54Z</time>
      </trkpt>
      <trkpt lat="45.09482" lon="6.01946">
        <ele>735</ele>
        <time>2016-05-15T06:45:56Z</time>
      </trkpt>
      <trkpt lat="45.0947" lon="6.01943">
        <ele>735</ele>
        <time>2016-05-15T06:45:58Z</time>
      </trkpt>
      <trkpt lat="45.09458" lon="6.01941">
        <ele>734</ele>
        <time>2016-05-15T06:46:00Z</time>
      </trkpt>
      <trkpt lat="45.09447" lon="6.01938">
        <ele>734</ele>
        <time>2016-05-15T06:46:02Z</time>
      </trkpt>
      <trkpt lat="45.09436" lon="6.01933">
        <ele>734</ele>
        <time>2016-05-15T06:46:04Z</time>
      </trkpt>
      <trkpt lat="45.09424" lon="6.01928">
        <ele>734</ele>
        <time>2016-05-15T06:46:06Z</time>
      </trkpt>
      <trkpt lat="45.09412" lon="6.01923">
        <ele>734</ele>
        <time>2016-05-15T06:46:08Z</time>
      </trkpt>
      <trkpt lat="45.09399" lon="6.0192">
        <ele>735</ele>
        <time>2016-05-15T06:46:10Z</time>
      </trkpt>
      <trkpt lat="45.09387" lon="6.01915">
        <ele>735</ele>
        <time>2016-05-15T06:46:12Z</time>
      </trkpt>
      <trkpt lat="45.09373" lon="6.01911">
        <ele>735</ele>
        <time>2016-05-15T06:46:14Z</time>
      </trkpt>
      <trkpt lat="45.0936" lon="6.0191">
        <ele>735</ele>
        <time>2016-05-15T06:46:16Z</time>
      </trkpt>
      <trkpt lat="45.09348" lon="6.01908">
        <ele>735</ele>
        <time>2016-05-15T06:46:18Z</time>
      </trkpt>
      <trkpt lat="45.09338" lon="6.01905">
        <ele>735</ele>
        <time>2016-05-15T06:46:20Z</time>
      </trkpt>
      <trkpt lat="45.09327" lon="6.01905">
        <ele>735</ele>
        <time>2016-05-15T06:46:22Z</time>
      </trkpt>
      <trkpt lat="45.09315" lon="6.01904">
        <ele>735</ele>
        <time>2016-05-15T06:46:24Z</time>
      </trkpt>
      <trkpt lat="45.09302" lon="6.01903">
        <ele>735</ele>
        <time>2016-05-15T06:46:26Z</time>
      </trkpt>
      <trkpt lat="45.09289" lon="6.01902">
        <ele>735</ele>
        <time>2016-05-15T06:46:28Z</time>
      </trkpt>
      <trkpt lat="45.09275" lon="6.01901">
        <ele>735</ele>
        <time>2016-05-15T06:46:30Z</time>
      </trkpt>
      <trkpt lat="45.09263" lon="6.019">
        <ele>735</ele>
        <time>2016-05-15T06:46:32Z</time>
      </trkpt>
      <trkpt lat="45.09248" lon="6.019">
        <ele>735</ele>
        <time>2016-05-15T06:46:34Z</time>
      </trkpt>
      <trkpt lat="45.09235" lon="6.01898">
        <ele>735</ele>
        <time>2016-05-15T06:46:36Z</time>
      </trkpt>
      <trkpt lat="45.09224" lon="6.01897">
        <ele>735</ele>
        <time>2016-05-15T06:46:38Z</time>
      </trkpt>
      <trkpt lat="45.09211" lon="6.01896">
        <ele>735</ele>
        <time>2016-05-15T06:46:40Z</time>
      </trkpt>
      <trkpt lat="45.09201" lon="6.01899">
        <ele>735</ele>
        <time>2016-05-15T06:46:42Z</time>
      </trkpt>
      <trkpt lat="45.09189" lon="6.01899">
        <ele>735</ele>
        <time>2016-05-15T06:46:44Z</time>
      </trkpt>
      <trkpt lat="45.09175" lon="6.01901">
        <ele>735</ele>
        <time>2016-05-15T06:46:46Z</time>
      </trkpt>
      <trkpt lat="45.09164" lon="6.01899">
        <ele>735</ele>
        <time>2016-05-15T06:46:48Z</time>
      </trkpt>
      <trkpt lat="45.09153" lon="6.01899">
        <ele>735</ele>
        <time>2016-05-15T06:46:50Z</time>
      </trkpt>
      <trkpt lat="45.0914" lon="6.01897">
        <ele>735</ele>
        <time>2016-05-15T06:46:52Z</time>
      </trkpt>
      <trkpt lat="45.0913" lon="6.01895">
        <ele>735</ele>
        <time>2016-05-15T06:46:54Z</time>
      </trkpt>
      <trkpt lat="45.0912" lon="6.01894">
        <ele>735</ele>
        <time>2016-05-15T06:46:56Z</time>
      </trkpt>
      <trkpt lat="45.09105" lon="6.01895">
        <ele>735</ele>
        <time>2016-05-15T06:46:58Z</time>
      </trkpt>
      <trkpt lat="45.09093" lon="6.01895">
        <ele>735</ele>
        <time>2016-05-15T06:47:00Z</time>
      </trkpt>
      <trkpt lat="45.0908" lon="6.01895">
        <ele>735</ele>
        <time>2016-05-15T06:47:03Z</time>
      </trkpt>
      <trkpt lat="45.09068" lon="6.01896">
        <ele>735</ele>
        <time>2016-05-15T06:47:05Z</time>
      </trkpt>
      <trkpt lat="45.09054" lon="6.01895">
        <ele>735</ele>
        <time>2016-05-15T06:47:07Z</time>
      </trkpt>
      <trkpt lat="45.09042" lon="6.01894">
        <ele>735</ele>
        <time>2016-05-15T06:47:09Z</time>
      </trkpt>
      <trkpt lat="45.09031" lon="6.01895">
        <ele>735</ele>
        <time>2016-05-15T06:47:11Z</time>
      </trkpt>
      <trkpt lat="45.0902" lon="6.01895">
        <ele>735</ele>
        <time>2016-05-15T06:47:13Z</time>
      </trkpt>
      <trkpt lat="45.09008" lon="6.01894">
        <ele>735</ele>
        <time>2016-05-15T06:47:15Z</time>
      </trkpt>
      <trkpt lat="45.08996" lon="6.01893">
        <ele>735</ele>
        <time>2016-05-15T06:47:17Z</time>
      </trkpt>
      <trkpt lat="45.08986" lon="6.01893">
        <ele>735</ele>
        <time>2016-05-15T06:47:19Z</time>
      </trkpt>
      <trkpt lat="45.08972" lon="6.01894">
        <ele>735</ele>
        <time>2016-05-15T06:47:22Z</time>
      </trkpt>
      <trkpt lat="45.08958" lon="6.01892">
        <ele>735</ele>
        <time>2016-05-15T06:47:24Z</time>
      </trkpt>
      <trkpt lat="45.08944" lon="6.01891">
        <ele>735</ele>
        <time>2016-05-15T06:47:26Z</time>
      </trkpt>
      <trkpt lat="45.0893" lon="6.01889">
        <ele>735</ele>
        <time>2016-05-15T06:47:28Z</time>
      </trkpt>
      <trkpt lat="45.08916" lon="6.01888">
        <ele>735</ele>
        <time>2016-05-15T06:47:30Z</time>
      </trkpt>
      <trkpt lat="45.08904" lon="6.01886">
        <ele>735</ele>
        <time>2016-05-15T06:47:32Z</time>
      </trkpt>
      <trkpt lat="45.08891" lon="6.01882">
        <ele>735</ele>
        <time>2016-05-15T06:47:34Z</time>
      </trkpt>
      <trkpt lat="45.08878" lon="6.01882">
        <ele>735</ele>
        <time>2016-05-15T06:47:36Z</time>
      </trkpt>
      <trkpt lat="45.08868" lon="6.01884">
        <ele>735</ele>
        <time>2016-05-15T06:47:38Z</time>
      </trkpt>
      <trkpt lat="45.08856" lon="6.01883">
        <ele>735</ele>
        <time>2016-05-15T06:47:40Z</time>
      </trkpt>
      <trkpt lat="45.08844" lon="6.01884">
        <ele>735</ele>
        <time>2016-05-15T06:47:42Z</time>
      </trkpt>
      <trkpt lat="45.08832" lon="6.01885">
        <ele>736</ele>
        <time>2016-05-15T06:47:44Z</time>
      </trkpt>
      <trkpt lat="45.08822" lon="6.01886">
        <ele>736</ele>
        <time>2016-05-15T06:47:46Z</time>
      </trkpt>
      <trkpt lat="45.08809" lon="6.01889">
        <ele>736</ele>
        <time>2016-05-15T06:47:48Z</time>
      </trkpt>
      <trkpt lat="45.08796" lon="6.01891">
        <ele>736</ele>
        <time>2016-05-15T06:47:50Z</time>
      </trkpt>
      <trkpt lat="45.08782" lon="6.01887">
        <ele>736</ele>
        <time>2016-05-15T06:47:52Z</time>
      </trkpt>
      <trkpt lat="45.08771" lon="6.01886">
        <ele>736</ele>
        <time>2016-05-15T06:47:54Z</time>
      </trkpt>
      <trkpt lat="45.08759" lon="6.01885">
        <ele>736</ele>
        <time>2016-05-15T06:47:56Z</time>
      </trkpt>
      <trkpt lat="45.08747" lon="6.01884">
        <ele>736</ele>
        <time>2016-05-15T06:47:58Z</time>
      </trkpt>
      <trkpt lat="45.08735" lon="6.01882">
        <ele>735</ele>
        <time>2016-05-15T06:48:00Z</time>
      </trkpt>
      <trkpt lat="45.08725" lon="6.01881">
        <ele>735</ele>
        <time>2016-05-15T06:48:02Z</time>
      </trkpt>
      <trkpt lat="45.08714" lon="6.01881">
        <ele>735</ele>
        <time>2016-05-15T06:48:04Z</time>
      </trkpt>
      <trkpt lat="45.08703" lon="6.01882">
        <ele>735</ele>
        <time>2016-05-15T06:48:06Z</time>
      </trkpt>
      <trkpt lat="45.08692" lon="6.01883">
        <ele>735</ele>
        <time>2016-05-15T06:48:08Z</time>
      </trkpt>
      <trkpt lat="45.08678" lon="6.01883">
        <ele>736</ele>
        <time>2016-05-15T06:48:10Z</time>
      </trkpt>
      <trkpt lat="45.08667" lon="6.01883">
        <ele>736</ele>
        <time>2016-05-15T06:48:12Z</time>
      </trkpt>
      <trkpt lat="45.08653" lon="6.01882">
        <ele>736</ele>
        <time>2016-05-15T06:48:14Z</time>
      </trkpt>
      <trkpt lat="45.08641" lon="6.01885">
        <ele>736</ele>
        <time>2016-05-15T06:48:16Z</time>
      </trkpt>
      <trkpt lat="45.08629" lon="6.01883">
        <ele>736</ele>
        <time>2016-05-15T06:48:18Z</time>
      </trkpt>
      <trkpt lat="45.08615" lon="6.01883">
        <ele>736</ele>
        <time>2016-05-15T06:48:20Z</time>
      </trkpt>
      <trkpt lat="45.086" lon="6.01878">
        <ele>736</ele>
        <time>2016-05-15T06:48:22Z</time>
      </trkpt>
      <trkpt lat="45.08586" lon="6.01876">
        <ele>736</ele>
        <time>2016-05-15T06:48:24Z</time>
      </trkpt>
      <trkpt lat="45.08574" lon="6.01877">
        <ele>736</ele>
        <time>2016-05-15T06:48:26Z</time>
      </trkpt>
      <trkpt lat="45.08559" lon="6.01879">
        <ele>736</ele>
        <time>2016-05-15T06:48:28Z</time>
      </trkpt>
      <trkpt lat="45.08549" lon="6.01884">
        <ele>736</ele>
        <time>2016-05-15T06:48:30Z</time>
      </trkpt>
      <trkpt lat="45.08538" lon="6.01892">
        <ele>735</ele>
        <time>2016-05-15T06:48:32Z</time>
      </trkpt>
      <trkpt lat="45.08526" lon="6.01901">
        <ele>735</ele>
        <time>2016-05-15T06:48:34Z</time>
      </trkpt>
      <trkpt lat="45.08514" lon="6.01913">
        <ele>735</ele>
        <time>2016-05-15T06:48:36Z</time>
      </trkpt>
      <trkpt lat="45.08506" lon="6.01927">
        <ele>735</ele>
        <time>2016-05-15T06:48:38Z</time>
      </trkpt>
      <trkpt lat="45.08501" lon="6.01941">
        <ele>735</ele>
        <time>2016-05-15T06:48:40Z</time>
      </trkpt>
      <trkpt lat="45.08489" lon="6.01946">
        <ele>735</ele>
        <time>2016-05-15T06:48:42Z</time>
      </trkpt>
      <trkpt lat="45.08477" lon="6.01949">
        <ele>735</ele>
        <time>2016-05-15T06:48:44Z</time>
      </trkpt>
      <trkpt lat="45.08465" lon="6.01956">
        <ele>735</ele>
        <time>2016-05-15T06:48:46Z</time>
      </trkpt>
      <trkpt lat="45.08453" lon="6.01963">
        <ele>735</ele>
        <time>2016-05-15T06:48:48Z</time>
      </trkpt>
      <trkpt lat="45.0844" lon="6.01969">
        <ele>735</ele>
        <time>2016-05-15T06:48:50Z</time>
      </trkpt>
      <trkpt lat="45.08429" lon="6.01976">
        <ele>735</ele>
        <time>2016-05-15T06:48:52Z</time>
      </trkpt>
      <trkpt lat="45.08418" lon="6.01985">
        <ele>735</ele>
        <time>2016-05-15T06:48:54Z</time>
      </trkpt>
      <trkpt lat="45.08407" lon="6.01994">
        <ele>735</ele>
        <time>2016-05-15T06:48:56Z</time>
      </trkpt>
      <trkpt lat="45.08397" lon="6.02004">
        <ele>735</ele>
        <time>2016-05-15T06:48:58Z</time>
      </trkpt>
      <trkpt lat="45.08387" lon="6.02013">
        <ele>736</ele>
        <time>2016-05-15T06:49:00Z</time>
      </trkpt>
      <trkpt lat="45.08376" lon="6.02021">
        <ele>736</ele>
        <time>2016-05-15T06:49:02Z</time>
      </trkpt>
      <trkpt lat="45.08365" lon="6.02029">
        <ele>736</ele>
        <time>2016-05-15T06:49:04Z</time>
      </trkpt>
      <trkpt lat="45.08356" lon="6.02037">
        <ele>736</ele>
        <time>2016-05-15T06:49:06Z</time>
      </trkpt>
      <trkpt lat="45.08345" lon="6.02048">
        <ele>736</ele>
        <time>2016-05-15T06:49:08Z</time>
      </trkpt>
      <trkpt lat="45.08334" lon="6.02057">
        <ele>736</ele>
        <time>2016-05-15T06:49:10Z</time>
      </trkpt>
      <trkpt lat="45.08321" lon="6.02068">
        <ele>736</ele>
        <time>2016-05-15T06:49:12Z</time>
      </trkpt>
      <trkpt lat="45.0831" lon="6.02078">
        <ele>736</ele>
        <time>2016-05-15T06:49:14Z</time>
      </trkpt>
      <trkpt lat="45.08301" lon="6.02089">
        <ele>736</ele>
        <time>2016-05-15T06:49:16Z</time>
      </trkpt>
      <trkpt lat="45.08291" lon="6.02098">
        <ele>736</ele>
        <time>2016-05-15T06:49:18Z</time>
      </trkpt>
      <trkpt lat="45.08282" lon="6.0211">
        <ele>737</ele>
        <time>2016-05-15T06:49:20Z</time>
      </trkpt>
      <trkpt lat="45.08273" lon="6.02124">
        <ele>737</ele>
        <time>2016-05-15T06:49:22Z</time>
      </trkpt>
      <trkpt lat="45.08264" lon="6.02138">
        <ele>737</ele>
        <time>2016-05-15T06:49:24Z</time>
      </trkpt>
      <trkpt lat="45.08254" lon="6.02151">
        <ele>737</ele>
        <time>2016-05-15T06:49:26Z</time>
      </trkpt>
      <trkpt lat="45.08243" lon="6.02161">
        <ele>737</ele>
        <time>2016-05-15T06:49:28Z</time>
      </trkpt>
      <trkpt lat="45.08234" lon="6.02175">
        <ele>737</ele>
        <time>2016-05-15T06:49:30Z</time>
      </trkpt>
      <trkpt lat="45.08225" lon="6.02192">
        <ele>737</ele>
        <time>2016-05-15T06:49:32Z</time>
      </trkpt>
      <trkpt lat="45.0822" lon="6.02209">
        <ele>737</ele>
        <time>2016-05-15T06:49:34Z</time>
      </trkpt>
      <trkpt lat="45.08212" lon="6.02225">
        <ele>737</ele>
        <time>2016-05-15T06:49:36Z</time>
      </trkpt>
      <trkpt lat="45.08206" lon="6.02242">
        <ele>737</ele>
        <time>2016-05-15T06:49:38Z</time>
      </trkpt>
      <trkpt lat="45.082" lon="6.0226">
        <ele>737</ele>
        <time>2016-05-15T06:49:40Z</time>
      </trkpt>
      <trkpt lat="45.08193" lon="6.02272">
        <ele>738</ele>
        <time>2016-05-15T06:49:42Z</time>
      </trkpt>
      <trkpt lat="45.08183" lon="6.02281">
        <ele>738</ele>
        <time>2016-05-15T06:49:44Z</time>
      </trkpt>
      <trkpt lat="45.08169" lon="6.02284">
        <ele>738</ele>
        <time>2016-05-15T06:49:46Z</time>
      </trkpt>
      <trkpt lat="45.08158" lon="6.02293">
        <ele>738</ele>
        <time>2016-05-15T06:49:48Z</time>
      </trkpt>
      <trkpt lat="45.0815" lon="6.02309">
        <ele>738</ele>
        <time>2016-05-15T06:49:50Z</time>
      </trkpt>
      <trkpt lat="45.08141" lon="6.02325">
        <ele>736</ele>
        <time>2016-05-15T06:49:52Z</time>
      </trkpt>
      <trkpt lat="45.08138" lon="6.02341">
        <ele>736</ele>
        <time>2016-05-15T06:49:54Z</time>
      </trkpt>
      <trkpt lat="45.08131" lon="6.02359">
        <ele>736</ele>
        <time>2016-05-15T06:49:56Z</time>
      </trkpt>
      <trkpt lat="45.08122" lon="6.02376">
        <ele>736</ele>
        <time>2016-05-15T06:49:58Z</time>
      </trkpt>
      <trkpt lat="45.08114" lon="6.02392">
        <ele>736</ele>
        <time>2016-05-15T06:50:00Z</time>
      </trkpt>
      <trkpt lat="45.08106" lon="6.02408">
        <ele>736</ele>
        <time>2016-05-15T06:50:02Z</time>
      </trkpt>
      <trkpt lat="45.08096" lon="6.02422">
        <ele>736</ele>
        <time>2016-05-15T06:50:04Z</time>
      </trkpt>
      <trkpt lat="45.08086" lon="6.02436">
        <ele>736</ele>
        <time>2016-05-15T06:50:06Z</time>
      </trkpt>
      <trkpt lat="45.08076" lon="6.02451">
        <ele>736</ele>
        <time>2016-05-15T06:50:08Z</time>
      </trkpt>
      <trkpt lat="45.08067" lon="6.02465">
        <ele>736</ele>
        <time>2016-05-15T06:50:10Z</time>
      </trkpt>
      <trkpt lat="45.0806" lon="6.0248">
        <ele>736</ele>
        <time>2016-05-15T06:50:12Z</time>
      </trkpt>
      <trkpt lat="45.08052" lon="6.02495">
        <ele>736</ele>
        <time>2016-05-15T06:50:14Z</time>
      </trkpt>
      <trkpt lat="45.08044" lon="6.02512">
        <ele>736</ele>
        <time>2016-05-15T06:50:16Z</time>
      </trkpt>
      <trkpt lat="45.08036" lon="6.02526">
        <ele>736</ele>
        <time>2016-05-15T06:50:18Z</time>
      </trkpt>
      <trkpt lat="45.08028" lon="6.02542">
        <ele>736</ele>
        <time>2016-05-15T06:50:20Z</time>
      </trkpt>
      <trkpt lat="45.08023" lon="6.0256">
        <ele>736</ele>
        <time>2016-05-15T06:50:22Z</time>
      </trkpt>
      <trkpt lat="45.08015" lon="6.02575">
        <ele>736</ele>
        <time>2016-05-15T06:50:24Z</time>
      </trkpt>
      <trkpt lat="45.08006" lon="6.02588">
        <ele>736</ele>
        <time>2016-05-15T06:50:26Z</time>
      </trkpt>
      <trkpt lat="45.07999" lon="6.02603">
        <ele>736</ele>
        <time>2016-05-15T06:50:28Z</time>
      </trkpt>
      <trkpt lat="45.0799" lon="6.02616">
        <ele>736</ele>
        <time>2016-05-15T06:50:30Z</time>
      </trkpt>
      <trkpt lat="45.07981" lon="6.02625">
        <ele>736</ele>
        <time>2016-05-15T06:50:32Z</time>
      </trkpt>
      <trkpt lat="45.07971" lon="6.02634">
        <ele>736</ele>
        <time>2016-05-15T06:50:34Z</time>
      </trkpt>
      <trkpt lat="45.07962" lon="6.02647">
        <ele>736</ele>
        <time>2016-05-15T06:50:36Z</time>
      </trkpt>
      <trkpt lat="45.07952" lon="6.02657">
        <ele>736</ele>
        <time>2016-05-15T06:50:38Z</time>
      </trkpt>
      <trkpt lat="45.07939" lon="6.02664">
        <ele>736</ele>
        <time>2016-05-15T06:50:40Z</time>
      </trkpt>
      <trkpt lat="45.07926" lon="6.02671">
        <ele>736</ele>
        <time>2016-05-15T06:50:42Z</time>
      </trkpt>
      <trkpt lat="45.07915" lon="6.02681">
        <ele>736</ele>
        <time>2016-05-15T06:50:44Z</time>
      </trkpt>
      <trkpt lat="45.07906" lon="6.02692">
        <ele>736</ele>
        <time>2016-05-15T06:50:46Z</time>
      </trkpt>
      <trkpt lat="45.07896" lon="6.02704">
        <ele>736</ele>
        <time>2016-05-15T06:50:48Z</time>
      </trkpt>
      <trkpt lat="45.07887" lon="6.02712">
        <ele>741</ele>
        <time>2016-05-15T06:50:50Z</time>
      </trkpt>
      <trkpt lat="45.07879" lon="6.02724">
        <ele>741</ele>
        <time>2016-05-15T06:50:52Z</time>
      </trkpt>
      <trkpt lat="45.07873" lon="6.02736">
        <ele>741</ele>
        <time>2016-05-15T06:50:54Z</time>
      </trkpt>
      <trkpt lat="45.07868" lon="6.02748">
        <ele>743</ele>
        <time>2016-05-15T06:50:56Z</time>
      </trkpt>
      <trkpt lat="45.07863" lon="6.02761">
        <ele>743</ele>
        <time>2016-05-15T06:50:58Z</time>
      </trkpt>
      <trkpt lat="45.07857" lon="6.02773">
        <ele>746</ele>
        <time>2016-05-15T06:51:00Z</time>
      </trkpt>
      <trkpt lat="45.07851" lon="6.02789">
        <ele>748</ele>
        <time>2016-05-15T06:51:03Z</time>
      </trkpt>
      <trkpt lat="45.07847" lon="6.02804">
        <ele>748</ele>
        <time>2016-05-15T06:51:06Z</time>
      </trkpt>
      <trkpt lat="45.07847" lon="6.02821">
        <ele>748</ele>
        <time>2016-05-15T06:51:09Z</time>
      </trkpt>
      <trkpt lat="45.07839" lon="6.02836">
        <ele>749</ele>
        <time>2016-05-15T06:51:12Z</time>
      </trkpt>
      <trkpt lat="45.07831" lon="6.02845">
        <ele>749</ele>
        <time>2016-05-15T06:51:14Z</time>
      </trkpt>
      <trkpt lat="45.07821" lon="6.02848">
        <ele>749</ele>
        <time>2016-05-15T06:51:16Z</time>
      </trkpt>
      <trkpt lat="45.07809" lon="6.0285">
        <ele>749</ele>
        <time>2016-05-15T06:51:18Z</time>
      </trkpt>
      <trkpt lat="45.07798" lon="6.02852">
        <ele>749</ele>
        <time>2016-05-15T06:51:20Z</time>
      </trkpt>
      <trkpt lat="45.07785" lon="6.02851">
        <ele>746</ele>
        <time>2016-05-15T06:51:22Z</time>
      </trkpt>
      <trkpt lat="45.07771" lon="6.0285">
        <ele>746</ele>
        <time>2016-05-15T06:51:24Z</time>
      </trkpt>
      <trkpt lat="45.07759" lon="6.02858">
        <ele>746</ele>
        <time>2016-05-15T06:51:26Z</time>
      </trkpt>
      <trkpt lat="45.07751" lon="6.02864">
        <ele>744</ele>
        <time>2016-05-15T06:51:27Z</time>
      </trkpt>
      <trkpt lat="45.07741" lon="6.02868">
        <ele>744</ele>
        <time>2016-05-15T06:51:28Z</time>
      </trkpt>
      <trkpt lat="45.07732" lon="6.02874">
        <ele>744</ele>
        <time>2016-05-15T06:51:29Z</time>
      </trkpt>
      <trkpt lat="45.07723" lon="6.02879">
        <ele>744</ele>
        <time>2016-05-15T06:51:30Z</time>
      </trkpt>
      <trkpt lat="45.07711" lon="6.0288">
        <ele>744</ele>
        <time>2016-05-15T06:51:31Z</time>
      </trkpt>
      <trkpt lat="45.07702" lon="6.02882">
        <ele>742</ele>
        <time>2016-05-15T06:51:32Z</time>
      </trkpt>
      <trkpt lat="45.07693" lon="6.02885">
        <ele>742</ele>
        <time>2016-05-15T06:51:33Z</time>
      </trkpt>
      <trkpt lat="45.07684" lon="6.02888">
        <ele>742</ele>
        <time>2016-05-15T06:51:34Z</time>
      </trkpt>
      <trkpt lat="45.07668" lon="6.02896">
        <ele>742</ele>
        <time>2016-05-15T06:51:36Z</time>
      </trkpt>
      <trkpt lat="45.07654" lon="6.02908">
        <ele>739</ele>
        <time>2016-05-15T06:51:38Z</time>
      </trkpt>
      <trkpt lat="45.07642" lon="6.02922">
        <ele>739</ele>
        <time>2016-05-15T06:51:40Z</time>
      </trkpt>
      <trkpt lat="45.07631" lon="6.02936">
        <ele>738</ele>
        <time>2016-05-15T06:51:42Z</time>
      </trkpt>
      <trkpt lat="45.07621" lon="6.02948">
        <ele>738</ele>
        <time>2016-05-15T06:51:44Z</time>
      </trkpt>
      <trkpt lat="45.07613" lon="6.02962">
        <ele>738</ele>
        <time>2016-05-15T06:51:46Z</time>
      </trkpt>
      <trkpt lat="45.07608" lon="6.02978">
        <ele>738</ele>
        <time>2016-05-15T06:51:48Z</time>
      </trkpt>
      <trkpt lat="45.07604" lon="6.02994">
        <ele>738</ele>
        <time>2016-05-15T06:51:50Z</time>
      </trkpt>
      <trkpt lat="45.076" lon="6.03011">
        <ele>740</ele>
        <time>2016-05-15T06:51:52Z</time>
      </trkpt>
      <trkpt lat="45.07596" lon="6.03029">
        <ele>740</ele>
        <time>2016-05-15T06:51:54Z</time>
      </trkpt>
      <trkpt lat="45.07593" lon="6.03046">
        <ele>742</ele>
        <time>2016-05-15T06:51:56Z</time>
      </trkpt>
      <trkpt lat="45.07589" lon="6.03061">
        <ele>742</ele>
        <time>2016-05-15T06:51:58Z</time>
      </trkpt>
      <trkpt lat="45.07584" lon="6.03075">
        <ele>742</ele>
        <time>2016-05-15T06:52:00Z</time>
      </trkpt>
      <trkpt lat="45.0758" lon="6.0309">
        <ele>742</ele>
        <time>2016-05-15T06:52:02Z</time>
      </trkpt>
      <trkpt lat="45.07577" lon="6.03105">
        <ele>742</ele>
        <time>2016-05-15T06:52:04Z</time>
      </trkpt>
      <trkpt lat="45.07575" lon="6.0312">
        <ele>742</ele>
        <time>2016-05-15T06:52:06Z</time>
      </trkpt>
      <trkpt lat="45.07572" lon="6.03133">
        <ele>742</ele>
        <time>2016-05-15T06:52:08Z</time>
      </trkpt>
      <trkpt lat="45.07565" lon="6.03147">
        <ele>742</ele>
        <time>2016-05-15T06:52:10Z</time>
      </trkpt>
      <trkpt lat="45.07558" lon="6.03162">
        <ele>742</ele>
        <time>2016-05-15T06:52:12Z</time>
      </trkpt>
      <trkpt lat="45.07549" lon="6.03175">
        <ele>742</ele>
        <time>2016-05-15T06:52:14Z</time>
      </trkpt>
      <trkpt lat="45.07539" lon="6.03189">
        <ele>740</ele>
        <time>2016-05-15T06:52:16Z</time>
      </trkpt>
      <trkpt lat="45.07529" lon="6.03205">
        <ele>740</ele>
        <time>2016-05-15T06:52:18Z</time>
      </trkpt>
      <trkpt lat="45.07519" lon="6.03221">
        <ele>740</ele>
        <time>2016-05-15T06:52:20Z</time>
      </trkpt>
      <trkpt lat="45.07509" lon="6.03235">
        <ele>740</ele>
        <time>2016-05-15T06:52:22Z</time>
      </trkpt>
      <trkpt lat="45.07499" lon="6.03249">
        <ele>740</ele>
        <time>2016-05-15T06:52:24Z</time>
      </trkpt>
      <trkpt lat="45.07488" lon="6.03263">
        <ele>739</ele>
        <time>2016-05-15T06:52:26Z</time>
      </trkpt>
      <trkpt lat="45.07477" lon="6.03275">
        <ele>739</ele>
        <time>2016-05-15T06:52:28Z</time>
      </trkpt>
      <trkpt lat="45.07467" lon="6.03287">
        <ele>739</ele>
        <time>2016-05-15T06:52:30Z</time>
      </trkpt>
      <trkpt lat="45.07458" lon="6.03298">
        <ele>739</ele>
        <time>2016-05-15T06:52:32Z</time>
      </trkpt>
      <trkpt lat="45.0745" lon="6.03309">
        <ele>739</ele>
        <time>2016-05-15T06:52:34Z</time>
      </trkpt>
      <trkpt lat="45.07442" lon="6.03319">
        <ele>742</ele>
        <time>2016-05-15T06:52:36Z</time>
      </trkpt>
      <trkpt lat="45.07435" lon="6.03331">
        <ele>742</ele>
        <time>2016-05-15T06:52:38Z</time>
      </trkpt>
      <trkpt lat="45.07427" lon="6.03342">
        <ele>742</ele>
        <time>2016-05-15T06:52:40Z</time>
      </trkpt>
      <trkpt lat="45.07419" lon="6.03351">
        <ele>742</ele>
        <time>2016-05-15T06:52:42Z</time>
      </trkpt>
      <trkpt lat="45.07407" lon="6.03366">
        <ele>743</ele>
        <time>2016-05-15T06:52:45Z</time>
      </trkpt>
      <trkpt lat="45.07399" lon="6.03374">
        <ele>743</ele>
        <time>2016-05-15T06:52:47Z</time>
      </trkpt>
      <trkpt lat="45.07388" lon="6.03383">
        <ele>743</ele>
        <time>2016-05-15T06:52:49Z</time>
      </trkpt>
      <trkpt lat="45.07377" lon="6.03392">
        <ele>743</ele>
        <time>2016-05-15T06:52:51Z</time>
      </trkpt>
      <trkpt lat="45.07365" lon="6.03407">
        <ele>743</ele>
        <time>2016-05-15T06:52:53Z</time>
      </trkpt>
      <trkpt lat="45.07353" lon="6.03423">
        <ele>743</ele>
        <time>2016-05-15T06:52:55Z</time>
      </trkpt>
      <trkpt lat="45.07341" lon="6.03439">
        <ele>743</ele>
        <time>2016-05-15T06:52:57Z</time>
      </trkpt>
      <trkpt lat="45.07335" lon="6.03447">
        <ele>741</ele>
        <time>2016-05-15T06:52:58Z</time>
      </trkpt>
      <trkpt lat="45.07329" lon="6.03455">
        <ele>741</ele>
        <time>2016-05-15T06:52:59Z</time>
      </trkpt>
      <trkpt lat="45.07322" lon="6.03463">
        <ele>741</ele>
        <time>2016-05-15T06:53:00Z</time>
      </trkpt>
      <trkpt lat="45.07316" lon="6.03471">
        <ele>738</ele>
        <time>2016-05-15T06:53:01Z</time>
      </trkpt>
      <trkpt lat="45.0731" lon="6.03478">
        <ele>738</ele>
        <time>2016-05-15T06:53:02Z</time>
      </trkpt>
      <trkpt lat="45.07297" lon="6.03493">
        <ele>738</ele>
        <time>2016-05-15T06:53:04Z</time>
      </trkpt>
      <trkpt lat="45.07291" lon="6.035">
        <ele>738</ele>
        <time>2016-05-15T06:53:05Z</time>
      </trkpt>
      <trkpt lat="45.07285" lon="6.03507">
        <ele>738</ele>
        <time>2016-05-15T06:53:06Z</time>
      </trkpt>
      <trkpt lat="45.07279" lon="6.03513">
        <ele>738</ele>
        <time>2016-05-15T06:53:07Z</time>
      </trkpt>
      <trkpt lat="45.07273" lon="6.0352">
        <ele>738</ele>
        <time>2016-05-15T06:53:08Z</time>
      </trkpt>
      <trkpt lat="45.07267" lon="6.03527">
        <ele>738</ele>
        <time>2016-05-15T06:53:09Z</time>
      </trkpt>
      <trkpt lat="45.07261" lon="6.03533">
        <ele>739</ele>
        <time>2016-05-15T06:53:10Z</time>
      </trkpt>
      <trkpt lat="45.07254" lon="6.03538">
        <ele>739</ele>
        <time>2016-05-15T06:53:11Z</time>
      </trkpt>
      <trkpt lat="45.07247" lon="6.03543">
        <ele>739</ele>
        <time>2016-05-15T06:53:12Z</time>
      </trkpt>
      <trkpt lat="45.0724" lon="6.03547">
        <ele>739</ele>
        <time>2016-05-15T06:53:13Z</time>
      </trkpt>
      <trkpt lat="45.07233" lon="6.0355">
        <ele>739</ele>
        <time>2016-05-15T06:53:14Z</time>
      </trkpt>
      <trkpt lat="45.07225" lon="6.03553">
        <ele>739</ele>
        <time>2016-05-15T06:53:15Z</time>
      </trkpt>
      <trkpt lat="45.07218" lon="6.03554">
        <ele>739</ele>
        <time>2016-05-15T06:53:16Z</time>
      </trkpt>
      <trkpt lat="45.0721" lon="6.03555">
        <ele>739</ele>
        <time>2016-05-15T06:53:17Z</time>
      </trkpt>
      <trkpt lat="45.07203" lon="6.03555">
        <ele>739</ele>
        <time>2016-05-15T06:53:18Z</time>
      </trkpt>
      <trkpt lat="45.07195" lon="6.03555">
        <ele>739</ele>
        <time>2016-05-15T06:53:19Z</time>
      </trkpt>
      <trkpt lat="45.07187" lon="6.03555">
        <ele>739</ele>
        <time>2016-05-15T06:53:20Z</time>
      </trkpt>
      <trkpt lat="45.07179" lon="6.03555">
        <ele>738</ele>
        <time>2016-05-15T06:53:21Z</time>
      </trkpt>
      <trkpt lat="45.07171" lon="6.03556">
        <ele>738</ele>
        <time>2016-05-15T06:53:22Z</time>
      </trkpt>
      <trkpt lat="45.07163" lon="6.03557">
        <ele>738</ele>
        <time>2016-05-15T06:53:23Z</time>
      </trkpt>
      <trkpt lat="45.07155" lon="6.03559">
        <ele>738</ele>
        <time>2016-05-15T06:53:24Z</time>
      </trkpt>
      <trkpt lat="45.07147" lon="6.03563">
        <ele>738</ele>
        <time>2016-05-15T06:53:25Z</time>
      </trkpt>
      <trkpt lat="45.07139" lon="6.03567">
        <ele>738</ele>
        <time>2016-05-15T06:53:26Z</time>
      </trkpt>
      <trkpt lat="45.07131" lon="6.03571">
        <ele>738</ele>
        <time>2016-05-15T06:53:27Z</time>
      </trkpt>
      <trkpt lat="45.07123" lon="6.03576">
        <ele>738</ele>
        <time>2016-05-15T06:53:28Z</time>
      </trkpt>
      <trkpt lat="45.07116" lon="6.03582">
        <ele>738</ele>
        <time>2016-05-15T06:53:29Z</time>
      </trkpt>
      <trkpt lat="45.07108" lon="6.03587">
        <ele>738</ele>
        <time>2016-05-15T06:53:30Z</time>
      </trkpt>
      <trkpt lat="45.07101" lon="6.03593">
        <ele>737</ele>
        <time>2016-05-15T06:53:31Z</time>
      </trkpt>
      <trkpt lat="45.07093" lon="6.03598">
        <ele>737</ele>
        <time>2016-05-15T06:53:32Z</time>
      </trkpt>
      <trkpt lat="45.07086" lon="6.03603">
        <ele>737</ele>
        <time>2016-05-15T06:53:33Z</time>
      </trkpt>
      <trkpt lat="45.07079" lon="6.03608">
        <ele>737</ele>
        <time>2016-05-15T06:53:34Z</time>
      </trkpt>
      <trkpt lat="45.07072" lon="6.03614">
        <ele>737</ele>
        <time>2016-05-15T06:53:35Z</time>
      </trkpt>
      <trkpt lat="45.07065" lon="6.03618">
        <ele>737</ele>
        <time>2016-05-15T06:53:36Z</time>
      </trkpt>
      <trkpt lat="45.07057" lon="6.03624">
        <ele>737</ele>
        <time>2016-05-15T06:53:37Z</time>
      </trkpt>
      <trkpt lat="45.0705" lon="6.03628">
        <ele>737</ele>
        <time>2016-05-15T06:53:38Z</time>
      </trkpt>
      <trkpt lat="45.07043" lon="6.03633">
        <ele>737</ele>
        <time>2016-05-15T06:53:39Z</time>
      </trkpt>
      <trkpt lat="45.07036" lon="6.03638">
        <ele>737</ele>
        <time>2016-05-15T06:53:40Z</time>
      </trkpt>
      <trkpt lat="45.07029" lon="6.03642">
        <ele>737</ele>
        <time>2016-05-15T06:53:41Z</time>
      </trkpt>
      <trkpt lat="45.07022" lon="6.03646">
        <ele>737</ele>
        <time>2016-05-15T06:53:42Z</time>
      </trkpt>
      <trkpt lat="45.07015" lon="6.0365">
        <ele>737</ele>
        <time>2016-05-15T06:53:43Z</time>
      </trkpt>
      <trkpt lat="45.07008" lon="6.03654">
        <ele>737</ele>
        <time>2016-05-15T06:53:44Z</time>
      </trkpt>
      <trkpt lat="45.07" lon="6.03657">
        <ele>737</ele>
        <time>2016-05-15T06:53:45Z</time>
      </trkpt>
      <trkpt lat="45.06993" lon="6.0366">
        <ele>737</ele>
        <time>2016-05-15T06:53:46Z</time>
      </trkpt>
      <trkpt lat="45.06985" lon="6.03663">
        <ele>737</ele>
        <time>2016-05-15T06:53:47Z</time>
      </trkpt>
      <trkpt lat="45.06978" lon="6.03665">
        <ele>737</ele>
        <time>2016-05-15T06:53:48Z</time>
      </trkpt>
      <trkpt lat="45.0697" lon="6.03668">
        <ele>737</ele>
        <time>2016-05-15T06:53:49Z</time>
      </trkpt>
      <trkpt lat="45.06963" lon="6.0367">
        <ele>737</ele>
        <time>2016-05-15T06:53:50Z</time>
      </trkpt>
      <trkpt lat="45.06955" lon="6.03671">
        <ele>737</ele>
        <time>2016-05-15T06:53:51Z</time>
      </trkpt>
      <trkpt lat="45.06947" lon="6.03673">
        <ele>737</ele>
        <time>2016-05-15T06:53:52Z</time>
      </trkpt>
      <trkpt lat="45.06932" lon="6.03677">
        <ele>737</ele>
        <time>2016-05-15T06:53:54Z</time>
      </trkpt>
      <trkpt lat="45.06917" lon="6.0368">
        <ele>737</ele>
        <time>2016-05-15T06:53:56Z</time>
      </trkpt>
      <trkpt lat="45.06901" lon="6.03682">
        <ele>737</ele>
        <time>2016-05-15T06:53:58Z</time>
      </trkpt>
      <trkpt lat="45.06886" lon="6.03686">
        <ele>736</ele>
        <time>2016-05-15T06:54:00Z</time>
      </trkpt>
      <trkpt lat="45.06871" lon="6.03689">
        <ele>736</ele>
        <time>2016-05-15T06:54:02Z</time>
      </trkpt>
      <trkpt lat="45.06863" lon="6.0369">
        <ele>736</ele>
        <time>2016-05-15T06:54:03Z</time>
      </trkpt>
      <trkpt lat="45.06855" lon="6.03691">
        <ele>736</ele>
        <time>2016-05-15T06:54:04Z</time>
      </trkpt>
      <trkpt lat="45.06848" lon="6.03693">
        <ele>736</ele>
        <time>2016-05-15T06:54:05Z</time>
      </trkpt>
      <trkpt lat="45.0684" lon="6.03694">
        <ele>736</ele>
        <time>2016-05-15T06:54:06Z</time>
      </trkpt>
      <trkpt lat="45.06833" lon="6.03696">
        <ele>736</ele>
        <time>2016-05-15T06:54:07Z</time>
      </trkpt>
      <trkpt lat="45.06825" lon="6.03697">
        <ele>736</ele>
        <time>2016-05-15T06:54:08Z</time>
      </trkpt>
      <trkpt lat="45.06818" lon="6.03699">
        <ele>736</ele>
        <time>2016-05-15T06:54:09Z</time>
      </trkpt>
      <trkpt lat="45.06811" lon="6.037">
        <ele>737</ele>
        <time>2016-05-15T06:54:10Z</time>
      </trkpt>
      <trkpt lat="45.06803" lon="6.03702">
        <ele>737</ele>
        <time>2016-05-15T06:54:11Z</time>
      </trkpt>
      <trkpt lat="45.06796" lon="6.03703">
        <ele>737</ele>
        <time>2016-05-15T06:54:12Z</time>
      </trkpt>
      <trkpt lat="45.06789" lon="6.03705">
        <ele>737</ele>
        <time>2016-05-15T06:54:13Z</time>
      </trkpt>
      <trkpt lat="45.06781" lon="6.03706">
        <ele>737</ele>
        <time>2016-05-15T06:54:14Z</time>
      </trkpt>
      <trkpt lat="45.06774" lon="6.03708">
        <ele>737</ele>
        <time>2016-05-15T06:54:15Z</time>
      </trkpt>
      <trkpt lat="45.06767" lon="6.03709">
        <ele>737</ele>
        <time>2016-05-15T06:54:16Z</time>
      </trkpt>
      <trkpt lat="45.0676" lon="6.03711">
        <ele>737</ele>
        <time>2016-05-15T06:54:17Z</time>
      </trkpt>
      <trkpt lat="45.06754" lon="6.03715">
        <ele>737</ele>
        <time>2016-05-15T06:54:18Z</time>
      </trkpt>
      <trkpt lat="45.06748" lon="6.03721">
        <ele>737</ele>
        <time>2016-05-15T06:54:19Z</time>
      </trkpt>
      <trkpt lat="45.06744" lon="6.0373">
        <ele>738</ele>
        <time>2016-05-15T06:54:20Z</time>
      </trkpt>
      <trkpt lat="45.06743" lon="6.03751">
        <ele>738</ele>
        <time>2016-05-15T06:54:22Z</time>
      </trkpt>
      <trkpt lat="45.06744" lon="6.03761">
        <ele>738</ele>
        <time>2016-05-15T06:54:23Z</time>
      </trkpt>
      <trkpt lat="45.06746" lon="6.03779">
        <ele>738</ele>
        <time>2016-05-15T06:54:25Z</time>
      </trkpt>
      <trkpt lat="45.0675" lon="6.03796">
        <ele>738</ele>
        <time>2016-05-15T06:54:27Z</time>
      </trkpt>
      <trkpt lat="45.06753" lon="6.03815">
        <ele>738</ele>
        <time>2016-05-15T06:54:29Z</time>
      </trkpt>
      <trkpt lat="45.06752" lon="6.03836">
        <ele>739</ele>
        <time>2016-05-15T06:54:31Z</time>
      </trkpt>
      <trkpt lat="45.06745" lon="6.03853">
        <ele>739</ele>
        <time>2016-05-15T06:54:33Z</time>
      </trkpt>
      <trkpt lat="45.06738" lon="6.03865">
        <ele>739</ele>
        <time>2016-05-15T06:54:35Z</time>
      </trkpt>
      <trkpt lat="45.06731" lon="6.03875">
        <ele>739</ele>
        <time>2016-05-15T06:54:37Z</time>
      </trkpt>
      <trkpt lat="45.06722" lon="6.03885">
        <ele>739</ele>
        <time>2016-05-15T06:54:39Z</time>
      </trkpt>
      <trkpt lat="45.06709" lon="6.03893">
        <ele>739</ele>
        <time>2016-05-15T06:54:41Z</time>
      </trkpt>
      <trkpt lat="45.06694" lon="6.039">
        <ele>739</ele>
        <time>2016-05-15T06:54:43Z</time>
      </trkpt>
      <trkpt lat="45.06681" lon="6.03905">
        <ele>739</ele>
        <time>2016-05-15T06:54:45Z</time>
      </trkpt>
      <trkpt lat="45.06667" lon="6.0391">
        <ele>739</ele>
        <time>2016-05-15T06:54:47Z</time>
      </trkpt>
      <trkpt lat="45.06654" lon="6.03916">
        <ele>739</ele>
        <time>2016-05-15T06:54:49Z</time>
      </trkpt>
      <trkpt lat="45.06641" lon="6.03923">
        <ele>740</ele>
        <time>2016-05-15T06:54:51Z</time>
      </trkpt>
      <trkpt lat="45.06628" lon="6.0393">
        <ele>740</ele>
        <time>2016-05-15T06:54:53Z</time>
      </trkpt>
      <trkpt lat="45.06616" lon="6.03938">
        <ele>740</ele>
        <time>2016-05-15T06:54:55Z</time>
      </trkpt>
      <trkpt lat="45.06603" lon="6.03946">
        <ele>740</ele>
        <time>2016-05-15T06:54:57Z</time>
      </trkpt>
      <trkpt lat="45.06591" lon="6.03954">
        <ele>740</ele>
        <time>2016-05-15T06:54:59Z</time>
      </trkpt>
      <trkpt lat="45.06579" lon="6.03962">
        <ele>740</ele>
        <time>2016-05-15T06:55:01Z</time>
      </trkpt>
      <trkpt lat="45.06567" lon="6.03968">
        <ele>740</ele>
        <time>2016-05-15T06:55:03Z</time>
      </trkpt>
      <trkpt lat="45.06555" lon="6.03974">
        <ele>740</ele>
        <time>2016-05-15T06:55:05Z</time>
      </trkpt>
      <trkpt lat="45.06543" lon="6.0398">
        <ele>740</ele>
        <time>2016-05-15T06:55:07Z</time>
      </trkpt>
      <trkpt lat="45.06537" lon="6.03984">
        <ele>740</ele>
        <time>2016-05-15T06:55:08Z</time>
      </trkpt>
      <trkpt lat="45.06531" lon="6.03987">
        <ele>740</ele>
        <time>2016-05-15T06:55:09Z</time>
      </trkpt>
      <trkpt lat="45.06525" lon="6.03989">
        <ele>742</ele>
        <time>2016-05-15T06:55:10Z</time>
      </trkpt>
      <trkpt lat="45.06519" lon="6.03991">
        <ele>742</ele>
        <time>2016-05-15T06:55:11Z</time>
      </trkpt>
      <trkpt lat="45.06514" lon="6.03992">
        <ele>742</ele>
        <time>2016-05-15T06:55:12Z</time>
      </trkpt>
      <trkpt lat="45.0651" lon="6.03993">
        <ele>742</ele>
        <time>2016-05-15T06:55:13Z</time>
      </trkpt>
      <trkpt lat="45.06504" lon="6.03992">
        <ele>742</ele>
        <time>2016-05-15T06:55:14Z</time>
      </trkpt>
      <trkpt lat="45.065" lon="6.03991">
        <ele>742</ele>
        <time>2016-05-15T06:55:15Z</time>
      </trkpt>
      <trkpt lat="45.06495" lon="6.03988">
        <ele>742</ele>
        <time>2016-05-15T06:55:16Z</time>
      </trkpt>
      <trkpt lat="45.06485" lon="6.03976">
        <ele>742</ele>
        <time>2016-05-15T06:55:19Z</time>
      </trkpt>
      <trkpt lat="45.06477" lon="6.03967">
        <ele>742</ele>
        <time>2016-05-15T06:55:21Z</time>
      </trkpt>
      <trkpt lat="45.06469" lon="6.03956">
        <ele>744</ele>
        <time>2016-05-15T06:55:23Z</time>
      </trkpt>
      <trkpt lat="45.0646" lon="6.03943">
        <ele>744</ele>
        <time>2016-05-15T06:55:25Z</time>
      </trkpt>
      <trkpt lat="45.06451" lon="6.0393">
        <ele>744</ele>
        <time>2016-05-15T06:55:27Z</time>
      </trkpt>
      <trkpt lat="45.06441" lon="6.03917">
        <ele>744</ele>
        <time>2016-05-15T06:55:29Z</time>
      </trkpt>
      <trkpt lat="45.06437" lon="6.0391">
        <ele>744</ele>
        <time>2016-05-15T06:55:30Z</time>
      </trkpt>
      <trkpt lat="45.06428" lon="6.03896">
        <ele>744</ele>
        <time>2016-05-15T06:55:32Z</time>
      </trkpt>
      <trkpt lat="45.06423" lon="6.03889">
        <ele>743</ele>
        <time>2016-05-15T06:55:33Z</time>
      </trkpt>
      <trkpt lat="45.06412" lon="6.03875">
        <ele>743</ele>
        <time>2016-05-15T06:55:35Z</time>
      </trkpt>
      <trkpt lat="45.06402" lon="6.0386">
        <ele>743</ele>
        <time>2016-05-15T06:55:37Z</time>
      </trkpt>
      <trkpt lat="45.06396" lon="6.03851">
        <ele>743</ele>
        <time>2016-05-15T06:55:38Z</time>
      </trkpt>
      <trkpt lat="45.0639" lon="6.03843">
        <ele>743</ele>
        <time>2016-05-15T06:55:39Z</time>
      </trkpt>
      <trkpt lat="45.06378" lon="6.03827">
        <ele>743</ele>
        <time>2016-05-15T06:55:41Z</time>
      </trkpt>
      <trkpt lat="45.06373" lon="6.03818">
        <ele>741</ele>
        <time>2016-05-15T06:55:42Z</time>
      </trkpt>
      <trkpt lat="45.06366" lon="6.03809">
        <ele>741</ele>
        <time>2016-05-15T06:55:43Z</time>
      </trkpt>
      <trkpt lat="45.0636" lon="6.038">
        <ele>741</ele>
        <time>2016-05-15T06:55:44Z</time>
      </trkpt>
      <trkpt lat="45.06354" lon="6.03791">
        <ele>740</ele>
        <time>2016-05-15T06:55:45Z</time>
      </trkpt>
      <trkpt lat="45.06348" lon="6.03782">
        <ele>740</ele>
        <time>2016-05-15T06:55:46Z</time>
      </trkpt>
      <trkpt lat="45.06341" lon="6.03773">
        <ele>740</ele>
        <time>2016-05-15T06:55:47Z</time>
      </trkpt>
      <trkpt lat="45.06335" lon="6.03764">
        <ele>740</ele>
        <time>2016-05-15T06:55:48Z</time>
      </trkpt>
      <trkpt lat="45.06323" lon="6.03746">
        <ele>738</ele>
        <time>2016-05-15T06:55:50Z</time>
      </trkpt>
      <trkpt lat="45.0631" lon="6.03728">
        <ele>738</ele>
        <time>2016-05-15T06:55:52Z</time>
      </trkpt>
      <trkpt lat="45.06303" lon="6.0372">
        <ele>738</ele>
        <time>2016-05-15T06:55:53Z</time>
      </trkpt>
      <trkpt lat="45.06296" lon="6.03713">
        <ele>738</ele>
        <time>2016-05-15T06:55:54Z</time>
      </trkpt>
      <trkpt lat="45.06288" lon="6.03706">
        <ele>737</ele>
        <time>2016-05-15T06:55:55Z</time>
      </trkpt>
      <trkpt lat="45.0628" lon="6.03701">
        <ele>737</ele>
        <time>2016-05-15T06:55:56Z</time>
      </trkpt>
      <trkpt lat="45.06272" lon="6.03696">
        <ele>737</ele>
        <time>2016-05-15T06:55:57Z</time>
      </trkpt>
      <trkpt lat="45.06264" lon="6.03693">
        <ele>737</ele>
        <time>2016-05-15T06:55:58Z</time>
      </trkpt>
      <trkpt lat="45.06255" lon="6.03691">
        <ele>737</ele>
        <time>2016-05-15T06:55:59Z</time>
      </trkpt>
      <trkpt lat="45.06246" lon="6.03691">
        <ele>737</ele>
        <time>2016-05-15T06:56:00Z</time>
      </trkpt>
      <trkpt lat="45.06237" lon="6.03692">
        <ele>738</ele>
        <time>2016-05-15T06:56:01Z</time>
      </trkpt>
      <trkpt lat="45.06228" lon="6.03694">
        <ele>738</ele>
        <time>2016-05-15T06:56:02Z</time>
      </trkpt>
      <trkpt lat="45.0622" lon="6.03697">
        <ele>738</ele>
        <time>2016-05-15T06:56:03Z</time>
      </trkpt>
      <trkpt lat="45.06212" lon="6.03701">
        <ele>738</ele>
        <time>2016-05-15T06:56:04Z</time>
      </trkpt>
      <trkpt lat="45.06203" lon="6.03706">
        <ele>738</ele>
        <time>2016-05-15T06:56:05Z</time>
      </trkpt>
      <trkpt lat="45.06195" lon="6.0371">
        <ele>738</ele>
        <time>2016-05-15T06:56:06Z</time>
      </trkpt>
      <trkpt lat="45.06187" lon="6.03714">
        <ele>738</ele>
        <time>2016-05-15T06:56:07Z</time>
      </trkpt>
      <trkpt lat="45.06179" lon="6.03719">
        <ele>738</ele>
        <time>2016-05-15T06:56:08Z</time>
      </trkpt>
      <trkpt lat="45.06171" lon="6.03723">
        <ele>738</ele>
        <time>2016-05-15T06:56:09Z</time>
      </trkpt>
      <trkpt lat="45.06163" lon="6.03727">
        <ele>738</ele>
        <time>2016-05-15T06:56:10Z</time>
      </trkpt>
      <trkpt lat="45.06155" lon="6.03731">
        <ele>738</ele>
        <time>2016-05-15T06:56:11Z</time>
      </trkpt>
      <trkpt lat="45.06147" lon="6.03734">
        <ele>738</ele>
        <time>2016-05-15T06:56:12Z</time>
      </trkpt>
      <trkpt lat="45.06132" lon="6.03739">
        <ele>738</ele>
        <time>2016-05-15T06:56:14Z</time>
      </trkpt>
      <trkpt lat="45.06124" lon="6.0374">
        <ele>738</ele>
        <time>2016-05-15T06:56:15Z</time>
      </trkpt>
      <trkpt lat="45.06117" lon="6.03742">
        <ele>738</ele>
        <time>2016-05-15T06:56:16Z</time>
      </trkpt>
      <trkpt lat="45.06109" lon="6.03743">
        <ele>738</ele>
        <time>2016-05-15T06:56:17Z</time>
      </trkpt>
      <trkpt lat="45.06102" lon="6.03745">
        <ele>738</ele>
        <time>2016-05-15T06:56:18Z</time>
      </trkpt>
      <trkpt lat="45.06094" lon="6.03747">
        <ele>738</ele>
        <time>2016-05-15T06:56:19Z</time>
      </trkpt>
      <trkpt lat="45.06087" lon="6.03749">
        <ele>738</ele>
        <time>2016-05-15T06:56:20Z</time>
      </trkpt>
      <trkpt lat="45.0608" lon="6.03752">
        <ele>737</ele>
        <time>2016-05-15T06:56:21Z</time>
      </trkpt>
      <trkpt lat="45.06072" lon="6.03753">
        <ele>737</ele>
        <time>2016-05-15T06:56:22Z</time>
      </trkpt>
      <trkpt lat="45.06065" lon="6.03755">
        <ele>737</ele>
        <time>2016-05-15T06:56:23Z</time>
      </trkpt>
      <trkpt lat="45.06058" lon="6.03757">
        <ele>737</ele>
        <time>2016-05-15T06:56:24Z</time>
      </trkpt>
      <trkpt lat="45.06051" lon="6.0376">
        <ele>737</ele>
        <time>2016-05-15T06:56:25Z</time>
      </trkpt>
      <trkpt lat="45.06037" lon="6.03763">
        <ele>737</ele>
        <time>2016-05-15T06:56:27Z</time>
      </trkpt>
      <trkpt lat="45.0603" lon="6.03765">
        <ele>737</ele>
        <time>2016-05-15T06:56:28Z</time>
      </trkpt>
      <trkpt lat="45.06023" lon="6.03766">
        <ele>737</ele>
        <time>2016-05-15T06:56:29Z</time>
      </trkpt>
      <trkpt lat="45.06017" lon="6.03768">
        <ele>737</ele>
        <time>2016-05-15T06:56:30Z</time>
      </trkpt>
      <trkpt lat="45.06004" lon="6.0377">
        <ele>739</ele>
        <time>2016-05-15T06:56:32Z</time>
      </trkpt>
      <trkpt lat="45.05998" lon="6.03771">
        <ele>739</ele>
        <time>2016-05-15T06:56:33Z</time>
      </trkpt>
      <trkpt lat="45.05986" lon="6.03772">
        <ele>739</ele>
        <time>2016-05-15T06:56:35Z</time>
      </trkpt>
      <trkpt lat="45.05974" lon="6.03773">
        <ele>739</ele>
        <time>2016-05-15T06:56:37Z</time>
      </trkpt>
      <trkpt lat="45.05969" lon="6.03772">
        <ele>739</ele>
        <time>2016-05-15T06:56:38Z</time>
      </trkpt>
      <trkpt lat="45.05963" lon="6.03772">
        <ele>739</ele>
        <time>2016-05-15T06:56:39Z</time>
      </trkpt>
      <trkpt lat="45.05957" lon="6.03772">
        <ele>739</ele>
        <time>2016-05-15T06:56:40Z</time>
      </trkpt>
      <trkpt lat="45.05952" lon="6.03771">
        <ele>742</ele>
        <time>2016-05-15T06:56:41Z</time>
      </trkpt>
      <trkpt lat="45.05946" lon="6.03769">
        <ele>742</ele>
        <time>2016-05-15T06:56:42Z</time>
      </trkpt>
      <trkpt lat="45.05937" lon="6.03764">
        <ele>742</ele>
        <time>2016-05-15T06:56:44Z</time>
      </trkpt>
      <trkpt lat="45.05932" lon="6.03762">
        <ele>742</ele>
        <time>2016-05-15T06:56:45Z</time>
      </trkpt>
      <trkpt lat="45.05921" lon="6.03756">
        <ele>742</ele>
        <time>2016-05-15T06:56:47Z</time>
      </trkpt>
      <trkpt lat="45.05916" lon="6.03754">
        <ele>744</ele>
        <time>2016-05-15T06:56:48Z</time>
      </trkpt>
      <trkpt lat="45.05911" lon="6.03751">
        <ele>744</ele>
        <time>2016-05-15T06:56:49Z</time>
      </trkpt>
      <trkpt lat="45.05907" lon="6.03748">
        <ele>744</ele>
        <time>2016-05-15T06:56:50Z</time>
      </trkpt>
      <trkpt lat="45.05901" lon="6.03745">
        <ele>744</ele>
        <time>2016-05-15T06:56:51Z</time>
      </trkpt>
      <trkpt lat="45.05897" lon="6.0374">
        <ele>744</ele>
        <time>2016-05-15T06:56:52Z</time>
      </trkpt>
      <trkpt lat="45.05893" lon="6.03736">
        <ele>744</ele>
        <time>2016-05-15T06:56:53Z</time>
      </trkpt>
      <trkpt lat="45.05888" lon="6.03731">
        <ele>744</ele>
        <time>2016-05-15T06:56:54Z</time>
      </trkpt>
      <trkpt lat="45.05884" lon="6.03725">
        <ele>744</ele>
        <time>2016-05-15T06:56:55Z</time>
      </trkpt>
      <trkpt lat="45.0588" lon="6.03719">
        <ele>744</ele>
        <time>2016-05-15T06:56:56Z</time>
      </trkpt>
      <trkpt lat="45.05876" lon="6.03713">
        <ele>744</ele>
        <time>2016-05-15T06:56:57Z</time>
      </trkpt>
      <trkpt lat="45.05872" lon="6.03708">
        <ele>744</ele>
        <time>2016-05-15T06:56:58Z</time>
      </trkpt>
      <trkpt lat="45.05868" lon="6.03702">
        <ele>744</ele>
        <time>2016-05-15T06:56:59Z</time>
      </trkpt>
      <trkpt lat="45.05864" lon="6.03697">
        <ele>744</ele>
        <time>2016-05-15T06:57:00Z</time>
      </trkpt>
      <trkpt lat="45.0586" lon="6.03691">
        <ele>744</ele>
        <time>2016-05-15T06:57:01Z</time>
      </trkpt>
      <trkpt lat="45.05857" lon="6.03685">
        <ele>744</ele>
        <time>2016-05-15T06:57:02Z</time>
      </trkpt>
      <trkpt lat="45.05853" lon="6.03679">
        <ele>744</ele>
        <time>2016-05-15T06:57:03Z</time>
      </trkpt>
      <trkpt lat="45.05849" lon="6.03673">
        <ele>744</ele>
        <time>2016-05-15T06:57:04Z</time>
      </trkpt>
      <trkpt lat="45.05845" lon="6.03667">
        <ele>744</ele>
        <time>2016-05-15T06:57:05Z</time>
      </trkpt>
      <trkpt lat="45.05841" lon="6.03661">
        <ele>744</ele>
        <time>2016-05-15T06:57:06Z</time>
      </trkpt>
      <trkpt lat="45.05837" lon="6.03654">
        <ele>744</ele>
        <time>2016-05-15T06:57:07Z</time>
      </trkpt>
      <trkpt lat="45.05833" lon="6.03648">
        <ele>744</ele>
        <time>2016-05-15T06:57:08Z</time>
      </trkpt>
      <trkpt lat="45.05829" lon="6.03641">
        <ele>744</ele>
        <time>2016-05-15T06:57:09Z</time>
      </trkpt>
      <trkpt lat="45.05824" lon="6.03634">
        <ele>744</ele>
        <time>2016-05-15T06:57:10Z</time>
      </trkpt>
      <trkpt lat="45.0582" lon="6.03628">
        <ele>744</ele>
        <time>2016-05-15T06:57:11Z</time>
      </trkpt>
      <trkpt lat="45.05815" lon="6.03621">
        <ele>744</ele>
        <time>2016-05-15T06:57:12Z</time>
      </trkpt>
      <trkpt lat="45.05809" lon="6.03613">
        <ele>744</ele>
        <time>2016-05-15T06:57:13Z</time>
      </trkpt>
      <trkpt lat="45.05805" lon="6.03606">
        <ele>744</ele>
        <time>2016-05-15T06:57:14Z</time>
      </trkpt>
      <trkpt lat="45.058" lon="6.03599">
        <ele>744</ele>
        <time>2016-05-15T06:57:15Z</time>
      </trkpt>
      <trkpt lat="45.05794" lon="6.03592">
        <ele>744</ele>
        <time>2016-05-15T06:57:16Z</time>
      </trkpt>
      <trkpt lat="45.05788" lon="6.03586">
        <ele>744</ele>
        <time>2016-05-15T06:57:17Z</time>
      </trkpt>
      <trkpt lat="45.05782" lon="6.0358">
        <ele>744</ele>
        <time>2016-05-15T06:57:18Z</time>
      </trkpt>
      <trkpt lat="45.05776" lon="6.03573">
        <ele>744</ele>
        <time>2016-05-15T06:57:19Z</time>
      </trkpt>
      <trkpt lat="45.0577" lon="6.03566">
        <ele>744</ele>
        <time>2016-05-15T06:57:20Z</time>
      </trkpt>
      <trkpt lat="45.05764" lon="6.0356">
        <ele>742</ele>
        <time>2016-05-15T06:57:21Z</time>
      </trkpt>
      <trkpt lat="45.05758" lon="6.03553">
        <ele>742</ele>
        <time>2016-05-15T06:57:22Z</time>
      </trkpt>
      <trkpt lat="45.05752" lon="6.03546">
        <ele>742</ele>
        <time>2016-05-15T06:57:23Z</time>
      </trkpt>
      <trkpt lat="45.05746" lon="6.03538">
        <ele>742</ele>
        <time>2016-05-15T06:57:24Z</time>
      </trkpt>
      <trkpt lat="45.0574" lon="6.03531">
        <ele>740</ele>
        <time>2016-05-15T06:57:25Z</time>
      </trkpt>
      <trkpt lat="45.05734" lon="6.03523">
        <ele>740</ele>
        <time>2016-05-15T06:57:26Z</time>
      </trkpt>
      <trkpt lat="45.05728" lon="6.03515">
        <ele>740</ele>
        <time>2016-05-15T06:57:27Z</time>
      </trkpt>
      <trkpt lat="45.05722" lon="6.03507">
        <ele>740</ele>
        <time>2016-05-15T06:57:28Z</time>
      </trkpt>
      <trkpt lat="45.05715" lon="6.035">
        <ele>740</ele>
        <time>2016-05-15T06:57:29Z</time>
      </trkpt>
      <trkpt lat="45.05709" lon="6.03493">
        <ele>740</ele>
        <time>2016-05-15T06:57:30Z</time>
      </trkpt>
      <trkpt lat="45.05703" lon="6.03485">
        <ele>740</ele>
        <time>2016-05-15T06:57:31Z</time>
      </trkpt>
      <trkpt lat="45.05696" lon="6.03478">
        <ele>740</ele>
        <time>2016-05-15T06:57:32Z</time>
      </trkpt>
      <trkpt lat="45.05689" lon="6.0347">
        <ele>740</ele>
        <time>2016-05-15T06:57:33Z</time>
      </trkpt>
      <trkpt lat="45.05682" lon="6.03464">
        <ele>740</ele>
        <time>2016-05-15T06:57:34Z</time>
      </trkpt>
      <trkpt lat="45.05676" lon="6.03457">
        <ele>740</ele>
        <time>2016-05-15T06:57:35Z</time>
      </trkpt>
      <trkpt lat="45.05669" lon="6.0345">
        <ele>740</ele>
        <time>2016-05-15T06:57:36Z</time>
      </trkpt>
      <trkpt lat="45.05662" lon="6.03444">
        <ele>740</ele>
        <time>2016-05-15T06:57:37Z</time>
      </trkpt>
      <trkpt lat="45.05655" lon="6.03437">
        <ele>740</ele>
        <time>2016-05-15T06:57:38Z</time>
      </trkpt>
      <trkpt lat="45.05648" lon="6.03431">
        <ele>740</ele>
        <time>2016-05-15T06:57:39Z</time>
      </trkpt>
      <trkpt lat="45.05642" lon="6.03424">
        <ele>739</ele>
        <time>2016-05-15T06:57:40Z</time>
      </trkpt>
      <trkpt lat="45.05636" lon="6.03418">
        <ele>739</ele>
        <time>2016-05-15T06:57:41Z</time>
      </trkpt>
      <trkpt lat="45.0563" lon="6.03411">
        <ele>739</ele>
        <time>2016-05-15T06:57:42Z</time>
      </trkpt>
      <trkpt lat="45.05624" lon="6.03405">
        <ele>739</ele>
        <time>2016-05-15T06:57:43Z</time>
      </trkpt>
      <trkpt lat="45.05613" lon="6.03393">
        <ele>739</ele>
        <time>2016-05-15T06:57:45Z</time>
      </trkpt>
      <trkpt lat="45.05608" lon="6.03387">
        <ele>739</ele>
        <time>2016-05-15T06:57:46Z</time>
      </trkpt>
      <trkpt lat="45.05603" lon="6.03382">
        <ele>739</ele>
        <time>2016-05-15T06:57:47Z</time>
      </trkpt>
      <trkpt lat="45.05598" lon="6.03378">
        <ele>739</ele>
        <time>2016-05-15T06:57:48Z</time>
      </trkpt>
      <trkpt lat="45.05592" lon="6.03376">
        <ele>739</ele>
        <time>2016-05-15T06:57:49Z</time>
      </trkpt>
      <trkpt lat="45.05586" lon="6.03378">
        <ele>739</ele>
        <time>2016-05-15T06:57:50Z</time>
      </trkpt>
      <trkpt lat="45.05581" lon="6.03383">
        <ele>739</ele>
        <time>2016-05-15T06:57:51Z</time>
      </trkpt>
      <trkpt lat="45.05576" lon="6.0339">
        <ele>739</ele>
        <time>2016-05-15T06:57:52Z</time>
      </trkpt>
      <trkpt lat="45.05567" lon="6.03406">
        <ele>739</ele>
        <time>2016-05-15T06:57:54Z</time>
      </trkpt>
      <trkpt lat="45.05562" lon="6.03415">
        <ele>739</ele>
        <time>2016-05-15T06:57:55Z</time>
      </trkpt>
      <trkpt lat="45.05553" lon="6.03431">
        <ele>739</ele>
        <time>2016-05-15T06:57:57Z</time>
      </trkpt>
      <trkpt lat="45.05548" lon="6.03439">
        <ele>739</ele>
        <time>2016-05-15T06:57:58Z</time>
      </trkpt>
      <trkpt lat="45.05543" lon="6.03446">
        <ele>739</ele>
        <time>2016-05-15T06:57:59Z</time>
      </trkpt>
      <trkpt lat="45.05538" lon="6.03453">
        <ele>739</ele>
        <time>2016-05-15T06:58:00Z</time>
      </trkpt>
      <trkpt lat="45.05533" lon="6.0346">
        <ele>736</ele>
        <time>2016-05-15T06:58:01Z</time>
      </trkpt>
      <trkpt lat="45.05529" lon="6.03468">
        <ele>736</ele>
        <time>2016-05-15T06:58:02Z</time>
      </trkpt>
      <trkpt lat="45.05524" lon="6.03475">
        <ele>736</ele>
        <time>2016-05-15T06:58:03Z</time>
      </trkpt>
      <trkpt lat="45.05519" lon="6.03482">
        <ele>736</ele>
        <time>2016-05-15T06:58:04Z</time>
      </trkpt>
      <trkpt lat="45.05514" lon="6.03489">
        <ele>736</ele>
        <time>2016-05-15T06:58:05Z</time>
      </trkpt>
      <trkpt lat="45.05509" lon="6.03496">
        <ele>737</ele>
        <time>2016-05-15T06:58:06Z</time>
      </trkpt>
      <trkpt lat="45.05504" lon="6.03502">
        <ele>737</ele>
        <time>2016-05-15T06:58:07Z</time>
      </trkpt>
      <trkpt lat="45.05499" lon="6.03509">
        <ele>737</ele>
        <time>2016-05-15T06:58:08Z</time>
      </trkpt>
      <trkpt lat="45.05494" lon="6.03515">
        <ele>737</ele>
        <time>2016-05-15T06:58:09Z</time>
      </trkpt>
      <trkpt lat="45.05489" lon="6.03521">
        <ele>737</ele>
        <time>2016-05-15T06:58:10Z</time>
      </trkpt>
      <trkpt lat="45.05484" lon="6.03527">
        <ele>737</ele>
        <time>2016-05-15T06:58:11Z</time>
      </trkpt>
      <trkpt lat="45.05479" lon="6.03532">
        <ele>737</ele>
        <time>2016-05-15T06:58:12Z</time>
      </trkpt>
      <trkpt lat="45.05473" lon="6.03536">
        <ele>737</ele>
        <time>2016-05-15T06:58:13Z</time>
      </trkpt>
      <trkpt lat="45.05466" lon="6.03538">
        <ele>737</ele>
        <time>2016-05-15T06:58:14Z</time>
      </trkpt>
      <trkpt lat="45.0546" lon="6.03539">
        <ele>737</ele>
        <time>2016-05-15T06:58:15Z</time>
      </trkpt>
      <trkpt lat="45.05452" lon="6.0354">
        <ele>737</ele>
        <time>2016-05-15T06:58:16Z</time>
      </trkpt>
      <trkpt lat="45.05445" lon="6.03539">
        <ele>737</ele>
        <time>2016-05-15T06:58:17Z</time>
      </trkpt>
      <trkpt lat="45.05439" lon="6.03538">
        <ele>737</ele>
        <time>2016-05-15T06:58:18Z</time>
      </trkpt>
      <trkpt lat="45.05432" lon="6.03537">
        <ele>737</ele>
        <time>2016-05-15T06:58:19Z</time>
      </trkpt>
      <trkpt lat="45.05425" lon="6.03535">
        <ele>738</ele>
        <time>2016-05-15T06:58:20Z</time>
      </trkpt>
      <trkpt lat="45.05412" lon="6.03533">
        <ele>738</ele>
        <time>2016-05-15T06:58:22Z</time>
      </trkpt>
      <trkpt lat="45.05399" lon="6.03529">
        <ele>738</ele>
        <time>2016-05-15T06:58:24Z</time>
      </trkpt>
      <trkpt lat="45.05392" lon="6.03527">
        <ele>738</ele>
        <time>2016-05-15T06:58:25Z</time>
      </trkpt>
      <trkpt lat="45.05385" lon="6.03525">
        <ele>738</ele>
        <time>2016-05-15T06:58:26Z</time>
      </trkpt>
      <trkpt lat="45.05378" lon="6.03523">
        <ele>738</ele>
        <time>2016-05-15T06:58:27Z</time>
      </trkpt>
      <trkpt lat="45.05371" lon="6.03521">
        <ele>738</ele>
        <time>2016-05-15T06:58:28Z</time>
      </trkpt>
      <trkpt lat="45.05364" lon="6.03519">
        <ele>738</ele>
        <time>2016-05-15T06:58:29Z</time>
      </trkpt>
      <trkpt lat="45.0535" lon="6.03514">
        <ele>738</ele>
        <time>2016-05-15T06:58:31Z</time>
      </trkpt>
      <trkpt lat="45.05343" lon="6.03512">
        <ele>738</ele>
        <time>2016-05-15T06:58:32Z</time>
      </trkpt>
      <trkpt lat="45.05336" lon="6.0351">
        <ele>738</ele>
        <time>2016-05-15T06:58:33Z</time>
      </trkpt>
      <trkpt lat="45.05329" lon="6.03507">
        <ele>738</ele>
        <time>2016-05-15T06:58:34Z</time>
      </trkpt>
      <trkpt lat="45.05323" lon="6.03506">
        <ele>738</ele>
        <time>2016-05-15T06:58:35Z</time>
      </trkpt>
      <trkpt lat="45.05316" lon="6.03505">
        <ele>738</ele>
        <time>2016-05-15T06:58:36Z</time>
      </trkpt>
      <trkpt lat="45.05309" lon="6.03505">
        <ele>738</ele>
        <time>2016-05-15T06:58:37Z</time>
      </trkpt>
      <trkpt lat="45.05302" lon="6.03507">
        <ele>738</ele>
        <time>2016-05-15T06:58:38Z</time>
      </trkpt>
      <trkpt lat="45.05296" lon="6.0351">
        <ele>738</ele>
        <time>2016-05-15T06:58:39Z</time>
      </trkpt>
      <trkpt lat="45.0529" lon="6.03515">
        <ele>737</ele>
        <time>2016-05-15T06:58:40Z</time>
      </trkpt>
      <trkpt lat="45.05285" lon="6.03521">
        <ele>737</ele>
        <time>2016-05-15T06:58:41Z</time>
      </trkpt>
      <trkpt lat="45.0528" lon="6.03528">
        <ele>737</ele>
        <time>2016-05-15T06:58:42Z</time>
      </trkpt>
      <trkpt lat="45.05275" lon="6.03535">
        <ele>737</ele>
        <time>2016-05-15T06:58:43Z</time>
      </trkpt>
      <trkpt lat="45.0527" lon="6.03542">
        <ele>737</ele>
        <time>2016-05-15T06:58:44Z</time>
      </trkpt>
      <trkpt lat="45.05266" lon="6.03549">
        <ele>737</ele>
        <time>2016-05-15T06:58:45Z</time>
      </trkpt>
      <trkpt lat="45.05261" lon="6.03556">
        <ele>737</ele>
        <time>2016-05-15T06:58:46Z</time>
      </trkpt>
      <trkpt lat="45.05257" lon="6.03564">
        <ele>737</ele>
        <time>2016-05-15T06:58:47Z</time>
      </trkpt>
      <trkpt lat="45.05254" lon="6.03573">
        <ele>737</ele>
        <time>2016-05-15T06:58:48Z</time>
      </trkpt>
      <trkpt lat="45.05252" lon="6.03582">
        <ele>737</ele>
        <time>2016-05-15T06:58:49Z</time>
      </trkpt>
      <trkpt lat="45.05251" lon="6.03591">
        <ele>737</ele>
        <time>2016-05-15T06:58:50Z</time>
      </trkpt>
      <trkpt lat="45.05249" lon="6.036">
        <ele>737</ele>
        <time>2016-05-15T06:58:51Z</time>
      </trkpt>
      <trkpt lat="45.05247" lon="6.0361">
        <ele>737</ele>
        <time>2016-05-15T06:58:52Z</time>
      </trkpt>
      <trkpt lat="45.05244" lon="6.03629">
        <ele>737</ele>
        <time>2016-05-15T06:58:54Z</time>
      </trkpt>
      <trkpt lat="45.05243" lon="6.03638">
        <ele>737</ele>
        <time>2016-05-15T06:58:55Z</time>
      </trkpt>
      <trkpt lat="45.05241" lon="6.03648">
        <ele>737</ele>
        <time>2016-05-15T06:58:56Z</time>
      </trkpt>
      <trkpt lat="45.0524" lon="6.03658">
        <ele>737</ele>
        <time>2016-05-15T06:58:57Z</time>
      </trkpt>
      <trkpt lat="45.05236" lon="6.03678">
        <ele>737</ele>
        <time>2016-05-15T06:58:59Z</time>
      </trkpt>
      <trkpt lat="45.05234" lon="6.03687">
        <ele>737</ele>
        <time>2016-05-15T06:59:00Z</time>
      </trkpt>
      <trkpt lat="45.05232" lon="6.03697">
        <ele>737</ele>
        <time>2016-05-15T06:59:01Z</time>
      </trkpt>
      <trkpt lat="45.0523" lon="6.03707">
        <ele>737</ele>
        <time>2016-05-15T06:59:02Z</time>
      </trkpt>
      <trkpt lat="45.05228" lon="6.03716">
        <ele>737</ele>
        <time>2016-05-15T06:59:03Z</time>
      </trkpt>
      <trkpt lat="45.05227" lon="6.03726">
        <ele>737</ele>
        <time>2016-05-15T06:59:04Z</time>
      </trkpt>
      <trkpt lat="45.05225" lon="6.03735">
        <ele>737</ele>
        <time>2016-05-15T06:59:05Z</time>
      </trkpt>
      <trkpt lat="45.05224" lon="6.03744">
        <ele>737</ele>
        <time>2016-05-15T06:59:06Z</time>
      </trkpt>
      <trkpt lat="45.05222" lon="6.03754">
        <ele>737</ele>
        <time>2016-05-15T06:59:07Z</time>
      </trkpt>
      <trkpt lat="45.0522" lon="6.03763">
        <ele>737</ele>
        <time>2016-05-15T06:59:08Z</time>
      </trkpt>
      <trkpt lat="45.05218" lon="6.03772">
        <ele>737</ele>
        <time>2016-05-15T06:59:09Z</time>
      </trkpt>
      <trkpt lat="45.05217" lon="6.03781">
        <ele>739</ele>
        <time>2016-05-15T06:59:10Z</time>
      </trkpt>
      <trkpt lat="45.05215" lon="6.0379">
        <ele>739</ele>
        <time>2016-05-15T06:59:11Z</time>
      </trkpt>
      <trkpt lat="45.05213" lon="6.03799">
        <ele>739</ele>
        <time>2016-05-15T06:59:12Z</time>
      </trkpt>
      <trkpt lat="45.05211" lon="6.03808">
        <ele>739</ele>
        <time>2016-05-15T06:59:13Z</time>
      </trkpt>
      <trkpt lat="45.05209" lon="6.03817">
        <ele>739</ele>
        <time>2016-05-15T06:59:14Z</time>
      </trkpt>
      <trkpt lat="45.05206" lon="6.03825">
        <ele>739</ele>
        <time>2016-05-15T06:59:15Z</time>
      </trkpt>
      <trkpt lat="45.05201" lon="6.0383">
        <ele>739</ele>
        <time>2016-05-15T06:59:16Z</time>
      </trkpt>
      <trkpt lat="45.05195" lon="6.03832">
        <ele>739</ele>
        <time>2016-05-15T06:59:17Z</time>
      </trkpt>
      <trkpt lat="45.05189" lon="6.0383">
        <ele>739</ele>
        <time>2016-05-15T06:59:18Z</time>
      </trkpt>
      <trkpt lat="45.05183" lon="6.03826">
        <ele>739</ele>
        <time>2016-05-15T06:59:19Z</time>
      </trkpt>
      <trkpt lat="45.05177" lon="6.03822">
        <ele>739</ele>
        <time>2016-05-15T06:59:20Z</time>
      </trkpt>
      <trkpt lat="45.05171" lon="6.03818">
        <ele>738</ele>
        <time>2016-05-15T06:59:21Z</time>
      </trkpt>
      <trkpt lat="45.05165" lon="6.03814">
        <ele>738</ele>
        <time>2016-05-15T06:59:22Z</time>
      </trkpt>
      <trkpt lat="45.05152" lon="6.03807">
        <ele>738</ele>
        <time>2016-05-15T06:59:24Z</time>
      </trkpt>
      <trkpt lat="45.05145" lon="6.03803">
        <ele>738</ele>
        <time>2016-05-15T06:59:25Z</time>
      </trkpt>
      <trkpt lat="45.05138" lon="6.03799">
        <ele>738</ele>
        <time>2016-05-15T06:59:26Z</time>
      </trkpt>
      <trkpt lat="45.05132" lon="6.03796">
        <ele>738</ele>
        <time>2016-05-15T06:59:27Z</time>
      </trkpt>
      <trkpt lat="45.05126" lon="6.03792">
        <ele>738</ele>
        <time>2016-05-15T06:59:28Z</time>
      </trkpt>
      <trkpt lat="45.05119" lon="6.03788">
        <ele>738</ele>
        <time>2016-05-15T06:59:29Z</time>
      </trkpt>
      <trkpt lat="45.05113" lon="6.03784">
        <ele>738</ele>
        <time>2016-05-15T06:59:30Z</time>
      </trkpt>
      <trkpt lat="45.05106" lon="6.0378">
        <ele>738</ele>
        <time>2016-05-15T06:59:31Z</time>
      </trkpt>
      <trkpt lat="45.05099" lon="6.03776">
        <ele>738</ele>
        <time>2016-05-15T06:59:32Z</time>
      </trkpt>
      <trkpt lat="45.05086" lon="6.03768">
        <ele>738</ele>
        <time>2016-05-15T06:59:34Z</time>
      </trkpt>
      <trkpt lat="45.05079" lon="6.03764">
        <ele>738</ele>
        <time>2016-05-15T06:59:35Z</time>
      </trkpt>
      <trkpt lat="45.05072" lon="6.0376">
        <ele>738</ele>
        <time>2016-05-15T06:59:36Z</time>
      </trkpt>
      <trkpt lat="45.05059" lon="6.03752">
        <ele>738</ele>
        <time>2016-05-15T06:59:38Z</time>
      </trkpt>
      <trkpt lat="45.05052" lon="6.03748">
        <ele>738</ele>
        <time>2016-05-15T06:59:39Z</time>
      </trkpt>
      <trkpt lat="45.0504" lon="6.0374">
        <ele>737</ele>
        <time>2016-05-15T06:59:41Z</time>
      </trkpt>
      <trkpt lat="45.05033" lon="6.03736">
        <ele>737</ele>
        <time>2016-05-15T06:59:42Z</time>
      </trkpt>
      <trkpt lat="45.05019" lon="6.03729">
        <ele>737</ele>
        <time>2016-05-15T06:59:44Z</time>
      </trkpt>
      <trkpt lat="45.05005" lon="6.03722">
        <ele>737</ele>
        <time>2016-05-15T06:59:46Z</time>
      </trkpt>
      <trkpt lat="45.04992" lon="6.03715">
        <ele>737</ele>
        <time>2016-05-15T06:59:48Z</time>
      </trkpt>
      <trkpt lat="45.04979" lon="6.03708">
        <ele>738</ele>
        <time>2016-05-15T06:59:50Z</time>
      </trkpt>
      <trkpt lat="45.04967" lon="6.037">
        <ele>738</ele>
        <time>2016-05-15T06:59:52Z</time>
      </trkpt>
      <trkpt lat="45.04954" lon="6.03692">
        <ele>738</ele>
        <time>2016-05-15T06:59:54Z</time>
      </trkpt>
      <trkpt lat="45.04942" lon="6.03683">
        <ele>738</ele>
        <time>2016-05-15T06:59:56Z</time>
      </trkpt>
      <trkpt lat="45.0493" lon="6.03674">
        <ele>738</ele>
        <time>2016-05-15T06:59:58Z</time>
      </trkpt>
      <trkpt lat="45.04921" lon="6.03664">
        <ele>738</ele>
        <time>2016-05-15T07:00:00Z</time>
      </trkpt>
      <trkpt lat="45.04909" lon="6.03658">
        <ele>738</ele>
        <time>2016-05-15T07:00:02Z</time>
      </trkpt>
      <trkpt lat="45.04903" lon="6.0366">
        <ele>738</ele>
        <time>2016-05-15T07:00:03Z</time>
      </trkpt>
      <trkpt lat="45.04896" lon="6.03662">
        <ele>738</ele>
        <time>2016-05-15T07:00:04Z</time>
      </trkpt>
      <trkpt lat="45.0489" lon="6.03664">
        <ele>738</ele>
        <time>2016-05-15T07:00:05Z</time>
      </trkpt>
      <trkpt lat="45.04884" lon="6.03666">
        <ele>738</ele>
        <time>2016-05-15T07:00:06Z</time>
      </trkpt>
      <trkpt lat="45.04877" lon="6.03668">
        <ele>738</ele>
        <time>2016-05-15T07:00:07Z</time>
      </trkpt>
      <trkpt lat="45.04871" lon="6.03671">
        <ele>738</ele>
        <time>2016-05-15T07:00:08Z</time>
      </trkpt>
      <trkpt lat="45.04864" lon="6.03673">
        <ele>738</ele>
        <time>2016-05-15T07:00:09Z</time>
      </trkpt>
      <trkpt lat="45.04858" lon="6.03675">
        <ele>738</ele>
        <time>2016-05-15T07:00:10Z</time>
      </trkpt>
      <trkpt lat="45.04844" lon="6.0368">
        <ele>738</ele>
        <time>2016-05-15T07:00:12Z</time>
      </trkpt>
      <trkpt lat="45.04837" lon="6.03683">
        <ele>738</ele>
        <time>2016-05-15T07:00:13Z</time>
      </trkpt>
      <trkpt lat="45.0483" lon="6.03685">
        <ele>738</ele>
        <time>2016-05-15T07:00:14Z</time>
      </trkpt>
      <trkpt lat="45.04823" lon="6.03687">
        <ele>738</ele>
        <time>2016-05-15T07:00:15Z</time>
      </trkpt>
      <trkpt lat="45.04816" lon="6.0369">
        <ele>738</ele>
        <time>2016-05-15T07:00:16Z</time>
      </trkpt>
      <trkpt lat="45.04809" lon="6.03692">
        <ele>738</ele>
        <time>2016-05-15T07:00:17Z</time>
      </trkpt>
      <trkpt lat="45.04803" lon="6.03695">
        <ele>738</ele>
        <time>2016-05-15T07:00:18Z</time>
      </trkpt>
      <trkpt lat="45.04798" lon="6.037">
        <ele>738</ele>
        <time>2016-05-15T07:00:19Z</time>
      </trkpt>
      <trkpt lat="45.04787" lon="6.03707">
        <ele>737</ele>
        <time>2016-05-15T07:00:21Z</time>
      </trkpt>
      <trkpt lat="45.04774" lon="6.03714">
        <ele>737</ele>
        <time>2016-05-15T07:00:23Z</time>
      </trkpt>
      <trkpt lat="45.04761" lon="6.03721">
        <ele>737</ele>
        <time>2016-05-15T07:00:25Z</time>
      </trkpt>
      <trkpt lat="45.04748" lon="6.03728">
        <ele>737</ele>
        <time>2016-05-15T07:00:27Z</time>
      </trkpt>
      <trkpt lat="45.04742" lon="6.03731">
        <ele>737</ele>
        <time>2016-05-15T07:00:28Z</time>
      </trkpt>
      <trkpt lat="45.04729" lon="6.03739">
        <ele>737</ele>
        <time>2016-05-15T07:00:30Z</time>
      </trkpt>
      <trkpt lat="45.04716" lon="6.03746">
        <ele>737</ele>
        <time>2016-05-15T07:00:32Z</time>
      </trkpt>
      <trkpt lat="45.0471" lon="6.0375">
        <ele>737</ele>
        <time>2016-05-15T07:00:33Z</time>
      </trkpt>
      <trkpt lat="45.04703" lon="6.03753">
        <ele>737</ele>
        <time>2016-05-15T07:00:34Z</time>
      </trkpt>
      <trkpt lat="45.04697" lon="6.03757">
        <ele>737</ele>
        <time>2016-05-15T07:00:35Z</time>
      </trkpt>
      <trkpt lat="45.04691" lon="6.03762">
        <ele>737</ele>
        <time>2016-05-15T07:00:36Z</time>
      </trkpt>
      <trkpt lat="45.04685" lon="6.03767">
        <ele>737</ele>
        <time>2016-05-15T07:00:37Z</time>
      </trkpt>
      <trkpt lat="45.04674" lon="6.03778">
        <ele>737</ele>
        <time>2016-05-15T07:00:39Z</time>
      </trkpt>
      <trkpt lat="45.04669" lon="6.03785">
        <ele>737</ele>
        <time>2016-05-15T07:00:40Z</time>
      </trkpt>
      <trkpt lat="45.04663" lon="6.03791">
        <ele>738</ele>
        <time>2016-05-15T07:00:41Z</time>
      </trkpt>
      <trkpt lat="45.04658" lon="6.03798">
        <ele>738</ele>
        <time>2016-05-15T07:00:42Z</time>
      </trkpt>
      <trkpt lat="45.04653" lon="6.03805">
        <ele>738</ele>
        <time>2016-05-15T07:00:43Z</time>
      </trkpt>
      <trkpt lat="45.04648" lon="6.03812">
        <ele>738</ele>
        <time>2016-05-15T07:00:44Z</time>
      </trkpt>
      <trkpt lat="45.04643" lon="6.03819">
        <ele>738</ele>
        <time>2016-05-15T07:00:45Z</time>
      </trkpt>
      <trkpt lat="45.04638" lon="6.03826">
        <ele>738</ele>
        <time>2016-05-15T07:00:46Z</time>
      </trkpt>
      <trkpt lat="45.04634" lon="6.03834">
        <ele>738</ele>
        <time>2016-05-15T07:00:47Z</time>
      </trkpt>
      <trkpt lat="45.0463" lon="6.03842">
        <ele>738</ele>
        <time>2016-05-15T07:00:48Z</time>
      </trkpt>
      <trkpt lat="45.04626" lon="6.03851">
        <ele>738</ele>
        <time>2016-05-15T07:00:49Z</time>
      </trkpt>
      <trkpt lat="45.04622" lon="6.03859">
        <ele>738</ele>
        <time>2016-05-15T07:00:50Z</time>
      </trkpt>
      <trkpt lat="45.04617" lon="6.03867">
        <ele>738</ele>
        <time>2016-05-15T07:00:51Z</time>
      </trkpt>
      <trkpt lat="45.04613" lon="6.03875">
        <ele>738</ele>
        <time>2016-05-15T07:00:52Z</time>
      </trkpt>
      <trkpt lat="45.04608" lon="6.03883">
        <ele>738</ele>
        <time>2016-05-15T07:00:53Z</time>
      </trkpt>
      <trkpt lat="45.04603" lon="6.0389">
        <ele>738</ele>
        <time>2016-05-15T07:00:54Z</time>
      </trkpt>
      <trkpt lat="45.04599" lon="6.03898">
        <ele>738</ele>
        <time>2016-05-15T07:00:55Z</time>
      </trkpt>
      <trkpt lat="45.04594" lon="6.03905">
        <ele>738</ele>
        <time>2016-05-15T07:00:56Z</time>
      </trkpt>
      <trkpt lat="45.04589" lon="6.03913">
        <ele>738</ele>
        <time>2016-05-15T07:00:57Z</time>
      </trkpt>
      <trkpt lat="45.04579" lon="6.03927">
        <ele>738</ele>
        <time>2016-05-15T07:00:59Z</time>
      </trkpt>
      <trkpt lat="45.04574" lon="6.03934">
        <ele>736</ele>
        <time>2016-05-15T07:01:00Z</time>
      </trkpt>
      <trkpt lat="45.0457" lon="6.03941">
        <ele>736</ele>
        <time>2016-05-15T07:01:01Z</time>
      </trkpt>
      <trkpt lat="45.04565" lon="6.03948">
        <ele>736</ele>
        <time>2016-05-15T07:01:02Z</time>
      </trkpt>
      <trkpt lat="45.0456" lon="6.03955">
        <ele>736</ele>
        <time>2016-05-15T07:01:03Z</time>
      </trkpt>
      <trkpt lat="45.04555" lon="6.03962">
        <ele>736</ele>
        <time>2016-05-15T07:01:04Z</time>
      </trkpt>
      <trkpt lat="45.0455" lon="6.03969">
        <ele>736</ele>
        <time>2016-05-15T07:01:05Z</time>
      </trkpt>
      <trkpt lat="45.04545" lon="6.03976">
        <ele>736</ele>
        <time>2016-05-15T07:01:06Z</time>
      </trkpt>
      <trkpt lat="45.0454" lon="6.03983">
        <ele>736</ele>
        <time>2016-05-15T07:01:07Z</time>
      </trkpt>
      <trkpt lat="45.04535" lon="6.0399">
        <ele>736</ele>
        <time>2016-05-15T07:01:08Z</time>
      </trkpt>
      <trkpt lat="45.04529" lon="6.03996">
        <ele>736</ele>
        <time>2016-05-15T07:01:09Z</time>
      </trkpt>
      <trkpt lat="45.04524" lon="6.04003">
        <ele>738</ele>
        <time>2016-05-15T07:01:10Z</time>
      </trkpt>
      <trkpt lat="45.04518" lon="6.04009">
        <ele>738</ele>
        <time>2016-05-15T07:01:11Z</time>
      </trkpt>
      <trkpt lat="45.04513" lon="6.04016">
        <ele>738</ele>
        <time>2016-05-15T07:01:12Z</time>
      </trkpt>
      <trkpt lat="45.04508" lon="6.04022">
        <ele>738</ele>
        <time>2016-05-15T07:01:13Z</time>
      </trkpt>
      <trkpt lat="45.04502" lon="6.04029">
        <ele>738</ele>
        <time>2016-05-15T07:01:14Z</time>
      </trkpt>
      <trkpt lat="45.04496" lon="6.04036">
        <ele>738</ele>
        <time>2016-05-15T07:01:15Z</time>
      </trkpt>
      <trkpt lat="45.04491" lon="6.04043">
        <ele>738</ele>
        <time>2016-05-15T07:01:16Z</time>
      </trkpt>
      <trkpt lat="45.04486" lon="6.0405">
        <ele>738</ele>
        <time>2016-05-15T07:01:17Z</time>
      </trkpt>
      <trkpt lat="45.0448" lon="6.04057">
        <ele>738</ele>
        <time>2016-05-15T07:01:18Z</time>
      </trkpt>
      <trkpt lat="45.04475" lon="6.04064">
        <ele>738</ele>
        <time>2016-05-15T07:01:19Z</time>
      </trkpt>
      <trkpt lat="45.04469" lon="6.04071">
        <ele>738</ele>
        <time>2016-05-15T07:01:20Z</time>
      </trkpt>
      <trkpt lat="45.04465" lon="6.04079">
        <ele>738</ele>
        <time>2016-05-15T07:01:21Z</time>
      </trkpt>
      <trkpt lat="45.0446" lon="6.04087">
        <ele>738</ele>
        <time>2016-05-15T07:01:22Z</time>
      </trkpt>
      <trkpt lat="45.04455" lon="6.04095">
        <ele>738</ele>
        <time>2016-05-15T07:01:23Z</time>
      </trkpt>
      <trkpt lat="45.04451" lon="6.04103">
        <ele>738</ele>
        <time>2016-05-15T07:01:24Z</time>
      </trkpt>
      <trkpt lat="45.04446" lon="6.04111">
        <ele>738</ele>
        <time>2016-05-15T07:01:25Z</time>
      </trkpt>
      <trkpt lat="45.04442" lon="6.04119">
        <ele>738</ele>
        <time>2016-05-15T07:01:26Z</time>
      </trkpt>
      <trkpt lat="45.04437" lon="6.04127">
        <ele>738</ele>
        <time>2016-05-15T07:01:27Z</time>
      </trkpt>
      <trkpt lat="45.04432" lon="6.04134">
        <ele>738</ele>
        <time>2016-05-15T07:01:28Z</time>
      </trkpt>
      <trkpt lat="45.04428" lon="6.04141">
        <ele>738</ele>
        <time>2016-05-15T07:01:29Z</time>
      </trkpt>
      <trkpt lat="45.04423" lon="6.04149">
        <ele>738</ele>
        <time>2016-05-15T07:01:30Z</time>
      </trkpt>
      <trkpt lat="45.04418" lon="6.04156">
        <ele>738</ele>
        <time>2016-05-15T07:01:31Z</time>
      </trkpt>
      <trkpt lat="45.04412" lon="6.04163">
        <ele>738</ele>
        <time>2016-05-15T07:01:32Z</time>
      </trkpt>
      <trkpt lat="45.04406" lon="6.04168">
        <ele>738</ele>
        <time>2016-05-15T07:01:33Z</time>
      </trkpt>
      <trkpt lat="45.044" lon="6.04173">
        <ele>738</ele>
        <time>2016-05-15T07:01:34Z</time>
      </trkpt>
      <trkpt lat="45.04393" lon="6.04178">
        <ele>738</ele>
        <time>2016-05-15T07:01:35Z</time>
      </trkpt>
      <trkpt lat="45.04387" lon="6.04182">
        <ele>738</ele>
        <time>2016-05-15T07:01:36Z</time>
      </trkpt>
      <trkpt lat="45.0438" lon="6.04186">
        <ele>738</ele>
        <time>2016-05-15T07:01:37Z</time>
      </trkpt>
      <trkpt lat="45.04374" lon="6.0419">
        <ele>738</ele>
        <time>2016-05-15T07:01:38Z</time>
      </trkpt>
      <trkpt lat="45.0436" lon="6.04199">
        <ele>739</ele>
        <time>2016-05-15T07:01:40Z</time>
      </trkpt>
      <trkpt lat="45.04347" lon="6.04208">
        <ele>739</ele>
        <time>2016-05-15T07:01:42Z</time>
      </trkpt>
      <trkpt lat="45.0434" lon="6.04212">
        <ele>739</ele>
        <time>2016-05-15T07:01:43Z</time>
      </trkpt>
      <trkpt lat="45.04334" lon="6.04216">
        <ele>739</ele>
        <time>2016-05-15T07:01:44Z</time>
      </trkpt>
      <trkpt lat="45.04327" lon="6.0422">
        <ele>739</ele>
        <time>2016-05-15T07:01:45Z</time>
      </trkpt>
      <trkpt lat="45.0432" lon="6.04224">
        <ele>739</ele>
        <time>2016-05-15T07:01:46Z</time>
      </trkpt>
      <trkpt lat="45.04313" lon="6.04228">
        <ele>739</ele>
        <time>2016-05-15T07:01:47Z</time>
      </trkpt>
      <trkpt lat="45.04307" lon="6.04232">
        <ele>739</ele>
        <time>2016-05-15T07:01:48Z</time>
      </trkpt>
      <trkpt lat="45.043" lon="6.04236">
        <ele>739</ele>
        <time>2016-05-15T07:01:49Z</time>
      </trkpt>
      <trkpt lat="45.04293" lon="6.04241">
        <ele>739</ele>
        <time>2016-05-15T07:01:50Z</time>
      </trkpt>
      <trkpt lat="45.04287" lon="6.04245">
        <ele>740</ele>
        <time>2016-05-15T07:01:51Z</time>
      </trkpt>
      <trkpt lat="45.0428" lon="6.04248">
        <ele>740</ele>
        <time>2016-05-15T07:01:52Z</time>
      </trkpt>
      <trkpt lat="45.04274" lon="6.04252">
        <ele>740</ele>
        <time>2016-05-15T07:01:53Z</time>
      </trkpt>
      <trkpt lat="45.04267" lon="6.04256">
        <ele>740</ele>
        <time>2016-05-15T07:01:54Z</time>
      </trkpt>
      <trkpt lat="45.04261" lon="6.04258">
        <ele>740</ele>
        <time>2016-05-15T07:01:55Z</time>
      </trkpt>
      <trkpt lat="45.04254" lon="6.04261">
        <ele>740</ele>
        <time>2016-05-15T07:01:56Z</time>
      </trkpt>
      <trkpt lat="45.04248" lon="6.04263">
        <ele>740</ele>
        <time>2016-05-15T07:01:57Z</time>
      </trkpt>
      <trkpt lat="45.04241" lon="6.04264">
        <ele>740</ele>
        <time>2016-05-15T07:01:58Z</time>
      </trkpt>
      <trkpt lat="45.04235" lon="6.04265">
        <ele>740</ele>
        <time>2016-05-15T07:01:59Z</time>
      </trkpt>
      <trkpt lat="45.04229" lon="6.04266">
        <ele>739</ele>
        <time>2016-05-15T07:02:00Z</time>
      </trkpt>
      <trkpt lat="45.04222" lon="6.04266">
        <ele>739</ele>
        <time>2016-05-15T07:02:01Z</time>
      </trkpt>
      <trkpt lat="45.04217" lon="6.04269">
        <ele>739</ele>
        <time>2016-05-15T07:02:02Z</time>
      </trkpt>
      <trkpt lat="45.04213" lon="6.04274">
        <ele>739</ele>
        <time>2016-05-15T07:02:03Z</time>
      </trkpt>
      <trkpt lat="45.04211" lon="6.04282">
        <ele>739</ele>
        <time>2016-05-15T07:02:04Z</time>
      </trkpt>
      <trkpt lat="45.04212" lon="6.0429">
        <ele>739</ele>
        <time>2016-05-15T07:02:05Z</time>
      </trkpt>
      <trkpt lat="45.04214" lon="6.04298">
        <ele>739</ele>
        <time>2016-05-15T07:02:06Z</time>
      </trkpt>
      <trkpt lat="45.04217" lon="6.04306">
        <ele>739</ele>
        <time>2016-05-15T07:02:07Z</time>
      </trkpt>
      <trkpt lat="45.0422" lon="6.04314">
        <ele>739</ele>
        <time>2016-05-15T07:02:08Z</time>
      </trkpt>
      <trkpt lat="45.04223" lon="6.04322">
        <ele>739</ele>
        <time>2016-05-15T07:02:09Z</time>
      </trkpt>
      <trkpt lat="45.04226" lon="6.0433">
        <ele>739</ele>
        <time>2016-05-15T07:02:10Z</time>
      </trkpt>
      <trkpt lat="45.04228" lon="6.04338">
        <ele>739</ele>
        <time>2016-05-15T07:02:11Z</time>
      </trkpt>
      <trkpt lat="45.04231" lon="6.04346">
        <ele>739</ele>
        <time>2016-05-15T07:02:12Z</time>
      </trkpt>
      <trkpt lat="45.04233" lon="6.04354">
        <ele>739</ele>
        <time>2016-05-15T07:02:13Z</time>
      </trkpt>
      <trkpt lat="45.04235" lon="6.04363">
        <ele>739</ele>
        <time>2016-05-15T07:02:14Z</time>
      </trkpt>
      <trkpt lat="45.04237" lon="6.04371">
        <ele>739</ele>
        <time>2016-05-15T07:02:15Z</time>
      </trkpt>
      <trkpt lat="45.04238" lon="6.04379">
        <ele>739</ele>
        <time>2016-05-15T07:02:16Z</time>
      </trkpt>
      <trkpt lat="45.04239" lon="6.04387">
        <ele>739</ele>
        <time>2016-05-15T07:02:17Z</time>
      </trkpt>
      <trkpt lat="45.0424" lon="6.04394">
        <ele>739</ele>
        <time>2016-05-15T07:02:18Z</time>
      </trkpt>
      <trkpt lat="45.0424" lon="6.04402">
        <ele>739</ele>
        <time>2016-05-15T07:02:19Z</time>
      </trkpt>
      <trkpt lat="45.04239" lon="6.04408">
        <ele>739</ele>
        <time>2016-05-15T07:02:20Z</time>
      </trkpt>
      <trkpt lat="45.04236" lon="6.04413">
        <ele>739</ele>
        <time>2016-05-15T07:02:21Z</time>
      </trkpt>
      <trkpt lat="45.04232" lon="6.04415">
        <ele>739</ele>
        <time>2016-05-15T07:02:22Z</time>
      </trkpt>
      <trkpt lat="45.04229" lon="6.04416">
        <ele>739</ele>
        <time>2016-05-15T07:02:23Z</time>
      </trkpt>
      <trkpt lat="45.04225" lon="6.04416">
        <ele>739</ele>
        <time>2016-05-15T07:02:24Z</time>
      </trkpt>
      <trkpt lat="45.04223" lon="6.04415">
        <ele>739</ele>
        <time>2016-05-15T07:02:25Z</time>
      </trkpt>
    </trkseg>
  </trk>
</gpx>